<?xml version="1.0" encoding="UTF-8" standalone="no" ?>
<gpx xmlns="http://www.topografix.com/GPX/1/1" xmlns:xsi="http://www.w3.org/2001/XMLSchema-instance" xsi:schemaLocation="http://www.topografix.com/GPX/1/1 http://www.topografix.com/GPX/1/1/gpx.xsd" version="1.1" creator="VisuGPX - https://www.visugpx.com">
  <metadata>
    <name>GR 70 Stevenson E4 La Bastide Puylaurent - Le Bleymard</name>
    <desc><![CDATA[GR 70 Stevenson E4 La Bastide Puylaurent - Le Bleymard]]></desc>
  </metadata>
  <trk>
    <name><![CDATA[2013-06-02 09:39:38 Chronomètre]]></name>
    <trkseg>
      <trkpt lat="44.57577" lon="3.89354">
        <ele>1045.57</ele>
        <time>2013-06-02T07:39:38Z</time>
      </trkpt>
      <trkpt lat="44.57577" lon="3.89354">
        <ele>1044.13</ele>
        <time>2013-06-02T07:39:41Z</time>
      </trkpt>
      <trkpt lat="44.57573" lon="3.89352">
        <ele>1043.65</ele>
        <time>2013-06-02T07:40:05Z</time>
      </trkpt>
      <trkpt lat="44.57573" lon="3.89352">
        <ele>1045.09</ele>
        <time>2013-06-02T07:40:11Z</time>
      </trkpt>
      <trkpt lat="44.57572" lon="3.89354">
        <ele>1044.13</ele>
        <time>2013-06-02T07:40:27Z</time>
      </trkpt>
      <trkpt lat="44.57574" lon="3.89351">
        <ele>1043.17</ele>
        <time>2013-06-02T07:40:46Z</time>
      </trkpt>
      <trkpt lat="44.57589" lon="3.89339">
        <ele>1044.13</ele>
        <time>2013-06-02T07:41:02Z</time>
      </trkpt>
      <trkpt lat="44.57613" lon="3.89339">
        <ele>1045.09</ele>
        <time>2013-06-02T07:41:22Z</time>
      </trkpt>
      <trkpt lat="44.57636" lon="3.89346">
        <ele>1045.57</ele>
        <time>2013-06-02T07:41:40Z</time>
      </trkpt>
      <trkpt lat="44.57659" lon="3.89342">
        <ele>1046.53</ele>
        <time>2013-06-02T07:41:58Z</time>
      </trkpt>
      <trkpt lat="44.5767" lon="3.89339">
        <ele>1045.09</ele>
        <time>2013-06-02T07:42:06Z</time>
      </trkpt>
      <trkpt lat="44.57687" lon="3.89337">
        <ele>1047.01</ele>
        <time>2013-06-02T07:42:17Z</time>
      </trkpt>
      <trkpt lat="44.57714" lon="3.89331">
        <ele>1048.94</ele>
        <time>2013-06-02T07:42:38Z</time>
      </trkpt>
      <trkpt lat="44.57736" lon="3.89337">
        <ele>1048.45</ele>
        <time>2013-06-02T07:42:54Z</time>
      </trkpt>
      <trkpt lat="44.57756" lon="3.89348">
        <ele>1047.97</ele>
        <time>2013-06-02T07:43:11Z</time>
      </trkpt>
      <trkpt lat="44.57764" lon="3.89355">
        <ele>1049.42</ele>
        <time>2013-06-02T07:43:18Z</time>
      </trkpt>
      <trkpt lat="44.57785" lon="3.89376">
        <ele>1051.34</ele>
        <time>2013-06-02T07:43:37Z</time>
      </trkpt>
      <trkpt lat="44.57789" lon="3.8938">
        <ele>1048.94</ele>
        <time>2013-06-02T07:43:41Z</time>
      </trkpt>
      <trkpt lat="44.57815" lon="3.89389">
        <ele>1047.49</ele>
        <time>2013-06-02T07:44:01Z</time>
      </trkpt>
      <trkpt lat="44.57838" lon="3.89402">
        <ele>1049.9</ele>
        <time>2013-06-02T07:44:20Z</time>
      </trkpt>
      <trkpt lat="44.57861" lon="3.89423">
        <ele>1049.9</ele>
        <time>2013-06-02T07:44:40Z</time>
      </trkpt>
      <trkpt lat="44.57865" lon="3.89429">
        <ele>1048.45</ele>
        <time>2013-06-02T07:44:44Z</time>
      </trkpt>
      <trkpt lat="44.57887" lon="3.89457">
        <ele>1048.45</ele>
        <time>2013-06-02T07:45:06Z</time>
      </trkpt>
      <trkpt lat="44.57909" lon="3.89486">
        <ele>1050.38</ele>
        <time>2013-06-02T07:45:29Z</time>
      </trkpt>
      <trkpt lat="44.57919" lon="3.895">
        <ele>1048.94</ele>
        <time>2013-06-02T07:45:40Z</time>
      </trkpt>
      <trkpt lat="44.57939" lon="3.89522">
        <ele>1048.45</ele>
        <time>2013-06-02T07:46:00Z</time>
      </trkpt>
      <trkpt lat="44.57964" lon="3.89547">
        <ele>1050.38</ele>
        <time>2013-06-02T07:46:24Z</time>
      </trkpt>
      <trkpt lat="44.57985" lon="3.89569">
        <ele>1048.94</ele>
        <time>2013-06-02T07:46:44Z</time>
      </trkpt>
      <trkpt lat="44.58003" lon="3.89594">
        <ele>1047.97</ele>
        <time>2013-06-02T07:47:03Z</time>
      </trkpt>
      <trkpt lat="44.58022" lon="3.89621">
        <ele>1047.49</ele>
        <time>2013-06-02T07:47:24Z</time>
      </trkpt>
      <trkpt lat="44.58037" lon="3.89635">
        <ele>1048.94</ele>
        <time>2013-06-02T07:47:39Z</time>
      </trkpt>
      <trkpt lat="44.58043" lon="3.89639">
        <ele>1051.82</ele>
        <time>2013-06-02T07:47:44Z</time>
      </trkpt>
      <trkpt lat="44.58045" lon="3.8964">
        <ele>1048.45</ele>
        <time>2013-06-02T07:47:46Z</time>
      </trkpt>
      <trkpt lat="44.58048" lon="3.89641">
        <ele>1047.97</ele>
        <time>2013-06-02T07:47:48Z</time>
      </trkpt>
      <trkpt lat="44.58057" lon="3.89644">
        <ele>1050.38</ele>
        <time>2013-06-02T07:47:55Z</time>
      </trkpt>
      <trkpt lat="44.58069" lon="3.89646">
        <ele>1049.9</ele>
        <time>2013-06-02T07:48:04Z</time>
      </trkpt>
      <trkpt lat="44.58095" lon="3.89645">
        <ele>1047.97</ele>
        <time>2013-06-02T07:48:24Z</time>
      </trkpt>
      <trkpt lat="44.58119" lon="3.89642">
        <ele>1047.49</ele>
        <time>2013-06-02T07:48:43Z</time>
      </trkpt>
      <trkpt lat="44.58146" lon="3.89639">
        <ele>1047.01</ele>
        <time>2013-06-02T07:49:03Z</time>
      </trkpt>
      <trkpt lat="44.58172" lon="3.89635">
        <ele>1046.53</ele>
        <time>2013-06-02T07:49:22Z</time>
      </trkpt>
      <trkpt lat="44.58195" lon="3.89632">
        <ele>1046.53</ele>
        <time>2013-06-02T07:49:40Z</time>
      </trkpt>
      <trkpt lat="44.58206" lon="3.8963">
        <ele>1046.53</ele>
        <time>2013-06-02T07:49:50Z</time>
      </trkpt>
      <trkpt lat="44.58233" lon="3.89632">
        <ele>1046.53</ele>
        <time>2013-06-02T07:50:11Z</time>
      </trkpt>
      <trkpt lat="44.58249" lon="3.8964">
        <ele>1046.53</ele>
        <time>2013-06-02T07:50:23Z</time>
      </trkpt>
      <trkpt lat="44.58273" lon="3.89652">
        <ele>1044.61</ele>
        <time>2013-06-02T07:50:42Z</time>
      </trkpt>
      <trkpt lat="44.58289" lon="3.89663">
        <ele>1045.57</ele>
        <time>2013-06-02T07:50:55Z</time>
      </trkpt>
      <trkpt lat="44.58295" lon="3.89666">
        <ele>1044.13</ele>
        <time>2013-06-02T07:51:00Z</time>
      </trkpt>
      <trkpt lat="44.58316" lon="3.89679">
        <ele>1044.61</ele>
        <time>2013-06-02T07:51:17Z</time>
      </trkpt>
      <trkpt lat="44.58331" lon="3.89694">
        <ele>1043.65</ele>
        <time>2013-06-02T07:51:30Z</time>
      </trkpt>
      <trkpt lat="44.58352" lon="3.89721">
        <ele>1042.69</ele>
        <time>2013-06-02T07:51:51Z</time>
      </trkpt>
      <trkpt lat="44.5837" lon="3.89742">
        <ele>1042.21</ele>
        <time>2013-06-02T07:52:08Z</time>
      </trkpt>
      <trkpt lat="44.58392" lon="3.89769">
        <ele>1040.76</ele>
        <time>2013-06-02T07:52:30Z</time>
      </trkpt>
      <trkpt lat="44.58405" lon="3.89795">
        <ele>1039.8</ele>
        <time>2013-06-02T07:52:47Z</time>
      </trkpt>
      <trkpt lat="44.58408" lon="3.89805">
        <ele>1040.28</ele>
        <time>2013-06-02T07:52:53Z</time>
      </trkpt>
      <trkpt lat="44.58416" lon="3.8984">
        <ele>1036.92</ele>
        <time>2013-06-02T07:53:13Z</time>
      </trkpt>
      <trkpt lat="44.58419" lon="3.89849">
        <ele>1039.32</ele>
        <time>2013-06-02T07:53:19Z</time>
      </trkpt>
      <trkpt lat="44.58421" lon="3.89862">
        <ele>1037.88</ele>
        <time>2013-06-02T07:53:27Z</time>
      </trkpt>
      <trkpt lat="44.5842" lon="3.89869">
        <ele>1037.88</ele>
        <time>2013-06-02T07:53:36Z</time>
      </trkpt>
      <trkpt lat="44.58421" lon="3.89872">
        <ele>1039.32</ele>
        <time>2013-06-02T07:53:38Z</time>
      </trkpt>
      <trkpt lat="44.58425" lon="3.89895">
        <ele>1042.21</ele>
        <time>2013-06-02T07:53:51Z</time>
      </trkpt>
      <trkpt lat="44.58427" lon="3.899">
        <ele>1040.28</ele>
        <time>2013-06-02T07:53:54Z</time>
      </trkpt>
      <trkpt lat="44.58437" lon="3.89934">
        <ele>1039.8</ele>
        <time>2013-06-02T07:54:14Z</time>
      </trkpt>
      <trkpt lat="44.58451" lon="3.89963">
        <ele>1042.69</ele>
        <time>2013-06-02T07:54:33Z</time>
      </trkpt>
      <trkpt lat="44.58459" lon="3.89973">
        <ele>1041.25</ele>
        <time>2013-06-02T07:54:41Z</time>
      </trkpt>
      <trkpt lat="44.58479" lon="3.89999">
        <ele>1041.25</ele>
        <time>2013-06-02T07:55:01Z</time>
      </trkpt>
      <trkpt lat="44.58498" lon="3.90024">
        <ele>1041.25</ele>
        <time>2013-06-02T07:55:21Z</time>
      </trkpt>
      <trkpt lat="44.58517" lon="3.90047">
        <ele>1040.76</ele>
        <time>2013-06-02T07:55:40Z</time>
      </trkpt>
      <trkpt lat="44.58537" lon="3.90066">
        <ele>1040.28</ele>
        <time>2013-06-02T07:55:59Z</time>
      </trkpt>
      <trkpt lat="44.58554" lon="3.90083">
        <ele>1040.28</ele>
        <time>2013-06-02T07:56:16Z</time>
      </trkpt>
      <trkpt lat="44.58577" lon="3.90091">
        <ele>1042.69</ele>
        <time>2013-06-02T07:56:34Z</time>
      </trkpt>
      <trkpt lat="44.5859" lon="3.90095">
        <ele>1046.53</ele>
        <time>2013-06-02T07:56:46Z</time>
      </trkpt>
      <trkpt lat="44.5859" lon="3.90095">
        <ele>1047.49</ele>
        <time>2013-06-02T07:56:48Z</time>
      </trkpt>
      <trkpt lat="44.5859" lon="3.90093">
        <ele>1046.53</ele>
        <time>2013-06-02T07:56:54Z</time>
      </trkpt>
      <trkpt lat="44.58592" lon="3.90093">
        <ele>1044.13</ele>
        <time>2013-06-02T07:57:08Z</time>
      </trkpt>
      <trkpt lat="44.58594" lon="3.90093">
        <ele>1043.17</ele>
        <time>2013-06-02T07:57:43Z</time>
      </trkpt>
      <trkpt lat="44.58594" lon="3.90093">
        <ele>1044.13</ele>
        <time>2013-06-02T07:58:19Z</time>
      </trkpt>
      <trkpt lat="44.58593" lon="3.90093">
        <ele>1044.13</ele>
        <time>2013-06-02T07:58:57Z</time>
      </trkpt>
      <trkpt lat="44.58594" lon="3.90093">
        <ele>1044.61</ele>
        <time>2013-06-02T07:59:20Z</time>
      </trkpt>
      <trkpt lat="44.58589" lon="3.90092">
        <ele>1043.65</ele>
        <time>2013-06-02T07:59:35Z</time>
      </trkpt>
      <trkpt lat="44.58589" lon="3.90093">
        <ele>1043.65</ele>
        <time>2013-06-02T08:00:09Z</time>
      </trkpt>
      <trkpt lat="44.58589" lon="3.90094">
        <ele>1043.17</ele>
        <time>2013-06-02T08:00:36Z</time>
      </trkpt>
      <trkpt lat="44.58589" lon="3.90092">
        <ele>1043.17</ele>
        <time>2013-06-02T08:01:03Z</time>
      </trkpt>
      <trkpt lat="44.58589" lon="3.90092">
        <ele>1043.17</ele>
        <time>2013-06-02T08:01:24Z</time>
      </trkpt>
      <trkpt lat="44.58588" lon="3.90092">
        <ele>1043.17</ele>
        <time>2013-06-02T08:01:30Z</time>
      </trkpt>
      <trkpt lat="44.58586" lon="3.9009">
        <ele>1043.17</ele>
        <time>2013-06-02T08:01:33Z</time>
      </trkpt>
      <trkpt lat="44.5859" lon="3.90082">
        <ele>1043.17</ele>
        <time>2013-06-02T08:01:47Z</time>
      </trkpt>
      <trkpt lat="44.58604" lon="3.90072">
        <ele>1046.53</ele>
        <time>2013-06-02T08:02:00Z</time>
      </trkpt>
      <trkpt lat="44.58624" lon="3.90058">
        <ele>1047.49</ele>
        <time>2013-06-02T08:02:18Z</time>
      </trkpt>
      <trkpt lat="44.58648" lon="3.90043">
        <ele>1049.42</ele>
        <time>2013-06-02T08:02:37Z</time>
      </trkpt>
      <trkpt lat="44.58668" lon="3.90026">
        <ele>1050.38</ele>
        <time>2013-06-02T08:02:56Z</time>
      </trkpt>
      <trkpt lat="44.58685" lon="3.90009">
        <ele>1052.3</ele>
        <time>2013-06-02T08:03:14Z</time>
      </trkpt>
      <trkpt lat="44.587" lon="3.89992">
        <ele>1056.15</ele>
        <time>2013-06-02T08:03:31Z</time>
      </trkpt>
      <trkpt lat="44.58705" lon="3.89987">
        <ele>1057.11</ele>
        <time>2013-06-02T08:03:36Z</time>
      </trkpt>
      <trkpt lat="44.58724" lon="3.89984">
        <ele>1059.99</ele>
        <time>2013-06-02T08:03:54Z</time>
      </trkpt>
      <trkpt lat="44.58743" lon="3.89986">
        <ele>1061.43</ele>
        <time>2013-06-02T08:04:10Z</time>
      </trkpt>
      <trkpt lat="44.58762" lon="3.89988">
        <ele>1064.32</ele>
        <time>2013-06-02T08:04:27Z</time>
      </trkpt>
      <trkpt lat="44.5878" lon="3.89988">
        <ele>1067.2</ele>
        <time>2013-06-02T08:04:43Z</time>
      </trkpt>
      <trkpt lat="44.58795" lon="3.89985">
        <ele>1070.08</ele>
        <time>2013-06-02T08:04:58Z</time>
      </trkpt>
      <trkpt lat="44.58808" lon="3.89983">
        <ele>1071.53</ele>
        <time>2013-06-02T08:05:11Z</time>
      </trkpt>
      <trkpt lat="44.58811" lon="3.89984">
        <ele>1072.49</ele>
        <time>2013-06-02T08:05:14Z</time>
      </trkpt>
      <trkpt lat="44.58826" lon="3.89982">
        <ele>1074.89</ele>
        <time>2013-06-02T08:05:29Z</time>
      </trkpt>
      <trkpt lat="44.58841" lon="3.89978">
        <ele>1076.81</ele>
        <time>2013-06-02T08:05:44Z</time>
      </trkpt>
      <trkpt lat="44.58858" lon="3.89975">
        <ele>1080.18</ele>
        <time>2013-06-02T08:06:01Z</time>
      </trkpt>
      <trkpt lat="44.58874" lon="3.89974">
        <ele>1082.58</ele>
        <time>2013-06-02T08:06:18Z</time>
      </trkpt>
      <trkpt lat="44.58889" lon="3.89975">
        <ele>1085.47</ele>
        <time>2013-06-02T08:06:33Z</time>
      </trkpt>
      <trkpt lat="44.58911" lon="3.89976">
        <ele>1088.35</ele>
        <time>2013-06-02T08:06:51Z</time>
      </trkpt>
      <trkpt lat="44.58926" lon="3.89976">
        <ele>1091.23</ele>
        <time>2013-06-02T08:07:03Z</time>
      </trkpt>
      <trkpt lat="44.5894" lon="3.89977">
        <ele>1092.68</ele>
        <time>2013-06-02T08:07:15Z</time>
      </trkpt>
      <trkpt lat="44.58954" lon="3.89961">
        <ele>1094.6</ele>
        <time>2013-06-02T08:07:32Z</time>
      </trkpt>
      <trkpt lat="44.5897" lon="3.89942">
        <ele>1096.04</ele>
        <time>2013-06-02T08:07:50Z</time>
      </trkpt>
      <trkpt lat="44.58988" lon="3.89925">
        <ele>1097.96</ele>
        <time>2013-06-02T08:08:08Z</time>
      </trkpt>
      <trkpt lat="44.58995" lon="3.89918">
        <ele>1100.37</ele>
        <time>2013-06-02T08:08:16Z</time>
      </trkpt>
      <trkpt lat="44.59014" lon="3.89904">
        <ele>1102.29</ele>
        <time>2013-06-02T08:08:35Z</time>
      </trkpt>
      <trkpt lat="44.59033" lon="3.89893">
        <ele>1104.21</ele>
        <time>2013-06-02T08:08:53Z</time>
      </trkpt>
      <trkpt lat="44.59052" lon="3.89885">
        <ele>1106.61</ele>
        <time>2013-06-02T08:09:10Z</time>
      </trkpt>
      <trkpt lat="44.59071" lon="3.89877">
        <ele>1108.06</ele>
        <time>2013-06-02T08:09:27Z</time>
      </trkpt>
      <trkpt lat="44.59084" lon="3.8987">
        <ele>1108.54</ele>
        <time>2013-06-02T08:09:44Z</time>
      </trkpt>
      <trkpt lat="44.59085" lon="3.8987">
        <ele>1108.54</ele>
        <time>2013-06-02T08:10:01Z</time>
      </trkpt>
      <trkpt lat="44.59085" lon="3.89868">
        <ele>1109.98</ele>
        <time>2013-06-02T08:10:24Z</time>
      </trkpt>
      <trkpt lat="44.59082" lon="3.8987">
        <ele>1108.06</ele>
        <time>2013-06-02T08:10:55Z</time>
      </trkpt>
      <trkpt lat="44.59084" lon="3.89873">
        <ele>1108.54</ele>
        <time>2013-06-02T08:11:23Z</time>
      </trkpt>
      <trkpt lat="44.59084" lon="3.89873">
        <ele>1104.69</ele>
        <time>2013-06-02T08:11:26Z</time>
      </trkpt>
      <trkpt lat="44.59084" lon="3.89872">
        <ele>1108.54</ele>
        <time>2013-06-02T08:11:31Z</time>
      </trkpt>
      <trkpt lat="44.59084" lon="3.89872">
        <ele>1109.98</ele>
        <time>2013-06-02T08:11:33Z</time>
      </trkpt>
      <trkpt lat="44.59084" lon="3.89872">
        <ele>1109.02</ele>
        <time>2013-06-02T08:11:35Z</time>
      </trkpt>
      <trkpt lat="44.59084" lon="3.89872">
        <ele>1106.61</ele>
        <time>2013-06-02T08:11:42Z</time>
      </trkpt>
      <trkpt lat="44.59084" lon="3.89871">
        <ele>1109.98</ele>
        <time>2013-06-02T08:11:50Z</time>
      </trkpt>
      <trkpt lat="44.59085" lon="3.8987">
        <ele>1109.5</ele>
        <time>2013-06-02T08:12:22Z</time>
      </trkpt>
      <trkpt lat="44.59083" lon="3.89871">
        <ele>1109.5</ele>
        <time>2013-06-02T08:12:41Z</time>
      </trkpt>
      <trkpt lat="44.59099" lon="3.89865">
        <ele>1109.5</ele>
        <time>2013-06-02T08:12:57Z</time>
      </trkpt>
      <trkpt lat="44.59122" lon="3.89857">
        <ele>1112.86</ele>
        <time>2013-06-02T08:13:15Z</time>
      </trkpt>
      <trkpt lat="44.59146" lon="3.89857">
        <ele>1113.82</ele>
        <time>2013-06-02T08:13:34Z</time>
      </trkpt>
      <trkpt lat="44.59164" lon="3.89856">
        <ele>1115.27</ele>
        <time>2013-06-02T08:13:49Z</time>
      </trkpt>
      <trkpt lat="44.59181" lon="3.89853">
        <ele>1117.19</ele>
        <time>2013-06-02T08:14:03Z</time>
      </trkpt>
      <trkpt lat="44.59192" lon="3.89851">
        <ele>1119.59</ele>
        <time>2013-06-02T08:14:14Z</time>
      </trkpt>
      <trkpt lat="44.59214" lon="3.89843">
        <ele>1122.48</ele>
        <time>2013-06-02T08:14:32Z</time>
      </trkpt>
      <trkpt lat="44.59236" lon="3.8983">
        <ele>1124.4</ele>
        <time>2013-06-02T08:14:51Z</time>
      </trkpt>
      <trkpt lat="44.59256" lon="3.89816">
        <ele>1126.32</ele>
        <time>2013-06-02T08:15:09Z</time>
      </trkpt>
      <trkpt lat="44.59261" lon="3.89811">
        <ele>1129.21</ele>
        <time>2013-06-02T08:15:15Z</time>
      </trkpt>
      <trkpt lat="44.59262" lon="3.8981">
        <ele>1129.21</ele>
        <time>2013-06-02T08:15:16Z</time>
      </trkpt>
      <trkpt lat="44.59282" lon="3.89793">
        <ele>1130.65</ele>
        <time>2013-06-02T08:15:35Z</time>
      </trkpt>
      <trkpt lat="44.59297" lon="3.89779">
        <ele>1133.05</ele>
        <time>2013-06-02T08:15:49Z</time>
      </trkpt>
      <trkpt lat="44.59312" lon="3.89765">
        <ele>1134.49</ele>
        <time>2013-06-02T08:16:03Z</time>
      </trkpt>
      <trkpt lat="44.59322" lon="3.89755">
        <ele>1134.97</ele>
        <time>2013-06-02T08:16:13Z</time>
      </trkpt>
      <trkpt lat="44.5934" lon="3.89735">
        <ele>1135.94</ele>
        <time>2013-06-02T08:16:30Z</time>
      </trkpt>
      <trkpt lat="44.59357" lon="3.89718">
        <ele>1137.38</ele>
        <time>2013-06-02T08:16:48Z</time>
      </trkpt>
      <trkpt lat="44.59367" lon="3.89705">
        <ele>1141.22</ele>
        <time>2013-06-02T08:16:59Z</time>
      </trkpt>
      <trkpt lat="44.59368" lon="3.89703">
        <ele>1141.22</ele>
        <time>2013-06-02T08:17:00Z</time>
      </trkpt>
      <trkpt lat="44.59368" lon="3.89699">
        <ele>1136.42</ele>
        <time>2013-06-02T08:17:02Z</time>
      </trkpt>
      <trkpt lat="44.59368" lon="3.89697">
        <ele>1136.42</ele>
        <time>2013-06-02T08:17:03Z</time>
      </trkpt>
      <trkpt lat="44.59367" lon="3.89693">
        <ele>1138.34</ele>
        <time>2013-06-02T08:17:05Z</time>
      </trkpt>
      <trkpt lat="44.59362" lon="3.89671">
        <ele>1140.26</ele>
        <time>2013-06-02T08:17:20Z</time>
      </trkpt>
      <trkpt lat="44.59355" lon="3.89654">
        <ele>1141.7</ele>
        <time>2013-06-02T08:17:33Z</time>
      </trkpt>
      <trkpt lat="44.59347" lon="3.89638">
        <ele>1142.66</ele>
        <time>2013-06-02T08:17:44Z</time>
      </trkpt>
      <trkpt lat="44.59345" lon="3.89633">
        <ele>1145.07</ele>
        <time>2013-06-02T08:17:48Z</time>
      </trkpt>
      <trkpt lat="44.59339" lon="3.89623">
        <ele>1144.11</ele>
        <time>2013-06-02T08:17:55Z</time>
      </trkpt>
      <trkpt lat="44.59327" lon="3.896">
        <ele>1146.99</ele>
        <time>2013-06-02T08:18:13Z</time>
      </trkpt>
      <trkpt lat="44.59325" lon="3.89597">
        <ele>1147.47</ele>
        <time>2013-06-02T08:18:15Z</time>
      </trkpt>
      <trkpt lat="44.5932" lon="3.89587">
        <ele>1145.55</ele>
        <time>2013-06-02T08:18:22Z</time>
      </trkpt>
      <trkpt lat="44.59313" lon="3.89572">
        <ele>1148.91</ele>
        <time>2013-06-02T08:18:33Z</time>
      </trkpt>
      <trkpt lat="44.59306" lon="3.89561">
        <ele>1150.84</ele>
        <time>2013-06-02T08:18:42Z</time>
      </trkpt>
      <trkpt lat="44.59296" lon="3.89538">
        <ele>1152.28</ele>
        <time>2013-06-02T08:18:59Z</time>
      </trkpt>
      <trkpt lat="44.59295" lon="3.89534">
        <ele>1156.6</ele>
        <time>2013-06-02T08:19:02Z</time>
      </trkpt>
      <trkpt lat="44.59292" lon="3.89527">
        <ele>1156.12</ele>
        <time>2013-06-02T08:19:07Z</time>
      </trkpt>
      <trkpt lat="44.5929" lon="3.89522">
        <ele>1152.76</ele>
        <time>2013-06-02T08:19:10Z</time>
      </trkpt>
      <trkpt lat="44.5929" lon="3.89521">
        <ele>1152.76</ele>
        <time>2013-06-02T08:19:11Z</time>
      </trkpt>
      <trkpt lat="44.59286" lon="3.89513">
        <ele>1154.2</ele>
        <time>2013-06-02T08:19:17Z</time>
      </trkpt>
      <trkpt lat="44.59277" lon="3.89487">
        <ele>1158.53</ele>
        <time>2013-06-02T08:19:34Z</time>
      </trkpt>
      <trkpt lat="44.59277" lon="3.89485">
        <ele>1158.53</ele>
        <time>2013-06-02T08:19:35Z</time>
      </trkpt>
      <trkpt lat="44.59276" lon="3.89481">
        <ele>1156.6</ele>
        <time>2013-06-02T08:19:38Z</time>
      </trkpt>
      <trkpt lat="44.59274" lon="3.89472">
        <ele>1157.08</ele>
        <time>2013-06-02T08:19:44Z</time>
      </trkpt>
      <trkpt lat="44.59269" lon="3.89442">
        <ele>1159.01</ele>
        <time>2013-06-02T08:20:02Z</time>
      </trkpt>
      <trkpt lat="44.59268" lon="3.89418">
        <ele>1160.45</ele>
        <time>2013-06-02T08:20:18Z</time>
      </trkpt>
      <trkpt lat="44.59264" lon="3.89395">
        <ele>1161.89</ele>
        <time>2013-06-02T08:20:33Z</time>
      </trkpt>
      <trkpt lat="44.59261" lon="3.89375">
        <ele>1162.85</ele>
        <time>2013-06-02T08:20:48Z</time>
      </trkpt>
      <trkpt lat="44.59259" lon="3.89347">
        <ele>1165.26</ele>
        <time>2013-06-02T08:21:04Z</time>
      </trkpt>
      <trkpt lat="44.59255" lon="3.89319">
        <ele>1168.62</ele>
        <time>2013-06-02T08:21:16Z</time>
      </trkpt>
      <trkpt lat="44.59255" lon="3.89318">
        <ele>1168.62</ele>
        <time>2013-06-02T08:21:17Z</time>
      </trkpt>
      <trkpt lat="44.59254" lon="3.8929">
        <ele>1169.58</ele>
        <time>2013-06-02T08:21:34Z</time>
      </trkpt>
      <trkpt lat="44.59253" lon="3.89257">
        <ele>1172.95</ele>
        <time>2013-06-02T08:21:53Z</time>
      </trkpt>
      <trkpt lat="44.59256" lon="3.89225">
        <ele>1173.43</ele>
        <time>2013-06-02T08:22:11Z</time>
      </trkpt>
      <trkpt lat="44.59256" lon="3.89194">
        <ele>1175.83</ele>
        <time>2013-06-02T08:22:29Z</time>
      </trkpt>
      <trkpt lat="44.59255" lon="3.89172">
        <ele>1176.79</ele>
        <time>2013-06-02T08:22:44Z</time>
      </trkpt>
      <trkpt lat="44.59249" lon="3.89151">
        <ele>1179.19</ele>
        <time>2013-06-02T08:23:01Z</time>
      </trkpt>
      <trkpt lat="44.59241" lon="3.8913">
        <ele>1180.64</ele>
        <time>2013-06-02T08:23:16Z</time>
      </trkpt>
      <trkpt lat="44.59231" lon="3.89112">
        <ele>1183.52</ele>
        <time>2013-06-02T08:23:30Z</time>
      </trkpt>
      <trkpt lat="44.59224" lon="3.89102">
        <ele>1184.48</ele>
        <time>2013-06-02T08:23:39Z</time>
      </trkpt>
      <trkpt lat="44.59221" lon="3.891">
        <ele>1185.92</ele>
        <time>2013-06-02T08:23:42Z</time>
      </trkpt>
      <trkpt lat="44.59218" lon="3.89095">
        <ele>1183.04</ele>
        <time>2013-06-02T08:23:46Z</time>
      </trkpt>
      <trkpt lat="44.59206" lon="3.89079">
        <ele>1186.4</ele>
        <time>2013-06-02T08:23:58Z</time>
      </trkpt>
      <trkpt lat="44.59195" lon="3.89058">
        <ele>1186.88</ele>
        <time>2013-06-02T08:24:14Z</time>
      </trkpt>
      <trkpt lat="44.59187" lon="3.89044">
        <ele>1190.25</ele>
        <time>2013-06-02T08:24:25Z</time>
      </trkpt>
      <trkpt lat="44.59186" lon="3.89043">
        <ele>1190.25</ele>
        <time>2013-06-02T08:24:26Z</time>
      </trkpt>
      <trkpt lat="44.59181" lon="3.89038">
        <ele>1188.81</ele>
        <time>2013-06-02T08:24:31Z</time>
      </trkpt>
      <trkpt lat="44.59174" lon="3.89032">
        <ele>1190.25</ele>
        <time>2013-06-02T08:24:37Z</time>
      </trkpt>
      <trkpt lat="44.59164" lon="3.89019">
        <ele>1193.13</ele>
        <time>2013-06-02T08:24:50Z</time>
      </trkpt>
      <trkpt lat="44.59154" lon="3.89009">
        <ele>1194.58</ele>
        <time>2013-06-02T08:25:03Z</time>
      </trkpt>
      <trkpt lat="44.59142" lon="3.88996">
        <ele>1197.94</ele>
        <time>2013-06-02T08:25:16Z</time>
      </trkpt>
      <trkpt lat="44.59128" lon="3.88982">
        <ele>1199.38</ele>
        <time>2013-06-02T08:25:32Z</time>
      </trkpt>
      <trkpt lat="44.59112" lon="3.88968">
        <ele>1200.34</ele>
        <time>2013-06-02T08:25:47Z</time>
      </trkpt>
      <trkpt lat="44.59092" lon="3.88956">
        <ele>1202.27</ele>
        <time>2013-06-02T08:26:04Z</time>
      </trkpt>
      <trkpt lat="44.59069" lon="3.88952">
        <ele>1202.27</ele>
        <time>2013-06-02T08:26:18Z</time>
      </trkpt>
      <trkpt lat="44.59063" lon="3.88949">
        <ele>1206.59</ele>
        <time>2013-06-02T08:26:23Z</time>
      </trkpt>
      <trkpt lat="44.59051" lon="3.88937">
        <ele>1207.07</ele>
        <time>2013-06-02T08:26:37Z</time>
      </trkpt>
      <trkpt lat="44.5904" lon="3.88934">
        <ele>1208.51</ele>
        <time>2013-06-02T08:26:45Z</time>
      </trkpt>
      <trkpt lat="44.59028" lon="3.88922">
        <ele>1209.96</ele>
        <time>2013-06-02T08:26:56Z</time>
      </trkpt>
      <trkpt lat="44.59017" lon="3.88901">
        <ele>1211.4</ele>
        <time>2013-06-02T08:27:12Z</time>
      </trkpt>
      <trkpt lat="44.59007" lon="3.88874">
        <ele>1213.8</ele>
        <time>2013-06-02T08:27:30Z</time>
      </trkpt>
      <trkpt lat="44.59004" lon="3.88864">
        <ele>1212.36</ele>
        <time>2013-06-02T08:27:36Z</time>
      </trkpt>
      <trkpt lat="44.58998" lon="3.88837">
        <ele>1214.76</ele>
        <time>2013-06-02T08:27:53Z</time>
      </trkpt>
      <trkpt lat="44.58996" lon="3.88831">
        <ele>1214.76</ele>
        <time>2013-06-02T08:27:57Z</time>
      </trkpt>
      <trkpt lat="44.58994" lon="3.88819">
        <ele>1218.13</ele>
        <time>2013-06-02T08:28:05Z</time>
      </trkpt>
      <trkpt lat="44.58993" lon="3.88796">
        <ele>1218.13</ele>
        <time>2013-06-02T08:28:20Z</time>
      </trkpt>
      <trkpt lat="44.58991" lon="3.88778">
        <ele>1219.09</ele>
        <time>2013-06-02T08:28:30Z</time>
      </trkpt>
      <trkpt lat="44.5899" lon="3.88754">
        <ele>1221.01</ele>
        <time>2013-06-02T08:28:44Z</time>
      </trkpt>
      <trkpt lat="44.58988" lon="3.88731">
        <ele>1221.97</ele>
        <time>2013-06-02T08:28:58Z</time>
      </trkpt>
      <trkpt lat="44.58985" lon="3.8871">
        <ele>1223.9</ele>
        <time>2013-06-02T08:29:12Z</time>
      </trkpt>
      <trkpt lat="44.58981" lon="3.88684">
        <ele>1226.3</ele>
        <time>2013-06-02T08:29:27Z</time>
      </trkpt>
      <trkpt lat="44.58977" lon="3.88661">
        <ele>1229.66</ele>
        <time>2013-06-02T08:29:41Z</time>
      </trkpt>
      <trkpt lat="44.58975" lon="3.88635">
        <ele>1231.11</ele>
        <time>2013-06-02T08:29:58Z</time>
      </trkpt>
      <trkpt lat="44.5897" lon="3.88613">
        <ele>1231.59</ele>
        <time>2013-06-02T08:30:13Z</time>
      </trkpt>
      <trkpt lat="44.58964" lon="3.88592">
        <ele>1233.51</ele>
        <time>2013-06-02T08:30:29Z</time>
      </trkpt>
      <trkpt lat="44.58955" lon="3.88578">
        <ele>1234.95</ele>
        <time>2013-06-02T08:30:43Z</time>
      </trkpt>
      <trkpt lat="44.58944" lon="3.88563">
        <ele>1236.39</ele>
        <time>2013-06-02T08:30:56Z</time>
      </trkpt>
      <trkpt lat="44.58942" lon="3.88563">
        <ele>1237.35</ele>
        <time>2013-06-02T08:30:58Z</time>
      </trkpt>
      <trkpt lat="44.58936" lon="3.88563">
        <ele>1237.83</ele>
        <time>2013-06-02T08:31:01Z</time>
      </trkpt>
      <trkpt lat="44.58928" lon="3.88561">
        <ele>1238.32</ele>
        <time>2013-06-02T08:31:07Z</time>
      </trkpt>
      <trkpt lat="44.58912" lon="3.88568">
        <ele>1239.76</ele>
        <time>2013-06-02T08:31:22Z</time>
      </trkpt>
      <trkpt lat="44.58909" lon="3.88571">
        <ele>1240.24</ele>
        <time>2013-06-02T08:31:25Z</time>
      </trkpt>
      <trkpt lat="44.58892" lon="3.88585">
        <ele>1238.32</ele>
        <time>2013-06-02T08:31:40Z</time>
      </trkpt>
      <trkpt lat="44.58879" lon="3.88591">
        <ele>1242.16</ele>
        <time>2013-06-02T08:31:52Z</time>
      </trkpt>
      <trkpt lat="44.58876" lon="3.88592">
        <ele>1243.12</ele>
        <time>2013-06-02T08:31:54Z</time>
      </trkpt>
      <trkpt lat="44.5886" lon="3.886">
        <ele>1243.12</ele>
        <time>2013-06-02T08:32:08Z</time>
      </trkpt>
      <trkpt lat="44.5885" lon="3.88602">
        <ele>1246.01</ele>
        <time>2013-06-02T08:32:16Z</time>
      </trkpt>
      <trkpt lat="44.58846" lon="3.88604">
        <ele>1247.45</ele>
        <time>2013-06-02T08:32:20Z</time>
      </trkpt>
      <trkpt lat="44.58833" lon="3.88608">
        <ele>1246.01</ele>
        <time>2013-06-02T08:32:31Z</time>
      </trkpt>
      <trkpt lat="44.5883" lon="3.88609">
        <ele>1248.41</ele>
        <time>2013-06-02T08:32:34Z</time>
      </trkpt>
      <trkpt lat="44.58827" lon="3.88611">
        <ele>1249.85</ele>
        <time>2013-06-02T08:32:37Z</time>
      </trkpt>
      <trkpt lat="44.58821" lon="3.88613">
        <ele>1248.89</ele>
        <time>2013-06-02T08:32:43Z</time>
      </trkpt>
      <trkpt lat="44.58819" lon="3.88614">
        <ele>1253.22</ele>
        <time>2013-06-02T08:32:45Z</time>
      </trkpt>
      <trkpt lat="44.58818" lon="3.88614">
        <ele>1253.22</ele>
        <time>2013-06-02T08:32:46Z</time>
      </trkpt>
      <trkpt lat="44.58814" lon="3.88615">
        <ele>1251.77</ele>
        <time>2013-06-02T08:32:50Z</time>
      </trkpt>
      <trkpt lat="44.5881" lon="3.88615">
        <ele>1253.22</ele>
        <time>2013-06-02T08:32:53Z</time>
      </trkpt>
      <trkpt lat="44.58807" lon="3.88616">
        <ele>1251.29</ele>
        <time>2013-06-02T08:32:55Z</time>
      </trkpt>
      <trkpt lat="44.58803" lon="3.88617">
        <ele>1252.25</ele>
        <time>2013-06-02T08:32:58Z</time>
      </trkpt>
      <trkpt lat="44.58795" lon="3.88617">
        <ele>1251.29</ele>
        <time>2013-06-02T08:33:04Z</time>
      </trkpt>
      <trkpt lat="44.58775" lon="3.88607">
        <ele>1250.81</ele>
        <time>2013-06-02T08:33:22Z</time>
      </trkpt>
      <trkpt lat="44.58763" lon="3.8859">
        <ele>1253.22</ele>
        <time>2013-06-02T08:33:37Z</time>
      </trkpt>
      <trkpt lat="44.58759" lon="3.88583">
        <ele>1255.62</ele>
        <time>2013-06-02T08:33:42Z</time>
      </trkpt>
      <trkpt lat="44.58749" lon="3.88571">
        <ele>1255.14</ele>
        <time>2013-06-02T08:33:53Z</time>
      </trkpt>
      <trkpt lat="44.58739" lon="3.88557">
        <ele>1258.02</ele>
        <time>2013-06-02T08:34:07Z</time>
      </trkpt>
      <trkpt lat="44.58736" lon="3.88552">
        <ele>1257.54</ele>
        <time>2013-06-02T08:34:11Z</time>
      </trkpt>
      <trkpt lat="44.58728" lon="3.88543">
        <ele>1258.98</ele>
        <time>2013-06-02T08:34:21Z</time>
      </trkpt>
      <trkpt lat="44.58716" lon="3.88526">
        <ele>1261.87</ele>
        <time>2013-06-02T08:34:36Z</time>
      </trkpt>
      <trkpt lat="44.58706" lon="3.88511">
        <ele>1262.83</ele>
        <time>2013-06-02T08:34:51Z</time>
      </trkpt>
      <trkpt lat="44.58695" lon="3.88493">
        <ele>1265.71</ele>
        <time>2013-06-02T08:35:05Z</time>
      </trkpt>
      <trkpt lat="44.58688" lon="3.88484">
        <ele>1267.16</ele>
        <time>2013-06-02T08:35:15Z</time>
      </trkpt>
      <trkpt lat="44.58672" lon="3.88485">
        <ele>1269.08</ele>
        <time>2013-06-02T08:35:29Z</time>
      </trkpt>
      <trkpt lat="44.58653" lon="3.88494">
        <ele>1269.08</ele>
        <time>2013-06-02T08:35:45Z</time>
      </trkpt>
      <trkpt lat="44.58634" lon="3.88502">
        <ele>1271.48</ele>
        <time>2013-06-02T08:36:00Z</time>
      </trkpt>
      <trkpt lat="44.58628" lon="3.88501">
        <ele>1272.92</ele>
        <time>2013-06-02T08:36:04Z</time>
      </trkpt>
      <trkpt lat="44.58614" lon="3.88496">
        <ele>1273.4</ele>
        <time>2013-06-02T08:36:15Z</time>
      </trkpt>
      <trkpt lat="44.58612" lon="3.88496">
        <ele>1273.4</ele>
        <time>2013-06-02T08:36:17Z</time>
      </trkpt>
      <trkpt lat="44.58585" lon="3.88482">
        <ele>1275.81</ele>
        <time>2013-06-02T08:36:39Z</time>
      </trkpt>
      <trkpt lat="44.58568" lon="3.8847">
        <ele>1278.69</ele>
        <time>2013-06-02T08:36:54Z</time>
      </trkpt>
      <trkpt lat="44.58549" lon="3.88449">
        <ele>1279.17</ele>
        <time>2013-06-02T08:37:12Z</time>
      </trkpt>
      <trkpt lat="44.58542" lon="3.88432">
        <ele>1279.17</ele>
        <time>2013-06-02T08:37:24Z</time>
      </trkpt>
      <trkpt lat="44.58539" lon="3.88417">
        <ele>1282.06</ele>
        <time>2013-06-02T08:37:32Z</time>
      </trkpt>
      <trkpt lat="44.58538" lon="3.88409">
        <ele>1281.09</ele>
        <time>2013-06-02T08:37:37Z</time>
      </trkpt>
      <trkpt lat="44.58536" lon="3.88399">
        <ele>1281.09</ele>
        <time>2013-06-02T08:37:43Z</time>
      </trkpt>
      <trkpt lat="44.58536" lon="3.88378">
        <ele>1282.06</ele>
        <time>2013-06-02T08:37:56Z</time>
      </trkpt>
      <trkpt lat="44.58535" lon="3.88366">
        <ele>1283.02</ele>
        <time>2013-06-02T08:38:03Z</time>
      </trkpt>
      <trkpt lat="44.58534" lon="3.88357">
        <ele>1283.5</ele>
        <time>2013-06-02T08:38:19Z</time>
      </trkpt>
      <trkpt lat="44.58534" lon="3.8834">
        <ele>1283.02</ele>
        <time>2013-06-02T08:38:31Z</time>
      </trkpt>
      <trkpt lat="44.58534" lon="3.88335">
        <ele>1284.46</ele>
        <time>2013-06-02T08:38:34Z</time>
      </trkpt>
      <trkpt lat="44.58533" lon="3.88332">
        <ele>1282.54</ele>
        <time>2013-06-02T08:38:36Z</time>
      </trkpt>
      <trkpt lat="44.58533" lon="3.88329">
        <ele>1286.38</ele>
        <time>2013-06-02T08:38:38Z</time>
      </trkpt>
      <trkpt lat="44.58533" lon="3.88327">
        <ele>1285.9</ele>
        <time>2013-06-02T08:38:39Z</time>
      </trkpt>
      <trkpt lat="44.58529" lon="3.88302">
        <ele>1287.34</ele>
        <time>2013-06-02T08:38:54Z</time>
      </trkpt>
      <trkpt lat="44.58526" lon="3.88277">
        <ele>1288.78</ele>
        <time>2013-06-02T08:39:09Z</time>
      </trkpt>
      <trkpt lat="44.5852" lon="3.88249">
        <ele>1288.3</ele>
        <time>2013-06-02T08:39:26Z</time>
      </trkpt>
      <trkpt lat="44.58518" lon="3.88241">
        <ele>1290.23</ele>
        <time>2013-06-02T08:39:31Z</time>
      </trkpt>
      <trkpt lat="44.58508" lon="3.88219">
        <ele>1290.71</ele>
        <time>2013-06-02T08:39:46Z</time>
      </trkpt>
      <trkpt lat="44.58492" lon="3.88199">
        <ele>1294.07</ele>
        <time>2013-06-02T08:40:02Z</time>
      </trkpt>
      <trkpt lat="44.58491" lon="3.88198">
        <ele>1294.07</ele>
        <time>2013-06-02T08:40:03Z</time>
      </trkpt>
      <trkpt lat="44.58473" lon="3.88181">
        <ele>1292.63</ele>
        <time>2013-06-02T08:40:20Z</time>
      </trkpt>
      <trkpt lat="44.58466" lon="3.88175">
        <ele>1294.55</ele>
        <time>2013-06-02T08:40:26Z</time>
      </trkpt>
      <trkpt lat="44.58453" lon="3.88161">
        <ele>1293.59</ele>
        <time>2013-06-02T08:40:40Z</time>
      </trkpt>
      <trkpt lat="44.58437" lon="3.88148">
        <ele>1295.99</ele>
        <time>2013-06-02T08:40:54Z</time>
      </trkpt>
      <trkpt lat="44.58417" lon="3.88133">
        <ele>1296.48</ele>
        <time>2013-06-02T08:41:11Z</time>
      </trkpt>
      <trkpt lat="44.5841" lon="3.88128">
        <ele>1296.96</ele>
        <time>2013-06-02T08:41:17Z</time>
      </trkpt>
      <trkpt lat="44.5839" lon="3.88108">
        <ele>1299.36</ele>
        <time>2013-06-02T08:41:37Z</time>
      </trkpt>
      <trkpt lat="44.58382" lon="3.88101">
        <ele>1298.4</ele>
        <time>2013-06-02T08:41:44Z</time>
      </trkpt>
      <trkpt lat="44.58377" lon="3.88096">
        <ele>1299.36</ele>
        <time>2013-06-02T08:41:49Z</time>
      </trkpt>
      <trkpt lat="44.58369" lon="3.88089">
        <ele>1297.92</ele>
        <time>2013-06-02T08:41:56Z</time>
      </trkpt>
      <trkpt lat="44.58358" lon="3.88075">
        <ele>1299.36</ele>
        <time>2013-06-02T08:42:08Z</time>
      </trkpt>
      <trkpt lat="44.58349" lon="3.88052">
        <ele>1302.24</ele>
        <time>2013-06-02T08:42:24Z</time>
      </trkpt>
      <trkpt lat="44.58345" lon="3.88028">
        <ele>1303.2</ele>
        <time>2013-06-02T08:42:40Z</time>
      </trkpt>
      <trkpt lat="44.58345" lon="3.88016">
        <ele>1305.13</ele>
        <time>2013-06-02T08:42:47Z</time>
      </trkpt>
      <trkpt lat="44.58344" lon="3.87994">
        <ele>1305.61</ele>
        <time>2013-06-02T08:43:02Z</time>
      </trkpt>
      <trkpt lat="44.58343" lon="3.87985">
        <ele>1304.65</ele>
        <time>2013-06-02T08:43:12Z</time>
      </trkpt>
      <trkpt lat="44.58343" lon="3.87984">
        <ele>1307.05</ele>
        <time>2013-06-02T08:43:15Z</time>
      </trkpt>
      <trkpt lat="44.58344" lon="3.87983">
        <ele>1308.01</ele>
        <time>2013-06-02T08:43:27Z</time>
      </trkpt>
      <trkpt lat="44.58354" lon="3.87976">
        <ele>1305.61</ele>
        <time>2013-06-02T08:43:40Z</time>
      </trkpt>
      <trkpt lat="44.58353" lon="3.87976">
        <ele>1307.53</ele>
        <time>2013-06-02T08:43:43Z</time>
      </trkpt>
      <trkpt lat="44.58351" lon="3.87978">
        <ele>1306.09</ele>
        <time>2013-06-02T08:43:47Z</time>
      </trkpt>
      <trkpt lat="44.58349" lon="3.87979">
        <ele>1306.09</ele>
        <time>2013-06-02T08:43:50Z</time>
      </trkpt>
      <trkpt lat="44.58342" lon="3.87981">
        <ele>1308.01</ele>
        <time>2013-06-02T08:44:01Z</time>
      </trkpt>
      <trkpt lat="44.58342" lon="3.87981">
        <ele>1307.05</ele>
        <time>2013-06-02T08:44:11Z</time>
      </trkpt>
      <trkpt lat="44.58341" lon="3.87982">
        <ele>1308.01</ele>
        <time>2013-06-02T08:44:14Z</time>
      </trkpt>
      <trkpt lat="44.58342" lon="3.87981">
        <ele>1306.57</ele>
        <time>2013-06-02T08:44:17Z</time>
      </trkpt>
      <trkpt lat="44.58347" lon="3.87977">
        <ele>1308.49</ele>
        <time>2013-06-02T08:44:25Z</time>
      </trkpt>
      <trkpt lat="44.58352" lon="3.87976">
        <ele>1308.97</ele>
        <time>2013-06-02T08:44:31Z</time>
      </trkpt>
      <trkpt lat="44.58362" lon="3.87974">
        <ele>1307.05</ele>
        <time>2013-06-02T08:44:39Z</time>
      </trkpt>
      <trkpt lat="44.58372" lon="3.87971">
        <ele>1310.9</ele>
        <time>2013-06-02T08:44:48Z</time>
      </trkpt>
      <trkpt lat="44.58375" lon="3.8797">
        <ele>1308.97</ele>
        <time>2013-06-02T08:44:51Z</time>
      </trkpt>
      <trkpt lat="44.58384" lon="3.87968">
        <ele>1310.9</ele>
        <time>2013-06-02T08:44:58Z</time>
      </trkpt>
      <trkpt lat="44.58389" lon="3.87967">
        <ele>1308.97</ele>
        <time>2013-06-02T08:45:02Z</time>
      </trkpt>
      <trkpt lat="44.58395" lon="3.87964">
        <ele>1309.93</ele>
        <time>2013-06-02T08:45:07Z</time>
      </trkpt>
      <trkpt lat="44.58404" lon="3.87959">
        <ele>1307.05</ele>
        <time>2013-06-02T08:45:15Z</time>
      </trkpt>
      <trkpt lat="44.58408" lon="3.87957">
        <ele>1308.97</ele>
        <time>2013-06-02T08:45:18Z</time>
      </trkpt>
      <trkpt lat="44.58431" lon="3.87941">
        <ele>1309.45</ele>
        <time>2013-06-02T08:45:37Z</time>
      </trkpt>
      <trkpt lat="44.58444" lon="3.87931">
        <ele>1310.9</ele>
        <time>2013-06-02T08:45:49Z</time>
      </trkpt>
      <trkpt lat="44.58448" lon="3.87929">
        <ele>1311.86</ele>
        <time>2013-06-02T08:45:52Z</time>
      </trkpt>
      <trkpt lat="44.58459" lon="3.87921">
        <ele>1318.1</ele>
        <time>2013-06-02T08:46:03Z</time>
      </trkpt>
      <trkpt lat="44.5846" lon="3.8792">
        <ele>1314.26</ele>
        <time>2013-06-02T08:46:04Z</time>
      </trkpt>
      <trkpt lat="44.58464" lon="3.87916">
        <ele>1315.7</ele>
        <time>2013-06-02T08:46:08Z</time>
      </trkpt>
      <trkpt lat="44.58469" lon="3.87914">
        <ele>1313.3</ele>
        <time>2013-06-02T08:46:12Z</time>
      </trkpt>
      <trkpt lat="44.58485" lon="3.87894">
        <ele>1312.82</ele>
        <time>2013-06-02T08:46:29Z</time>
      </trkpt>
      <trkpt lat="44.5849" lon="3.8789">
        <ele>1314.26</ele>
        <time>2013-06-02T08:46:33Z</time>
      </trkpt>
      <trkpt lat="44.58498" lon="3.87881">
        <ele>1314.74</ele>
        <time>2013-06-02T08:46:40Z</time>
      </trkpt>
      <trkpt lat="44.58516" lon="3.87863">
        <ele>1316.66</ele>
        <time>2013-06-02T08:46:56Z</time>
      </trkpt>
      <trkpt lat="44.58532" lon="3.87847">
        <ele>1316.18</ele>
        <time>2013-06-02T08:47:11Z</time>
      </trkpt>
      <trkpt lat="44.58547" lon="3.87834">
        <ele>1314.26</ele>
        <time>2013-06-02T08:47:24Z</time>
      </trkpt>
      <trkpt lat="44.58548" lon="3.87833">
        <ele>1314.26</ele>
        <time>2013-06-02T08:47:25Z</time>
      </trkpt>
      <trkpt lat="44.58555" lon="3.87803">
        <ele>1315.22</ele>
        <time>2013-06-02T08:47:42Z</time>
      </trkpt>
      <trkpt lat="44.58556" lon="3.87798">
        <ele>1312.34</ele>
        <time>2013-06-02T08:47:45Z</time>
      </trkpt>
      <trkpt lat="44.58556" lon="3.87792">
        <ele>1315.7</ele>
        <time>2013-06-02T08:47:48Z</time>
      </trkpt>
      <trkpt lat="44.58559" lon="3.87787">
        <ele>1320.51</ele>
        <time>2013-06-02T08:47:52Z</time>
      </trkpt>
      <trkpt lat="44.5856" lon="3.87783">
        <ele>1320.99</ele>
        <time>2013-06-02T08:47:54Z</time>
      </trkpt>
      <trkpt lat="44.5856" lon="3.87781">
        <ele>1315.7</ele>
        <time>2013-06-02T08:47:55Z</time>
      </trkpt>
      <trkpt lat="44.5856" lon="3.87777">
        <ele>1315.22</ele>
        <time>2013-06-02T08:47:57Z</time>
      </trkpt>
      <trkpt lat="44.58561" lon="3.87763">
        <ele>1318.1</ele>
        <time>2013-06-02T08:48:05Z</time>
      </trkpt>
      <trkpt lat="44.58565" lon="3.87742">
        <ele>1316.66</ele>
        <time>2013-06-02T08:48:16Z</time>
      </trkpt>
      <trkpt lat="44.58565" lon="3.87738">
        <ele>1315.22</ele>
        <time>2013-06-02T08:48:18Z</time>
      </trkpt>
      <trkpt lat="44.58566" lon="3.87729">
        <ele>1313.3</ele>
        <time>2013-06-02T08:48:23Z</time>
      </trkpt>
      <trkpt lat="44.58568" lon="3.87718">
        <ele>1315.7</ele>
        <time>2013-06-02T08:48:29Z</time>
      </trkpt>
      <trkpt lat="44.58571" lon="3.87693">
        <ele>1314.26</ele>
        <time>2013-06-02T08:48:42Z</time>
      </trkpt>
      <trkpt lat="44.58576" lon="3.87672">
        <ele>1314.26</ele>
        <time>2013-06-02T08:48:54Z</time>
      </trkpt>
      <trkpt lat="44.58583" lon="3.87646">
        <ele>1315.22</ele>
        <time>2013-06-02T08:49:10Z</time>
      </trkpt>
      <trkpt lat="44.5859" lon="3.87616">
        <ele>1316.66</ele>
        <time>2013-06-02T08:49:27Z</time>
      </trkpt>
      <trkpt lat="44.58591" lon="3.87612">
        <ele>1315.22</ele>
        <time>2013-06-02T08:49:29Z</time>
      </trkpt>
      <trkpt lat="44.58592" lon="3.87605">
        <ele>1318.1</ele>
        <time>2013-06-02T08:49:33Z</time>
      </trkpt>
      <trkpt lat="44.58593" lon="3.87604">
        <ele>1318.1</ele>
        <time>2013-06-02T08:49:34Z</time>
      </trkpt>
      <trkpt lat="44.58596" lon="3.87593">
        <ele>1316.66</ele>
        <time>2013-06-02T08:49:40Z</time>
      </trkpt>
      <trkpt lat="44.58601" lon="3.87559">
        <ele>1315.7</ele>
        <time>2013-06-02T08:49:59Z</time>
      </trkpt>
      <trkpt lat="44.58603" lon="3.87548">
        <ele>1317.14</ele>
        <time>2013-06-02T08:50:05Z</time>
      </trkpt>
      <trkpt lat="44.58604" lon="3.87541">
        <ele>1317.62</ele>
        <time>2013-06-02T08:50:09Z</time>
      </trkpt>
      <trkpt lat="44.58607" lon="3.87527">
        <ele>1318.59</ele>
        <time>2013-06-02T08:50:17Z</time>
      </trkpt>
      <trkpt lat="44.58611" lon="3.87495">
        <ele>1319.55</ele>
        <time>2013-06-02T08:50:34Z</time>
      </trkpt>
      <trkpt lat="44.58615" lon="3.87479">
        <ele>1319.55</ele>
        <time>2013-06-02T08:50:44Z</time>
      </trkpt>
      <trkpt lat="44.58617" lon="3.87467">
        <ele>1317.62</ele>
        <time>2013-06-02T08:50:50Z</time>
      </trkpt>
      <trkpt lat="44.58622" lon="3.87453">
        <ele>1318.1</ele>
        <time>2013-06-02T08:50:59Z</time>
      </trkpt>
      <trkpt lat="44.58628" lon="3.87421">
        <ele>1317.14</ele>
        <time>2013-06-02T08:51:16Z</time>
      </trkpt>
      <trkpt lat="44.58629" lon="3.87391">
        <ele>1316.66</ele>
        <time>2013-06-02T08:51:31Z</time>
      </trkpt>
      <trkpt lat="44.58631" lon="3.87368">
        <ele>1316.66</ele>
        <time>2013-06-02T08:51:43Z</time>
      </trkpt>
      <trkpt lat="44.58633" lon="3.87336">
        <ele>1316.66</ele>
        <time>2013-06-02T08:52:00Z</time>
      </trkpt>
      <trkpt lat="44.58635" lon="3.87299">
        <ele>1315.22</ele>
        <time>2013-06-02T08:52:19Z</time>
      </trkpt>
      <trkpt lat="44.58635" lon="3.87261">
        <ele>1315.22</ele>
        <time>2013-06-02T08:52:39Z</time>
      </trkpt>
      <trkpt lat="44.58634" lon="3.87244">
        <ele>1316.66</ele>
        <time>2013-06-02T08:52:48Z</time>
      </trkpt>
      <trkpt lat="44.58632" lon="3.8723">
        <ele>1315.7</ele>
        <time>2013-06-02T08:52:56Z</time>
      </trkpt>
      <trkpt lat="44.58629" lon="3.87201">
        <ele>1315.7</ele>
        <time>2013-06-02T08:53:11Z</time>
      </trkpt>
      <trkpt lat="44.58628" lon="3.8719">
        <ele>1315.7</ele>
        <time>2013-06-02T08:53:17Z</time>
      </trkpt>
      <trkpt lat="44.58624" lon="3.87163">
        <ele>1314.74</ele>
        <time>2013-06-02T08:53:32Z</time>
      </trkpt>
      <trkpt lat="44.58621" lon="3.87129">
        <ele>1313.78</ele>
        <time>2013-06-02T08:53:50Z</time>
      </trkpt>
      <trkpt lat="44.58616" lon="3.87098">
        <ele>1315.7</ele>
        <time>2013-06-02T08:54:07Z</time>
      </trkpt>
      <trkpt lat="44.58612" lon="3.87077">
        <ele>1314.26</ele>
        <time>2013-06-02T08:54:18Z</time>
      </trkpt>
      <trkpt lat="44.5861" lon="3.87072">
        <ele>1315.7</ele>
        <time>2013-06-02T08:54:21Z</time>
      </trkpt>
      <trkpt lat="44.58608" lon="3.87063">
        <ele>1313.78</ele>
        <time>2013-06-02T08:54:26Z</time>
      </trkpt>
      <trkpt lat="44.586" lon="3.87035">
        <ele>1313.78</ele>
        <time>2013-06-02T08:54:42Z</time>
      </trkpt>
      <trkpt lat="44.58599" lon="3.87027">
        <ele>1314.74</ele>
        <time>2013-06-02T08:54:47Z</time>
      </trkpt>
      <trkpt lat="44.58595" lon="3.8701">
        <ele>1314.74</ele>
        <time>2013-06-02T08:54:59Z</time>
      </trkpt>
      <trkpt lat="44.58593" lon="3.87005">
        <ele>1313.78</ele>
        <time>2013-06-02T08:55:02Z</time>
      </trkpt>
      <trkpt lat="44.58586" lon="3.86972">
        <ele>1312.82</ele>
        <time>2013-06-02T08:55:19Z</time>
      </trkpt>
      <trkpt lat="44.58585" lon="3.86969">
        <ele>1313.78</ele>
        <time>2013-06-02T08:55:21Z</time>
      </trkpt>
      <trkpt lat="44.58578" lon="3.86938">
        <ele>1312.82</ele>
        <time>2013-06-02T08:55:38Z</time>
      </trkpt>
      <trkpt lat="44.58577" lon="3.86934">
        <ele>1314.26</ele>
        <time>2013-06-02T08:55:40Z</time>
      </trkpt>
      <trkpt lat="44.58574" lon="3.8693">
        <ele>1314.26</ele>
        <time>2013-06-02T08:55:43Z</time>
      </trkpt>
      <trkpt lat="44.58569" lon="3.86918">
        <ele>1313.3</ele>
        <time>2013-06-02T08:55:50Z</time>
      </trkpt>
      <trkpt lat="44.58565" lon="3.86895">
        <ele>1313.3</ele>
        <time>2013-06-02T08:56:03Z</time>
      </trkpt>
      <trkpt lat="44.58562" lon="3.86889">
        <ele>1313.3</ele>
        <time>2013-06-02T08:56:07Z</time>
      </trkpt>
      <trkpt lat="44.58551" lon="3.86865">
        <ele>1313.3</ele>
        <time>2013-06-02T08:56:22Z</time>
      </trkpt>
      <trkpt lat="44.58545" lon="3.86843">
        <ele>1311.38</ele>
        <time>2013-06-02T08:56:35Z</time>
      </trkpt>
      <trkpt lat="44.58535" lon="3.86813">
        <ele>1312.82</ele>
        <time>2013-06-02T08:56:52Z</time>
      </trkpt>
      <trkpt lat="44.58527" lon="3.86789">
        <ele>1312.82</ele>
        <time>2013-06-02T08:57:06Z</time>
      </trkpt>
      <trkpt lat="44.58525" lon="3.8678">
        <ele>1311.38</ele>
        <time>2013-06-02T08:57:11Z</time>
      </trkpt>
      <trkpt lat="44.58516" lon="3.8675">
        <ele>1312.34</ele>
        <time>2013-06-02T08:57:28Z</time>
      </trkpt>
      <trkpt lat="44.58516" lon="3.86748">
        <ele>1312.34</ele>
        <time>2013-06-02T08:57:29Z</time>
      </trkpt>
      <trkpt lat="44.58508" lon="3.86717">
        <ele>1311.38</ele>
        <time>2013-06-02T08:57:46Z</time>
      </trkpt>
      <trkpt lat="44.58499" lon="3.86686">
        <ele>1311.38</ele>
        <time>2013-06-02T08:58:04Z</time>
      </trkpt>
      <trkpt lat="44.5849" lon="3.86658">
        <ele>1309.93</ele>
        <time>2013-06-02T08:58:20Z</time>
      </trkpt>
      <trkpt lat="44.58489" lon="3.86656">
        <ele>1309.93</ele>
        <time>2013-06-02T08:58:21Z</time>
      </trkpt>
      <trkpt lat="44.58488" lon="3.8665">
        <ele>1309.93</ele>
        <time>2013-06-02T08:58:24Z</time>
      </trkpt>
      <trkpt lat="44.58489" lon="3.86642">
        <ele>1311.38</ele>
        <time>2013-06-02T08:58:28Z</time>
      </trkpt>
      <trkpt lat="44.58489" lon="3.86639">
        <ele>1311.38</ele>
        <time>2013-06-02T08:58:30Z</time>
      </trkpt>
      <trkpt lat="44.58493" lon="3.86605">
        <ele>1312.82</ele>
        <time>2013-06-02T08:58:49Z</time>
      </trkpt>
      <trkpt lat="44.58493" lon="3.86601">
        <ele>1311.38</ele>
        <time>2013-06-02T08:58:51Z</time>
      </trkpt>
      <trkpt lat="44.58495" lon="3.8659">
        <ele>1312.34</ele>
        <time>2013-06-02T08:58:57Z</time>
      </trkpt>
      <trkpt lat="44.58498" lon="3.86577">
        <ele>1312.82</ele>
        <time>2013-06-02T08:59:04Z</time>
      </trkpt>
      <trkpt lat="44.585" lon="3.8657">
        <ele>1311.38</ele>
        <time>2013-06-02T08:59:08Z</time>
      </trkpt>
      <trkpt lat="44.58507" lon="3.86551">
        <ele>1311.38</ele>
        <time>2013-06-02T08:59:19Z</time>
      </trkpt>
      <trkpt lat="44.58512" lon="3.86533">
        <ele>1312.34</ele>
        <time>2013-06-02T08:59:29Z</time>
      </trkpt>
      <trkpt lat="44.58517" lon="3.86519">
        <ele>1310.9</ele>
        <time>2013-06-02T08:59:37Z</time>
      </trkpt>
      <trkpt lat="44.58524" lon="3.8649">
        <ele>1310.9</ele>
        <time>2013-06-02T08:59:53Z</time>
      </trkpt>
      <trkpt lat="44.5853" lon="3.86468">
        <ele>1310.41</ele>
        <time>2013-06-02T09:00:05Z</time>
      </trkpt>
      <trkpt lat="44.5853" lon="3.86464">
        <ele>1310.41</ele>
        <time>2013-06-02T09:00:07Z</time>
      </trkpt>
      <trkpt lat="44.58533" lon="3.86456">
        <ele>1312.34</ele>
        <time>2013-06-02T09:00:12Z</time>
      </trkpt>
      <trkpt lat="44.58535" lon="3.86447">
        <ele>1310.9</ele>
        <time>2013-06-02T09:00:17Z</time>
      </trkpt>
      <trkpt lat="44.58539" lon="3.86437">
        <ele>1311.86</ele>
        <time>2013-06-02T09:00:23Z</time>
      </trkpt>
      <trkpt lat="44.5854" lon="3.86432">
        <ele>1309.45</ele>
        <time>2013-06-02T09:00:26Z</time>
      </trkpt>
      <trkpt lat="44.58544" lon="3.86398">
        <ele>1311.86</ele>
        <time>2013-06-02T09:00:43Z</time>
      </trkpt>
      <trkpt lat="44.58539" lon="3.86367">
        <ele>1311.86</ele>
        <time>2013-06-02T09:00:59Z</time>
      </trkpt>
      <trkpt lat="44.58537" lon="3.86335">
        <ele>1312.82</ele>
        <time>2013-06-02T09:01:16Z</time>
      </trkpt>
      <trkpt lat="44.58539" lon="3.86304">
        <ele>1313.78</ele>
        <time>2013-06-02T09:01:33Z</time>
      </trkpt>
      <trkpt lat="44.58541" lon="3.86277">
        <ele>1314.74</ele>
        <time>2013-06-02T09:01:47Z</time>
      </trkpt>
      <trkpt lat="44.58541" lon="3.86268">
        <ele>1315.22</ele>
        <time>2013-06-02T09:01:52Z</time>
      </trkpt>
      <trkpt lat="44.58541" lon="3.86238">
        <ele>1315.22</ele>
        <time>2013-06-02T09:02:07Z</time>
      </trkpt>
      <trkpt lat="44.58541" lon="3.86236">
        <ele>1315.22</ele>
        <time>2013-06-02T09:02:08Z</time>
      </trkpt>
      <trkpt lat="44.58542" lon="3.86224">
        <ele>1315.7</ele>
        <time>2013-06-02T09:02:14Z</time>
      </trkpt>
      <trkpt lat="44.58539" lon="3.86207">
        <ele>1315.7</ele>
        <time>2013-06-02T09:02:23Z</time>
      </trkpt>
      <trkpt lat="44.5854" lon="3.86201">
        <ele>1317.62</ele>
        <time>2013-06-02T09:02:27Z</time>
      </trkpt>
      <trkpt lat="44.5854" lon="3.86194">
        <ele>1316.18</ele>
        <time>2013-06-02T09:02:31Z</time>
      </trkpt>
      <trkpt lat="44.58533" lon="3.86177">
        <ele>1317.14</ele>
        <time>2013-06-02T09:02:41Z</time>
      </trkpt>
      <trkpt lat="44.58527" lon="3.86145">
        <ele>1314.74</ele>
        <time>2013-06-02T09:02:58Z</time>
      </trkpt>
      <trkpt lat="44.58525" lon="3.86141">
        <ele>1315.22</ele>
        <time>2013-06-02T09:03:01Z</time>
      </trkpt>
      <trkpt lat="44.58509" lon="3.8611">
        <ele>1312.82</ele>
        <time>2013-06-02T09:03:20Z</time>
      </trkpt>
      <trkpt lat="44.58506" lon="3.86103">
        <ele>1313.78</ele>
        <time>2013-06-02T09:03:24Z</time>
      </trkpt>
      <trkpt lat="44.58494" lon="3.86078">
        <ele>1309.93</ele>
        <time>2013-06-02T09:03:40Z</time>
      </trkpt>
      <trkpt lat="44.58493" lon="3.86077">
        <ele>1309.93</ele>
        <time>2013-06-02T09:03:41Z</time>
      </trkpt>
      <trkpt lat="44.58492" lon="3.86075">
        <ele>1309.93</ele>
        <time>2013-06-02T09:03:42Z</time>
      </trkpt>
      <trkpt lat="44.58489" lon="3.86068">
        <ele>1308.49</ele>
        <time>2013-06-02T09:03:46Z</time>
      </trkpt>
      <trkpt lat="44.58488" lon="3.86063">
        <ele>1310.41</ele>
        <time>2013-06-02T09:03:49Z</time>
      </trkpt>
      <trkpt lat="44.58484" lon="3.86054">
        <ele>1310.41</ele>
        <time>2013-06-02T09:03:54Z</time>
      </trkpt>
      <trkpt lat="44.58483" lon="3.86051">
        <ele>1308.49</ele>
        <time>2013-06-02T09:03:56Z</time>
      </trkpt>
      <trkpt lat="44.5848" lon="3.86042">
        <ele>1307.53</ele>
        <time>2013-06-02T09:04:01Z</time>
      </trkpt>
      <trkpt lat="44.58474" lon="3.86029">
        <ele>1306.57</ele>
        <time>2013-06-02T09:04:09Z</time>
      </trkpt>
      <trkpt lat="44.5846" lon="3.86005">
        <ele>1303.69</ele>
        <time>2013-06-02T09:04:26Z</time>
      </trkpt>
      <trkpt lat="44.5845" lon="3.85984">
        <ele>1302.24</ele>
        <time>2013-06-02T09:04:39Z</time>
      </trkpt>
      <trkpt lat="44.58448" lon="3.85979">
        <ele>1300.8</ele>
        <time>2013-06-02T09:04:42Z</time>
      </trkpt>
      <trkpt lat="44.58437" lon="3.85949">
        <ele>1298.4</ele>
        <time>2013-06-02T09:05:00Z</time>
      </trkpt>
      <trkpt lat="44.58435" lon="3.85937">
        <ele>1297.44</ele>
        <time>2013-06-02T09:05:06Z</time>
      </trkpt>
      <trkpt lat="44.58434" lon="3.8593">
        <ele>1296.48</ele>
        <time>2013-06-02T09:05:10Z</time>
      </trkpt>
      <trkpt lat="44.5843" lon="3.85902">
        <ele>1294.07</ele>
        <time>2013-06-02T09:05:25Z</time>
      </trkpt>
      <trkpt lat="44.58425" lon="3.85882">
        <ele>1292.63</ele>
        <time>2013-06-02T09:05:36Z</time>
      </trkpt>
      <trkpt lat="44.58421" lon="3.85862">
        <ele>1290.71</ele>
        <time>2013-06-02T09:05:47Z</time>
      </trkpt>
      <trkpt lat="44.58419" lon="3.85853">
        <ele>1292.15</ele>
        <time>2013-06-02T09:05:52Z</time>
      </trkpt>
      <trkpt lat="44.58415" lon="3.85845">
        <ele>1290.23</ele>
        <time>2013-06-02T09:05:56Z</time>
      </trkpt>
      <trkpt lat="44.58413" lon="3.8584">
        <ele>1290.23</ele>
        <time>2013-06-02T09:05:59Z</time>
      </trkpt>
      <trkpt lat="44.58408" lon="3.85831">
        <ele>1290.23</ele>
        <time>2013-06-02T09:06:05Z</time>
      </trkpt>
      <trkpt lat="44.58399" lon="3.85812">
        <ele>1290.23</ele>
        <time>2013-06-02T09:06:17Z</time>
      </trkpt>
      <trkpt lat="44.58395" lon="3.858">
        <ele>1290.23</ele>
        <time>2013-06-02T09:06:23Z</time>
      </trkpt>
      <trkpt lat="44.58385" lon="3.85775">
        <ele>1290.23</ele>
        <time>2013-06-02T09:06:38Z</time>
      </trkpt>
      <trkpt lat="44.5838" lon="3.85769">
        <ele>1288.78</ele>
        <time>2013-06-02T09:06:43Z</time>
      </trkpt>
      <trkpt lat="44.58378" lon="3.85764">
        <ele>1290.71</ele>
        <time>2013-06-02T09:06:46Z</time>
      </trkpt>
      <trkpt lat="44.58377" lon="3.85762">
        <ele>1290.71</ele>
        <time>2013-06-02T09:06:47Z</time>
      </trkpt>
      <trkpt lat="44.58373" lon="3.85748">
        <ele>1289.75</ele>
        <time>2013-06-02T09:06:55Z</time>
      </trkpt>
      <trkpt lat="44.58363" lon="3.8572">
        <ele>1290.71</ele>
        <time>2013-06-02T09:07:12Z</time>
      </trkpt>
      <trkpt lat="44.58361" lon="3.85717">
        <ele>1291.67</ele>
        <time>2013-06-02T09:07:18Z</time>
      </trkpt>
      <trkpt lat="44.58348" lon="3.85711">
        <ele>1290.71</ele>
        <time>2013-06-02T09:07:31Z</time>
      </trkpt>
      <trkpt lat="44.58342" lon="3.85709">
        <ele>1292.15</ele>
        <time>2013-06-02T09:07:36Z</time>
      </trkpt>
      <trkpt lat="44.58336" lon="3.85705">
        <ele>1290.23</ele>
        <time>2013-06-02T09:07:41Z</time>
      </trkpt>
      <trkpt lat="44.58334" lon="3.85703">
        <ele>1292.15</ele>
        <time>2013-06-02T09:07:43Z</time>
      </trkpt>
      <trkpt lat="44.58325" lon="3.85696">
        <ele>1294.07</ele>
        <time>2013-06-02T09:07:50Z</time>
      </trkpt>
      <trkpt lat="44.5831" lon="3.85685">
        <ele>1295.03</ele>
        <time>2013-06-02T09:08:03Z</time>
      </trkpt>
      <trkpt lat="44.58294" lon="3.85674">
        <ele>1295.03</ele>
        <time>2013-06-02T09:08:16Z</time>
      </trkpt>
      <trkpt lat="44.58291" lon="3.85672">
        <ele>1296.48</ele>
        <time>2013-06-02T09:08:18Z</time>
      </trkpt>
      <trkpt lat="44.58276" lon="3.85658">
        <ele>1296.48</ele>
        <time>2013-06-02T09:08:31Z</time>
      </trkpt>
      <trkpt lat="44.58254" lon="3.85652">
        <ele>1297.44</ele>
        <time>2013-06-02T09:08:47Z</time>
      </trkpt>
      <trkpt lat="44.58249" lon="3.85653">
        <ele>1297.44</ele>
        <time>2013-06-02T09:08:52Z</time>
      </trkpt>
      <trkpt lat="44.58244" lon="3.85634">
        <ele>1297.44</ele>
        <time>2013-06-02T09:09:04Z</time>
      </trkpt>
      <trkpt lat="44.58232" lon="3.85611">
        <ele>1297.44</ele>
        <time>2013-06-02T09:09:20Z</time>
      </trkpt>
      <trkpt lat="44.58223" lon="3.8559">
        <ele>1297.92</ele>
        <time>2013-06-02T09:09:34Z</time>
      </trkpt>
      <trkpt lat="44.58214" lon="3.85574">
        <ele>1296.96</ele>
        <time>2013-06-02T09:09:45Z</time>
      </trkpt>
      <trkpt lat="44.58202" lon="3.85551">
        <ele>1297.92</ele>
        <time>2013-06-02T09:10:00Z</time>
      </trkpt>
      <trkpt lat="44.58192" lon="3.85528">
        <ele>1300.32</ele>
        <time>2013-06-02T09:10:15Z</time>
      </trkpt>
      <trkpt lat="44.58191" lon="3.85527">
        <ele>1300.32</ele>
        <time>2013-06-02T09:10:16Z</time>
      </trkpt>
      <trkpt lat="44.58186" lon="3.85512">
        <ele>1300.32</ele>
        <time>2013-06-02T09:10:25Z</time>
      </trkpt>
      <trkpt lat="44.58181" lon="3.85497">
        <ele>1296.48</ele>
        <time>2013-06-02T09:10:34Z</time>
      </trkpt>
      <trkpt lat="44.58178" lon="3.85487">
        <ele>1300.8</ele>
        <time>2013-06-02T09:10:40Z</time>
      </trkpt>
      <trkpt lat="44.58177" lon="3.85485">
        <ele>1300.8</ele>
        <time>2013-06-02T09:10:41Z</time>
      </trkpt>
      <trkpt lat="44.58176" lon="3.85484">
        <ele>1299.36</ele>
        <time>2013-06-02T09:10:42Z</time>
      </trkpt>
      <trkpt lat="44.58173" lon="3.85475">
        <ele>1299.36</ele>
        <time>2013-06-02T09:10:47Z</time>
      </trkpt>
      <trkpt lat="44.58171" lon="3.85469">
        <ele>1300.32</ele>
        <time>2013-06-02T09:10:51Z</time>
      </trkpt>
      <trkpt lat="44.58167" lon="3.8546">
        <ele>1300.8</ele>
        <time>2013-06-02T09:10:56Z</time>
      </trkpt>
      <trkpt lat="44.58155" lon="3.85435">
        <ele>1301.76</ele>
        <time>2013-06-02T09:11:12Z</time>
      </trkpt>
      <trkpt lat="44.58146" lon="3.85413">
        <ele>1303.69</ele>
        <time>2013-06-02T09:11:26Z</time>
      </trkpt>
      <trkpt lat="44.58136" lon="3.85389">
        <ele>1302.24</ele>
        <time>2013-06-02T09:11:41Z</time>
      </trkpt>
      <trkpt lat="44.58135" lon="3.85387">
        <ele>1303.69</ele>
        <time>2013-06-02T09:11:43Z</time>
      </trkpt>
      <trkpt lat="44.58133" lon="3.85374">
        <ele>1304.17</ele>
        <time>2013-06-02T09:11:51Z</time>
      </trkpt>
      <trkpt lat="44.58129" lon="3.85366">
        <ele>1302.24</ele>
        <time>2013-06-02T09:11:57Z</time>
      </trkpt>
      <trkpt lat="44.58125" lon="3.85354">
        <ele>1305.61</ele>
        <time>2013-06-02T09:12:03Z</time>
      </trkpt>
      <trkpt lat="44.58111" lon="3.85328">
        <ele>1305.13</ele>
        <time>2013-06-02T09:12:20Z</time>
      </trkpt>
      <trkpt lat="44.58102" lon="3.85313">
        <ele>1305.61</ele>
        <time>2013-06-02T09:12:30Z</time>
      </trkpt>
      <trkpt lat="44.58096" lon="3.85301">
        <ele>1304.65</ele>
        <time>2013-06-02T09:12:37Z</time>
      </trkpt>
      <trkpt lat="44.58093" lon="3.85293">
        <ele>1307.53</ele>
        <time>2013-06-02T09:12:42Z</time>
      </trkpt>
      <trkpt lat="44.58087" lon="3.85281">
        <ele>1306.09</ele>
        <time>2013-06-02T09:12:50Z</time>
      </trkpt>
      <trkpt lat="44.58084" lon="3.85272">
        <ele>1306.57</ele>
        <time>2013-06-02T09:12:55Z</time>
      </trkpt>
      <trkpt lat="44.58084" lon="3.85267">
        <ele>1306.57</ele>
        <time>2013-06-02T09:12:58Z</time>
      </trkpt>
      <trkpt lat="44.58082" lon="3.85264">
        <ele>1306.57</ele>
        <time>2013-06-02T09:13:00Z</time>
      </trkpt>
      <trkpt lat="44.58072" lon="3.85245">
        <ele>1307.05</ele>
        <time>2013-06-02T09:13:12Z</time>
      </trkpt>
      <trkpt lat="44.58064" lon="3.85227">
        <ele>1307.05</ele>
        <time>2013-06-02T09:13:24Z</time>
      </trkpt>
      <trkpt lat="44.58062" lon="3.85219">
        <ele>1305.61</ele>
        <time>2013-06-02T09:13:29Z</time>
      </trkpt>
      <trkpt lat="44.5806" lon="3.85213">
        <ele>1305.61</ele>
        <time>2013-06-02T09:13:33Z</time>
      </trkpt>
      <trkpt lat="44.58059" lon="3.85202">
        <ele>1307.53</ele>
        <time>2013-06-02T09:13:39Z</time>
      </trkpt>
      <trkpt lat="44.58058" lon="3.852">
        <ele>1307.53</ele>
        <time>2013-06-02T09:13:40Z</time>
      </trkpt>
      <trkpt lat="44.58057" lon="3.85194">
        <ele>1306.09</ele>
        <time>2013-06-02T09:13:44Z</time>
      </trkpt>
      <trkpt lat="44.58055" lon="3.85188">
        <ele>1307.53</ele>
        <time>2013-06-02T09:13:48Z</time>
      </trkpt>
      <trkpt lat="44.58054" lon="3.85182">
        <ele>1307.53</ele>
        <time>2013-06-02T09:13:52Z</time>
      </trkpt>
      <trkpt lat="44.58052" lon="3.85172">
        <ele>1307.53</ele>
        <time>2013-06-02T09:13:56Z</time>
      </trkpt>
      <trkpt lat="44.5805" lon="3.85167">
        <ele>1307.53</ele>
        <time>2013-06-02T09:13:59Z</time>
      </trkpt>
      <trkpt lat="44.58048" lon="3.85157">
        <ele>1307.53</ele>
        <time>2013-06-02T09:14:04Z</time>
      </trkpt>
      <trkpt lat="44.58046" lon="3.85149">
        <ele>1306.57</ele>
        <time>2013-06-02T09:14:09Z</time>
      </trkpt>
      <trkpt lat="44.58046" lon="3.85147">
        <ele>1306.57</ele>
        <time>2013-06-02T09:14:10Z</time>
      </trkpt>
      <trkpt lat="44.58044" lon="3.85136">
        <ele>1306.09</ele>
        <time>2013-06-02T09:14:15Z</time>
      </trkpt>
      <trkpt lat="44.58044" lon="3.8513">
        <ele>1307.53</ele>
        <time>2013-06-02T09:14:18Z</time>
      </trkpt>
      <trkpt lat="44.58043" lon="3.85125">
        <ele>1306.09</ele>
        <time>2013-06-02T09:14:21Z</time>
      </trkpt>
      <trkpt lat="44.58042" lon="3.85123">
        <ele>1305.13</ele>
        <time>2013-06-02T09:14:23Z</time>
      </trkpt>
      <trkpt lat="44.58041" lon="3.8512">
        <ele>1304.17</ele>
        <time>2013-06-02T09:14:25Z</time>
      </trkpt>
      <trkpt lat="44.58041" lon="3.85112">
        <ele>1308.49</ele>
        <time>2013-06-02T09:14:30Z</time>
      </trkpt>
      <trkpt lat="44.58033" lon="3.85092">
        <ele>1307.05</ele>
        <time>2013-06-02T09:14:41Z</time>
      </trkpt>
      <trkpt lat="44.58032" lon="3.85087">
        <ele>1307.05</ele>
        <time>2013-06-02T09:14:44Z</time>
      </trkpt>
      <trkpt lat="44.58031" lon="3.85072">
        <ele>1307.05</ele>
        <time>2013-06-02T09:14:52Z</time>
      </trkpt>
      <trkpt lat="44.58029" lon="3.85059">
        <ele>1306.09</ele>
        <time>2013-06-02T09:14:59Z</time>
      </trkpt>
      <trkpt lat="44.58025" lon="3.85041">
        <ele>1306.09</ele>
        <time>2013-06-02T09:15:06Z</time>
      </trkpt>
      <trkpt lat="44.58022" lon="3.85033">
        <ele>1307.53</ele>
        <time>2013-06-02T09:15:10Z</time>
      </trkpt>
      <trkpt lat="44.5802" lon="3.8503">
        <ele>1307.53</ele>
        <time>2013-06-02T09:15:12Z</time>
      </trkpt>
      <trkpt lat="44.5802" lon="3.85023">
        <ele>1308.01</ele>
        <time>2013-06-02T09:15:16Z</time>
      </trkpt>
      <trkpt lat="44.5802" lon="3.8501">
        <ele>1308.97</ele>
        <time>2013-06-02T09:15:23Z</time>
      </trkpt>
      <trkpt lat="44.58015" lon="3.84985">
        <ele>1308.97</ele>
        <time>2013-06-02T09:15:37Z</time>
      </trkpt>
      <trkpt lat="44.58016" lon="3.8497">
        <ele>1308.49</ele>
        <time>2013-06-02T09:15:47Z</time>
      </trkpt>
      <trkpt lat="44.58015" lon="3.84968">
        <ele>1308.49</ele>
        <time>2013-06-02T09:15:48Z</time>
      </trkpt>
      <trkpt lat="44.58015" lon="3.84962">
        <ele>1309.93</ele>
        <time>2013-06-02T09:15:51Z</time>
      </trkpt>
      <trkpt lat="44.58014" lon="3.8495">
        <ele>1307.05</ele>
        <time>2013-06-02T09:15:57Z</time>
      </trkpt>
      <trkpt lat="44.58014" lon="3.84945">
        <ele>1307.05</ele>
        <time>2013-06-02T09:15:59Z</time>
      </trkpt>
      <trkpt lat="44.58016" lon="3.84933">
        <ele>1305.61</ele>
        <time>2013-06-02T09:16:05Z</time>
      </trkpt>
      <trkpt lat="44.58015" lon="3.84923">
        <ele>1305.61</ele>
        <time>2013-06-02T09:16:10Z</time>
      </trkpt>
      <trkpt lat="44.58013" lon="3.84905">
        <ele>1306.09</ele>
        <time>2013-06-02T09:16:19Z</time>
      </trkpt>
      <trkpt lat="44.58011" lon="3.84893">
        <ele>1305.13</ele>
        <time>2013-06-02T09:16:25Z</time>
      </trkpt>
      <trkpt lat="44.5801" lon="3.84887">
        <ele>1307.05</ele>
        <time>2013-06-02T09:16:28Z</time>
      </trkpt>
      <trkpt lat="44.58009" lon="3.84881">
        <ele>1307.05</ele>
        <time>2013-06-02T09:16:31Z</time>
      </trkpt>
      <trkpt lat="44.58006" lon="3.84865">
        <ele>1307.05</ele>
        <time>2013-06-02T09:16:40Z</time>
      </trkpt>
      <trkpt lat="44.57991" lon="3.84843">
        <ele>1308.01</ele>
        <time>2013-06-02T09:16:55Z</time>
      </trkpt>
      <trkpt lat="44.57979" lon="3.8483">
        <ele>1308.97</ele>
        <time>2013-06-02T09:17:05Z</time>
      </trkpt>
      <trkpt lat="44.5797" lon="3.84818">
        <ele>1309.45</ele>
        <time>2013-06-02T09:17:15Z</time>
      </trkpt>
      <trkpt lat="44.57966" lon="3.84814">
        <ele>1308.01</ele>
        <time>2013-06-02T09:17:19Z</time>
      </trkpt>
      <trkpt lat="44.57953" lon="3.84806">
        <ele>1310.41</ele>
        <time>2013-06-02T09:17:30Z</time>
      </trkpt>
      <trkpt lat="44.57952" lon="3.84803">
        <ele>1310.41</ele>
        <time>2013-06-02T09:17:32Z</time>
      </trkpt>
      <trkpt lat="44.57951" lon="3.848">
        <ele>1310.41</ele>
        <time>2013-06-02T09:17:34Z</time>
      </trkpt>
      <trkpt lat="44.57943" lon="3.84781">
        <ele>1310.9</ele>
        <time>2013-06-02T09:17:49Z</time>
      </trkpt>
      <trkpt lat="44.57941" lon="3.84781">
        <ele>1311.38</ele>
        <time>2013-06-02T09:18:05Z</time>
      </trkpt>
      <trkpt lat="44.57941" lon="3.84783">
        <ele>1311.38</ele>
        <time>2013-06-02T09:18:07Z</time>
      </trkpt>
      <trkpt lat="44.57935" lon="3.84785">
        <ele>1311.38</ele>
        <time>2013-06-02T09:18:12Z</time>
      </trkpt>
      <trkpt lat="44.57927" lon="3.84789">
        <ele>1308.97</ele>
        <time>2013-06-02T09:18:19Z</time>
      </trkpt>
      <trkpt lat="44.5792" lon="3.84797">
        <ele>1310.41</ele>
        <time>2013-06-02T09:18:29Z</time>
      </trkpt>
      <trkpt lat="44.57919" lon="3.84796">
        <ele>1310.41</ele>
        <time>2013-06-02T09:18:36Z</time>
      </trkpt>
      <trkpt lat="44.57921" lon="3.84792">
        <ele>1309.45</ele>
        <time>2013-06-02T09:18:39Z</time>
      </trkpt>
      <trkpt lat="44.57923" lon="3.84788">
        <ele>1309.45</ele>
        <time>2013-06-02T09:18:42Z</time>
      </trkpt>
      <trkpt lat="44.57925" lon="3.84781">
        <ele>1309.45</ele>
        <time>2013-06-02T09:18:47Z</time>
      </trkpt>
      <trkpt lat="44.57925" lon="3.84778">
        <ele>1309.45</ele>
        <time>2013-06-02T09:18:55Z</time>
      </trkpt>
      <trkpt lat="44.57931" lon="3.8478">
        <ele>1310.9</ele>
        <time>2013-06-02T09:19:00Z</time>
      </trkpt>
      <trkpt lat="44.57952" lon="3.8477">
        <ele>1311.38</ele>
        <time>2013-06-02T09:19:17Z</time>
      </trkpt>
      <trkpt lat="44.5797" lon="3.8475">
        <ele>1311.38</ele>
        <time>2013-06-02T09:19:34Z</time>
      </trkpt>
      <trkpt lat="44.57982" lon="3.84738">
        <ele>1311.86</ele>
        <time>2013-06-02T09:19:47Z</time>
      </trkpt>
      <trkpt lat="44.57993" lon="3.84723">
        <ele>1310.9</ele>
        <time>2013-06-02T09:20:01Z</time>
      </trkpt>
      <trkpt lat="44.58004" lon="3.8471">
        <ele>1310.9</ele>
        <time>2013-06-02T09:20:11Z</time>
      </trkpt>
      <trkpt lat="44.58009" lon="3.84699">
        <ele>1314.26</ele>
        <time>2013-06-02T09:20:17Z</time>
      </trkpt>
      <trkpt lat="44.58013" lon="3.84694">
        <ele>1311.86</ele>
        <time>2013-06-02T09:20:21Z</time>
      </trkpt>
      <trkpt lat="44.58031" lon="3.84671">
        <ele>1313.3</ele>
        <time>2013-06-02T09:20:39Z</time>
      </trkpt>
      <trkpt lat="44.58032" lon="3.8467">
        <ele>1313.3</ele>
        <time>2013-06-02T09:20:40Z</time>
      </trkpt>
      <trkpt lat="44.58036" lon="3.84666">
        <ele>1312.82</ele>
        <time>2013-06-02T09:20:45Z</time>
      </trkpt>
      <trkpt lat="44.58039" lon="3.84663">
        <ele>1311.86</ele>
        <time>2013-06-02T09:20:48Z</time>
      </trkpt>
      <trkpt lat="44.58048" lon="3.84643">
        <ele>1311.86</ele>
        <time>2013-06-02T09:21:00Z</time>
      </trkpt>
      <trkpt lat="44.58053" lon="3.84626">
        <ele>1310.41</ele>
        <time>2013-06-02T09:21:10Z</time>
      </trkpt>
      <trkpt lat="44.58056" lon="3.8462">
        <ele>1312.34</ele>
        <time>2013-06-02T09:21:23Z</time>
      </trkpt>
      <trkpt lat="44.58057" lon="3.84621">
        <ele>1309.93</ele>
        <time>2013-06-02T09:21:28Z</time>
      </trkpt>
      <trkpt lat="44.58056" lon="3.84621">
        <ele>1312.34</ele>
        <time>2013-06-02T09:21:34Z</time>
      </trkpt>
      <trkpt lat="44.58057" lon="3.84616">
        <ele>1311.38</ele>
        <time>2013-06-02T09:21:53Z</time>
      </trkpt>
      <trkpt lat="44.58058" lon="3.84612">
        <ele>1311.38</ele>
        <time>2013-06-02T09:22:21Z</time>
      </trkpt>
      <trkpt lat="44.58059" lon="3.84615">
        <ele>1311.38</ele>
        <time>2013-06-02T09:22:38Z</time>
      </trkpt>
      <trkpt lat="44.5806" lon="3.84614">
        <ele>1312.82</ele>
        <time>2013-06-02T09:22:50Z</time>
      </trkpt>
      <trkpt lat="44.58067" lon="3.84596">
        <ele>1314.26</ele>
        <time>2013-06-02T09:23:02Z</time>
      </trkpt>
      <trkpt lat="44.58073" lon="3.84571">
        <ele>1312.82</ele>
        <time>2013-06-02T09:23:15Z</time>
      </trkpt>
      <trkpt lat="44.58073" lon="3.84569">
        <ele>1312.82</ele>
        <time>2013-06-02T09:23:16Z</time>
      </trkpt>
      <trkpt lat="44.5808" lon="3.84543">
        <ele>1315.22</ele>
        <time>2013-06-02T09:23:32Z</time>
      </trkpt>
      <trkpt lat="44.58082" lon="3.84539">
        <ele>1315.22</ele>
        <time>2013-06-02T09:23:35Z</time>
      </trkpt>
      <trkpt lat="44.58085" lon="3.84537">
        <ele>1315.7</ele>
        <time>2013-06-02T09:23:38Z</time>
      </trkpt>
      <trkpt lat="44.58087" lon="3.84535">
        <ele>1314.74</ele>
        <time>2013-06-02T09:23:40Z</time>
      </trkpt>
      <trkpt lat="44.58089" lon="3.84533">
        <ele>1314.74</ele>
        <time>2013-06-02T09:23:42Z</time>
      </trkpt>
      <trkpt lat="44.58105" lon="3.84514">
        <ele>1315.22</ele>
        <time>2013-06-02T09:23:58Z</time>
      </trkpt>
      <trkpt lat="44.58109" lon="3.84512">
        <ele>1315.22</ele>
        <time>2013-06-02T09:24:02Z</time>
      </trkpt>
      <trkpt lat="44.58119" lon="3.84496">
        <ele>1314.74</ele>
        <time>2013-06-02T09:24:14Z</time>
      </trkpt>
      <trkpt lat="44.58119" lon="3.84493">
        <ele>1315.7</ele>
        <time>2013-06-02T09:24:16Z</time>
      </trkpt>
      <trkpt lat="44.58119" lon="3.84492">
        <ele>1315.7</ele>
        <time>2013-06-02T09:24:17Z</time>
      </trkpt>
      <trkpt lat="44.58118" lon="3.84487">
        <ele>1315.7</ele>
        <time>2013-06-02T09:24:21Z</time>
      </trkpt>
      <trkpt lat="44.58118" lon="3.84481">
        <ele>1316.66</ele>
        <time>2013-06-02T09:24:24Z</time>
      </trkpt>
      <trkpt lat="44.5812" lon="3.84468">
        <ele>1318.59</ele>
        <time>2013-06-02T09:24:36Z</time>
      </trkpt>
      <trkpt lat="44.58119" lon="3.8446">
        <ele>1319.55</ele>
        <time>2013-06-02T09:24:45Z</time>
      </trkpt>
      <trkpt lat="44.58109" lon="3.8445">
        <ele>1322.43</ele>
        <time>2013-06-02T09:25:01Z</time>
      </trkpt>
      <trkpt lat="44.58103" lon="3.84449">
        <ele>1324.35</ele>
        <time>2013-06-02T09:25:07Z</time>
      </trkpt>
      <trkpt lat="44.58101" lon="3.8445">
        <ele>1324.35</ele>
        <time>2013-06-02T09:25:09Z</time>
      </trkpt>
      <trkpt lat="44.58088" lon="3.84452">
        <ele>1325.8</ele>
        <time>2013-06-02T09:25:23Z</time>
      </trkpt>
      <trkpt lat="44.58087" lon="3.84453">
        <ele>1325.8</ele>
        <time>2013-06-02T09:25:24Z</time>
      </trkpt>
      <trkpt lat="44.58088" lon="3.84458">
        <ele>1324.35</ele>
        <time>2013-06-02T09:25:29Z</time>
      </trkpt>
      <trkpt lat="44.58088" lon="3.84461">
        <ele>1325.8</ele>
        <time>2013-06-02T09:25:38Z</time>
      </trkpt>
      <trkpt lat="44.58088" lon="3.84464">
        <ele>1327.72</ele>
        <time>2013-06-02T09:25:53Z</time>
      </trkpt>
      <trkpt lat="44.58087" lon="3.84467">
        <ele>1327.72</ele>
        <time>2013-06-02T09:26:04Z</time>
      </trkpt>
      <trkpt lat="44.58087" lon="3.84466">
        <ele>1328.68</ele>
        <time>2013-06-02T09:26:15Z</time>
      </trkpt>
      <trkpt lat="44.58086" lon="3.84465">
        <ele>1326.76</ele>
        <time>2013-06-02T09:26:20Z</time>
      </trkpt>
      <trkpt lat="44.58086" lon="3.84466">
        <ele>1328.2</ele>
        <time>2013-06-02T09:26:25Z</time>
      </trkpt>
      <trkpt lat="44.58086" lon="3.84466">
        <ele>1326.28</ele>
        <time>2013-06-02T09:26:27Z</time>
      </trkpt>
      <trkpt lat="44.58086" lon="3.84466">
        <ele>1328.2</ele>
        <time>2013-06-02T09:26:29Z</time>
      </trkpt>
      <trkpt lat="44.58085" lon="3.84465">
        <ele>1326.76</ele>
        <time>2013-06-02T09:26:54Z</time>
      </trkpt>
      <trkpt lat="44.58085" lon="3.84464">
        <ele>1325.8</ele>
        <time>2013-06-02T09:27:03Z</time>
      </trkpt>
      <trkpt lat="44.58085" lon="3.84464">
        <ele>1330.12</ele>
        <time>2013-06-02T09:27:04Z</time>
      </trkpt>
      <trkpt lat="44.58085" lon="3.84464">
        <ele>1330.12</ele>
        <time>2013-06-02T09:27:05Z</time>
      </trkpt>
      <trkpt lat="44.58085" lon="3.84463">
        <ele>1328.68</ele>
        <time>2013-06-02T09:27:09Z</time>
      </trkpt>
      <trkpt lat="44.58086" lon="3.84464">
        <ele>1327.24</ele>
        <time>2013-06-02T09:27:39Z</time>
      </trkpt>
      <trkpt lat="44.58086" lon="3.84463">
        <ele>1329.64</ele>
        <time>2013-06-02T09:27:57Z</time>
      </trkpt>
      <trkpt lat="44.58087" lon="3.8446">
        <ele>1328.2</ele>
        <time>2013-06-02T09:28:27Z</time>
      </trkpt>
      <trkpt lat="44.58086" lon="3.84459">
        <ele>1329.64</ele>
        <time>2013-06-02T09:28:55Z</time>
      </trkpt>
      <trkpt lat="44.58085" lon="3.84458">
        <ele>1327.24</ele>
        <time>2013-06-02T09:29:00Z</time>
      </trkpt>
      <trkpt lat="44.58085" lon="3.84457">
        <ele>1328.68</ele>
        <time>2013-06-02T09:29:04Z</time>
      </trkpt>
      <trkpt lat="44.58084" lon="3.84459">
        <ele>1326.76</ele>
        <time>2013-06-02T09:29:11Z</time>
      </trkpt>
      <trkpt lat="44.58084" lon="3.84464">
        <ele>1328.2</ele>
        <time>2013-06-02T09:29:32Z</time>
      </trkpt>
      <trkpt lat="44.58084" lon="3.84463">
        <ele>1327.24</ele>
        <time>2013-06-02T09:30:06Z</time>
      </trkpt>
      <trkpt lat="44.58087" lon="3.84465">
        <ele>1326.28</ele>
        <time>2013-06-02T09:30:38Z</time>
      </trkpt>
      <trkpt lat="44.58088" lon="3.84465">
        <ele>1325.8</ele>
        <time>2013-06-02T09:31:04Z</time>
      </trkpt>
      <trkpt lat="44.58088" lon="3.84466">
        <ele>1329.16</ele>
        <time>2013-06-02T09:31:09Z</time>
      </trkpt>
      <trkpt lat="44.58087" lon="3.84466">
        <ele>1327.72</ele>
        <time>2013-06-02T09:31:15Z</time>
      </trkpt>
      <trkpt lat="44.58086" lon="3.8447">
        <ele>1327.72</ele>
        <time>2013-06-02T09:31:56Z</time>
      </trkpt>
      <trkpt lat="44.58083" lon="3.84469">
        <ele>1326.28</ele>
        <time>2013-06-02T09:32:38Z</time>
      </trkpt>
      <trkpt lat="44.58083" lon="3.84469">
        <ele>1326.28</ele>
        <time>2013-06-02T09:32:39Z</time>
      </trkpt>
      <trkpt lat="44.58084" lon="3.8447">
        <ele>1327.24</ele>
        <time>2013-06-02T09:32:51Z</time>
      </trkpt>
      <trkpt lat="44.58087" lon="3.84471">
        <ele>1326.28</ele>
        <time>2013-06-02T09:33:33Z</time>
      </trkpt>
      <trkpt lat="44.58087" lon="3.84471">
        <ele>1327.72</ele>
        <time>2013-06-02T09:33:38Z</time>
      </trkpt>
      <trkpt lat="44.58086" lon="3.84471">
        <ele>1326.28</ele>
        <time>2013-06-02T09:33:44Z</time>
      </trkpt>
      <trkpt lat="44.58086" lon="3.84472">
        <ele>1327.72</ele>
        <time>2013-06-02T09:33:47Z</time>
      </trkpt>
      <trkpt lat="44.58086" lon="3.84472">
        <ele>1326.28</ele>
        <time>2013-06-02T09:33:51Z</time>
      </trkpt>
      <trkpt lat="44.58085" lon="3.8447">
        <ele>1327.72</ele>
        <time>2013-06-02T09:34:21Z</time>
      </trkpt>
      <trkpt lat="44.58085" lon="3.84469">
        <ele>1326.76</ele>
        <time>2013-06-02T09:34:30Z</time>
      </trkpt>
      <trkpt lat="44.58084" lon="3.8447">
        <ele>1327.72</ele>
        <time>2013-06-02T09:35:07Z</time>
      </trkpt>
      <trkpt lat="44.58086" lon="3.84469">
        <ele>1327.24</ele>
        <time>2013-06-02T09:35:25Z</time>
      </trkpt>
      <trkpt lat="44.58086" lon="3.84471">
        <ele>1326.76</ele>
        <time>2013-06-02T09:35:58Z</time>
      </trkpt>
      <trkpt lat="44.58085" lon="3.84472">
        <ele>1327.72</ele>
        <time>2013-06-02T09:36:36Z</time>
      </trkpt>
      <trkpt lat="44.58085" lon="3.84471">
        <ele>1327.72</ele>
        <time>2013-06-02T09:36:48Z</time>
      </trkpt>
      <trkpt lat="44.58083" lon="3.84468">
        <ele>1328.2</ele>
        <time>2013-06-02T09:37:09Z</time>
      </trkpt>
      <trkpt lat="44.58084" lon="3.84469">
        <ele>1328.2</ele>
        <time>2013-06-02T09:37:53Z</time>
      </trkpt>
      <trkpt lat="44.58086" lon="3.8447">
        <ele>1326.76</ele>
        <time>2013-06-02T09:38:23Z</time>
      </trkpt>
      <trkpt lat="44.58086" lon="3.8447">
        <ele>1325.31</ele>
        <time>2013-06-02T09:38:28Z</time>
      </trkpt>
      <trkpt lat="44.58085" lon="3.84471">
        <ele>1326.76</ele>
        <time>2013-06-02T09:39:00Z</time>
      </trkpt>
      <trkpt lat="44.58085" lon="3.84471">
        <ele>1327.24</ele>
        <time>2013-06-02T09:39:08Z</time>
      </trkpt>
      <trkpt lat="44.58085" lon="3.8447">
        <ele>1326.76</ele>
        <time>2013-06-02T09:39:26Z</time>
      </trkpt>
      <trkpt lat="44.58086" lon="3.84467">
        <ele>1327.24</ele>
        <time>2013-06-02T09:39:52Z</time>
      </trkpt>
      <trkpt lat="44.58087" lon="3.84468">
        <ele>1325.8</ele>
        <time>2013-06-02T09:40:09Z</time>
      </trkpt>
      <trkpt lat="44.58087" lon="3.84468">
        <ele>1327.24</ele>
        <time>2013-06-02T09:40:17Z</time>
      </trkpt>
      <trkpt lat="44.58087" lon="3.84467">
        <ele>1325.8</ele>
        <time>2013-06-02T09:40:21Z</time>
      </trkpt>
      <trkpt lat="44.58085" lon="3.84465">
        <ele>1328.2</ele>
        <time>2013-06-02T09:40:31Z</time>
      </trkpt>
      <trkpt lat="44.58084" lon="3.84465">
        <ele>1326.76</ele>
        <time>2013-06-02T09:40:38Z</time>
      </trkpt>
      <trkpt lat="44.58084" lon="3.84466">
        <ele>1330.12</ele>
        <time>2013-06-02T09:40:45Z</time>
      </trkpt>
      <trkpt lat="44.58085" lon="3.84465">
        <ele>1325.31</ele>
        <time>2013-06-02T09:40:54Z</time>
      </trkpt>
      <trkpt lat="44.58085" lon="3.84465">
        <ele>1327.72</ele>
        <time>2013-06-02T09:40:59Z</time>
      </trkpt>
      <trkpt lat="44.58086" lon="3.84464">
        <ele>1329.64</ele>
        <time>2013-06-02T09:41:15Z</time>
      </trkpt>
      <trkpt lat="44.58086" lon="3.84464">
        <ele>1328.2</ele>
        <time>2013-06-02T09:41:17Z</time>
      </trkpt>
      <trkpt lat="44.58087" lon="3.84468">
        <ele>1327.24</ele>
        <time>2013-06-02T09:41:42Z</time>
      </trkpt>
      <trkpt lat="44.58089" lon="3.84468">
        <ele>1324.83</ele>
        <time>2013-06-02T09:42:10Z</time>
      </trkpt>
      <trkpt lat="44.58089" lon="3.84468">
        <ele>1326.28</ele>
        <time>2013-06-02T09:42:12Z</time>
      </trkpt>
      <trkpt lat="44.58086" lon="3.84468">
        <ele>1326.28</ele>
        <time>2013-06-02T09:42:35Z</time>
      </trkpt>
      <trkpt lat="44.58087" lon="3.84463">
        <ele>1324.35</ele>
        <time>2013-06-02T09:42:49Z</time>
      </trkpt>
      <trkpt lat="44.58084" lon="3.84456">
        <ele>1323.39</ele>
        <time>2013-06-02T09:43:02Z</time>
      </trkpt>
      <trkpt lat="44.58085" lon="3.84451">
        <ele>1323.39</ele>
        <time>2013-06-02T09:43:07Z</time>
      </trkpt>
      <trkpt lat="44.58101" lon="3.8445">
        <ele>1322.91</ele>
        <time>2013-06-02T09:43:22Z</time>
      </trkpt>
      <trkpt lat="44.58108" lon="3.8445">
        <ele>1320.03</ele>
        <time>2013-06-02T09:43:28Z</time>
      </trkpt>
      <trkpt lat="44.58117" lon="3.84456">
        <ele>1318.59</ele>
        <time>2013-06-02T09:43:41Z</time>
      </trkpt>
      <trkpt lat="44.58119" lon="3.84467">
        <ele>1316.66</ele>
        <time>2013-06-02T09:43:54Z</time>
      </trkpt>
      <trkpt lat="44.58118" lon="3.84471">
        <ele>1316.66</ele>
        <time>2013-06-02T09:44:04Z</time>
      </trkpt>
      <trkpt lat="44.58118" lon="3.84471">
        <ele>1315.22</ele>
        <time>2013-06-02T09:44:07Z</time>
      </trkpt>
      <trkpt lat="44.58117" lon="3.84473">
        <ele>1313.3</ele>
        <time>2013-06-02T09:44:11Z</time>
      </trkpt>
      <trkpt lat="44.58119" lon="3.84481">
        <ele>1314.74</ele>
        <time>2013-06-02T09:44:25Z</time>
      </trkpt>
      <trkpt lat="44.58119" lon="3.84484">
        <ele>1317.14</ele>
        <time>2013-06-02T09:44:28Z</time>
      </trkpt>
      <trkpt lat="44.5812" lon="3.84486">
        <ele>1315.22</ele>
        <time>2013-06-02T09:44:30Z</time>
      </trkpt>
      <trkpt lat="44.58122" lon="3.8449">
        <ele>1313.78</ele>
        <time>2013-06-02T09:44:34Z</time>
      </trkpt>
      <trkpt lat="44.5812" lon="3.84495">
        <ele>1314.26</ele>
        <time>2013-06-02T09:44:39Z</time>
      </trkpt>
      <trkpt lat="44.58118" lon="3.84499">
        <ele>1314.26</ele>
        <time>2013-06-02T09:44:44Z</time>
      </trkpt>
      <trkpt lat="44.58116" lon="3.84503">
        <ele>1312.82</ele>
        <time>2013-06-02T09:44:47Z</time>
      </trkpt>
      <trkpt lat="44.58107" lon="3.84508">
        <ele>1312.82</ele>
        <time>2013-06-02T09:44:56Z</time>
      </trkpt>
      <trkpt lat="44.58094" lon="3.84527">
        <ele>1311.38</ele>
        <time>2013-06-02T09:45:11Z</time>
      </trkpt>
      <trkpt lat="44.5809" lon="3.84533">
        <ele>1314.74</ele>
        <time>2013-06-02T09:45:15Z</time>
      </trkpt>
      <trkpt lat="44.58086" lon="3.84535">
        <ele>1313.78</ele>
        <time>2013-06-02T09:45:19Z</time>
      </trkpt>
      <trkpt lat="44.58082" lon="3.84542">
        <ele>1314.74</ele>
        <time>2013-06-02T09:45:24Z</time>
      </trkpt>
      <trkpt lat="44.58077" lon="3.84561">
        <ele>1312.34</ele>
        <time>2013-06-02T09:45:38Z</time>
      </trkpt>
      <trkpt lat="44.58075" lon="3.84567">
        <ele>1313.3</ele>
        <time>2013-06-02T09:45:42Z</time>
      </trkpt>
      <trkpt lat="44.58074" lon="3.84577">
        <ele>1311.86</ele>
        <time>2013-06-02T09:45:48Z</time>
      </trkpt>
      <trkpt lat="44.58065" lon="3.84598">
        <ele>1313.78</ele>
        <time>2013-06-02T09:46:01Z</time>
      </trkpt>
      <trkpt lat="44.58065" lon="3.84601">
        <ele>1311.38</ele>
        <time>2013-06-02T09:46:03Z</time>
      </trkpt>
      <trkpt lat="44.58064" lon="3.84603">
        <ele>1311.38</ele>
        <time>2013-06-02T09:46:04Z</time>
      </trkpt>
      <trkpt lat="44.5806" lon="3.8461">
        <ele>1312.34</ele>
        <time>2013-06-02T09:46:09Z</time>
      </trkpt>
      <trkpt lat="44.58056" lon="3.84616">
        <ele>1310.9</ele>
        <time>2013-06-02T09:46:13Z</time>
      </trkpt>
      <trkpt lat="44.58054" lon="3.84618">
        <ele>1310.9</ele>
        <time>2013-06-02T09:46:15Z</time>
      </trkpt>
      <trkpt lat="44.58051" lon="3.84625">
        <ele>1310.9</ele>
        <time>2013-06-02T09:46:20Z</time>
      </trkpt>
      <trkpt lat="44.58043" lon="3.84646">
        <ele>1309.93</ele>
        <time>2013-06-02T09:46:34Z</time>
      </trkpt>
      <trkpt lat="44.58027" lon="3.84666">
        <ele>1309.45</ele>
        <time>2013-06-02T09:46:51Z</time>
      </trkpt>
      <trkpt lat="44.58009" lon="3.84689">
        <ele>1308.97</ele>
        <time>2013-06-02T09:47:08Z</time>
      </trkpt>
      <trkpt lat="44.57997" lon="3.84704">
        <ele>1309.45</ele>
        <time>2013-06-02T09:47:21Z</time>
      </trkpt>
      <trkpt lat="44.57992" lon="3.84712">
        <ele>1310.41</ele>
        <time>2013-06-02T09:47:27Z</time>
      </trkpt>
      <trkpt lat="44.5799" lon="3.84713">
        <ele>1310.9</ele>
        <time>2013-06-02T09:47:29Z</time>
      </trkpt>
      <trkpt lat="44.57968" lon="3.8474">
        <ele>1311.38</ele>
        <time>2013-06-02T09:47:46Z</time>
      </trkpt>
      <trkpt lat="44.57959" lon="3.84749">
        <ele>1310.41</ele>
        <time>2013-06-02T09:47:54Z</time>
      </trkpt>
      <trkpt lat="44.57944" lon="3.84771">
        <ele>1309.93</ele>
        <time>2013-06-02T09:48:09Z</time>
      </trkpt>
      <trkpt lat="44.57923" lon="3.84788">
        <ele>1310.41</ele>
        <time>2013-06-02T09:48:24Z</time>
      </trkpt>
      <trkpt lat="44.57906" lon="3.84804">
        <ele>1308.49</ele>
        <time>2013-06-02T09:48:38Z</time>
      </trkpt>
      <trkpt lat="44.57883" lon="3.84818">
        <ele>1307.05</ele>
        <time>2013-06-02T09:48:55Z</time>
      </trkpt>
      <trkpt lat="44.57861" lon="3.84831">
        <ele>1305.13</ele>
        <time>2013-06-02T09:49:12Z</time>
      </trkpt>
      <trkpt lat="44.57839" lon="3.84839">
        <ele>1302.24</ele>
        <time>2013-06-02T09:49:27Z</time>
      </trkpt>
      <trkpt lat="44.57814" lon="3.84848">
        <ele>1301.28</ele>
        <time>2013-06-02T09:49:46Z</time>
      </trkpt>
      <trkpt lat="44.57808" lon="3.84851">
        <ele>1299.84</ele>
        <time>2013-06-02T09:49:56Z</time>
      </trkpt>
      <trkpt lat="44.57812" lon="3.84849">
        <ele>1301.28</ele>
        <time>2013-06-02T09:50:00Z</time>
      </trkpt>
      <trkpt lat="44.57814" lon="3.84849">
        <ele>1301.76</ele>
        <time>2013-06-02T09:50:03Z</time>
      </trkpt>
      <trkpt lat="44.57817" lon="3.84849">
        <ele>1301.76</ele>
        <time>2013-06-02T09:50:06Z</time>
      </trkpt>
      <trkpt lat="44.57829" lon="3.84844">
        <ele>1304.17</ele>
        <time>2013-06-02T09:50:17Z</time>
      </trkpt>
      <trkpt lat="44.57842" lon="3.84839">
        <ele>1304.17</ele>
        <time>2013-06-02T09:50:31Z</time>
      </trkpt>
      <trkpt lat="44.57845" lon="3.84834">
        <ele>1305.61</ele>
        <time>2013-06-02T09:50:44Z</time>
      </trkpt>
      <trkpt lat="44.57846" lon="3.84832">
        <ele>1304.65</ele>
        <time>2013-06-02T09:51:21Z</time>
      </trkpt>
      <trkpt lat="44.57843" lon="3.84834">
        <ele>1302.72</ele>
        <time>2013-06-02T09:51:55Z</time>
      </trkpt>
      <trkpt lat="44.57843" lon="3.84836">
        <ele>1304.17</ele>
        <time>2013-06-02T09:51:59Z</time>
      </trkpt>
      <trkpt lat="44.5783" lon="3.84842">
        <ele>1303.2</ele>
        <time>2013-06-02T09:52:12Z</time>
      </trkpt>
      <trkpt lat="44.57811" lon="3.84848">
        <ele>1300.8</ele>
        <time>2013-06-02T09:52:27Z</time>
      </trkpt>
      <trkpt lat="44.5779" lon="3.84854">
        <ele>1299.36</ele>
        <time>2013-06-02T09:52:42Z</time>
      </trkpt>
      <trkpt lat="44.57769" lon="3.84858">
        <ele>1297.92</ele>
        <time>2013-06-02T09:52:56Z</time>
      </trkpt>
      <trkpt lat="44.57745" lon="3.84866">
        <ele>1295.03</ele>
        <time>2013-06-02T09:53:13Z</time>
      </trkpt>
      <trkpt lat="44.57716" lon="3.84874">
        <ele>1292.63</ele>
        <time>2013-06-02T09:53:32Z</time>
      </trkpt>
      <trkpt lat="44.57696" lon="3.84878">
        <ele>1289.75</ele>
        <time>2013-06-02T09:53:46Z</time>
      </trkpt>
      <trkpt lat="44.5769" lon="3.8488">
        <ele>1287.82</ele>
        <time>2013-06-02T09:53:50Z</time>
      </trkpt>
      <trkpt lat="44.57672" lon="3.84885">
        <ele>1288.78</ele>
        <time>2013-06-02T09:54:03Z</time>
      </trkpt>
      <trkpt lat="44.57657" lon="3.84893">
        <ele>1286.86</ele>
        <time>2013-06-02T09:54:17Z</time>
      </trkpt>
      <trkpt lat="44.57656" lon="3.84894">
        <ele>1286.86</ele>
        <time>2013-06-02T09:54:18Z</time>
      </trkpt>
      <trkpt lat="44.57635" lon="3.84895">
        <ele>1283.5</ele>
        <time>2013-06-02T09:54:33Z</time>
      </trkpt>
      <trkpt lat="44.57615" lon="3.84894">
        <ele>1282.54</ele>
        <time>2013-06-02T09:54:46Z</time>
      </trkpt>
      <trkpt lat="44.57609" lon="3.84895">
        <ele>1282.06</ele>
        <time>2013-06-02T09:54:50Z</time>
      </trkpt>
      <trkpt lat="44.57591" lon="3.84902">
        <ele>1279.17</ele>
        <time>2013-06-02T09:55:04Z</time>
      </trkpt>
      <trkpt lat="44.57569" lon="3.8491">
        <ele>1275.33</ele>
        <time>2013-06-02T09:55:19Z</time>
      </trkpt>
      <trkpt lat="44.57553" lon="3.84915">
        <ele>1276.29</ele>
        <time>2013-06-02T09:55:32Z</time>
      </trkpt>
      <trkpt lat="44.57548" lon="3.84916">
        <ele>1274.85</ele>
        <time>2013-06-02T09:55:35Z</time>
      </trkpt>
      <trkpt lat="44.57535" lon="3.84921">
        <ele>1272.44</ele>
        <time>2013-06-02T09:55:47Z</time>
      </trkpt>
      <trkpt lat="44.57511" lon="3.84927">
        <ele>1269.56</ele>
        <time>2013-06-02T09:56:02Z</time>
      </trkpt>
      <trkpt lat="44.57487" lon="3.84936">
        <ele>1267.16</ele>
        <time>2013-06-02T09:56:18Z</time>
      </trkpt>
      <trkpt lat="44.57461" lon="3.84943">
        <ele>1264.27</ele>
        <time>2013-06-02T09:56:35Z</time>
      </trkpt>
      <trkpt lat="44.57441" lon="3.8495">
        <ele>1261.87</ele>
        <time>2013-06-02T09:56:51Z</time>
      </trkpt>
      <trkpt lat="44.57426" lon="3.84959">
        <ele>1260.43</ele>
        <time>2013-06-02T09:57:02Z</time>
      </trkpt>
      <trkpt lat="44.57404" lon="3.84967">
        <ele>1258.98</ele>
        <time>2013-06-02T09:57:16Z</time>
      </trkpt>
      <trkpt lat="44.57382" lon="3.84968">
        <ele>1256.58</ele>
        <time>2013-06-02T09:57:32Z</time>
      </trkpt>
      <trkpt lat="44.5736" lon="3.84968">
        <ele>1253.7</ele>
        <time>2013-06-02T09:57:47Z</time>
      </trkpt>
      <trkpt lat="44.57351" lon="3.84968">
        <ele>1252.74</ele>
        <time>2013-06-02T09:57:54Z</time>
      </trkpt>
      <trkpt lat="44.57329" lon="3.84964">
        <ele>1250.81</ele>
        <time>2013-06-02T09:58:10Z</time>
      </trkpt>
      <trkpt lat="44.57308" lon="3.8496">
        <ele>1248.41</ele>
        <time>2013-06-02T09:58:25Z</time>
      </trkpt>
      <trkpt lat="44.57296" lon="3.84954">
        <ele>1245.53</ele>
        <time>2013-06-02T09:58:34Z</time>
      </trkpt>
      <trkpt lat="44.5729" lon="3.84949">
        <ele>1244.56</ele>
        <time>2013-06-02T09:58:39Z</time>
      </trkpt>
      <trkpt lat="44.57285" lon="3.84947">
        <ele>1244.56</ele>
        <time>2013-06-02T09:58:42Z</time>
      </trkpt>
      <trkpt lat="44.57268" lon="3.84931">
        <ele>1241.2</ele>
        <time>2013-06-02T09:58:55Z</time>
      </trkpt>
      <trkpt lat="44.57262" lon="3.84923">
        <ele>1239.76</ele>
        <time>2013-06-02T09:59:01Z</time>
      </trkpt>
      <trkpt lat="44.5726" lon="3.84919">
        <ele>1241.2</ele>
        <time>2013-06-02T09:59:04Z</time>
      </trkpt>
      <trkpt lat="44.57248" lon="3.84909">
        <ele>1240.24</ele>
        <time>2013-06-02T09:59:14Z</time>
      </trkpt>
      <trkpt lat="44.57231" lon="3.84895">
        <ele>1238.32</ele>
        <time>2013-06-02T09:59:27Z</time>
      </trkpt>
      <trkpt lat="44.57224" lon="3.84884">
        <ele>1237.35</ele>
        <time>2013-06-02T09:59:34Z</time>
      </trkpt>
      <trkpt lat="44.57218" lon="3.84867">
        <ele>1233.51</ele>
        <time>2013-06-02T09:59:45Z</time>
      </trkpt>
      <trkpt lat="44.57216" lon="3.84862">
        <ele>1233.51</ele>
        <time>2013-06-02T09:59:48Z</time>
      </trkpt>
      <trkpt lat="44.572" lon="3.84844">
        <ele>1233.03</ele>
        <time>2013-06-02T10:00:01Z</time>
      </trkpt>
      <trkpt lat="44.57188" lon="3.84831">
        <ele>1231.59</ele>
        <time>2013-06-02T10:00:13Z</time>
      </trkpt>
      <trkpt lat="44.57173" lon="3.84812">
        <ele>1229.18</ele>
        <time>2013-06-02T10:00:26Z</time>
      </trkpt>
      <trkpt lat="44.57157" lon="3.84797">
        <ele>1227.26</ele>
        <time>2013-06-02T10:00:38Z</time>
      </trkpt>
      <trkpt lat="44.57138" lon="3.84777">
        <ele>1224.86</ele>
        <time>2013-06-02T10:00:51Z</time>
      </trkpt>
      <trkpt lat="44.5713" lon="3.84772">
        <ele>1223.9</ele>
        <time>2013-06-02T10:00:56Z</time>
      </trkpt>
      <trkpt lat="44.57123" lon="3.84768">
        <ele>1222.93</ele>
        <time>2013-06-02T10:01:01Z</time>
      </trkpt>
      <trkpt lat="44.57112" lon="3.84764">
        <ele>1222.45</ele>
        <time>2013-06-02T10:01:09Z</time>
      </trkpt>
      <trkpt lat="44.57093" lon="3.8476">
        <ele>1221.01</ele>
        <time>2013-06-02T10:01:22Z</time>
      </trkpt>
      <trkpt lat="44.57078" lon="3.84756">
        <ele>1219.57</ele>
        <time>2013-06-02T10:01:33Z</time>
      </trkpt>
      <trkpt lat="44.57075" lon="3.84756">
        <ele>1219.09</ele>
        <time>2013-06-02T10:01:36Z</time>
      </trkpt>
      <trkpt lat="44.57062" lon="3.84753">
        <ele>1217.17</ele>
        <time>2013-06-02T10:01:46Z</time>
      </trkpt>
      <trkpt lat="44.57061" lon="3.84753">
        <ele>1216.69</ele>
        <time>2013-06-02T10:01:47Z</time>
      </trkpt>
      <trkpt lat="44.57038" lon="3.84749">
        <ele>1217.17</ele>
        <time>2013-06-02T10:02:00Z</time>
      </trkpt>
      <trkpt lat="44.57029" lon="3.84747">
        <ele>1214.76</ele>
        <time>2013-06-02T10:02:06Z</time>
      </trkpt>
      <trkpt lat="44.57011" lon="3.84742">
        <ele>1213.32</ele>
        <time>2013-06-02T10:02:19Z</time>
      </trkpt>
      <trkpt lat="44.57004" lon="3.84739">
        <ele>1212.36</ele>
        <time>2013-06-02T10:02:25Z</time>
      </trkpt>
      <trkpt lat="44.56986" lon="3.84725">
        <ele>1209.96</ele>
        <time>2013-06-02T10:02:39Z</time>
      </trkpt>
      <trkpt lat="44.56974" lon="3.8472">
        <ele>1208.51</ele>
        <time>2013-06-02T10:02:49Z</time>
      </trkpt>
      <trkpt lat="44.56965" lon="3.84718">
        <ele>1207.55</ele>
        <time>2013-06-02T10:02:55Z</time>
      </trkpt>
      <trkpt lat="44.56963" lon="3.84716">
        <ele>1207.07</ele>
        <time>2013-06-02T10:02:57Z</time>
      </trkpt>
      <trkpt lat="44.56947" lon="3.84711">
        <ele>1206.11</ele>
        <time>2013-06-02T10:03:07Z</time>
      </trkpt>
      <trkpt lat="44.56929" lon="3.84697">
        <ele>1205.15</ele>
        <time>2013-06-02T10:03:21Z</time>
      </trkpt>
      <trkpt lat="44.56911" lon="3.84687">
        <ele>1202.75</ele>
        <time>2013-06-02T10:03:36Z</time>
      </trkpt>
      <trkpt lat="44.5691" lon="3.84686">
        <ele>1202.27</ele>
        <time>2013-06-02T10:03:37Z</time>
      </trkpt>
      <trkpt lat="44.56904" lon="3.84684">
        <ele>1200.82</ele>
        <time>2013-06-02T10:03:41Z</time>
      </trkpt>
      <trkpt lat="44.56885" lon="3.84672">
        <ele>1200.82</ele>
        <time>2013-06-02T10:03:55Z</time>
      </trkpt>
      <trkpt lat="44.56861" lon="3.84662">
        <ele>1197.94</ele>
        <time>2013-06-02T10:04:12Z</time>
      </trkpt>
      <trkpt lat="44.56838" lon="3.84654">
        <ele>1196.02</ele>
        <time>2013-06-02T10:04:27Z</time>
      </trkpt>
      <trkpt lat="44.56816" lon="3.84648">
        <ele>1195.06</ele>
        <time>2013-06-02T10:04:42Z</time>
      </trkpt>
      <trkpt lat="44.56812" lon="3.84647">
        <ele>1195.06</ele>
        <time>2013-06-02T10:04:45Z</time>
      </trkpt>
      <trkpt lat="44.56789" lon="3.84647">
        <ele>1194.09</ele>
        <time>2013-06-02T10:05:00Z</time>
      </trkpt>
      <trkpt lat="44.56775" lon="3.84646">
        <ele>1191.69</ele>
        <time>2013-06-02T10:05:09Z</time>
      </trkpt>
      <trkpt lat="44.56751" lon="3.84651">
        <ele>1188.33</ele>
        <time>2013-06-02T10:05:24Z</time>
      </trkpt>
      <trkpt lat="44.56732" lon="3.84658">
        <ele>1186.4</ele>
        <time>2013-06-02T10:05:40Z</time>
      </trkpt>
      <trkpt lat="44.56731" lon="3.84659">
        <ele>1186.4</ele>
        <time>2013-06-02T10:05:41Z</time>
      </trkpt>
      <trkpt lat="44.56709" lon="3.84672">
        <ele>1183.04</ele>
        <time>2013-06-02T10:05:56Z</time>
      </trkpt>
      <trkpt lat="44.56698" lon="3.84681">
        <ele>1181.6</ele>
        <time>2013-06-02T10:06:05Z</time>
      </trkpt>
      <trkpt lat="44.56694" lon="3.84685">
        <ele>1183.52</ele>
        <time>2013-06-02T10:06:08Z</time>
      </trkpt>
      <trkpt lat="44.56691" lon="3.84688">
        <ele>1182.08</ele>
        <time>2013-06-02T10:06:10Z</time>
      </trkpt>
      <trkpt lat="44.56687" lon="3.84694">
        <ele>1180.64</ele>
        <time>2013-06-02T10:06:14Z</time>
      </trkpt>
      <trkpt lat="44.56676" lon="3.84709">
        <ele>1180.16</ele>
        <time>2013-06-02T10:06:24Z</time>
      </trkpt>
      <trkpt lat="44.56662" lon="3.84727">
        <ele>1177.75</ele>
        <time>2013-06-02T10:06:37Z</time>
      </trkpt>
      <trkpt lat="44.56644" lon="3.84752">
        <ele>1174.87</ele>
        <time>2013-06-02T10:06:54Z</time>
      </trkpt>
      <trkpt lat="44.56624" lon="3.84779">
        <ele>1172.95</ele>
        <time>2013-06-02T10:07:13Z</time>
      </trkpt>
      <trkpt lat="44.56609" lon="3.84803">
        <ele>1170.06</ele>
        <time>2013-06-02T10:07:29Z</time>
      </trkpt>
      <trkpt lat="44.56591" lon="3.84827">
        <ele>1167.66</ele>
        <time>2013-06-02T10:07:46Z</time>
      </trkpt>
      <trkpt lat="44.56573" lon="3.84838">
        <ele>1164.77</ele>
        <time>2013-06-02T10:08:01Z</time>
      </trkpt>
      <trkpt lat="44.56558" lon="3.84856">
        <ele>1162.85</ele>
        <time>2013-06-02T10:08:17Z</time>
      </trkpt>
      <trkpt lat="44.56539" lon="3.84882">
        <ele>1160.93</ele>
        <time>2013-06-02T10:08:34Z</time>
      </trkpt>
      <trkpt lat="44.56538" lon="3.84887">
        <ele>1160.45</ele>
        <time>2013-06-02T10:08:37Z</time>
      </trkpt>
      <trkpt lat="44.56529" lon="3.84908">
        <ele>1158.05</ele>
        <time>2013-06-02T10:08:49Z</time>
      </trkpt>
      <trkpt lat="44.56523" lon="3.84915">
        <ele>1160.45</ele>
        <time>2013-06-02T10:08:55Z</time>
      </trkpt>
      <trkpt lat="44.56517" lon="3.84941">
        <ele>1160.45</ele>
        <time>2013-06-02T10:09:11Z</time>
      </trkpt>
      <trkpt lat="44.56514" lon="3.84946">
        <ele>1158.53</ele>
        <time>2013-06-02T10:09:30Z</time>
      </trkpt>
      <trkpt lat="44.56515" lon="3.84957">
        <ele>1158.53</ele>
        <time>2013-06-02T10:09:38Z</time>
      </trkpt>
      <trkpt lat="44.56514" lon="3.84989">
        <ele>1157.56</ele>
        <time>2013-06-02T10:09:55Z</time>
      </trkpt>
      <trkpt lat="44.56524" lon="3.85022">
        <ele>1155.64</ele>
        <time>2013-06-02T10:10:14Z</time>
      </trkpt>
      <trkpt lat="44.5653" lon="3.85033">
        <ele>1157.08</ele>
        <time>2013-06-02T10:10:31Z</time>
      </trkpt>
      <trkpt lat="44.56533" lon="3.85037">
        <ele>1156.12</ele>
        <time>2013-06-02T10:10:34Z</time>
      </trkpt>
      <trkpt lat="44.56546" lon="3.85067">
        <ele>1153.72</ele>
        <time>2013-06-02T10:10:52Z</time>
      </trkpt>
      <trkpt lat="44.56553" lon="3.85092">
        <ele>1153.72</ele>
        <time>2013-06-02T10:11:06Z</time>
      </trkpt>
      <trkpt lat="44.56559" lon="3.85125">
        <ele>1153.72</ele>
        <time>2013-06-02T10:11:24Z</time>
      </trkpt>
      <trkpt lat="44.56561" lon="3.85154">
        <ele>1153.24</ele>
        <time>2013-06-02T10:11:40Z</time>
      </trkpt>
      <trkpt lat="44.56565" lon="3.85182">
        <ele>1152.76</ele>
        <time>2013-06-02T10:11:55Z</time>
      </trkpt>
      <trkpt lat="44.56566" lon="3.85186">
        <ele>1152.76</ele>
        <time>2013-06-02T10:11:58Z</time>
      </trkpt>
      <trkpt lat="44.56566" lon="3.85194">
        <ele>1152.76</ele>
        <time>2013-06-02T10:12:02Z</time>
      </trkpt>
      <trkpt lat="44.56565" lon="3.85208">
        <ele>1155.16</ele>
        <time>2013-06-02T10:12:10Z</time>
      </trkpt>
      <trkpt lat="44.56565" lon="3.85209">
        <ele>1155.16</ele>
        <time>2013-06-02T10:12:11Z</time>
      </trkpt>
      <trkpt lat="44.56567" lon="3.85221">
        <ele>1155.16</ele>
        <time>2013-06-02T10:12:17Z</time>
      </trkpt>
      <trkpt lat="44.56567" lon="3.85226">
        <ele>1153.24</ele>
        <time>2013-06-02T10:12:19Z</time>
      </trkpt>
      <trkpt lat="44.56567" lon="3.8526">
        <ele>1150.84</ele>
        <time>2013-06-02T10:12:36Z</time>
      </trkpt>
      <trkpt lat="44.56564" lon="3.85271">
        <ele>1150.35</ele>
        <time>2013-06-02T10:12:43Z</time>
      </trkpt>
      <trkpt lat="44.56563" lon="3.85297">
        <ele>1146.99</ele>
        <time>2013-06-02T10:12:56Z</time>
      </trkpt>
      <trkpt lat="44.56563" lon="3.85298">
        <ele>1146.99</ele>
        <time>2013-06-02T10:12:57Z</time>
      </trkpt>
      <trkpt lat="44.5656" lon="3.85307">
        <ele>1147.47</ele>
        <time>2013-06-02T10:13:03Z</time>
      </trkpt>
      <trkpt lat="44.56558" lon="3.85306">
        <ele>1146.51</ele>
        <time>2013-06-02T10:13:07Z</time>
      </trkpt>
      <trkpt lat="44.56545" lon="3.85277">
        <ele>1144.59</ele>
        <time>2013-06-02T10:13:26Z</time>
      </trkpt>
      <trkpt lat="44.56542" lon="3.85248">
        <ele>1142.66</ele>
        <time>2013-06-02T10:13:44Z</time>
      </trkpt>
      <trkpt lat="44.5654" lon="3.85223">
        <ele>1141.22</ele>
        <time>2013-06-02T10:13:56Z</time>
      </trkpt>
      <trkpt lat="44.56534" lon="3.8519">
        <ele>1139.78</ele>
        <time>2013-06-02T10:14:13Z</time>
      </trkpt>
      <trkpt lat="44.56524" lon="3.85165">
        <ele>1137.38</ele>
        <time>2013-06-02T10:14:29Z</time>
      </trkpt>
      <trkpt lat="44.56523" lon="3.85165">
        <ele>1137.38</ele>
        <time>2013-06-02T10:14:30Z</time>
      </trkpt>
      <trkpt lat="44.56512" lon="3.8514">
        <ele>1136.42</ele>
        <time>2013-06-02T10:14:45Z</time>
      </trkpt>
      <trkpt lat="44.56501" lon="3.85114">
        <ele>1134.97</ele>
        <time>2013-06-02T10:15:00Z</time>
      </trkpt>
      <trkpt lat="44.5648" lon="3.85092">
        <ele>1133.05</ele>
        <time>2013-06-02T10:15:17Z</time>
      </trkpt>
      <trkpt lat="44.56465" lon="3.85075">
        <ele>1131.61</ele>
        <time>2013-06-02T10:15:31Z</time>
      </trkpt>
      <trkpt lat="44.56458" lon="3.8507">
        <ele>1130.17</ele>
        <time>2013-06-02T10:15:37Z</time>
      </trkpt>
      <trkpt lat="44.5643" lon="3.85062">
        <ele>1127.76</ele>
        <time>2013-06-02T10:15:57Z</time>
      </trkpt>
      <trkpt lat="44.56416" lon="3.85055">
        <ele>1127.28</ele>
        <time>2013-06-02T10:16:11Z</time>
      </trkpt>
      <trkpt lat="44.56398" lon="3.85048">
        <ele>1126.8</ele>
        <time>2013-06-02T10:16:25Z</time>
      </trkpt>
      <trkpt lat="44.56382" lon="3.85046">
        <ele>1128.24</ele>
        <time>2013-06-02T10:16:37Z</time>
      </trkpt>
      <trkpt lat="44.56351" lon="3.85047">
        <ele>1131.13</ele>
        <time>2013-06-02T10:16:55Z</time>
      </trkpt>
      <trkpt lat="44.56329" lon="3.85047">
        <ele>1130.65</ele>
        <time>2013-06-02T10:17:11Z</time>
      </trkpt>
      <trkpt lat="44.56325" lon="3.8504">
        <ele>1132.09</ele>
        <time>2013-06-02T10:17:19Z</time>
      </trkpt>
      <trkpt lat="44.56319" lon="3.85023">
        <ele>1134.01</ele>
        <time>2013-06-02T10:17:30Z</time>
      </trkpt>
      <trkpt lat="44.56312" lon="3.85011">
        <ele>1134.01</ele>
        <time>2013-06-02T10:17:39Z</time>
      </trkpt>
      <trkpt lat="44.563" lon="3.84994">
        <ele>1135.45</ele>
        <time>2013-06-02T10:17:52Z</time>
      </trkpt>
      <trkpt lat="44.56283" lon="3.84978">
        <ele>1137.38</ele>
        <time>2013-06-02T10:18:07Z</time>
      </trkpt>
      <trkpt lat="44.56281" lon="3.84977">
        <ele>1137.86</ele>
        <time>2013-06-02T10:18:08Z</time>
      </trkpt>
      <trkpt lat="44.56259" lon="3.84964">
        <ele>1139.3</ele>
        <time>2013-06-02T10:18:23Z</time>
      </trkpt>
      <trkpt lat="44.56241" lon="3.84955">
        <ele>1140.26</ele>
        <time>2013-06-02T10:18:37Z</time>
      </trkpt>
      <trkpt lat="44.56237" lon="3.84952">
        <ele>1138.82</ele>
        <time>2013-06-02T10:18:43Z</time>
      </trkpt>
      <trkpt lat="44.5622" lon="3.84944">
        <ele>1138.34</ele>
        <time>2013-06-02T10:18:57Z</time>
      </trkpt>
      <trkpt lat="44.56199" lon="3.84933">
        <ele>1138.82</ele>
        <time>2013-06-02T10:19:11Z</time>
      </trkpt>
      <trkpt lat="44.56199" lon="3.84933">
        <ele>1138.82</ele>
        <time>2013-06-02T10:19:12Z</time>
      </trkpt>
      <trkpt lat="44.56185" lon="3.84924">
        <ele>1138.82</ele>
        <time>2013-06-02T10:19:23Z</time>
      </trkpt>
      <trkpt lat="44.56171" lon="3.84914">
        <ele>1139.3</ele>
        <time>2013-06-02T10:19:34Z</time>
      </trkpt>
      <trkpt lat="44.56162" lon="3.84903">
        <ele>1138.82</ele>
        <time>2013-06-02T10:19:42Z</time>
      </trkpt>
      <trkpt lat="44.56158" lon="3.84899">
        <ele>1137.38</ele>
        <time>2013-06-02T10:19:45Z</time>
      </trkpt>
      <trkpt lat="44.56157" lon="3.84897">
        <ele>1138.82</ele>
        <time>2013-06-02T10:19:46Z</time>
      </trkpt>
      <trkpt lat="44.56142" lon="3.84883">
        <ele>1140.74</ele>
        <time>2013-06-02T10:19:57Z</time>
      </trkpt>
      <trkpt lat="44.56117" lon="3.84869">
        <ele>1141.7</ele>
        <time>2013-06-02T10:20:13Z</time>
      </trkpt>
      <trkpt lat="44.56111" lon="3.84866">
        <ele>1139.78</ele>
        <time>2013-06-02T10:20:17Z</time>
      </trkpt>
      <trkpt lat="44.56108" lon="3.84863">
        <ele>1141.22</ele>
        <time>2013-06-02T10:20:20Z</time>
      </trkpt>
      <trkpt lat="44.56096" lon="3.84852">
        <ele>1144.11</ele>
        <time>2013-06-02T10:20:34Z</time>
      </trkpt>
      <trkpt lat="44.56085" lon="3.84843">
        <ele>1144.59</ele>
        <time>2013-06-02T10:20:43Z</time>
      </trkpt>
      <trkpt lat="44.56081" lon="3.8484">
        <ele>1146.51</ele>
        <time>2013-06-02T10:20:46Z</time>
      </trkpt>
      <trkpt lat="44.56079" lon="3.84836">
        <ele>1147.95</ele>
        <time>2013-06-02T10:20:49Z</time>
      </trkpt>
      <trkpt lat="44.56074" lon="3.84829">
        <ele>1147.47</ele>
        <time>2013-06-02T10:20:53Z</time>
      </trkpt>
      <trkpt lat="44.56074" lon="3.84825">
        <ele>1147.95</ele>
        <time>2013-06-02T10:20:55Z</time>
      </trkpt>
      <trkpt lat="44.56072" lon="3.84816">
        <ele>1148.43</ele>
        <time>2013-06-02T10:21:00Z</time>
      </trkpt>
      <trkpt lat="44.56071" lon="3.84813">
        <ele>1148.43</ele>
        <time>2013-06-02T10:21:02Z</time>
      </trkpt>
      <trkpt lat="44.5607" lon="3.84808">
        <ele>1148.43</ele>
        <time>2013-06-02T10:21:04Z</time>
      </trkpt>
      <trkpt lat="44.56068" lon="3.84803">
        <ele>1149.87</ele>
        <time>2013-06-02T10:21:07Z</time>
      </trkpt>
      <trkpt lat="44.56063" lon="3.84794">
        <ele>1151.32</ele>
        <time>2013-06-02T10:21:13Z</time>
      </trkpt>
      <trkpt lat="44.5606" lon="3.84791">
        <ele>1149.87</ele>
        <time>2013-06-02T10:21:15Z</time>
      </trkpt>
      <trkpt lat="44.56053" lon="3.84781">
        <ele>1150.84</ele>
        <time>2013-06-02T10:21:22Z</time>
      </trkpt>
      <trkpt lat="44.56051" lon="3.84777">
        <ele>1151.32</ele>
        <time>2013-06-02T10:21:25Z</time>
      </trkpt>
      <trkpt lat="44.56033" lon="3.84765">
        <ele>1152.28</ele>
        <time>2013-06-02T10:21:40Z</time>
      </trkpt>
      <trkpt lat="44.56025" lon="3.84756">
        <ele>1151.32</ele>
        <time>2013-06-02T10:21:49Z</time>
      </trkpt>
      <trkpt lat="44.5602" lon="3.84753">
        <ele>1153.72</ele>
        <time>2013-06-02T10:21:54Z</time>
      </trkpt>
      <trkpt lat="44.56002" lon="3.84747">
        <ele>1155.16</ele>
        <time>2013-06-02T10:22:06Z</time>
      </trkpt>
      <trkpt lat="44.55995" lon="3.84739">
        <ele>1157.08</ele>
        <time>2013-06-02T10:22:14Z</time>
      </trkpt>
      <trkpt lat="44.55989" lon="3.84734">
        <ele>1157.08</ele>
        <time>2013-06-02T10:22:19Z</time>
      </trkpt>
      <trkpt lat="44.55968" lon="3.84723">
        <ele>1157.56</ele>
        <time>2013-06-02T10:22:35Z</time>
      </trkpt>
      <trkpt lat="44.55955" lon="3.84716">
        <ele>1158.53</ele>
        <time>2013-06-02T10:22:48Z</time>
      </trkpt>
      <trkpt lat="44.55938" lon="3.84711">
        <ele>1158.05</ele>
        <time>2013-06-02T10:23:00Z</time>
      </trkpt>
      <trkpt lat="44.55929" lon="3.8471">
        <ele>1159.49</ele>
        <time>2013-06-02T10:23:08Z</time>
      </trkpt>
      <trkpt lat="44.55911" lon="3.84709">
        <ele>1161.89</ele>
        <time>2013-06-02T10:23:22Z</time>
      </trkpt>
      <trkpt lat="44.55901" lon="3.84708">
        <ele>1164.29</ele>
        <time>2013-06-02T10:23:36Z</time>
      </trkpt>
      <trkpt lat="44.55881" lon="3.84707">
        <ele>1165.74</ele>
        <time>2013-06-02T10:23:49Z</time>
      </trkpt>
      <trkpt lat="44.55858" lon="3.84701">
        <ele>1167.18</ele>
        <time>2013-06-02T10:24:03Z</time>
      </trkpt>
      <trkpt lat="44.55837" lon="3.84695">
        <ele>1169.1</ele>
        <time>2013-06-02T10:24:16Z</time>
      </trkpt>
      <trkpt lat="44.5582" lon="3.84688">
        <ele>1171.02</ele>
        <time>2013-06-02T10:24:30Z</time>
      </trkpt>
      <trkpt lat="44.55812" lon="3.84681">
        <ele>1171.5</ele>
        <time>2013-06-02T10:24:38Z</time>
      </trkpt>
      <trkpt lat="44.55807" lon="3.84678">
        <ele>1171.98</ele>
        <time>2013-06-02T10:24:42Z</time>
      </trkpt>
      <trkpt lat="44.55796" lon="3.84673">
        <ele>1173.43</ele>
        <time>2013-06-02T10:24:49Z</time>
      </trkpt>
      <trkpt lat="44.5579" lon="3.8467">
        <ele>1173.91</ele>
        <time>2013-06-02T10:24:52Z</time>
      </trkpt>
      <trkpt lat="44.55784" lon="3.84666">
        <ele>1175.83</ele>
        <time>2013-06-02T10:24:57Z</time>
      </trkpt>
      <trkpt lat="44.55777" lon="3.84661">
        <ele>1175.83</ele>
        <time>2013-06-02T10:25:04Z</time>
      </trkpt>
      <trkpt lat="44.5576" lon="3.84638">
        <ele>1177.27</ele>
        <time>2013-06-02T10:25:20Z</time>
      </trkpt>
      <trkpt lat="44.55745" lon="3.84616">
        <ele>1178.23</ele>
        <time>2013-06-02T10:25:35Z</time>
      </trkpt>
      <trkpt lat="44.55741" lon="3.84609">
        <ele>1180.16</ele>
        <time>2013-06-02T10:25:39Z</time>
      </trkpt>
      <trkpt lat="44.55726" lon="3.84585">
        <ele>1180.16</ele>
        <time>2013-06-02T10:25:57Z</time>
      </trkpt>
      <trkpt lat="44.55716" lon="3.8456">
        <ele>1179.19</ele>
        <time>2013-06-02T10:26:12Z</time>
      </trkpt>
      <trkpt lat="44.55715" lon="3.84557">
        <ele>1178.71</ele>
        <time>2013-06-02T10:26:14Z</time>
      </trkpt>
      <trkpt lat="44.55707" lon="3.84527">
        <ele>1177.27</ele>
        <time>2013-06-02T10:26:30Z</time>
      </trkpt>
      <trkpt lat="44.55704" lon="3.84494">
        <ele>1177.27</ele>
        <time>2013-06-02T10:26:47Z</time>
      </trkpt>
      <trkpt lat="44.55702" lon="3.84467">
        <ele>1175.83</ele>
        <time>2013-06-02T10:27:01Z</time>
      </trkpt>
      <trkpt lat="44.55702" lon="3.84462">
        <ele>1175.83</ele>
        <time>2013-06-02T10:27:04Z</time>
      </trkpt>
      <trkpt lat="44.557" lon="3.84428">
        <ele>1175.83</ele>
        <time>2013-06-02T10:27:22Z</time>
      </trkpt>
      <trkpt lat="44.557" lon="3.84393">
        <ele>1174.39</ele>
        <time>2013-06-02T10:27:40Z</time>
      </trkpt>
      <trkpt lat="44.55699" lon="3.84381">
        <ele>1175.83</ele>
        <time>2013-06-02T10:27:46Z</time>
      </trkpt>
      <trkpt lat="44.55695" lon="3.84362">
        <ele>1174.39</ele>
        <time>2013-06-02T10:27:55Z</time>
      </trkpt>
      <trkpt lat="44.55694" lon="3.84356">
        <ele>1175.35</ele>
        <time>2013-06-02T10:27:58Z</time>
      </trkpt>
      <trkpt lat="44.5569" lon="3.84326">
        <ele>1175.83</ele>
        <time>2013-06-02T10:28:13Z</time>
      </trkpt>
      <trkpt lat="44.55689" lon="3.84317">
        <ele>1175.83</ele>
        <time>2013-06-02T10:28:18Z</time>
      </trkpt>
      <trkpt lat="44.55689" lon="3.84311">
        <ele>1178.23</ele>
        <time>2013-06-02T10:28:21Z</time>
      </trkpt>
      <trkpt lat="44.55682" lon="3.8428">
        <ele>1176.31</ele>
        <time>2013-06-02T10:28:39Z</time>
      </trkpt>
      <trkpt lat="44.55677" lon="3.84246">
        <ele>1176.31</ele>
        <time>2013-06-02T10:28:57Z</time>
      </trkpt>
      <trkpt lat="44.55671" lon="3.84221">
        <ele>1177.27</ele>
        <time>2013-06-02T10:29:10Z</time>
      </trkpt>
      <trkpt lat="44.55667" lon="3.84194">
        <ele>1176.31</ele>
        <time>2013-06-02T10:29:23Z</time>
      </trkpt>
      <trkpt lat="44.55668" lon="3.84186">
        <ele>1177.75</ele>
        <time>2013-06-02T10:29:28Z</time>
      </trkpt>
      <trkpt lat="44.55669" lon="3.84156">
        <ele>1178.71</ele>
        <time>2013-06-02T10:29:44Z</time>
      </trkpt>
      <trkpt lat="44.5567" lon="3.84146">
        <ele>1176.79</ele>
        <time>2013-06-02T10:29:49Z</time>
      </trkpt>
      <trkpt lat="44.55671" lon="3.84141">
        <ele>1182.08</ele>
        <time>2013-06-02T10:29:52Z</time>
      </trkpt>
      <trkpt lat="44.55671" lon="3.84114">
        <ele>1179.19</ele>
        <time>2013-06-02T10:30:06Z</time>
      </trkpt>
      <trkpt lat="44.55673" lon="3.84082">
        <ele>1181.6</ele>
        <time>2013-06-02T10:30:22Z</time>
      </trkpt>
      <trkpt lat="44.55673" lon="3.84068">
        <ele>1180.64</ele>
        <time>2013-06-02T10:30:29Z</time>
      </trkpt>
      <trkpt lat="44.55673" lon="3.84056">
        <ele>1183.04</ele>
        <time>2013-06-02T10:30:35Z</time>
      </trkpt>
      <trkpt lat="44.55671" lon="3.84026">
        <ele>1183.04</ele>
        <time>2013-06-02T10:30:51Z</time>
      </trkpt>
      <trkpt lat="44.55668" lon="3.84">
        <ele>1183.52</ele>
        <time>2013-06-02T10:31:04Z</time>
      </trkpt>
      <trkpt lat="44.55665" lon="3.8398">
        <ele>1181.6</ele>
        <time>2013-06-02T10:31:15Z</time>
      </trkpt>
      <trkpt lat="44.5566" lon="3.83966">
        <ele>1180.64</ele>
        <time>2013-06-02T10:31:22Z</time>
      </trkpt>
      <trkpt lat="44.55658" lon="3.83959">
        <ele>1180.16</ele>
        <time>2013-06-02T10:31:26Z</time>
      </trkpt>
      <trkpt lat="44.55648" lon="3.83933">
        <ele>1180.16</ele>
        <time>2013-06-02T10:31:42Z</time>
      </trkpt>
      <trkpt lat="44.55635" lon="3.83904">
        <ele>1182.08</ele>
        <time>2013-06-02T10:31:58Z</time>
      </trkpt>
      <trkpt lat="44.55623" lon="3.83874">
        <ele>1180.64</ele>
        <time>2013-06-02T10:32:14Z</time>
      </trkpt>
      <trkpt lat="44.55619" lon="3.83843">
        <ele>1182.08</ele>
        <time>2013-06-02T10:32:30Z</time>
      </trkpt>
      <trkpt lat="44.55619" lon="3.83842">
        <ele>1182.08</ele>
        <time>2013-06-02T10:32:31Z</time>
      </trkpt>
      <trkpt lat="44.55617" lon="3.83831">
        <ele>1179.67</ele>
        <time>2013-06-02T10:32:37Z</time>
      </trkpt>
      <trkpt lat="44.55616" lon="3.83826">
        <ele>1181.12</ele>
        <time>2013-06-02T10:32:40Z</time>
      </trkpt>
      <trkpt lat="44.55614" lon="3.83801">
        <ele>1181.12</ele>
        <time>2013-06-02T10:32:54Z</time>
      </trkpt>
      <trkpt lat="44.55613" lon="3.83797">
        <ele>1179.67</ele>
        <time>2013-06-02T10:32:56Z</time>
      </trkpt>
      <trkpt lat="44.55612" lon="3.83787">
        <ele>1181.12</ele>
        <time>2013-06-02T10:33:02Z</time>
      </trkpt>
      <trkpt lat="44.55613" lon="3.83781">
        <ele>1180.16</ele>
        <time>2013-06-02T10:33:12Z</time>
      </trkpt>
      <trkpt lat="44.55613" lon="3.83776">
        <ele>1181.6</ele>
        <time>2013-06-02T10:33:17Z</time>
      </trkpt>
      <trkpt lat="44.55619" lon="3.83763">
        <ele>1182.08</ele>
        <time>2013-06-02T10:33:28Z</time>
      </trkpt>
      <trkpt lat="44.55622" lon="3.8376">
        <ele>1180.64</ele>
        <time>2013-06-02T10:33:31Z</time>
      </trkpt>
      <trkpt lat="44.55624" lon="3.83758">
        <ele>1182.08</ele>
        <time>2013-06-02T10:33:34Z</time>
      </trkpt>
      <trkpt lat="44.55634" lon="3.83741">
        <ele>1182.56</ele>
        <time>2013-06-02T10:33:47Z</time>
      </trkpt>
      <trkpt lat="44.55646" lon="3.83712">
        <ele>1184.96</ele>
        <time>2013-06-02T10:34:05Z</time>
      </trkpt>
      <trkpt lat="44.5565" lon="3.83689">
        <ele>1185.44</ele>
        <time>2013-06-02T10:34:19Z</time>
      </trkpt>
      <trkpt lat="44.5565" lon="3.83664">
        <ele>1185.92</ele>
        <time>2013-06-02T10:34:34Z</time>
      </trkpt>
      <trkpt lat="44.55648" lon="3.83641">
        <ele>1187.37</ele>
        <time>2013-06-02T10:34:51Z</time>
      </trkpt>
      <trkpt lat="44.55649" lon="3.83619">
        <ele>1187.37</ele>
        <time>2013-06-02T10:35:05Z</time>
      </trkpt>
      <trkpt lat="44.55649" lon="3.83632">
        <ele>1187.37</ele>
        <time>2013-06-02T10:35:21Z</time>
      </trkpt>
      <trkpt lat="44.55647" lon="3.83649">
        <ele>1185.44</ele>
        <time>2013-06-02T10:35:35Z</time>
      </trkpt>
      <trkpt lat="44.55648" lon="3.83677">
        <ele>1186.88</ele>
        <time>2013-06-02T10:35:50Z</time>
      </trkpt>
      <trkpt lat="44.55647" lon="3.83684">
        <ele>1186.88</ele>
        <time>2013-06-02T10:35:54Z</time>
      </trkpt>
      <trkpt lat="44.55642" lon="3.83699">
        <ele>1184.96</ele>
        <time>2013-06-02T10:36:05Z</time>
      </trkpt>
      <trkpt lat="44.55638" lon="3.8372">
        <ele>1183.04</ele>
        <time>2013-06-02T10:36:18Z</time>
      </trkpt>
      <trkpt lat="44.55638" lon="3.8373">
        <ele>1184.96</ele>
        <time>2013-06-02T10:36:22Z</time>
      </trkpt>
      <trkpt lat="44.55637" lon="3.83737">
        <ele>1182.08</ele>
        <time>2013-06-02T10:36:26Z</time>
      </trkpt>
      <trkpt lat="44.55624" lon="3.83763">
        <ele>1180.16</ele>
        <time>2013-06-02T10:36:44Z</time>
      </trkpt>
      <trkpt lat="44.55609" lon="3.83786">
        <ele>1181.6</ele>
        <time>2013-06-02T10:37:01Z</time>
      </trkpt>
      <trkpt lat="44.55609" lon="3.83788">
        <ele>1181.6</ele>
        <time>2013-06-02T10:37:02Z</time>
      </trkpt>
      <trkpt lat="44.55601" lon="3.83793">
        <ele>1180.16</ele>
        <time>2013-06-02T10:37:08Z</time>
      </trkpt>
      <trkpt lat="44.55599" lon="3.83796">
        <ele>1180.16</ele>
        <time>2013-06-02T10:37:10Z</time>
      </trkpt>
      <trkpt lat="44.55583" lon="3.83812">
        <ele>1180.16</ele>
        <time>2013-06-02T10:37:25Z</time>
      </trkpt>
      <trkpt lat="44.55583" lon="3.83813">
        <ele>1180.16</ele>
        <time>2013-06-02T10:37:26Z</time>
      </trkpt>
      <trkpt lat="44.55564" lon="3.83837">
        <ele>1178.23</ele>
        <time>2013-06-02T10:37:45Z</time>
      </trkpt>
      <trkpt lat="44.55547" lon="3.83859">
        <ele>1178.71</ele>
        <time>2013-06-02T10:38:02Z</time>
      </trkpt>
      <trkpt lat="44.55529" lon="3.83878">
        <ele>1176.79</ele>
        <time>2013-06-02T10:38:20Z</time>
      </trkpt>
      <trkpt lat="44.55509" lon="3.83896">
        <ele>1176.79</ele>
        <time>2013-06-02T10:38:38Z</time>
      </trkpt>
      <trkpt lat="44.55487" lon="3.83913">
        <ele>1177.27</ele>
        <time>2013-06-02T10:38:57Z</time>
      </trkpt>
      <trkpt lat="44.55467" lon="3.83926">
        <ele>1178.23</ele>
        <time>2013-06-02T10:39:15Z</time>
      </trkpt>
      <trkpt lat="44.55453" lon="3.83935">
        <ele>1181.12</ele>
        <time>2013-06-02T10:39:29Z</time>
      </trkpt>
      <trkpt lat="44.55452" lon="3.83936">
        <ele>1179.19</ele>
        <time>2013-06-02T10:39:31Z</time>
      </trkpt>
      <trkpt lat="44.55451" lon="3.83938">
        <ele>1180.64</ele>
        <time>2013-06-02T10:39:44Z</time>
      </trkpt>
      <trkpt lat="44.55452" lon="3.83941">
        <ele>1179.19</ele>
        <time>2013-06-02T10:39:48Z</time>
      </trkpt>
      <trkpt lat="44.55452" lon="3.8394">
        <ele>1179.19</ele>
        <time>2013-06-02T10:39:50Z</time>
      </trkpt>
      <trkpt lat="44.55452" lon="3.83936">
        <ele>1180.64</ele>
        <time>2013-06-02T10:39:54Z</time>
      </trkpt>
      <trkpt lat="44.55451" lon="3.83935">
        <ele>1179.19</ele>
        <time>2013-06-02T10:39:56Z</time>
      </trkpt>
      <trkpt lat="44.55447" lon="3.83931">
        <ele>1181.12</ele>
        <time>2013-06-02T10:40:02Z</time>
      </trkpt>
      <trkpt lat="44.55443" lon="3.83928">
        <ele>1179.67</ele>
        <time>2013-06-02T10:40:05Z</time>
      </trkpt>
      <trkpt lat="44.5544" lon="3.83924">
        <ele>1178.71</ele>
        <time>2013-06-02T10:40:09Z</time>
      </trkpt>
      <trkpt lat="44.55427" lon="3.83895">
        <ele>1178.23</ele>
        <time>2013-06-02T10:40:28Z</time>
      </trkpt>
      <trkpt lat="44.55424" lon="3.83888">
        <ele>1181.12</ele>
        <time>2013-06-02T10:40:32Z</time>
      </trkpt>
      <trkpt lat="44.55423" lon="3.83885">
        <ele>1179.67</ele>
        <time>2013-06-02T10:40:34Z</time>
      </trkpt>
      <trkpt lat="44.55412" lon="3.83855">
        <ele>1178.71</ele>
        <time>2013-06-02T10:40:53Z</time>
      </trkpt>
      <trkpt lat="44.55399" lon="3.83823">
        <ele>1180.64</ele>
        <time>2013-06-02T10:41:12Z</time>
      </trkpt>
      <trkpt lat="44.55387" lon="3.83796">
        <ele>1177.75</ele>
        <time>2013-06-02T10:41:30Z</time>
      </trkpt>
      <trkpt lat="44.5538" lon="3.83777">
        <ele>1179.19</ele>
        <time>2013-06-02T10:41:42Z</time>
      </trkpt>
      <trkpt lat="44.55368" lon="3.83748">
        <ele>1179.19</ele>
        <time>2013-06-02T10:42:00Z</time>
      </trkpt>
      <trkpt lat="44.55356" lon="3.83717">
        <ele>1178.23</ele>
        <time>2013-06-02T10:42:19Z</time>
      </trkpt>
      <trkpt lat="44.55355" lon="3.83716">
        <ele>1178.23</ele>
        <time>2013-06-02T10:42:20Z</time>
      </trkpt>
      <trkpt lat="44.55343" lon="3.83684">
        <ele>1177.75</ele>
        <time>2013-06-02T10:42:40Z</time>
      </trkpt>
      <trkpt lat="44.55331" lon="3.83653">
        <ele>1177.27</ele>
        <time>2013-06-02T10:42:59Z</time>
      </trkpt>
      <trkpt lat="44.55324" lon="3.83637">
        <ele>1177.27</ele>
        <time>2013-06-02T10:43:08Z</time>
      </trkpt>
      <trkpt lat="44.55322" lon="3.83632">
        <ele>1179.19</ele>
        <time>2013-06-02T10:43:10Z</time>
      </trkpt>
      <trkpt lat="44.55321" lon="3.83627">
        <ele>1177.75</ele>
        <time>2013-06-02T10:43:12Z</time>
      </trkpt>
      <trkpt lat="44.55315" lon="3.83606">
        <ele>1176.31</ele>
        <time>2013-06-02T10:43:24Z</time>
      </trkpt>
      <trkpt lat="44.55314" lon="3.83603">
        <ele>1175.35</ele>
        <time>2013-06-02T10:43:26Z</time>
      </trkpt>
      <trkpt lat="44.55306" lon="3.83583">
        <ele>1176.79</ele>
        <time>2013-06-02T10:43:39Z</time>
      </trkpt>
      <trkpt lat="44.55296" lon="3.83559">
        <ele>1175.83</ele>
        <time>2013-06-02T10:43:54Z</time>
      </trkpt>
      <trkpt lat="44.55292" lon="3.83545">
        <ele>1173.91</ele>
        <time>2013-06-02T10:44:03Z</time>
      </trkpt>
      <trkpt lat="44.55286" lon="3.83528">
        <ele>1173.43</ele>
        <time>2013-06-02T10:44:17Z</time>
      </trkpt>
      <trkpt lat="44.55279" lon="3.83515">
        <ele>1173.43</ele>
        <time>2013-06-02T10:44:30Z</time>
      </trkpt>
      <trkpt lat="44.55268" lon="3.83499">
        <ele>1172.95</ele>
        <time>2013-06-02T10:44:47Z</time>
      </trkpt>
      <trkpt lat="44.55249" lon="3.83493">
        <ele>1172.95</ele>
        <time>2013-06-02T10:45:01Z</time>
      </trkpt>
      <trkpt lat="44.55228" lon="3.8348">
        <ele>1172.47</ele>
        <time>2013-06-02T10:45:17Z</time>
      </trkpt>
      <trkpt lat="44.55192" lon="3.83465">
        <ele>1171.02</ele>
        <time>2013-06-02T10:45:34Z</time>
      </trkpt>
      <trkpt lat="44.55181" lon="3.83434">
        <ele>1169.1</ele>
        <time>2013-06-02T10:45:52Z</time>
      </trkpt>
      <trkpt lat="44.55181" lon="3.83427">
        <ele>1170.06</ele>
        <time>2013-06-02T10:45:56Z</time>
      </trkpt>
      <trkpt lat="44.5518" lon="3.83413">
        <ele>1166.7</ele>
        <time>2013-06-02T10:46:04Z</time>
      </trkpt>
      <trkpt lat="44.55179" lon="3.83397">
        <ele>1167.18</ele>
        <time>2013-06-02T10:46:12Z</time>
      </trkpt>
      <trkpt lat="44.55179" lon="3.83374">
        <ele>1167.66</ele>
        <time>2013-06-02T10:46:23Z</time>
      </trkpt>
      <trkpt lat="44.55172" lon="3.8334">
        <ele>1169.1</ele>
        <time>2013-06-02T10:46:41Z</time>
      </trkpt>
      <trkpt lat="44.55165" lon="3.83324">
        <ele>1165.74</ele>
        <time>2013-06-02T10:46:50Z</time>
      </trkpt>
      <trkpt lat="44.55157" lon="3.83312">
        <ele>1169.58</ele>
        <time>2013-06-02T10:46:59Z</time>
      </trkpt>
      <trkpt lat="44.55133" lon="3.83287">
        <ele>1170.06</ele>
        <time>2013-06-02T10:47:21Z</time>
      </trkpt>
      <trkpt lat="44.55129" lon="3.83285">
        <ele>1171.5</ele>
        <time>2013-06-02T10:47:24Z</time>
      </trkpt>
      <trkpt lat="44.55106" lon="3.83279">
        <ele>1169.58</ele>
        <time>2013-06-02T10:47:44Z</time>
      </trkpt>
      <trkpt lat="44.55104" lon="3.83278">
        <ele>1171.02</ele>
        <time>2013-06-02T10:47:46Z</time>
      </trkpt>
      <trkpt lat="44.55098" lon="3.83277">
        <ele>1172.95</ele>
        <time>2013-06-02T10:47:51Z</time>
      </trkpt>
      <trkpt lat="44.55094" lon="3.83276">
        <ele>1171.5</ele>
        <time>2013-06-02T10:47:55Z</time>
      </trkpt>
      <trkpt lat="44.55074" lon="3.83271">
        <ele>1170.54</ele>
        <time>2013-06-02T10:48:09Z</time>
      </trkpt>
      <trkpt lat="44.55056" lon="3.83263">
        <ele>1171.98</ele>
        <time>2013-06-02T10:48:24Z</time>
      </trkpt>
      <trkpt lat="44.55032" lon="3.83247">
        <ele>1172.47</ele>
        <time>2013-06-02T10:48:43Z</time>
      </trkpt>
      <trkpt lat="44.55007" lon="3.83222">
        <ele>1172.47</ele>
        <time>2013-06-02T10:49:03Z</time>
      </trkpt>
      <trkpt lat="44.54992" lon="3.8319">
        <ele>1171.98</ele>
        <time>2013-06-02T10:49:22Z</time>
      </trkpt>
      <trkpt lat="44.54986" lon="3.83154">
        <ele>1174.39</ele>
        <time>2013-06-02T10:49:42Z</time>
      </trkpt>
      <trkpt lat="44.54984" lon="3.83134">
        <ele>1173.43</ele>
        <time>2013-06-02T10:49:52Z</time>
      </trkpt>
      <trkpt lat="44.54984" lon="3.83131">
        <ele>1173.43</ele>
        <time>2013-06-02T10:49:54Z</time>
      </trkpt>
      <trkpt lat="44.54996" lon="3.83107">
        <ele>1173.91</ele>
        <time>2013-06-02T10:50:11Z</time>
      </trkpt>
      <trkpt lat="44.55" lon="3.831">
        <ele>1173.91</ele>
        <time>2013-06-02T10:50:29Z</time>
      </trkpt>
      <trkpt lat="44.54998" lon="3.83099">
        <ele>1171.5</ele>
        <time>2013-06-02T10:50:48Z</time>
      </trkpt>
      <trkpt lat="44.54998" lon="3.831">
        <ele>1171.98</ele>
        <time>2013-06-02T10:51:04Z</time>
      </trkpt>
      <trkpt lat="44.54996" lon="3.83103">
        <ele>1171.02</ele>
        <time>2013-06-02T10:51:39Z</time>
      </trkpt>
      <trkpt lat="44.54995" lon="3.83101">
        <ele>1171.98</ele>
        <time>2013-06-02T10:52:16Z</time>
      </trkpt>
      <trkpt lat="44.54994" lon="3.83101">
        <ele>1171.5</ele>
        <time>2013-06-02T10:52:49Z</time>
      </trkpt>
      <trkpt lat="44.54995" lon="3.83099">
        <ele>1172.47</ele>
        <time>2013-06-02T10:53:24Z</time>
      </trkpt>
      <trkpt lat="44.54997" lon="3.831">
        <ele>1171.02</ele>
        <time>2013-06-02T10:53:37Z</time>
      </trkpt>
      <trkpt lat="44.54999" lon="3.83102">
        <ele>1172.95</ele>
        <time>2013-06-02T10:54:09Z</time>
      </trkpt>
      <trkpt lat="44.54997" lon="3.83103">
        <ele>1171.5</ele>
        <time>2013-06-02T10:54:16Z</time>
      </trkpt>
      <trkpt lat="44.54994" lon="3.83105">
        <ele>1171.02</ele>
        <time>2013-06-02T10:55:00Z</time>
      </trkpt>
      <trkpt lat="44.54997" lon="3.831">
        <ele>1171.02</ele>
        <time>2013-06-02T10:55:41Z</time>
      </trkpt>
      <trkpt lat="44.54996" lon="3.83107">
        <ele>1171.98</ele>
        <time>2013-06-02T10:56:23Z</time>
      </trkpt>
      <trkpt lat="44.54995" lon="3.83105">
        <ele>1171.02</ele>
        <time>2013-06-02T10:56:37Z</time>
      </trkpt>
      <trkpt lat="44.54996" lon="3.83102">
        <ele>1171.5</ele>
        <time>2013-06-02T10:57:14Z</time>
      </trkpt>
      <trkpt lat="44.54997" lon="3.83104">
        <ele>1171.5</ele>
        <time>2013-06-02T10:58:01Z</time>
      </trkpt>
      <trkpt lat="44.54997" lon="3.83104">
        <ele>1170.54</ele>
        <time>2013-06-02T10:58:47Z</time>
      </trkpt>
      <trkpt lat="44.54997" lon="3.83102">
        <ele>1171.98</ele>
        <time>2013-06-02T10:59:27Z</time>
      </trkpt>
      <trkpt lat="44.55001" lon="3.83103">
        <ele>1171.98</ele>
        <time>2013-06-02T10:59:58Z</time>
      </trkpt>
      <trkpt lat="44.54999" lon="3.83099">
        <ele>1172.47</ele>
        <time>2013-06-02T11:00:32Z</time>
      </trkpt>
      <trkpt lat="44.54996" lon="3.83102">
        <ele>1171.5</ele>
        <time>2013-06-02T11:01:02Z</time>
      </trkpt>
      <trkpt lat="44.54994" lon="3.83102">
        <ele>1172.95</ele>
        <time>2013-06-02T11:01:41Z</time>
      </trkpt>
      <trkpt lat="44.54994" lon="3.83101">
        <ele>1173.43</ele>
        <time>2013-06-02T11:01:43Z</time>
      </trkpt>
      <trkpt lat="44.54994" lon="3.83101">
        <ele>1171.98</ele>
        <time>2013-06-02T11:01:48Z</time>
      </trkpt>
      <trkpt lat="44.54991" lon="3.83096">
        <ele>1171.5</ele>
        <time>2013-06-02T11:02:22Z</time>
      </trkpt>
      <trkpt lat="44.54988" lon="3.83098">
        <ele>1171.5</ele>
        <time>2013-06-02T11:03:07Z</time>
      </trkpt>
      <trkpt lat="44.5499" lon="3.83101">
        <ele>1171.5</ele>
        <time>2013-06-02T11:03:27Z</time>
      </trkpt>
      <trkpt lat="44.54991" lon="3.83105">
        <ele>1172.47</ele>
        <time>2013-06-02T11:03:47Z</time>
      </trkpt>
      <trkpt lat="44.54994" lon="3.83107">
        <ele>1171.02</ele>
        <time>2013-06-02T11:04:14Z</time>
      </trkpt>
      <trkpt lat="44.54998" lon="3.83106">
        <ele>1171.5</ele>
        <time>2013-06-02T11:04:49Z</time>
      </trkpt>
      <trkpt lat="44.54999" lon="3.83103">
        <ele>1171.5</ele>
        <time>2013-06-02T11:05:31Z</time>
      </trkpt>
      <trkpt lat="44.54999" lon="3.83102">
        <ele>1171.5</ele>
        <time>2013-06-02T11:06:12Z</time>
      </trkpt>
      <trkpt lat="44.54996" lon="3.83103">
        <ele>1170.54</ele>
        <time>2013-06-02T11:06:52Z</time>
      </trkpt>
      <trkpt lat="44.54996" lon="3.83104">
        <ele>1171.98</ele>
        <time>2013-06-02T11:07:25Z</time>
      </trkpt>
      <trkpt lat="44.54996" lon="3.83104">
        <ele>1171.98</ele>
        <time>2013-06-02T11:07:26Z</time>
      </trkpt>
      <trkpt lat="44.54996" lon="3.83104">
        <ele>1171.02</ele>
        <time>2013-06-02T11:07:31Z</time>
      </trkpt>
      <trkpt lat="44.54996" lon="3.83104">
        <ele>1172.95</ele>
        <time>2013-06-02T11:07:36Z</time>
      </trkpt>
      <trkpt lat="44.54997" lon="3.83104">
        <ele>1170.54</ele>
        <time>2013-06-02T11:07:41Z</time>
      </trkpt>
      <trkpt lat="44.54997" lon="3.83105">
        <ele>1171.98</ele>
        <time>2013-06-02T11:07:46Z</time>
      </trkpt>
      <trkpt lat="44.54999" lon="3.83106">
        <ele>1172.47</ele>
        <time>2013-06-02T11:08:16Z</time>
      </trkpt>
      <trkpt lat="44.54998" lon="3.83105">
        <ele>1171.02</ele>
        <time>2013-06-02T11:08:25Z</time>
      </trkpt>
      <trkpt lat="44.54998" lon="3.83104">
        <ele>1171.5</ele>
        <time>2013-06-02T11:08:36Z</time>
      </trkpt>
      <trkpt lat="44.54999" lon="3.83102">
        <ele>1172.47</ele>
        <time>2013-06-02T11:09:04Z</time>
      </trkpt>
      <trkpt lat="44.54997" lon="3.83103">
        <ele>1171.02</ele>
        <time>2013-06-02T11:09:51Z</time>
      </trkpt>
      <trkpt lat="44.54997" lon="3.83099">
        <ele>1172.47</ele>
        <time>2013-06-02T11:10:17Z</time>
      </trkpt>
      <trkpt lat="44.54998" lon="3.831">
        <ele>1171.5</ele>
        <time>2013-06-02T11:10:46Z</time>
      </trkpt>
      <trkpt lat="44.54998" lon="3.83102">
        <ele>1171.02</ele>
        <time>2013-06-02T11:11:27Z</time>
      </trkpt>
      <trkpt lat="44.54999" lon="3.83101">
        <ele>1171.98</ele>
        <time>2013-06-02T11:12:07Z</time>
      </trkpt>
      <trkpt lat="44.54999" lon="3.83101">
        <ele>1171.02</ele>
        <time>2013-06-02T11:12:11Z</time>
      </trkpt>
      <trkpt lat="44.54996" lon="3.83102">
        <ele>1171.5</ele>
        <time>2013-06-02T11:12:44Z</time>
      </trkpt>
      <trkpt lat="44.54996" lon="3.83102">
        <ele>1171.5</ele>
        <time>2013-06-02T11:12:45Z</time>
      </trkpt>
      <trkpt lat="44.54995" lon="3.83102">
        <ele>1171.02</ele>
        <time>2013-06-02T11:13:20Z</time>
      </trkpt>
      <trkpt lat="44.54996" lon="3.83101">
        <ele>1171.5</ele>
        <time>2013-06-02T11:14:07Z</time>
      </trkpt>
      <trkpt lat="44.54998" lon="3.83101">
        <ele>1171.98</ele>
        <time>2013-06-02T11:14:47Z</time>
      </trkpt>
      <trkpt lat="44.54997" lon="3.831">
        <ele>1170.54</ele>
        <time>2013-06-02T11:15:11Z</time>
      </trkpt>
      <trkpt lat="44.54998" lon="3.83098">
        <ele>1170.54</ele>
        <time>2013-06-02T11:15:28Z</time>
      </trkpt>
      <trkpt lat="44.54997" lon="3.83098">
        <ele>1171.5</ele>
        <time>2013-06-02T11:15:34Z</time>
      </trkpt>
      <trkpt lat="44.54997" lon="3.83098">
        <ele>1171.02</ele>
        <time>2013-06-02T11:16:04Z</time>
      </trkpt>
      <trkpt lat="44.54996" lon="3.831">
        <ele>1171.98</ele>
        <time>2013-06-02T11:16:42Z</time>
      </trkpt>
      <trkpt lat="44.54994" lon="3.831">
        <ele>1172.47</ele>
        <time>2013-06-02T11:17:20Z</time>
      </trkpt>
      <trkpt lat="44.54993" lon="3.83102">
        <ele>1171.02</ele>
        <time>2013-06-02T11:17:54Z</time>
      </trkpt>
      <trkpt lat="44.54995" lon="3.83102">
        <ele>1172.47</ele>
        <time>2013-06-02T11:18:00Z</time>
      </trkpt>
      <trkpt lat="44.54998" lon="3.831">
        <ele>1171.98</ele>
        <time>2013-06-02T11:18:41Z</time>
      </trkpt>
      <trkpt lat="44.54996" lon="3.831">
        <ele>1171.98</ele>
        <time>2013-06-02T11:19:18Z</time>
      </trkpt>
      <trkpt lat="44.54996" lon="3.831">
        <ele>1171.02</ele>
        <time>2013-06-02T11:19:22Z</time>
      </trkpt>
      <trkpt lat="44.54996" lon="3.83102">
        <ele>1170.54</ele>
        <time>2013-06-02T11:20:00Z</time>
      </trkpt>
      <trkpt lat="44.54999" lon="3.831">
        <ele>1171.98</ele>
        <time>2013-06-02T11:20:35Z</time>
      </trkpt>
      <trkpt lat="44.55004" lon="3.83103">
        <ele>1171.98</ele>
        <time>2013-06-02T11:21:10Z</time>
      </trkpt>
      <trkpt lat="44.54996" lon="3.83095">
        <ele>1170.54</ele>
        <time>2013-06-02T11:21:33Z</time>
      </trkpt>
      <trkpt lat="44.54999" lon="3.83101">
        <ele>1172.47</ele>
        <time>2013-06-02T11:22:12Z</time>
      </trkpt>
      <trkpt lat="44.54998" lon="3.83098">
        <ele>1172.47</ele>
        <time>2013-06-02T11:22:51Z</time>
      </trkpt>
      <trkpt lat="44.54999" lon="3.83101">
        <ele>1173.43</ele>
        <time>2013-06-02T11:23:23Z</time>
      </trkpt>
      <trkpt lat="44.54999" lon="3.83101">
        <ele>1171.98</ele>
        <time>2013-06-02T11:23:54Z</time>
      </trkpt>
      <trkpt lat="44.54998" lon="3.83098">
        <ele>1172.47</ele>
        <time>2013-06-02T11:24:34Z</time>
      </trkpt>
      <trkpt lat="44.54999" lon="3.83099">
        <ele>1172.47</ele>
        <time>2013-06-02T11:25:14Z</time>
      </trkpt>
      <trkpt lat="44.55" lon="3.83098">
        <ele>1171.98</ele>
        <time>2013-06-02T11:25:50Z</time>
      </trkpt>
      <trkpt lat="44.54999" lon="3.83096">
        <ele>1171.02</ele>
        <time>2013-06-02T11:26:18Z</time>
      </trkpt>
      <trkpt lat="44.54998" lon="3.83096">
        <ele>1172.47</ele>
        <time>2013-06-02T11:26:25Z</time>
      </trkpt>
      <trkpt lat="44.54996" lon="3.83097">
        <ele>1171.02</ele>
        <time>2013-06-02T11:26:58Z</time>
      </trkpt>
      <trkpt lat="44.54997" lon="3.83098">
        <ele>1172.95</ele>
        <time>2013-06-02T11:27:17Z</time>
      </trkpt>
      <trkpt lat="44.54997" lon="3.83098">
        <ele>1171.98</ele>
        <time>2013-06-02T11:27:25Z</time>
      </trkpt>
      <trkpt lat="44.54999" lon="3.83099">
        <ele>1171.02</ele>
        <time>2013-06-02T11:28:02Z</time>
      </trkpt>
      <trkpt lat="44.55" lon="3.83099">
        <ele>1172.47</ele>
        <time>2013-06-02T11:28:13Z</time>
      </trkpt>
      <trkpt lat="44.55" lon="3.83099">
        <ele>1171.02</ele>
        <time>2013-06-02T11:28:30Z</time>
      </trkpt>
      <trkpt lat="44.55" lon="3.83099">
        <ele>1172.47</ele>
        <time>2013-06-02T11:28:39Z</time>
      </trkpt>
      <trkpt lat="44.54999" lon="3.83099">
        <ele>1172.47</ele>
        <time>2013-06-02T11:29:06Z</time>
      </trkpt>
      <trkpt lat="44.54999" lon="3.83099">
        <ele>1171.02</ele>
        <time>2013-06-02T11:29:08Z</time>
      </trkpt>
      <trkpt lat="44.54998" lon="3.83099">
        <ele>1172.47</ele>
        <time>2013-06-02T11:29:14Z</time>
      </trkpt>
      <trkpt lat="44.54998" lon="3.83099">
        <ele>1171.5</ele>
        <time>2013-06-02T11:29:30Z</time>
      </trkpt>
      <trkpt lat="44.54997" lon="3.83099">
        <ele>1171.02</ele>
        <time>2013-06-02T11:29:55Z</time>
      </trkpt>
      <trkpt lat="44.54997" lon="3.83099">
        <ele>1172.47</ele>
        <time>2013-06-02T11:29:58Z</time>
      </trkpt>
      <trkpt lat="44.54998" lon="3.83099">
        <ele>1171.02</ele>
        <time>2013-06-02T11:30:15Z</time>
      </trkpt>
      <trkpt lat="44.54998" lon="3.83099">
        <ele>1172.95</ele>
        <time>2013-06-02T11:30:18Z</time>
      </trkpt>
      <trkpt lat="44.55001" lon="3.831">
        <ele>1171.02</ele>
        <time>2013-06-02T11:30:59Z</time>
      </trkpt>
      <trkpt lat="44.55001" lon="3.83099">
        <ele>1172.47</ele>
        <time>2013-06-02T11:31:42Z</time>
      </trkpt>
      <trkpt lat="44.55" lon="3.83098">
        <ele>1172.47</ele>
        <time>2013-06-02T11:32:20Z</time>
      </trkpt>
      <trkpt lat="44.54999" lon="3.83099">
        <ele>1171.5</ele>
        <time>2013-06-02T11:32:34Z</time>
      </trkpt>
      <trkpt lat="44.54999" lon="3.831">
        <ele>1172.47</ele>
        <time>2013-06-02T11:32:41Z</time>
      </trkpt>
      <trkpt lat="44.54999" lon="3.83101">
        <ele>1171.98</ele>
        <time>2013-06-02T11:33:21Z</time>
      </trkpt>
      <trkpt lat="44.55001" lon="3.83101">
        <ele>1170.54</ele>
        <time>2013-06-02T11:33:47Z</time>
      </trkpt>
      <trkpt lat="44.55001" lon="3.83101">
        <ele>1172.47</ele>
        <time>2013-06-02T11:33:50Z</time>
      </trkpt>
      <trkpt lat="44.55001" lon="3.83101">
        <ele>1171.02</ele>
        <time>2013-06-02T11:34:22Z</time>
      </trkpt>
      <trkpt lat="44.55002" lon="3.831">
        <ele>1171.5</ele>
        <time>2013-06-02T11:34:50Z</time>
      </trkpt>
      <trkpt lat="44.55002" lon="3.83099">
        <ele>1171.5</ele>
        <time>2013-06-02T11:35:26Z</time>
      </trkpt>
      <trkpt lat="44.55002" lon="3.83102">
        <ele>1171.5</ele>
        <time>2013-06-02T11:36:04Z</time>
      </trkpt>
      <trkpt lat="44.55002" lon="3.83102">
        <ele>1172.95</ele>
        <time>2013-06-02T11:36:09Z</time>
      </trkpt>
      <trkpt lat="44.55002" lon="3.83101">
        <ele>1173.43</ele>
        <time>2013-06-02T11:36:49Z</time>
      </trkpt>
      <trkpt lat="44.55001" lon="3.831">
        <ele>1171.98</ele>
        <time>2013-06-02T11:37:00Z</time>
      </trkpt>
      <trkpt lat="44.55" lon="3.83097">
        <ele>1171.98</ele>
        <time>2013-06-02T11:37:30Z</time>
      </trkpt>
      <trkpt lat="44.55001" lon="3.83098">
        <ele>1172.47</ele>
        <time>2013-06-02T11:37:57Z</time>
      </trkpt>
      <trkpt lat="44.55" lon="3.83095">
        <ele>1172.95</ele>
        <time>2013-06-02T11:38:27Z</time>
      </trkpt>
      <trkpt lat="44.54999" lon="3.83095">
        <ele>1171.5</ele>
        <time>2013-06-02T11:38:29Z</time>
      </trkpt>
      <trkpt lat="44.54999" lon="3.83095">
        <ele>1172.47</ele>
        <time>2013-06-02T11:38:44Z</time>
      </trkpt>
      <trkpt lat="44.55001" lon="3.83098">
        <ele>1171.02</ele>
        <time>2013-06-02T11:39:14Z</time>
      </trkpt>
      <trkpt lat="44.55005" lon="3.83102">
        <ele>1172.47</ele>
        <time>2013-06-02T11:39:33Z</time>
      </trkpt>
      <trkpt lat="44.55006" lon="3.83101">
        <ele>1170.06</ele>
        <time>2013-06-02T11:39:44Z</time>
      </trkpt>
      <trkpt lat="44.55006" lon="3.83101">
        <ele>1171.98</ele>
        <time>2013-06-02T11:39:47Z</time>
      </trkpt>
      <trkpt lat="44.55006" lon="3.83102">
        <ele>1172.95</ele>
        <time>2013-06-02T11:40:12Z</time>
      </trkpt>
      <trkpt lat="44.55003" lon="3.83101">
        <ele>1171.02</ele>
        <time>2013-06-02T11:40:52Z</time>
      </trkpt>
      <trkpt lat="44.55005" lon="3.83101">
        <ele>1171.98</ele>
        <time>2013-06-02T11:41:20Z</time>
      </trkpt>
      <trkpt lat="44.55004" lon="3.831">
        <ele>1173.43</ele>
        <time>2013-06-02T11:41:28Z</time>
      </trkpt>
      <trkpt lat="44.55004" lon="3.831">
        <ele>1170.06</ele>
        <time>2013-06-02T11:42:03Z</time>
      </trkpt>
      <trkpt lat="44.55004" lon="3.831">
        <ele>1170.06</ele>
        <time>2013-06-02T11:42:04Z</time>
      </trkpt>
      <trkpt lat="44.55004" lon="3.831">
        <ele>1171.5</ele>
        <time>2013-06-02T11:42:12Z</time>
      </trkpt>
      <trkpt lat="44.55003" lon="3.83101">
        <ele>1172.95</ele>
        <time>2013-06-02T11:42:18Z</time>
      </trkpt>
      <trkpt lat="44.55003" lon="3.83101">
        <ele>1171.5</ele>
        <time>2013-06-02T11:42:28Z</time>
      </trkpt>
      <trkpt lat="44.55001" lon="3.83102">
        <ele>1171.02</ele>
        <time>2013-06-02T11:42:59Z</time>
      </trkpt>
      <trkpt lat="44.54997" lon="3.831">
        <ele>1171.98</ele>
        <time>2013-06-02T11:43:31Z</time>
      </trkpt>
      <trkpt lat="44.55" lon="3.83102">
        <ele>1171.02</ele>
        <time>2013-06-02T11:44:09Z</time>
      </trkpt>
      <trkpt lat="44.54998" lon="3.83101">
        <ele>1172.47</ele>
        <time>2013-06-02T11:44:14Z</time>
      </trkpt>
      <trkpt lat="44.54997" lon="3.83099">
        <ele>1171.02</ele>
        <time>2013-06-02T11:44:42Z</time>
      </trkpt>
      <trkpt lat="44.55" lon="3.83098">
        <ele>1171.5</ele>
        <time>2013-06-02T11:45:18Z</time>
      </trkpt>
      <trkpt lat="44.55002" lon="3.831">
        <ele>1170.06</ele>
        <time>2013-06-02T11:45:58Z</time>
      </trkpt>
      <trkpt lat="44.55001" lon="3.83099">
        <ele>1171.02</ele>
        <time>2013-06-02T11:46:30Z</time>
      </trkpt>
      <trkpt lat="44.54996" lon="3.83098">
        <ele>1170.54</ele>
        <time>2013-06-02T11:47:04Z</time>
      </trkpt>
      <trkpt lat="44.55001" lon="3.83102">
        <ele>1171.02</ele>
        <time>2013-06-02T11:47:37Z</time>
      </trkpt>
      <trkpt lat="44.55001" lon="3.831">
        <ele>1171.02</ele>
        <time>2013-06-02T11:48:09Z</time>
      </trkpt>
      <trkpt lat="44.55003" lon="3.83099">
        <ele>1170.54</ele>
        <time>2013-06-02T11:48:48Z</time>
      </trkpt>
      <trkpt lat="44.55002" lon="3.83098">
        <ele>1170.54</ele>
        <time>2013-06-02T11:49:16Z</time>
      </trkpt>
      <trkpt lat="44.55004" lon="3.831">
        <ele>1170.54</ele>
        <time>2013-06-02T11:49:54Z</time>
      </trkpt>
      <trkpt lat="44.55003" lon="3.83102">
        <ele>1170.54</ele>
        <time>2013-06-02T11:50:17Z</time>
      </trkpt>
      <trkpt lat="44.55001" lon="3.83101">
        <ele>1169.58</ele>
        <time>2013-06-02T11:50:42Z</time>
      </trkpt>
      <trkpt lat="44.55" lon="3.831">
        <ele>1171.02</ele>
        <time>2013-06-02T11:50:46Z</time>
      </trkpt>
      <trkpt lat="44.54999" lon="3.831">
        <ele>1170.06</ele>
        <time>2013-06-02T11:50:55Z</time>
      </trkpt>
      <trkpt lat="44.54999" lon="3.83099">
        <ele>1168.62</ele>
        <time>2013-06-02T11:51:21Z</time>
      </trkpt>
      <trkpt lat="44.55" lon="3.83099">
        <ele>1170.06</ele>
        <time>2013-06-02T11:51:24Z</time>
      </trkpt>
      <trkpt lat="44.55001" lon="3.831">
        <ele>1171.02</ele>
        <time>2013-06-02T11:51:50Z</time>
      </trkpt>
      <trkpt lat="44.55" lon="3.831">
        <ele>1169.58</ele>
        <time>2013-06-02T11:51:52Z</time>
      </trkpt>
      <trkpt lat="44.54997" lon="3.83098">
        <ele>1169.58</ele>
        <time>2013-06-02T11:52:24Z</time>
      </trkpt>
      <trkpt lat="44.55004" lon="3.831">
        <ele>1171.02</ele>
        <time>2013-06-02T11:53:00Z</time>
      </trkpt>
      <trkpt lat="44.55005" lon="3.83101">
        <ele>1171.02</ele>
        <time>2013-06-02T11:53:31Z</time>
      </trkpt>
      <trkpt lat="44.55003" lon="3.831">
        <ele>1171.02</ele>
        <time>2013-06-02T11:54:09Z</time>
      </trkpt>
      <trkpt lat="44.54996" lon="3.83101">
        <ele>1170.54</ele>
        <time>2013-06-02T11:54:43Z</time>
      </trkpt>
      <trkpt lat="44.55001" lon="3.83101">
        <ele>1171.02</ele>
        <time>2013-06-02T11:55:05Z</time>
      </trkpt>
      <trkpt lat="44.55002" lon="3.831">
        <ele>1169.58</ele>
        <time>2013-06-02T11:55:28Z</time>
      </trkpt>
      <trkpt lat="44.55005" lon="3.83101">
        <ele>1169.58</ele>
        <time>2013-06-02T11:55:54Z</time>
      </trkpt>
      <trkpt lat="44.55004" lon="3.83101">
        <ele>1171.02</ele>
        <time>2013-06-02T11:56:13Z</time>
      </trkpt>
      <trkpt lat="44.55004" lon="3.83099">
        <ele>1171.02</ele>
        <time>2013-06-02T11:56:33Z</time>
      </trkpt>
      <trkpt lat="44.55003" lon="3.831">
        <ele>1171.5</ele>
        <time>2013-06-02T11:56:55Z</time>
      </trkpt>
      <trkpt lat="44.54997" lon="3.83091">
        <ele>1169.58</ele>
        <time>2013-06-02T11:57:09Z</time>
      </trkpt>
      <trkpt lat="44.54996" lon="3.83089">
        <ele>1171.02</ele>
        <time>2013-06-02T11:57:13Z</time>
      </trkpt>
      <trkpt lat="44.54995" lon="3.83089">
        <ele>1171.02</ele>
        <time>2013-06-02T11:57:16Z</time>
      </trkpt>
      <trkpt lat="44.54989" lon="3.83066">
        <ele>1171.02</ele>
        <time>2013-06-02T11:57:31Z</time>
      </trkpt>
      <trkpt lat="44.54984" lon="3.83035">
        <ele>1171.5</ele>
        <time>2013-06-02T11:57:49Z</time>
      </trkpt>
      <trkpt lat="44.54984" lon="3.83029">
        <ele>1170.06</ele>
        <time>2013-06-02T11:57:52Z</time>
      </trkpt>
      <trkpt lat="44.54981" lon="3.83006">
        <ele>1170.54</ele>
        <time>2013-06-02T11:58:08Z</time>
      </trkpt>
      <trkpt lat="44.54981" lon="3.82991">
        <ele>1169.1</ele>
        <time>2013-06-02T11:58:16Z</time>
      </trkpt>
      <trkpt lat="44.54977" lon="3.82972">
        <ele>1166.7</ele>
        <time>2013-06-02T11:58:26Z</time>
      </trkpt>
      <trkpt lat="44.54982" lon="3.82934">
        <ele>1170.54</ele>
        <time>2013-06-02T11:58:44Z</time>
      </trkpt>
      <trkpt lat="44.54986" lon="3.82914">
        <ele>1169.1</ele>
        <time>2013-06-02T11:58:52Z</time>
      </trkpt>
      <trkpt lat="44.54993" lon="3.82868">
        <ele>1168.14</ele>
        <time>2013-06-02T11:59:13Z</time>
      </trkpt>
      <trkpt lat="44.54994" lon="3.82833">
        <ele>1166.22</ele>
        <time>2013-06-02T11:59:30Z</time>
      </trkpt>
      <trkpt lat="44.5499" lon="3.82812">
        <ele>1162.85</ele>
        <time>2013-06-02T11:59:41Z</time>
      </trkpt>
      <trkpt lat="44.54989" lon="3.8281">
        <ele>1162.85</ele>
        <time>2013-06-02T11:59:42Z</time>
      </trkpt>
      <trkpt lat="44.54986" lon="3.82796">
        <ele>1161.41</ele>
        <time>2013-06-02T11:59:49Z</time>
      </trkpt>
      <trkpt lat="44.54984" lon="3.82789">
        <ele>1162.85</ele>
        <time>2013-06-02T11:59:53Z</time>
      </trkpt>
      <trkpt lat="44.54965" lon="3.82755">
        <ele>1159.97</ele>
        <time>2013-06-02T12:00:14Z</time>
      </trkpt>
      <trkpt lat="44.54962" lon="3.82753">
        <ele>1159.01</ele>
        <time>2013-06-02T12:00:16Z</time>
      </trkpt>
      <trkpt lat="44.5496" lon="3.8275">
        <ele>1162.37</ele>
        <time>2013-06-02T12:00:18Z</time>
      </trkpt>
      <trkpt lat="44.54959" lon="3.82749">
        <ele>1162.37</ele>
        <time>2013-06-02T12:00:19Z</time>
      </trkpt>
      <trkpt lat="44.54955" lon="3.82745">
        <ele>1160.45</ele>
        <time>2013-06-02T12:00:22Z</time>
      </trkpt>
      <trkpt lat="44.54948" lon="3.82739">
        <ele>1163.33</ele>
        <time>2013-06-02T12:00:28Z</time>
      </trkpt>
      <trkpt lat="44.54927" lon="3.82726">
        <ele>1160.45</ele>
        <time>2013-06-02T12:00:44Z</time>
      </trkpt>
      <trkpt lat="44.54925" lon="3.82726">
        <ele>1160.45</ele>
        <time>2013-06-02T12:00:45Z</time>
      </trkpt>
      <trkpt lat="44.54904" lon="3.8271">
        <ele>1160.93</ele>
        <time>2013-06-02T12:01:02Z</time>
      </trkpt>
      <trkpt lat="44.54894" lon="3.82682">
        <ele>1163.33</ele>
        <time>2013-06-02T12:01:20Z</time>
      </trkpt>
      <trkpt lat="44.54889" lon="3.82664">
        <ele>1162.85</ele>
        <time>2013-06-02T12:01:31Z</time>
      </trkpt>
      <trkpt lat="44.54886" lon="3.82652">
        <ele>1164.29</ele>
        <time>2013-06-02T12:01:39Z</time>
      </trkpt>
      <trkpt lat="44.54878" lon="3.82625">
        <ele>1161.89</ele>
        <time>2013-06-02T12:01:57Z</time>
      </trkpt>
      <trkpt lat="44.54871" lon="3.82604">
        <ele>1161.89</ele>
        <time>2013-06-02T12:02:16Z</time>
      </trkpt>
      <trkpt lat="44.54869" lon="3.82599">
        <ele>1161.41</ele>
        <time>2013-06-02T12:02:42Z</time>
      </trkpt>
      <trkpt lat="44.54871" lon="3.82596">
        <ele>1161.89</ele>
        <time>2013-06-02T12:03:24Z</time>
      </trkpt>
      <trkpt lat="44.54874" lon="3.82616">
        <ele>1162.85</ele>
        <time>2013-06-02T12:03:37Z</time>
      </trkpt>
      <trkpt lat="44.54883" lon="3.82641">
        <ele>1164.77</ele>
        <time>2013-06-02T12:03:53Z</time>
      </trkpt>
      <trkpt lat="44.54888" lon="3.82656">
        <ele>1164.77</ele>
        <time>2013-06-02T12:04:01Z</time>
      </trkpt>
      <trkpt lat="44.54893" lon="3.82678">
        <ele>1164.77</ele>
        <time>2013-06-02T12:04:13Z</time>
      </trkpt>
      <trkpt lat="44.54907" lon="3.82701">
        <ele>1163.81</ele>
        <time>2013-06-02T12:04:27Z</time>
      </trkpt>
      <trkpt lat="44.54929" lon="3.82718">
        <ele>1163.81</ele>
        <time>2013-06-02T12:04:45Z</time>
      </trkpt>
      <trkpt lat="44.5494" lon="3.82723">
        <ele>1165.26</ele>
        <time>2013-06-02T12:04:53Z</time>
      </trkpt>
      <trkpt lat="44.54957" lon="3.82738">
        <ele>1165.26</ele>
        <time>2013-06-02T12:05:07Z</time>
      </trkpt>
      <trkpt lat="44.54976" lon="3.8276">
        <ele>1163.81</ele>
        <time>2013-06-02T12:05:25Z</time>
      </trkpt>
      <trkpt lat="44.54991" lon="3.82791">
        <ele>1163.81</ele>
        <time>2013-06-02T12:05:43Z</time>
      </trkpt>
      <trkpt lat="44.54995" lon="3.828">
        <ele>1165.74</ele>
        <time>2013-06-02T12:05:48Z</time>
      </trkpt>
      <trkpt lat="44.55001" lon="3.828">
        <ele>1166.22</ele>
        <time>2013-06-02T12:05:53Z</time>
      </trkpt>
      <trkpt lat="44.55019" lon="3.82771">
        <ele>1170.06</ele>
        <time>2013-06-02T12:06:13Z</time>
      </trkpt>
      <trkpt lat="44.5502" lon="3.8277">
        <ele>1170.06</ele>
        <time>2013-06-02T12:06:14Z</time>
      </trkpt>
      <trkpt lat="44.55022" lon="3.82765">
        <ele>1167.66</ele>
        <time>2013-06-02T12:06:17Z</time>
      </trkpt>
      <trkpt lat="44.55031" lon="3.8275">
        <ele>1171.02</ele>
        <time>2013-06-02T12:06:28Z</time>
      </trkpt>
      <trkpt lat="44.55032" lon="3.82749">
        <ele>1171.02</ele>
        <time>2013-06-02T12:06:29Z</time>
      </trkpt>
      <trkpt lat="44.55047" lon="3.82736">
        <ele>1174.39</ele>
        <time>2013-06-02T12:06:41Z</time>
      </trkpt>
      <trkpt lat="44.55048" lon="3.82734">
        <ele>1170.54</ele>
        <time>2013-06-02T12:06:42Z</time>
      </trkpt>
      <trkpt lat="44.55053" lon="3.82722">
        <ele>1173.43</ele>
        <time>2013-06-02T12:06:49Z</time>
      </trkpt>
      <trkpt lat="44.55056" lon="3.82716">
        <ele>1171.98</ele>
        <time>2013-06-02T12:06:52Z</time>
      </trkpt>
      <trkpt lat="44.55062" lon="3.82702">
        <ele>1169.58</ele>
        <time>2013-06-02T12:07:01Z</time>
      </trkpt>
      <trkpt lat="44.55073" lon="3.8267">
        <ele>1170.54</ele>
        <time>2013-06-02T12:07:20Z</time>
      </trkpt>
      <trkpt lat="44.55076" lon="3.82665">
        <ele>1169.1</ele>
        <time>2013-06-02T12:07:23Z</time>
      </trkpt>
      <trkpt lat="44.5508" lon="3.82652">
        <ele>1170.54</ele>
        <time>2013-06-02T12:07:30Z</time>
      </trkpt>
      <trkpt lat="44.55088" lon="3.82629">
        <ele>1169.58</ele>
        <time>2013-06-02T12:07:46Z</time>
      </trkpt>
      <trkpt lat="44.55087" lon="3.82607">
        <ele>1169.58</ele>
        <time>2013-06-02T12:08:00Z</time>
      </trkpt>
      <trkpt lat="44.55077" lon="3.82579">
        <ele>1169.58</ele>
        <time>2013-06-02T12:08:20Z</time>
      </trkpt>
      <trkpt lat="44.55078" lon="3.82578">
        <ele>1169.58</ele>
        <time>2013-06-02T12:08:21Z</time>
      </trkpt>
      <trkpt lat="44.55085" lon="3.82573">
        <ele>1169.58</ele>
        <time>2013-06-02T12:08:28Z</time>
      </trkpt>
      <trkpt lat="44.5509" lon="3.82574">
        <ele>1171.5</ele>
        <time>2013-06-02T12:08:32Z</time>
      </trkpt>
      <trkpt lat="44.55097" lon="3.82569">
        <ele>1172.47</ele>
        <time>2013-06-02T12:08:38Z</time>
      </trkpt>
      <trkpt lat="44.55104" lon="3.82566">
        <ele>1174.87</ele>
        <time>2013-06-02T12:08:43Z</time>
      </trkpt>
      <trkpt lat="44.55117" lon="3.82564">
        <ele>1175.83</ele>
        <time>2013-06-02T12:08:55Z</time>
      </trkpt>
      <trkpt lat="44.55115" lon="3.82554">
        <ele>1177.27</ele>
        <time>2013-06-02T12:09:03Z</time>
      </trkpt>
      <trkpt lat="44.55115" lon="3.82534">
        <ele>1178.71</ele>
        <time>2013-06-02T12:09:16Z</time>
      </trkpt>
      <trkpt lat="44.55122" lon="3.82516">
        <ele>1180.64</ele>
        <time>2013-06-02T12:09:31Z</time>
      </trkpt>
      <trkpt lat="44.55124" lon="3.82521">
        <ele>1181.12</ele>
        <time>2013-06-02T12:09:37Z</time>
      </trkpt>
      <trkpt lat="44.55124" lon="3.82523">
        <ele>1181.6</ele>
        <time>2013-06-02T12:09:39Z</time>
      </trkpt>
      <trkpt lat="44.55126" lon="3.82526">
        <ele>1180.16</ele>
        <time>2013-06-02T12:09:46Z</time>
      </trkpt>
      <trkpt lat="44.55124" lon="3.82512">
        <ele>1181.6</ele>
        <time>2013-06-02T12:09:57Z</time>
      </trkpt>
      <trkpt lat="44.5512" lon="3.82486">
        <ele>1182.56</ele>
        <time>2013-06-02T12:10:12Z</time>
      </trkpt>
      <trkpt lat="44.55121" lon="3.82476">
        <ele>1185.92</ele>
        <time>2013-06-02T12:10:19Z</time>
      </trkpt>
      <trkpt lat="44.5512" lon="3.82474">
        <ele>1186.4</ele>
        <time>2013-06-02T12:10:21Z</time>
      </trkpt>
      <trkpt lat="44.55118" lon="3.82469">
        <ele>1186.4</ele>
        <time>2013-06-02T12:10:25Z</time>
      </trkpt>
      <trkpt lat="44.55117" lon="3.82466">
        <ele>1184.96</ele>
        <time>2013-06-02T12:10:27Z</time>
      </trkpt>
      <trkpt lat="44.55116" lon="3.8246">
        <ele>1187.37</ele>
        <time>2013-06-02T12:10:32Z</time>
      </trkpt>
      <trkpt lat="44.55113" lon="3.82447">
        <ele>1185.92</ele>
        <time>2013-06-02T12:10:41Z</time>
      </trkpt>
      <trkpt lat="44.55112" lon="3.82442">
        <ele>1184.96</ele>
        <time>2013-06-02T12:10:44Z</time>
      </trkpt>
      <trkpt lat="44.5511" lon="3.82437">
        <ele>1185.44</ele>
        <time>2013-06-02T12:10:47Z</time>
      </trkpt>
      <trkpt lat="44.55108" lon="3.8243">
        <ele>1185.44</ele>
        <time>2013-06-02T12:10:51Z</time>
      </trkpt>
      <trkpt lat="44.55103" lon="3.82399">
        <ele>1186.88</ele>
        <time>2013-06-02T12:11:11Z</time>
      </trkpt>
      <trkpt lat="44.551" lon="3.82364">
        <ele>1187.37</ele>
        <time>2013-06-02T12:11:27Z</time>
      </trkpt>
      <trkpt lat="44.55097" lon="3.82326">
        <ele>1187.85</ele>
        <time>2013-06-02T12:11:44Z</time>
      </trkpt>
      <trkpt lat="44.55094" lon="3.82286">
        <ele>1187.85</ele>
        <time>2013-06-02T12:12:03Z</time>
      </trkpt>
      <trkpt lat="44.55091" lon="3.82249">
        <ele>1186.4</ele>
        <time>2013-06-02T12:12:23Z</time>
      </trkpt>
      <trkpt lat="44.55091" lon="3.82227">
        <ele>1183.04</ele>
        <time>2013-06-02T12:12:36Z</time>
      </trkpt>
      <trkpt lat="44.5509" lon="3.82204">
        <ele>1180.16</ele>
        <time>2013-06-02T12:12:49Z</time>
      </trkpt>
      <trkpt lat="44.55089" lon="3.82176">
        <ele>1176.79</ele>
        <time>2013-06-02T12:13:04Z</time>
      </trkpt>
      <trkpt lat="44.55092" lon="3.82139">
        <ele>1174.87</ele>
        <time>2013-06-02T12:13:25Z</time>
      </trkpt>
      <trkpt lat="44.55094" lon="3.8211">
        <ele>1171.98</ele>
        <time>2013-06-02T12:13:42Z</time>
      </trkpt>
      <trkpt lat="44.55094" lon="3.8208">
        <ele>1169.58</ele>
        <time>2013-06-02T12:13:58Z</time>
      </trkpt>
      <trkpt lat="44.55092" lon="3.82041">
        <ele>1167.18</ele>
        <time>2013-06-02T12:14:19Z</time>
      </trkpt>
      <trkpt lat="44.55092" lon="3.82036">
        <ele>1166.22</ele>
        <time>2013-06-02T12:14:21Z</time>
      </trkpt>
      <trkpt lat="44.55091" lon="3.82008">
        <ele>1164.77</ele>
        <time>2013-06-02T12:14:36Z</time>
      </trkpt>
      <trkpt lat="44.5509" lon="3.82003">
        <ele>1164.77</ele>
        <time>2013-06-02T12:14:39Z</time>
      </trkpt>
      <trkpt lat="44.55085" lon="3.81973">
        <ele>1160.45</ele>
        <time>2013-06-02T12:14:54Z</time>
      </trkpt>
      <trkpt lat="44.55079" lon="3.81947">
        <ele>1160.93</ele>
        <time>2013-06-02T12:15:07Z</time>
      </trkpt>
      <trkpt lat="44.55077" lon="3.81942">
        <ele>1160.45</ele>
        <time>2013-06-02T12:15:10Z</time>
      </trkpt>
      <trkpt lat="44.55076" lon="3.81933">
        <ele>1160.45</ele>
        <time>2013-06-02T12:15:16Z</time>
      </trkpt>
      <trkpt lat="44.55061" lon="3.819">
        <ele>1156.12</ele>
        <time>2013-06-02T12:15:35Z</time>
      </trkpt>
      <trkpt lat="44.5506" lon="3.81898">
        <ele>1156.12</ele>
        <time>2013-06-02T12:15:36Z</time>
      </trkpt>
      <trkpt lat="44.55059" lon="3.81895">
        <ele>1157.56</ele>
        <time>2013-06-02T12:15:38Z</time>
      </trkpt>
      <trkpt lat="44.55052" lon="3.81885">
        <ele>1156.12</ele>
        <time>2013-06-02T12:15:45Z</time>
      </trkpt>
      <trkpt lat="44.55041" lon="3.81872">
        <ele>1153.24</ele>
        <time>2013-06-02T12:15:55Z</time>
      </trkpt>
      <trkpt lat="44.5504" lon="3.8187">
        <ele>1153.24</ele>
        <time>2013-06-02T12:15:56Z</time>
      </trkpt>
      <trkpt lat="44.5503" lon="3.81856">
        <ele>1151.8</ele>
        <time>2013-06-02T12:16:05Z</time>
      </trkpt>
      <trkpt lat="44.55011" lon="3.81827">
        <ele>1151.32</ele>
        <time>2013-06-02T12:16:25Z</time>
      </trkpt>
      <trkpt lat="44.55004" lon="3.81816">
        <ele>1148.91</ele>
        <time>2013-06-02T12:16:33Z</time>
      </trkpt>
      <trkpt lat="44.54979" lon="3.81788">
        <ele>1147.95</ele>
        <time>2013-06-02T12:16:56Z</time>
      </trkpt>
      <trkpt lat="44.54975" lon="3.81783">
        <ele>1145.55</ele>
        <time>2013-06-02T12:17:00Z</time>
      </trkpt>
      <trkpt lat="44.54973" lon="3.8178">
        <ele>1148.43</ele>
        <time>2013-06-02T12:17:02Z</time>
      </trkpt>
      <trkpt lat="44.54972" lon="3.81779">
        <ele>1148.43</ele>
        <time>2013-06-02T12:17:03Z</time>
      </trkpt>
      <trkpt lat="44.54963" lon="3.81765">
        <ele>1146.99</ele>
        <time>2013-06-02T12:17:12Z</time>
      </trkpt>
      <trkpt lat="44.5495" lon="3.81736">
        <ele>1144.59</ele>
        <time>2013-06-02T12:17:32Z</time>
      </trkpt>
      <trkpt lat="44.54944" lon="3.81707">
        <ele>1141.7</ele>
        <time>2013-06-02T12:17:52Z</time>
      </trkpt>
      <trkpt lat="44.54945" lon="3.81706">
        <ele>1143.63</ele>
        <time>2013-06-02T12:18:09Z</time>
      </trkpt>
      <trkpt lat="44.54946" lon="3.81705">
        <ele>1141.7</ele>
        <time>2013-06-02T12:18:11Z</time>
      </trkpt>
      <trkpt lat="44.54945" lon="3.81705">
        <ele>1143.14</ele>
        <time>2013-06-02T12:18:15Z</time>
      </trkpt>
      <trkpt lat="44.54945" lon="3.81704">
        <ele>1142.18</ele>
        <time>2013-06-02T12:18:31Z</time>
      </trkpt>
      <trkpt lat="44.54945" lon="3.81703">
        <ele>1142.66</ele>
        <time>2013-06-02T12:18:44Z</time>
      </trkpt>
      <trkpt lat="44.54946" lon="3.81704">
        <ele>1141.7</ele>
        <time>2013-06-02T12:19:01Z</time>
      </trkpt>
      <trkpt lat="44.54945" lon="3.81702">
        <ele>1140.26</ele>
        <time>2013-06-02T12:19:13Z</time>
      </trkpt>
      <trkpt lat="44.54948" lon="3.81701">
        <ele>1141.7</ele>
        <time>2013-06-02T12:19:17Z</time>
      </trkpt>
      <trkpt lat="44.54946" lon="3.81701">
        <ele>1143.63</ele>
        <time>2013-06-02T12:19:43Z</time>
      </trkpt>
      <trkpt lat="44.54947" lon="3.81701">
        <ele>1142.18</ele>
        <time>2013-06-02T12:19:57Z</time>
      </trkpt>
      <trkpt lat="44.54945" lon="3.81702">
        <ele>1140.74</ele>
        <time>2013-06-02T12:20:12Z</time>
      </trkpt>
      <trkpt lat="44.54944" lon="3.81688">
        <ele>1140.26</ele>
        <time>2013-06-02T12:20:20Z</time>
      </trkpt>
      <trkpt lat="44.54944" lon="3.81685">
        <ele>1141.22</ele>
        <time>2013-06-02T12:20:22Z</time>
      </trkpt>
      <trkpt lat="44.54942" lon="3.81658">
        <ele>1143.14</ele>
        <time>2013-06-02T12:20:37Z</time>
      </trkpt>
      <trkpt lat="44.54943" lon="3.81645">
        <ele>1139.78</ele>
        <time>2013-06-02T12:20:44Z</time>
      </trkpt>
      <trkpt lat="44.54947" lon="3.81631">
        <ele>1137.38</ele>
        <time>2013-06-02T12:20:52Z</time>
      </trkpt>
      <trkpt lat="44.54952" lon="3.81617">
        <ele>1135.94</ele>
        <time>2013-06-02T12:21:00Z</time>
      </trkpt>
      <trkpt lat="44.5495" lon="3.81611">
        <ele>1134.01</ele>
        <time>2013-06-02T12:21:04Z</time>
      </trkpt>
      <trkpt lat="44.54928" lon="3.81604">
        <ele>1132.57</ele>
        <time>2013-06-02T12:21:22Z</time>
      </trkpt>
      <trkpt lat="44.54922" lon="3.81597">
        <ele>1129.21</ele>
        <time>2013-06-02T12:21:28Z</time>
      </trkpt>
      <trkpt lat="44.54924" lon="3.81576">
        <ele>1125.36</ele>
        <time>2013-06-02T12:21:42Z</time>
      </trkpt>
      <trkpt lat="44.54926" lon="3.81575">
        <ele>1125.36</ele>
        <time>2013-06-02T12:21:43Z</time>
      </trkpt>
      <trkpt lat="44.54936" lon="3.81566">
        <ele>1123.92</ele>
        <time>2013-06-02T12:21:55Z</time>
      </trkpt>
      <trkpt lat="44.54939" lon="3.81565">
        <ele>1122.48</ele>
        <time>2013-06-02T12:21:59Z</time>
      </trkpt>
      <trkpt lat="44.5494" lon="3.81564">
        <ele>1123.44</ele>
        <time>2013-06-02T12:22:07Z</time>
      </trkpt>
      <trkpt lat="44.54939" lon="3.81564">
        <ele>1122.48</ele>
        <time>2013-06-02T12:22:22Z</time>
      </trkpt>
      <trkpt lat="44.54942" lon="3.81568">
        <ele>1124.4</ele>
        <time>2013-06-02T12:22:58Z</time>
      </trkpt>
      <trkpt lat="44.54947" lon="3.81563">
        <ele>1123.92</ele>
        <time>2013-06-02T12:23:17Z</time>
      </trkpt>
      <trkpt lat="44.54952" lon="3.81562">
        <ele>1122.48</ele>
        <time>2013-06-02T12:23:22Z</time>
      </trkpt>
      <trkpt lat="44.5496" lon="3.81561">
        <ele>1121.52</ele>
        <time>2013-06-02T12:23:30Z</time>
      </trkpt>
      <trkpt lat="44.54974" lon="3.81555">
        <ele>1118.15</ele>
        <time>2013-06-02T12:23:43Z</time>
      </trkpt>
      <trkpt lat="44.54979" lon="3.81552">
        <ele>1117.19</ele>
        <time>2013-06-02T12:23:48Z</time>
      </trkpt>
      <trkpt lat="44.54976" lon="3.81552">
        <ele>1115.75</ele>
        <time>2013-06-02T12:23:52Z</time>
      </trkpt>
      <trkpt lat="44.54967" lon="3.81547">
        <ele>1113.82</ele>
        <time>2013-06-02T12:24:02Z</time>
      </trkpt>
      <trkpt lat="44.54953" lon="3.81546">
        <ele>1111.9</ele>
        <time>2013-06-02T12:24:15Z</time>
      </trkpt>
      <trkpt lat="44.54937" lon="3.8153">
        <ele>1109.02</ele>
        <time>2013-06-02T12:24:28Z</time>
      </trkpt>
      <trkpt lat="44.54925" lon="3.81526">
        <ele>1106.13</ele>
        <time>2013-06-02T12:24:38Z</time>
      </trkpt>
      <trkpt lat="44.54915" lon="3.8152">
        <ele>1105.17</ele>
        <time>2013-06-02T12:24:50Z</time>
      </trkpt>
      <trkpt lat="44.54907" lon="3.81513">
        <ele>1102.77</ele>
        <time>2013-06-02T12:24:58Z</time>
      </trkpt>
      <trkpt lat="44.54898" lon="3.81505">
        <ele>1102.77</ele>
        <time>2013-06-02T12:25:06Z</time>
      </trkpt>
      <trkpt lat="44.54882" lon="3.81491">
        <ele>1101.81</ele>
        <time>2013-06-02T12:25:20Z</time>
      </trkpt>
      <trkpt lat="44.54862" lon="3.81478">
        <ele>1101.81</ele>
        <time>2013-06-02T12:25:36Z</time>
      </trkpt>
      <trkpt lat="44.54858" lon="3.81475">
        <ele>1098.44</ele>
        <time>2013-06-02T12:25:42Z</time>
      </trkpt>
      <trkpt lat="44.54859" lon="3.8147">
        <ele>1098.44</ele>
        <time>2013-06-02T12:25:43Z</time>
      </trkpt>
      <trkpt lat="44.54858" lon="3.81458">
        <ele>1098.44</ele>
        <time>2013-06-02T12:25:47Z</time>
      </trkpt>
      <trkpt lat="44.54831" lon="3.81454">
        <ele>1098.44</ele>
        <time>2013-06-02T12:26:03Z</time>
      </trkpt>
      <trkpt lat="44.5483" lon="3.81455">
        <ele>1098.44</ele>
        <time>2013-06-02T12:26:04Z</time>
      </trkpt>
      <trkpt lat="44.54822" lon="3.81466">
        <ele>1098.44</ele>
        <time>2013-06-02T12:26:19Z</time>
      </trkpt>
      <trkpt lat="44.54818" lon="3.81472">
        <ele>1097.48</ele>
        <time>2013-06-02T12:26:39Z</time>
      </trkpt>
      <trkpt lat="44.54817" lon="3.81471">
        <ele>1097</ele>
        <time>2013-06-02T12:27:03Z</time>
      </trkpt>
      <trkpt lat="44.54814" lon="3.81473">
        <ele>1097.96</ele>
        <time>2013-06-02T12:27:28Z</time>
      </trkpt>
      <trkpt lat="44.54813" lon="3.81471">
        <ele>1098.44</ele>
        <time>2013-06-02T12:27:54Z</time>
      </trkpt>
      <trkpt lat="44.54812" lon="3.8147">
        <ele>1097.96</ele>
        <time>2013-06-02T12:28:10Z</time>
      </trkpt>
      <trkpt lat="44.54813" lon="3.81468">
        <ele>1097.96</ele>
        <time>2013-06-02T12:28:22Z</time>
      </trkpt>
      <trkpt lat="44.54814" lon="3.81474">
        <ele>1097.96</ele>
        <time>2013-06-02T12:28:38Z</time>
      </trkpt>
      <trkpt lat="44.54813" lon="3.81473">
        <ele>1097.48</ele>
        <time>2013-06-02T12:28:56Z</time>
      </trkpt>
      <trkpt lat="44.54813" lon="3.81475">
        <ele>1097.48</ele>
        <time>2013-06-02T12:28:59Z</time>
      </trkpt>
      <trkpt lat="44.54808" lon="3.81491">
        <ele>1099.89</ele>
        <time>2013-06-02T12:29:09Z</time>
      </trkpt>
      <trkpt lat="44.54804" lon="3.81496">
        <ele>1098.44</ele>
        <time>2013-06-02T12:29:13Z</time>
      </trkpt>
      <trkpt lat="44.54799" lon="3.81505">
        <ele>1097.96</ele>
        <time>2013-06-02T12:29:21Z</time>
      </trkpt>
      <trkpt lat="44.54786" lon="3.8152">
        <ele>1097.96</ele>
        <time>2013-06-02T12:29:35Z</time>
      </trkpt>
      <trkpt lat="44.54782" lon="3.81522">
        <ele>1099.4</ele>
        <time>2013-06-02T12:29:38Z</time>
      </trkpt>
      <trkpt lat="44.54775" lon="3.81525">
        <ele>1099.4</ele>
        <time>2013-06-02T12:29:43Z</time>
      </trkpt>
      <trkpt lat="44.54756" lon="3.81538">
        <ele>1100.85</ele>
        <time>2013-06-02T12:29:58Z</time>
      </trkpt>
      <trkpt lat="44.54745" lon="3.81539">
        <ele>1102.77</ele>
        <time>2013-06-02T12:30:08Z</time>
      </trkpt>
      <trkpt lat="44.54738" lon="3.81538">
        <ele>1103.73</ele>
        <time>2013-06-02T12:30:12Z</time>
      </trkpt>
      <trkpt lat="44.54713" lon="3.81533">
        <ele>1105.65</ele>
        <time>2013-06-02T12:30:29Z</time>
      </trkpt>
      <trkpt lat="44.54693" lon="3.81526">
        <ele>1105.65</ele>
        <time>2013-06-02T12:30:44Z</time>
      </trkpt>
      <trkpt lat="44.54671" lon="3.81527">
        <ele>1107.58</ele>
        <time>2013-06-02T12:31:01Z</time>
      </trkpt>
      <trkpt lat="44.54655" lon="3.81527">
        <ele>1110.46</ele>
        <time>2013-06-02T12:31:12Z</time>
      </trkpt>
      <trkpt lat="44.5464" lon="3.8153">
        <ele>1111.42</ele>
        <time>2013-06-02T12:31:27Z</time>
      </trkpt>
      <trkpt lat="44.5462" lon="3.81532">
        <ele>1113.82</ele>
        <time>2013-06-02T12:31:43Z</time>
      </trkpt>
      <trkpt lat="44.54612" lon="3.81533">
        <ele>1115.27</ele>
        <time>2013-06-02T12:31:52Z</time>
      </trkpt>
      <trkpt lat="44.5462" lon="3.81525">
        <ele>1118.63</ele>
        <time>2013-06-02T12:32:06Z</time>
      </trkpt>
      <trkpt lat="44.54616" lon="3.8152">
        <ele>1120.55</ele>
        <time>2013-06-02T12:32:18Z</time>
      </trkpt>
      <trkpt lat="44.54615" lon="3.8152">
        <ele>1121.52</ele>
        <time>2013-06-02T12:32:19Z</time>
      </trkpt>
      <trkpt lat="44.54602" lon="3.81516">
        <ele>1123.44</ele>
        <time>2013-06-02T12:32:34Z</time>
      </trkpt>
      <trkpt lat="44.54598" lon="3.81512">
        <ele>1122.48</ele>
        <time>2013-06-02T12:32:38Z</time>
      </trkpt>
      <trkpt lat="44.54597" lon="3.8151">
        <ele>1124.4</ele>
        <time>2013-06-02T12:32:40Z</time>
      </trkpt>
      <trkpt lat="44.54596" lon="3.81509">
        <ele>1122.96</ele>
        <time>2013-06-02T12:32:41Z</time>
      </trkpt>
      <trkpt lat="44.54589" lon="3.81501">
        <ele>1122.48</ele>
        <time>2013-06-02T12:32:49Z</time>
      </trkpt>
      <trkpt lat="44.54576" lon="3.81491">
        <ele>1124.88</ele>
        <time>2013-06-02T12:33:03Z</time>
      </trkpt>
      <trkpt lat="44.54565" lon="3.81483">
        <ele>1125.84</ele>
        <time>2013-06-02T12:33:16Z</time>
      </trkpt>
      <trkpt lat="44.5456" lon="3.81478">
        <ele>1126.8</ele>
        <time>2013-06-02T12:33:23Z</time>
      </trkpt>
      <trkpt lat="44.54548" lon="3.8147">
        <ele>1128.24</ele>
        <time>2013-06-02T12:33:36Z</time>
      </trkpt>
      <trkpt lat="44.54543" lon="3.81468">
        <ele>1128.73</ele>
        <time>2013-06-02T12:33:42Z</time>
      </trkpt>
      <trkpt lat="44.54539" lon="3.81467">
        <ele>1128.73</ele>
        <time>2013-06-02T12:33:45Z</time>
      </trkpt>
      <trkpt lat="44.54538" lon="3.81466">
        <ele>1129.21</ele>
        <time>2013-06-02T12:33:46Z</time>
      </trkpt>
      <trkpt lat="44.54537" lon="3.81465">
        <ele>1129.21</ele>
        <time>2013-06-02T12:33:47Z</time>
      </trkpt>
      <trkpt lat="44.54524" lon="3.8146">
        <ele>1131.61</ele>
        <time>2013-06-02T12:33:59Z</time>
      </trkpt>
      <trkpt lat="44.54519" lon="3.81455">
        <ele>1132.09</ele>
        <time>2013-06-02T12:34:04Z</time>
      </trkpt>
      <trkpt lat="44.54515" lon="3.81452">
        <ele>1132.57</ele>
        <time>2013-06-02T12:34:08Z</time>
      </trkpt>
      <trkpt lat="44.54512" lon="3.8145">
        <ele>1133.05</ele>
        <time>2013-06-02T12:34:11Z</time>
      </trkpt>
      <trkpt lat="44.54503" lon="3.81431">
        <ele>1134.97</ele>
        <time>2013-06-02T12:34:25Z</time>
      </trkpt>
      <trkpt lat="44.54498" lon="3.81415">
        <ele>1135.45</ele>
        <time>2013-06-02T12:34:38Z</time>
      </trkpt>
      <trkpt lat="44.54497" lon="3.81414">
        <ele>1135.45</ele>
        <time>2013-06-02T12:34:39Z</time>
      </trkpt>
      <trkpt lat="44.54493" lon="3.8141">
        <ele>1135.94</ele>
        <time>2013-06-02T12:34:44Z</time>
      </trkpt>
      <trkpt lat="44.54483" lon="3.814">
        <ele>1138.82</ele>
        <time>2013-06-02T12:34:58Z</time>
      </trkpt>
      <trkpt lat="44.54484" lon="3.81374">
        <ele>1142.18</ele>
        <time>2013-06-02T12:35:13Z</time>
      </trkpt>
      <trkpt lat="44.54485" lon="3.81373">
        <ele>1142.18</ele>
        <time>2013-06-02T12:35:14Z</time>
      </trkpt>
      <trkpt lat="44.54488" lon="3.81365">
        <ele>1141.22</ele>
        <time>2013-06-02T12:35:22Z</time>
      </trkpt>
      <trkpt lat="44.54489" lon="3.81362">
        <ele>1142.18</ele>
        <time>2013-06-02T12:35:24Z</time>
      </trkpt>
      <trkpt lat="44.54498" lon="3.81333">
        <ele>1142.66</ele>
        <time>2013-06-02T12:35:42Z</time>
      </trkpt>
      <trkpt lat="44.545" lon="3.81323">
        <ele>1141.22</ele>
        <time>2013-06-02T12:35:48Z</time>
      </trkpt>
      <trkpt lat="44.54514" lon="3.813">
        <ele>1138.82</ele>
        <time>2013-06-02T12:36:04Z</time>
      </trkpt>
      <trkpt lat="44.5451" lon="3.81272">
        <ele>1136.42</ele>
        <time>2013-06-02T12:36:20Z</time>
      </trkpt>
      <trkpt lat="44.54509" lon="3.81269">
        <ele>1135.45</ele>
        <time>2013-06-02T12:36:22Z</time>
      </trkpt>
      <trkpt lat="44.54507" lon="3.81254">
        <ele>1133.53</ele>
        <time>2013-06-02T12:36:29Z</time>
      </trkpt>
      <trkpt lat="44.54505" lon="3.81248">
        <ele>1133.05</ele>
        <time>2013-06-02T12:36:33Z</time>
      </trkpt>
      <trkpt lat="44.54493" lon="3.81222">
        <ele>1131.13</ele>
        <time>2013-06-02T12:36:49Z</time>
      </trkpt>
      <trkpt lat="44.54484" lon="3.8121">
        <ele>1128.24</ele>
        <time>2013-06-02T12:36:58Z</time>
      </trkpt>
      <trkpt lat="44.54476" lon="3.81197">
        <ele>1126.8</ele>
        <time>2013-06-02T12:37:08Z</time>
      </trkpt>
      <trkpt lat="44.54471" lon="3.81187">
        <ele>1127.28</ele>
        <time>2013-06-02T12:37:14Z</time>
      </trkpt>
      <trkpt lat="44.54464" lon="3.81174">
        <ele>1126.32</ele>
        <time>2013-06-02T12:37:24Z</time>
      </trkpt>
      <trkpt lat="44.54462" lon="3.8117">
        <ele>1124.88</ele>
        <time>2013-06-02T12:37:27Z</time>
      </trkpt>
      <trkpt lat="44.54445" lon="3.81162">
        <ele>1122.96</ele>
        <time>2013-06-02T12:37:42Z</time>
      </trkpt>
      <trkpt lat="44.5443" lon="3.81156">
        <ele>1119.59</ele>
        <time>2013-06-02T12:37:54Z</time>
      </trkpt>
      <trkpt lat="44.54429" lon="3.81156">
        <ele>1119.59</ele>
        <time>2013-06-02T12:37:55Z</time>
      </trkpt>
      <trkpt lat="44.54404" lon="3.81147">
        <ele>1119.59</ele>
        <time>2013-06-02T12:38:14Z</time>
      </trkpt>
      <trkpt lat="44.54382" lon="3.81134">
        <ele>1117.67</ele>
        <time>2013-06-02T12:38:33Z</time>
      </trkpt>
      <trkpt lat="44.54375" lon="3.81125">
        <ele>1117.19</ele>
        <time>2013-06-02T12:38:42Z</time>
      </trkpt>
      <trkpt lat="44.54377" lon="3.81116">
        <ele>1117.19</ele>
        <time>2013-06-02T12:38:47Z</time>
      </trkpt>
      <trkpt lat="44.54386" lon="3.81093">
        <ele>1117.19</ele>
        <time>2013-06-02T12:39:04Z</time>
      </trkpt>
      <trkpt lat="44.54388" lon="3.8109">
        <ele>1117.19</ele>
        <time>2013-06-02T12:39:07Z</time>
      </trkpt>
      <trkpt lat="44.54392" lon="3.81085">
        <ele>1118.15</ele>
        <time>2013-06-02T12:39:11Z</time>
      </trkpt>
      <trkpt lat="44.54396" lon="3.81081">
        <ele>1119.59</ele>
        <time>2013-06-02T12:39:15Z</time>
      </trkpt>
      <trkpt lat="44.54416" lon="3.81062">
        <ele>1123.44</ele>
        <time>2013-06-02T12:39:33Z</time>
      </trkpt>
      <trkpt lat="44.54418" lon="3.8106">
        <ele>1123.92</ele>
        <time>2013-06-02T12:39:35Z</time>
      </trkpt>
      <trkpt lat="44.54432" lon="3.81049">
        <ele>1123.92</ele>
        <time>2013-06-02T12:39:49Z</time>
      </trkpt>
      <trkpt lat="44.5445" lon="3.81035">
        <ele>1126.8</ele>
        <time>2013-06-02T12:40:07Z</time>
      </trkpt>
      <trkpt lat="44.54466" lon="3.81022">
        <ele>1129.21</ele>
        <time>2013-06-02T12:40:23Z</time>
      </trkpt>
      <trkpt lat="44.54484" lon="3.81003">
        <ele>1131.13</ele>
        <time>2013-06-02T12:40:42Z</time>
      </trkpt>
      <trkpt lat="44.54485" lon="3.81002">
        <ele>1131.13</ele>
        <time>2013-06-02T12:40:43Z</time>
      </trkpt>
      <trkpt lat="44.54487" lon="3.81">
        <ele>1129.69</ele>
        <time>2013-06-02T12:40:45Z</time>
      </trkpt>
      <trkpt lat="44.54488" lon="3.80998">
        <ele>1132.57</ele>
        <time>2013-06-02T12:40:47Z</time>
      </trkpt>
      <trkpt lat="44.54497" lon="3.80989">
        <ele>1135.94</ele>
        <time>2013-06-02T12:40:57Z</time>
      </trkpt>
      <trkpt lat="44.54502" lon="3.80985">
        <ele>1134.97</ele>
        <time>2013-06-02T12:41:03Z</time>
      </trkpt>
      <trkpt lat="44.54506" lon="3.8098">
        <ele>1136.9</ele>
        <time>2013-06-02T12:41:07Z</time>
      </trkpt>
      <trkpt lat="44.54512" lon="3.80962">
        <ele>1139.3</ele>
        <time>2013-06-02T12:41:20Z</time>
      </trkpt>
      <trkpt lat="44.54514" lon="3.80937">
        <ele>1140.74</ele>
        <time>2013-06-02T12:41:36Z</time>
      </trkpt>
      <trkpt lat="44.54513" lon="3.8091">
        <ele>1142.66</ele>
        <time>2013-06-02T12:41:53Z</time>
      </trkpt>
      <trkpt lat="44.54514" lon="3.80878">
        <ele>1143.63</ele>
        <time>2013-06-02T12:42:12Z</time>
      </trkpt>
      <trkpt lat="44.54516" lon="3.80868">
        <ele>1142.18</ele>
        <time>2013-06-02T12:42:19Z</time>
      </trkpt>
      <trkpt lat="44.5452" lon="3.80855">
        <ele>1141.22</ele>
        <time>2013-06-02T12:42:27Z</time>
      </trkpt>
      <trkpt lat="44.54521" lon="3.80823">
        <ele>1140.26</ele>
        <time>2013-06-02T12:42:44Z</time>
      </trkpt>
      <trkpt lat="44.54522" lon="3.80817">
        <ele>1141.7</ele>
        <time>2013-06-02T12:42:47Z</time>
      </trkpt>
      <trkpt lat="44.54523" lon="3.80795">
        <ele>1141.22</ele>
        <time>2013-06-02T12:42:59Z</time>
      </trkpt>
      <trkpt lat="44.54525" lon="3.80787">
        <ele>1142.66</ele>
        <time>2013-06-02T12:43:03Z</time>
      </trkpt>
      <trkpt lat="44.54528" lon="3.80769">
        <ele>1144.11</ele>
        <time>2013-06-02T12:43:13Z</time>
      </trkpt>
      <trkpt lat="44.54533" lon="3.80728">
        <ele>1144.59</ele>
        <time>2013-06-02T12:43:34Z</time>
      </trkpt>
      <trkpt lat="44.54535" lon="3.80697">
        <ele>1145.55</ele>
        <time>2013-06-02T12:43:50Z</time>
      </trkpt>
      <trkpt lat="44.54536" lon="3.80682">
        <ele>1146.99</ele>
        <time>2013-06-02T12:43:59Z</time>
      </trkpt>
      <trkpt lat="44.54536" lon="3.80663">
        <ele>1147.95</ele>
        <time>2013-06-02T12:44:09Z</time>
      </trkpt>
      <trkpt lat="44.54536" lon="3.80659">
        <ele>1146.51</ele>
        <time>2013-06-02T12:44:11Z</time>
      </trkpt>
      <trkpt lat="44.54538" lon="3.80633">
        <ele>1142.66</ele>
        <time>2013-06-02T12:44:25Z</time>
      </trkpt>
      <trkpt lat="44.54538" lon="3.80631">
        <ele>1142.66</ele>
        <time>2013-06-02T12:44:26Z</time>
      </trkpt>
      <trkpt lat="44.54538" lon="3.8061">
        <ele>1139.78</ele>
        <time>2013-06-02T12:44:36Z</time>
      </trkpt>
      <trkpt lat="44.54538" lon="3.80608">
        <ele>1139.78</ele>
        <time>2013-06-02T12:44:37Z</time>
      </trkpt>
      <trkpt lat="44.54539" lon="3.80593">
        <ele>1138.34</ele>
        <time>2013-06-02T12:44:45Z</time>
      </trkpt>
      <trkpt lat="44.54536" lon="3.80583">
        <ele>1138.34</ele>
        <time>2013-06-02T12:44:59Z</time>
      </trkpt>
      <trkpt lat="44.54535" lon="3.80581">
        <ele>1137.38</ele>
        <time>2013-06-02T12:45:16Z</time>
      </trkpt>
      <trkpt lat="44.54536" lon="3.80577">
        <ele>1139.3</ele>
        <time>2013-06-02T12:45:41Z</time>
      </trkpt>
      <trkpt lat="44.54537" lon="3.80577">
        <ele>1138.34</ele>
        <time>2013-06-02T12:45:47Z</time>
      </trkpt>
      <trkpt lat="44.54538" lon="3.80578">
        <ele>1137.38</ele>
        <time>2013-06-02T12:46:25Z</time>
      </trkpt>
      <trkpt lat="44.54537" lon="3.80579">
        <ele>1136.9</ele>
        <time>2013-06-02T12:46:39Z</time>
      </trkpt>
      <trkpt lat="44.54537" lon="3.8058">
        <ele>1135.45</ele>
        <time>2013-06-02T12:46:49Z</time>
      </trkpt>
      <trkpt lat="44.54537" lon="3.8058">
        <ele>1137.38</ele>
        <time>2013-06-02T12:46:58Z</time>
      </trkpt>
      <trkpt lat="44.54536" lon="3.80578">
        <ele>1138.82</ele>
        <time>2013-06-02T12:47:01Z</time>
      </trkpt>
      <trkpt lat="44.54533" lon="3.80569">
        <ele>1136.42</ele>
        <time>2013-06-02T12:47:07Z</time>
      </trkpt>
      <trkpt lat="44.54531" lon="3.80562">
        <ele>1137.86</ele>
        <time>2013-06-02T12:47:11Z</time>
      </trkpt>
      <trkpt lat="44.54527" lon="3.80549">
        <ele>1134.97</ele>
        <time>2013-06-02T12:47:21Z</time>
      </trkpt>
      <trkpt lat="44.54526" lon="3.80545">
        <ele>1137.38</ele>
        <time>2013-06-02T12:47:23Z</time>
      </trkpt>
      <trkpt lat="44.5452" lon="3.8052">
        <ele>1137.38</ele>
        <time>2013-06-02T12:47:37Z</time>
      </trkpt>
      <trkpt lat="44.54519" lon="3.80517">
        <ele>1138.82</ele>
        <time>2013-06-02T12:47:39Z</time>
      </trkpt>
      <trkpt lat="44.54516" lon="3.80509">
        <ele>1140.26</ele>
        <time>2013-06-02T12:47:44Z</time>
      </trkpt>
      <trkpt lat="44.54505" lon="3.80486">
        <ele>1141.7</ele>
        <time>2013-06-02T12:48:00Z</time>
      </trkpt>
      <trkpt lat="44.54491" lon="3.80461">
        <ele>1143.63</ele>
        <time>2013-06-02T12:48:17Z</time>
      </trkpt>
      <trkpt lat="44.54481" lon="3.80438">
        <ele>1142.18</ele>
        <time>2013-06-02T12:48:31Z</time>
      </trkpt>
      <trkpt lat="44.54465" lon="3.80417">
        <ele>1141.7</ele>
        <time>2013-06-02T12:48:48Z</time>
      </trkpt>
      <trkpt lat="44.54449" lon="3.80397">
        <ele>1142.18</ele>
        <time>2013-06-02T12:49:04Z</time>
      </trkpt>
      <trkpt lat="44.54427" lon="3.80379">
        <ele>1145.07</ele>
        <time>2013-06-02T12:49:23Z</time>
      </trkpt>
      <trkpt lat="44.54404" lon="3.80368">
        <ele>1147.47</ele>
        <time>2013-06-02T12:49:43Z</time>
      </trkpt>
      <trkpt lat="44.5438" lon="3.80358">
        <ele>1149.87</ele>
        <time>2013-06-02T12:50:02Z</time>
      </trkpt>
      <trkpt lat="44.54366" lon="3.80353">
        <ele>1152.28</ele>
        <time>2013-06-02T12:50:14Z</time>
      </trkpt>
      <trkpt lat="44.54363" lon="3.80353">
        <ele>1150.84</ele>
        <time>2013-06-02T12:50:16Z</time>
      </trkpt>
      <trkpt lat="44.54357" lon="3.80351">
        <ele>1152.28</ele>
        <time>2013-06-02T12:50:21Z</time>
      </trkpt>
      <trkpt lat="44.54342" lon="3.80348">
        <ele>1151.32</ele>
        <time>2013-06-02T12:50:33Z</time>
      </trkpt>
      <trkpt lat="44.54338" lon="3.80346">
        <ele>1153.24</ele>
        <time>2013-06-02T12:50:36Z</time>
      </trkpt>
      <trkpt lat="44.54331" lon="3.80346">
        <ele>1152.76</ele>
        <time>2013-06-02T12:50:41Z</time>
      </trkpt>
      <trkpt lat="44.54328" lon="3.80345">
        <ele>1154.68</ele>
        <time>2013-06-02T12:50:43Z</time>
      </trkpt>
      <trkpt lat="44.54324" lon="3.80343">
        <ele>1155.64</ele>
        <time>2013-06-02T12:50:46Z</time>
      </trkpt>
      <trkpt lat="44.54313" lon="3.8034">
        <ele>1159.01</ele>
        <time>2013-06-02T12:50:56Z</time>
      </trkpt>
      <trkpt lat="44.54299" lon="3.80328">
        <ele>1159.01</ele>
        <time>2013-06-02T12:51:10Z</time>
      </trkpt>
      <trkpt lat="44.54283" lon="3.80315">
        <ele>1158.53</ele>
        <time>2013-06-02T12:51:23Z</time>
      </trkpt>
      <trkpt lat="44.54276" lon="3.80311">
        <ele>1157.56</ele>
        <time>2013-06-02T12:51:29Z</time>
      </trkpt>
      <trkpt lat="44.54253" lon="3.80301">
        <ele>1156.6</ele>
        <time>2013-06-02T12:51:46Z</time>
      </trkpt>
      <trkpt lat="44.54227" lon="3.80293">
        <ele>1153.24</ele>
        <time>2013-06-02T12:52:06Z</time>
      </trkpt>
      <trkpt lat="44.54209" lon="3.80289">
        <ele>1150.35</ele>
        <time>2013-06-02T12:52:22Z</time>
      </trkpt>
      <trkpt lat="44.5419" lon="3.80284">
        <ele>1149.87</ele>
        <time>2013-06-02T12:52:37Z</time>
      </trkpt>
      <trkpt lat="44.54171" lon="3.80284">
        <ele>1151.32</ele>
        <time>2013-06-02T12:52:52Z</time>
      </trkpt>
      <trkpt lat="44.54149" lon="3.80284">
        <ele>1152.28</ele>
        <time>2013-06-02T12:53:08Z</time>
      </trkpt>
      <trkpt lat="44.54124" lon="3.8029">
        <ele>1153.24</ele>
        <time>2013-06-02T12:53:25Z</time>
      </trkpt>
      <trkpt lat="44.54101" lon="3.80282">
        <ele>1154.2</ele>
        <time>2013-06-02T12:53:42Z</time>
      </trkpt>
      <trkpt lat="44.54095" lon="3.80264">
        <ele>1156.6</ele>
        <time>2013-06-02T12:53:53Z</time>
      </trkpt>
      <trkpt lat="44.54078" lon="3.80238">
        <ele>1158.05</ele>
        <time>2013-06-02T12:54:11Z</time>
      </trkpt>
      <trkpt lat="44.54056" lon="3.80218">
        <ele>1159.49</ele>
        <time>2013-06-02T12:54:29Z</time>
      </trkpt>
      <trkpt lat="44.5404" lon="3.80195">
        <ele>1160.93</ele>
        <time>2013-06-02T12:54:47Z</time>
      </trkpt>
      <trkpt lat="44.54037" lon="3.80163">
        <ele>1162.37</ele>
        <time>2013-06-02T12:55:04Z</time>
      </trkpt>
      <trkpt lat="44.54028" lon="3.80138">
        <ele>1162.85</ele>
        <time>2013-06-02T12:55:22Z</time>
      </trkpt>
      <trkpt lat="44.54016" lon="3.80118">
        <ele>1166.22</ele>
        <time>2013-06-02T12:55:38Z</time>
      </trkpt>
      <trkpt lat="44.54006" lon="3.80096">
        <ele>1166.7</ele>
        <time>2013-06-02T12:55:54Z</time>
      </trkpt>
      <trkpt lat="44.54" lon="3.80072">
        <ele>1166.7</ele>
        <time>2013-06-02T12:56:08Z</time>
      </trkpt>
      <trkpt lat="44.53999" lon="3.80063">
        <ele>1165.26</ele>
        <time>2013-06-02T12:56:13Z</time>
      </trkpt>
      <trkpt lat="44.53997" lon="3.8003">
        <ele>1166.7</ele>
        <time>2013-06-02T12:56:25Z</time>
      </trkpt>
      <trkpt lat="44.54004" lon="3.80005">
        <ele>1169.1</ele>
        <time>2013-06-02T12:56:42Z</time>
      </trkpt>
      <trkpt lat="44.54026" lon="3.79988">
        <ele>1170.06</ele>
        <time>2013-06-02T12:56:58Z</time>
      </trkpt>
      <trkpt lat="44.54045" lon="3.79998">
        <ele>1171.02</ele>
        <time>2013-06-02T12:57:13Z</time>
      </trkpt>
      <trkpt lat="44.5406" lon="3.80016">
        <ele>1172.47</ele>
        <time>2013-06-02T12:57:28Z</time>
      </trkpt>
      <trkpt lat="44.54065" lon="3.8002">
        <ele>1172.47</ele>
        <time>2013-06-02T12:57:32Z</time>
      </trkpt>
      <trkpt lat="44.54072" lon="3.8003">
        <ele>1174.87</ele>
        <time>2013-06-02T12:57:40Z</time>
      </trkpt>
      <trkpt lat="44.54074" lon="3.80033">
        <ele>1173.91</ele>
        <time>2013-06-02T12:57:42Z</time>
      </trkpt>
      <trkpt lat="44.54075" lon="3.80034">
        <ele>1173.91</ele>
        <time>2013-06-02T12:57:43Z</time>
      </trkpt>
      <trkpt lat="44.54087" lon="3.80049">
        <ele>1173.91</ele>
        <time>2013-06-02T12:57:55Z</time>
      </trkpt>
      <trkpt lat="44.54094" lon="3.80055">
        <ele>1173.91</ele>
        <time>2013-06-02T12:58:01Z</time>
      </trkpt>
      <trkpt lat="44.54101" lon="3.80055">
        <ele>1175.35</ele>
        <time>2013-06-02T12:58:07Z</time>
      </trkpt>
      <trkpt lat="44.54119" lon="3.80038">
        <ele>1178.23</ele>
        <time>2013-06-02T12:58:24Z</time>
      </trkpt>
      <trkpt lat="44.54135" lon="3.80003">
        <ele>1181.12</ele>
        <time>2013-06-02T12:58:46Z</time>
      </trkpt>
      <trkpt lat="44.54145" lon="3.79976">
        <ele>1182.56</ele>
        <time>2013-06-02T12:59:02Z</time>
      </trkpt>
      <trkpt lat="44.54149" lon="3.79954">
        <ele>1183.04</ele>
        <time>2013-06-02T12:59:19Z</time>
      </trkpt>
      <trkpt lat="44.54151" lon="3.79944">
        <ele>1182.08</ele>
        <time>2013-06-02T12:59:30Z</time>
      </trkpt>
      <trkpt lat="44.54155" lon="3.79939">
        <ele>1179.67</ele>
        <time>2013-06-02T12:59:44Z</time>
      </trkpt>
      <trkpt lat="44.54158" lon="3.79937">
        <ele>1181.12</ele>
        <time>2013-06-02T13:00:03Z</time>
      </trkpt>
      <trkpt lat="44.54159" lon="3.79938">
        <ele>1180.64</ele>
        <time>2013-06-02T13:00:22Z</time>
      </trkpt>
      <trkpt lat="44.54158" lon="3.79938">
        <ele>1181.6</ele>
        <time>2013-06-02T13:00:39Z</time>
      </trkpt>
      <trkpt lat="44.54157" lon="3.79938">
        <ele>1180.16</ele>
        <time>2013-06-02T13:01:13Z</time>
      </trkpt>
      <trkpt lat="44.54156" lon="3.79939">
        <ele>1179.67</ele>
        <time>2013-06-02T13:01:50Z</time>
      </trkpt>
      <trkpt lat="44.54156" lon="3.79938">
        <ele>1180.64</ele>
        <time>2013-06-02T13:02:10Z</time>
      </trkpt>
      <trkpt lat="44.54156" lon="3.7994">
        <ele>1176.79</ele>
        <time>2013-06-02T13:02:22Z</time>
      </trkpt>
      <trkpt lat="44.54155" lon="3.7994">
        <ele>1175.83</ele>
        <time>2013-06-02T13:02:24Z</time>
      </trkpt>
      <trkpt lat="44.54153" lon="3.79939">
        <ele>1181.12</ele>
        <time>2013-06-02T13:02:27Z</time>
      </trkpt>
      <trkpt lat="44.54153" lon="3.79938">
        <ele>1183.52</ele>
        <time>2013-06-02T13:02:29Z</time>
      </trkpt>
      <trkpt lat="44.54153" lon="3.79939">
        <ele>1181.6</ele>
        <time>2013-06-02T13:02:34Z</time>
      </trkpt>
      <trkpt lat="44.54154" lon="3.79943">
        <ele>1182.56</ele>
        <time>2013-06-02T13:02:52Z</time>
      </trkpt>
      <trkpt lat="44.54153" lon="3.79944">
        <ele>1183.52</ele>
        <time>2013-06-02T13:03:02Z</time>
      </trkpt>
      <trkpt lat="44.54152" lon="3.79943">
        <ele>1181.6</ele>
        <time>2013-06-02T13:03:05Z</time>
      </trkpt>
      <trkpt lat="44.54149" lon="3.79937">
        <ele>1182.56</ele>
        <time>2013-06-02T13:03:10Z</time>
      </trkpt>
      <trkpt lat="44.54144" lon="3.79911">
        <ele>1183.52</ele>
        <time>2013-06-02T13:03:26Z</time>
      </trkpt>
      <trkpt lat="44.54136" lon="3.79883">
        <ele>1182.08</ele>
        <time>2013-06-02T13:03:43Z</time>
      </trkpt>
      <trkpt lat="44.54135" lon="3.79881">
        <ele>1182.08</ele>
        <time>2013-06-02T13:03:44Z</time>
      </trkpt>
      <trkpt lat="44.54134" lon="3.7988">
        <ele>1185.44</ele>
        <time>2013-06-02T13:03:45Z</time>
      </trkpt>
      <trkpt lat="44.54134" lon="3.79878">
        <ele>1185.44</ele>
        <time>2013-06-02T13:03:46Z</time>
      </trkpt>
      <trkpt lat="44.54132" lon="3.79873">
        <ele>1186.88</ele>
        <time>2013-06-02T13:03:49Z</time>
      </trkpt>
      <trkpt lat="44.5413" lon="3.79868">
        <ele>1185.44</ele>
        <time>2013-06-02T13:03:52Z</time>
      </trkpt>
      <trkpt lat="44.54128" lon="3.79865">
        <ele>1183.52</ele>
        <time>2013-06-02T13:03:54Z</time>
      </trkpt>
      <trkpt lat="44.54126" lon="3.79861">
        <ele>1185.44</ele>
        <time>2013-06-02T13:03:57Z</time>
      </trkpt>
      <trkpt lat="44.54116" lon="3.79844">
        <ele>1188.33</ele>
        <time>2013-06-02T13:04:09Z</time>
      </trkpt>
      <trkpt lat="44.54115" lon="3.79842">
        <ele>1188.33</ele>
        <time>2013-06-02T13:04:10Z</time>
      </trkpt>
      <trkpt lat="44.54114" lon="3.79839">
        <ele>1186.88</ele>
        <time>2013-06-02T13:04:12Z</time>
      </trkpt>
      <trkpt lat="44.54112" lon="3.79836">
        <ele>1188.81</ele>
        <time>2013-06-02T13:04:14Z</time>
      </trkpt>
      <trkpt lat="44.54109" lon="3.79831">
        <ele>1185.92</ele>
        <time>2013-06-02T13:04:18Z</time>
      </trkpt>
      <trkpt lat="44.54103" lon="3.79822">
        <ele>1188.81</ele>
        <time>2013-06-02T13:04:24Z</time>
      </trkpt>
      <trkpt lat="44.54103" lon="3.79821">
        <ele>1188.81</ele>
        <time>2013-06-02T13:04:25Z</time>
      </trkpt>
      <trkpt lat="44.54101" lon="3.79818">
        <ele>1184.96</ele>
        <time>2013-06-02T13:04:27Z</time>
      </trkpt>
      <trkpt lat="44.541" lon="3.79816">
        <ele>1186.4</ele>
        <time>2013-06-02T13:04:28Z</time>
      </trkpt>
      <trkpt lat="44.54099" lon="3.79813">
        <ele>1187.85</ele>
        <time>2013-06-02T13:04:30Z</time>
      </trkpt>
      <trkpt lat="44.54096" lon="3.79809">
        <ele>1189.29</ele>
        <time>2013-06-02T13:04:33Z</time>
      </trkpt>
      <trkpt lat="44.54085" lon="3.79779">
        <ele>1191.69</ele>
        <time>2013-06-02T13:04:51Z</time>
      </trkpt>
      <trkpt lat="44.54076" lon="3.79747">
        <ele>1192.17</ele>
        <time>2013-06-02T13:05:10Z</time>
      </trkpt>
      <trkpt lat="44.54061" lon="3.79713">
        <ele>1193.61</ele>
        <time>2013-06-02T13:05:31Z</time>
      </trkpt>
      <trkpt lat="44.54047" lon="3.79701">
        <ele>1196.98</ele>
        <time>2013-06-02T13:05:42Z</time>
      </trkpt>
      <trkpt lat="44.54046" lon="3.797">
        <ele>1196.98</ele>
        <time>2013-06-02T13:05:43Z</time>
      </trkpt>
      <trkpt lat="44.54038" lon="3.797">
        <ele>1194.09</ele>
        <time>2013-06-02T13:05:50Z</time>
      </trkpt>
      <trkpt lat="44.54035" lon="3.797">
        <ele>1197.46</ele>
        <time>2013-06-02T13:05:53Z</time>
      </trkpt>
      <trkpt lat="44.54035" lon="3.79701">
        <ele>1197.46</ele>
        <time>2013-06-02T13:05:54Z</time>
      </trkpt>
      <trkpt lat="44.54025" lon="3.79707">
        <ele>1197.46</ele>
        <time>2013-06-02T13:06:06Z</time>
      </trkpt>
      <trkpt lat="44.54" lon="3.7973">
        <ele>1198.9</ele>
        <time>2013-06-02T13:06:27Z</time>
      </trkpt>
      <trkpt lat="44.53978" lon="3.79751">
        <ele>1200.34</ele>
        <time>2013-06-02T13:06:47Z</time>
      </trkpt>
      <trkpt lat="44.53951" lon="3.79774">
        <ele>1202.27</ele>
        <time>2013-06-02T13:07:10Z</time>
      </trkpt>
      <trkpt lat="44.5393" lon="3.7978">
        <ele>1203.71</ele>
        <time>2013-06-02T13:07:27Z</time>
      </trkpt>
      <trkpt lat="44.53924" lon="3.79748">
        <ele>1205.63</ele>
        <time>2013-06-02T13:07:45Z</time>
      </trkpt>
      <trkpt lat="44.53919" lon="3.79718">
        <ele>1207.07</ele>
        <time>2013-06-02T13:08:03Z</time>
      </trkpt>
      <trkpt lat="44.53906" lon="3.79692">
        <ele>1209.48</ele>
        <time>2013-06-02T13:08:22Z</time>
      </trkpt>
      <trkpt lat="44.5389" lon="3.79666">
        <ele>1211.88</ele>
        <time>2013-06-02T13:08:41Z</time>
      </trkpt>
      <trkpt lat="44.53874" lon="3.7965">
        <ele>1215.24</ele>
        <time>2013-06-02T13:08:56Z</time>
      </trkpt>
      <trkpt lat="44.53873" lon="3.79649">
        <ele>1215.24</ele>
        <time>2013-06-02T13:08:57Z</time>
      </trkpt>
      <trkpt lat="44.53858" lon="3.79634">
        <ele>1218.13</ele>
        <time>2013-06-02T13:09:14Z</time>
      </trkpt>
      <trkpt lat="44.53844" lon="3.79622">
        <ele>1219.09</ele>
        <time>2013-06-02T13:09:28Z</time>
      </trkpt>
      <trkpt lat="44.53835" lon="3.79609">
        <ele>1219.57</ele>
        <time>2013-06-02T13:09:42Z</time>
      </trkpt>
      <trkpt lat="44.53833" lon="3.79604">
        <ele>1219.57</ele>
        <time>2013-06-02T13:09:46Z</time>
      </trkpt>
      <trkpt lat="44.53826" lon="3.79591">
        <ele>1221.97</ele>
        <time>2013-06-02T13:09:57Z</time>
      </trkpt>
      <trkpt lat="44.5382" lon="3.7958">
        <ele>1224.86</ele>
        <time>2013-06-02T13:10:10Z</time>
      </trkpt>
      <trkpt lat="44.5382" lon="3.79578">
        <ele>1224.86</ele>
        <time>2013-06-02T13:10:12Z</time>
      </trkpt>
      <trkpt lat="44.53815" lon="3.79562">
        <ele>1228.22</ele>
        <time>2013-06-02T13:10:26Z</time>
      </trkpt>
      <trkpt lat="44.53809" lon="3.79548">
        <ele>1231.11</ele>
        <time>2013-06-02T13:10:41Z</time>
      </trkpt>
      <trkpt lat="44.53799" lon="3.79538">
        <ele>1234.47</ele>
        <time>2013-06-02T13:10:53Z</time>
      </trkpt>
      <trkpt lat="44.53788" lon="3.79527">
        <ele>1237.83</ele>
        <time>2013-06-02T13:11:07Z</time>
      </trkpt>
      <trkpt lat="44.53777" lon="3.79516">
        <ele>1240.72</ele>
        <time>2013-06-02T13:11:23Z</time>
      </trkpt>
      <trkpt lat="44.53756" lon="3.79508">
        <ele>1242.64</ele>
        <time>2013-06-02T13:11:37Z</time>
      </trkpt>
      <trkpt lat="44.53735" lon="3.795">
        <ele>1245.04</ele>
        <time>2013-06-02T13:11:51Z</time>
      </trkpt>
      <trkpt lat="44.5372" lon="3.79486">
        <ele>1248.41</ele>
        <time>2013-06-02T13:12:06Z</time>
      </trkpt>
      <trkpt lat="44.5371" lon="3.79482">
        <ele>1249.85</ele>
        <time>2013-06-02T13:12:20Z</time>
      </trkpt>
      <trkpt lat="44.53698" lon="3.79475">
        <ele>1253.22</ele>
        <time>2013-06-02T13:12:33Z</time>
      </trkpt>
      <trkpt lat="44.53687" lon="3.79473">
        <ele>1256.1</ele>
        <time>2013-06-02T13:12:47Z</time>
      </trkpt>
      <trkpt lat="44.53678" lon="3.7947">
        <ele>1258.98</ele>
        <time>2013-06-02T13:13:00Z</time>
      </trkpt>
      <trkpt lat="44.53665" lon="3.79463">
        <ele>1261.87</ele>
        <time>2013-06-02T13:13:15Z</time>
      </trkpt>
      <trkpt lat="44.53654" lon="3.79453">
        <ele>1264.27</ele>
        <time>2013-06-02T13:13:28Z</time>
      </trkpt>
      <trkpt lat="44.53644" lon="3.79444">
        <ele>1267.64</ele>
        <time>2013-06-02T13:13:40Z</time>
      </trkpt>
      <trkpt lat="44.53632" lon="3.79437">
        <ele>1270.52</ele>
        <time>2013-06-02T13:13:54Z</time>
      </trkpt>
      <trkpt lat="44.53616" lon="3.79437">
        <ele>1273.88</ele>
        <time>2013-06-02T13:14:11Z</time>
      </trkpt>
      <trkpt lat="44.53605" lon="3.79429">
        <ele>1277.25</ele>
        <time>2013-06-02T13:14:28Z</time>
      </trkpt>
      <trkpt lat="44.53594" lon="3.79429">
        <ele>1279.65</ele>
        <time>2013-06-02T13:14:41Z</time>
      </trkpt>
      <trkpt lat="44.5358" lon="3.79435">
        <ele>1283.02</ele>
        <time>2013-06-02T13:14:55Z</time>
      </trkpt>
      <trkpt lat="44.53565" lon="3.79442">
        <ele>1285.42</ele>
        <time>2013-06-02T13:15:11Z</time>
      </trkpt>
      <trkpt lat="44.53553" lon="3.79444">
        <ele>1288.3</ele>
        <time>2013-06-02T13:15:27Z</time>
      </trkpt>
      <trkpt lat="44.53541" lon="3.79451">
        <ele>1291.19</ele>
        <time>2013-06-02T13:15:44Z</time>
      </trkpt>
      <trkpt lat="44.53531" lon="3.79457">
        <ele>1294.55</ele>
        <time>2013-06-02T13:15:57Z</time>
      </trkpt>
      <trkpt lat="44.53519" lon="3.79461">
        <ele>1296.96</ele>
        <time>2013-06-02T13:16:11Z</time>
      </trkpt>
      <trkpt lat="44.53513" lon="3.79465">
        <ele>1300.32</ele>
        <time>2013-06-02T13:16:20Z</time>
      </trkpt>
      <trkpt lat="44.53501" lon="3.79472">
        <ele>1302.72</ele>
        <time>2013-06-02T13:16:35Z</time>
      </trkpt>
      <trkpt lat="44.53489" lon="3.79475">
        <ele>1305.61</ele>
        <time>2013-06-02T13:16:47Z</time>
      </trkpt>
      <trkpt lat="44.53478" lon="3.79475">
        <ele>1307.05</ele>
        <time>2013-06-02T13:17:00Z</time>
      </trkpt>
      <trkpt lat="44.53459" lon="3.7947">
        <ele>1309.45</ele>
        <time>2013-06-02T13:17:16Z</time>
      </trkpt>
      <trkpt lat="44.53449" lon="3.79472">
        <ele>1312.82</ele>
        <time>2013-06-02T13:17:31Z</time>
      </trkpt>
      <trkpt lat="44.53435" lon="3.79473">
        <ele>1314.74</ele>
        <time>2013-06-02T13:17:48Z</time>
      </trkpt>
      <trkpt lat="44.53427" lon="3.79472">
        <ele>1317.62</ele>
        <time>2013-06-02T13:18:00Z</time>
      </trkpt>
      <trkpt lat="44.53417" lon="3.7947">
        <ele>1319.07</ele>
        <time>2013-06-02T13:18:14Z</time>
      </trkpt>
      <trkpt lat="44.53412" lon="3.7947">
        <ele>1320.03</ele>
        <time>2013-06-02T13:18:19Z</time>
      </trkpt>
      <trkpt lat="44.53405" lon="3.79461">
        <ele>1323.87</ele>
        <time>2013-06-02T13:18:35Z</time>
      </trkpt>
      <trkpt lat="44.53403" lon="3.79454">
        <ele>1326.76</ele>
        <time>2013-06-02T13:18:48Z</time>
      </trkpt>
      <trkpt lat="44.53395" lon="3.79446">
        <ele>1328.2</ele>
        <time>2013-06-02T13:19:00Z</time>
      </trkpt>
      <trkpt lat="44.53389" lon="3.79436">
        <ele>1329.16</ele>
        <time>2013-06-02T13:19:08Z</time>
      </trkpt>
      <trkpt lat="44.53372" lon="3.79415">
        <ele>1329.64</ele>
        <time>2013-06-02T13:19:21Z</time>
      </trkpt>
      <trkpt lat="44.53363" lon="3.79409">
        <ele>1330.6</ele>
        <time>2013-06-02T13:19:33Z</time>
      </trkpt>
      <trkpt lat="44.53361" lon="3.79407">
        <ele>1333.97</ele>
        <time>2013-06-02T13:19:43Z</time>
      </trkpt>
      <trkpt lat="44.53357" lon="3.79423">
        <ele>1335.89</ele>
        <time>2013-06-02T13:19:57Z</time>
      </trkpt>
      <trkpt lat="44.53355" lon="3.79437">
        <ele>1337.81</ele>
        <time>2013-06-02T13:20:10Z</time>
      </trkpt>
      <trkpt lat="44.53349" lon="3.79434">
        <ele>1339.25</ele>
        <time>2013-06-02T13:20:21Z</time>
      </trkpt>
      <trkpt lat="44.53338" lon="3.79434">
        <ele>1341.66</ele>
        <time>2013-06-02T13:20:36Z</time>
      </trkpt>
      <trkpt lat="44.53329" lon="3.79434">
        <ele>1345.02</ele>
        <time>2013-06-02T13:20:53Z</time>
      </trkpt>
      <trkpt lat="44.53318" lon="3.79429">
        <ele>1346.94</ele>
        <time>2013-06-02T13:21:08Z</time>
      </trkpt>
      <trkpt lat="44.53311" lon="3.79414">
        <ele>1349.35</ele>
        <time>2013-06-02T13:21:23Z</time>
      </trkpt>
      <trkpt lat="44.53307" lon="3.79402">
        <ele>1351.27</ele>
        <time>2013-06-02T13:21:37Z</time>
      </trkpt>
      <trkpt lat="44.53295" lon="3.79392">
        <ele>1353.19</ele>
        <time>2013-06-02T13:21:50Z</time>
      </trkpt>
      <trkpt lat="44.53285" lon="3.79383">
        <ele>1354.63</ele>
        <time>2013-06-02T13:22:04Z</time>
      </trkpt>
      <trkpt lat="44.53277" lon="3.79371">
        <ele>1356.08</ele>
        <time>2013-06-02T13:22:18Z</time>
      </trkpt>
      <trkpt lat="44.53272" lon="3.79363">
        <ele>1357.52</ele>
        <time>2013-06-02T13:22:28Z</time>
      </trkpt>
      <trkpt lat="44.5327" lon="3.79352">
        <ele>1358.96</ele>
        <time>2013-06-02T13:22:42Z</time>
      </trkpt>
      <trkpt lat="44.53274" lon="3.7934">
        <ele>1360.88</ele>
        <time>2013-06-02T13:22:56Z</time>
      </trkpt>
      <trkpt lat="44.53282" lon="3.79317">
        <ele>1363.29</ele>
        <time>2013-06-02T13:23:10Z</time>
      </trkpt>
      <trkpt lat="44.53289" lon="3.79295">
        <ele>1364.73</ele>
        <time>2013-06-02T13:23:24Z</time>
      </trkpt>
      <trkpt lat="44.53293" lon="3.79276">
        <ele>1366.65</ele>
        <time>2013-06-02T13:23:37Z</time>
      </trkpt>
      <trkpt lat="44.53299" lon="3.79252">
        <ele>1368.57</ele>
        <time>2013-06-02T13:23:50Z</time>
      </trkpt>
      <trkpt lat="44.53296" lon="3.79238">
        <ele>1370.5</ele>
        <time>2013-06-02T13:24:04Z</time>
      </trkpt>
      <trkpt lat="44.53289" lon="3.7923">
        <ele>1373.38</ele>
        <time>2013-06-02T13:24:18Z</time>
      </trkpt>
      <trkpt lat="44.53282" lon="3.79219">
        <ele>1376.75</ele>
        <time>2013-06-02T13:24:32Z</time>
      </trkpt>
      <trkpt lat="44.53277" lon="3.79207">
        <ele>1379.63</ele>
        <time>2013-06-02T13:24:47Z</time>
      </trkpt>
      <trkpt lat="44.53272" lon="3.79195">
        <ele>1382.99</ele>
        <time>2013-06-02T13:25:01Z</time>
      </trkpt>
      <trkpt lat="44.53267" lon="3.79191">
        <ele>1384.44</ele>
        <time>2013-06-02T13:25:13Z</time>
      </trkpt>
      <trkpt lat="44.53257" lon="3.79183">
        <ele>1385.88</ele>
        <time>2013-06-02T13:25:28Z</time>
      </trkpt>
      <trkpt lat="44.53255" lon="3.79188">
        <ele>1384.44</ele>
        <time>2013-06-02T13:25:41Z</time>
      </trkpt>
      <trkpt lat="44.53257" lon="3.79199">
        <ele>1382.51</ele>
        <time>2013-06-02T13:25:58Z</time>
      </trkpt>
      <trkpt lat="44.53259" lon="3.79191">
        <ele>1385.4</ele>
        <time>2013-06-02T13:26:16Z</time>
      </trkpt>
      <trkpt lat="44.53257" lon="3.79187">
        <ele>1384.92</ele>
        <time>2013-06-02T13:26:26Z</time>
      </trkpt>
      <trkpt lat="44.53257" lon="3.79184">
        <ele>1383.96</ele>
        <time>2013-06-02T13:26:45Z</time>
      </trkpt>
      <trkpt lat="44.53258" lon="3.79183">
        <ele>1385.4</ele>
        <time>2013-06-02T13:26:51Z</time>
      </trkpt>
      <trkpt lat="44.53257" lon="3.79179">
        <ele>1384.92</ele>
        <time>2013-06-02T13:27:28Z</time>
      </trkpt>
      <trkpt lat="44.53257" lon="3.79176">
        <ele>1383.96</ele>
        <time>2013-06-02T13:28:00Z</time>
      </trkpt>
      <trkpt lat="44.53253" lon="3.79179">
        <ele>1383.96</ele>
        <time>2013-06-02T13:28:33Z</time>
      </trkpt>
      <trkpt lat="44.5325" lon="3.79182">
        <ele>1384.92</ele>
        <time>2013-06-02T13:29:10Z</time>
      </trkpt>
      <trkpt lat="44.53252" lon="3.79184">
        <ele>1384.92</ele>
        <time>2013-06-02T13:29:28Z</time>
      </trkpt>
      <trkpt lat="44.53251" lon="3.79183">
        <ele>1384.92</ele>
        <time>2013-06-02T13:29:56Z</time>
      </trkpt>
      <trkpt lat="44.53253" lon="3.79182">
        <ele>1384.92</ele>
        <time>2013-06-02T13:30:13Z</time>
      </trkpt>
      <trkpt lat="44.53254" lon="3.79167">
        <ele>1385.88</ele>
        <time>2013-06-02T13:30:27Z</time>
      </trkpt>
      <trkpt lat="44.53253" lon="3.79143">
        <ele>1387.32</ele>
        <time>2013-06-02T13:30:42Z</time>
      </trkpt>
      <trkpt lat="44.53255" lon="3.79122">
        <ele>1388.28</ele>
        <time>2013-06-02T13:30:55Z</time>
      </trkpt>
      <trkpt lat="44.53255" lon="3.79111">
        <ele>1388.28</ele>
        <time>2013-06-02T13:31:02Z</time>
      </trkpt>
      <trkpt lat="44.53257" lon="3.79079">
        <ele>1389.72</ele>
        <time>2013-06-02T13:31:18Z</time>
      </trkpt>
      <trkpt lat="44.53256" lon="3.79073">
        <ele>1391.17</ele>
        <time>2013-06-02T13:31:22Z</time>
      </trkpt>
      <trkpt lat="44.53253" lon="3.79052">
        <ele>1392.61</ele>
        <time>2013-06-02T13:31:38Z</time>
      </trkpt>
      <trkpt lat="44.53254" lon="3.7903">
        <ele>1393.09</ele>
        <time>2013-06-02T13:31:51Z</time>
      </trkpt>
      <trkpt lat="44.53251" lon="3.79001">
        <ele>1394.05</ele>
        <time>2013-06-02T13:32:07Z</time>
      </trkpt>
      <trkpt lat="44.5325" lon="3.78988">
        <ele>1395.01</ele>
        <time>2013-06-02T13:32:14Z</time>
      </trkpt>
      <trkpt lat="44.53248" lon="3.78963">
        <ele>1395.97</ele>
        <time>2013-06-02T13:32:27Z</time>
      </trkpt>
      <trkpt lat="44.53243" lon="3.78935">
        <ele>1398.37</ele>
        <time>2013-06-02T13:32:43Z</time>
      </trkpt>
      <trkpt lat="44.53244" lon="3.78926">
        <ele>1398.37</ele>
        <time>2013-06-02T13:32:48Z</time>
      </trkpt>
      <trkpt lat="44.53244" lon="3.78918">
        <ele>1398.86</ele>
        <time>2013-06-02T13:32:52Z</time>
      </trkpt>
      <trkpt lat="44.53243" lon="3.78891">
        <ele>1400.3</ele>
        <time>2013-06-02T13:33:07Z</time>
      </trkpt>
      <trkpt lat="44.53239" lon="3.78864">
        <ele>1402.22</ele>
        <time>2013-06-02T13:33:24Z</time>
      </trkpt>
      <trkpt lat="44.53236" lon="3.78841">
        <ele>1403.18</ele>
        <time>2013-06-02T13:33:37Z</time>
      </trkpt>
      <trkpt lat="44.53237" lon="3.78821">
        <ele>1405.1</ele>
        <time>2013-06-02T13:33:47Z</time>
      </trkpt>
      <trkpt lat="44.53234" lon="3.7879">
        <ele>1405.58</ele>
        <time>2013-06-02T13:34:04Z</time>
      </trkpt>
      <trkpt lat="44.53232" lon="3.78766">
        <ele>1407.51</ele>
        <time>2013-06-02T13:34:18Z</time>
      </trkpt>
      <trkpt lat="44.53229" lon="3.78741">
        <ele>1409.43</ele>
        <time>2013-06-02T13:34:34Z</time>
      </trkpt>
      <trkpt lat="44.53224" lon="3.78732">
        <ele>1410.39</ele>
        <time>2013-06-02T13:34:41Z</time>
      </trkpt>
      <trkpt lat="44.53216" lon="3.78712">
        <ele>1411.83</ele>
        <time>2013-06-02T13:34:58Z</time>
      </trkpt>
      <trkpt lat="44.53211" lon="3.787">
        <ele>1414.72</ele>
        <time>2013-06-02T13:35:09Z</time>
      </trkpt>
      <trkpt lat="44.53199" lon="3.78688">
        <ele>1412.31</ele>
        <time>2013-06-02T13:35:21Z</time>
      </trkpt>
      <trkpt lat="44.53195" lon="3.78684">
        <ele>1413.76</ele>
        <time>2013-06-02T13:35:25Z</time>
      </trkpt>
      <trkpt lat="44.53182" lon="3.78673">
        <ele>1416.16</ele>
        <time>2013-06-02T13:35:38Z</time>
      </trkpt>
      <trkpt lat="44.53166" lon="3.78659">
        <ele>1418.08</ele>
        <time>2013-06-02T13:35:54Z</time>
      </trkpt>
      <trkpt lat="44.53149" lon="3.78646">
        <ele>1419.04</ele>
        <time>2013-06-02T13:36:08Z</time>
      </trkpt>
      <trkpt lat="44.53133" lon="3.78631">
        <ele>1420.97</ele>
        <time>2013-06-02T13:36:22Z</time>
      </trkpt>
      <trkpt lat="44.53114" lon="3.78618">
        <ele>1422.89</ele>
        <time>2013-06-02T13:36:37Z</time>
      </trkpt>
      <trkpt lat="44.5311" lon="3.78615">
        <ele>1422.89</ele>
        <time>2013-06-02T13:36:40Z</time>
      </trkpt>
      <trkpt lat="44.53088" lon="3.78596">
        <ele>1425.29</ele>
        <time>2013-06-02T13:36:57Z</time>
      </trkpt>
      <trkpt lat="44.53085" lon="3.78592">
        <ele>1427.21</ele>
        <time>2013-06-02T13:37:00Z</time>
      </trkpt>
      <trkpt lat="44.53081" lon="3.78585">
        <ele>1427.7</ele>
        <time>2013-06-02T13:37:06Z</time>
      </trkpt>
      <trkpt lat="44.5307" lon="3.78568">
        <ele>1425.77</ele>
        <time>2013-06-02T13:37:22Z</time>
      </trkpt>
      <trkpt lat="44.53067" lon="3.78564">
        <ele>1427.7</ele>
        <time>2013-06-02T13:37:26Z</time>
      </trkpt>
      <trkpt lat="44.53044" lon="3.78554">
        <ele>1431.06</ele>
        <time>2013-06-02T13:37:38Z</time>
      </trkpt>
      <trkpt lat="44.53034" lon="3.78548">
        <ele>1432.98</ele>
        <time>2013-06-02T13:37:40Z</time>
      </trkpt>
      <trkpt lat="44.5303" lon="3.78549">
        <ele>1428.66</ele>
        <time>2013-06-02T13:37:42Z</time>
      </trkpt>
      <trkpt lat="44.53029" lon="3.78549">
        <ele>1428.66</ele>
        <time>2013-06-02T13:37:43Z</time>
      </trkpt>
      <trkpt lat="44.53018" lon="3.78554">
        <ele>1427.21</ele>
        <time>2013-06-02T13:37:57Z</time>
      </trkpt>
      <trkpt lat="44.53014" lon="3.78554">
        <ele>1426.73</ele>
        <time>2013-06-02T13:38:00Z</time>
      </trkpt>
      <trkpt lat="44.53" lon="3.7855">
        <ele>1424.81</ele>
        <time>2013-06-02T13:38:09Z</time>
      </trkpt>
      <trkpt lat="44.52994" lon="3.78555">
        <ele>1424.81</ele>
        <time>2013-06-02T13:38:14Z</time>
      </trkpt>
      <trkpt lat="44.5298" lon="3.78573">
        <ele>1424.33</ele>
        <time>2013-06-02T13:38:32Z</time>
      </trkpt>
      <trkpt lat="44.52969" lon="3.78589">
        <ele>1423.37</ele>
        <time>2013-06-02T13:38:44Z</time>
      </trkpt>
      <trkpt lat="44.52958" lon="3.78605">
        <ele>1421.93</ele>
        <time>2013-06-02T13:38:58Z</time>
      </trkpt>
      <trkpt lat="44.52949" lon="3.78619">
        <ele>1420.49</ele>
        <time>2013-06-02T13:39:12Z</time>
      </trkpt>
      <trkpt lat="44.52937" lon="3.78638">
        <ele>1419.04</ele>
        <time>2013-06-02T13:39:27Z</time>
      </trkpt>
      <trkpt lat="44.52921" lon="3.78654">
        <ele>1418.56</ele>
        <time>2013-06-02T13:39:44Z</time>
      </trkpt>
      <trkpt lat="44.5291" lon="3.7867">
        <ele>1417.12</ele>
        <time>2013-06-02T13:39:58Z</time>
      </trkpt>
      <trkpt lat="44.52896" lon="3.78689">
        <ele>1416.16</ele>
        <time>2013-06-02T13:40:13Z</time>
      </trkpt>
      <trkpt lat="44.52885" lon="3.78699">
        <ele>1417.6</ele>
        <time>2013-06-02T13:40:21Z</time>
      </trkpt>
      <trkpt lat="44.52883" lon="3.78702">
        <ele>1416.64</ele>
        <time>2013-06-02T13:40:23Z</time>
      </trkpt>
      <trkpt lat="44.52882" lon="3.78703">
        <ele>1416.64</ele>
        <time>2013-06-02T13:40:24Z</time>
      </trkpt>
      <trkpt lat="44.5287" lon="3.78724">
        <ele>1414.72</ele>
        <time>2013-06-02T13:40:39Z</time>
      </trkpt>
      <trkpt lat="44.52866" lon="3.78732">
        <ele>1413.76</ele>
        <time>2013-06-02T13:40:45Z</time>
      </trkpt>
      <trkpt lat="44.52864" lon="3.78735">
        <ele>1413.76</ele>
        <time>2013-06-02T13:40:47Z</time>
      </trkpt>
      <trkpt lat="44.52852" lon="3.78753">
        <ele>1413.76</ele>
        <time>2013-06-02T13:41:00Z</time>
      </trkpt>
      <trkpt lat="44.52846" lon="3.78773">
        <ele>1413.76</ele>
        <time>2013-06-02T13:41:12Z</time>
      </trkpt>
      <trkpt lat="44.52834" lon="3.78804">
        <ele>1411.35</ele>
        <time>2013-06-02T13:41:28Z</time>
      </trkpt>
      <trkpt lat="44.52829" lon="3.78818">
        <ele>1410.39</ele>
        <time>2013-06-02T13:41:36Z</time>
      </trkpt>
      <trkpt lat="44.52823" lon="3.78834">
        <ele>1408.95</ele>
        <time>2013-06-02T13:41:50Z</time>
      </trkpt>
      <trkpt lat="44.52818" lon="3.78845">
        <ele>1408.95</ele>
        <time>2013-06-02T13:42:02Z</time>
      </trkpt>
      <trkpt lat="44.52815" lon="3.78848">
        <ele>1408.95</ele>
        <time>2013-06-02T13:42:06Z</time>
      </trkpt>
      <trkpt lat="44.52809" lon="3.78856">
        <ele>1407.99</ele>
        <time>2013-06-02T13:42:14Z</time>
      </trkpt>
      <trkpt lat="44.52806" lon="3.78864">
        <ele>1407.99</ele>
        <time>2013-06-02T13:42:18Z</time>
      </trkpt>
      <trkpt lat="44.52804" lon="3.78866">
        <ele>1407.99</ele>
        <time>2013-06-02T13:42:20Z</time>
      </trkpt>
      <trkpt lat="44.52795" lon="3.78884">
        <ele>1406.55</ele>
        <time>2013-06-02T13:42:33Z</time>
      </trkpt>
      <trkpt lat="44.52788" lon="3.78887">
        <ele>1406.07</ele>
        <time>2013-06-02T13:42:39Z</time>
      </trkpt>
      <trkpt lat="44.52777" lon="3.7891">
        <ele>1406.07</ele>
        <time>2013-06-02T13:42:53Z</time>
      </trkpt>
      <trkpt lat="44.52758" lon="3.78931">
        <ele>1404.14</ele>
        <time>2013-06-02T13:43:08Z</time>
      </trkpt>
      <trkpt lat="44.52742" lon="3.78942">
        <ele>1404.14</ele>
        <time>2013-06-02T13:43:21Z</time>
      </trkpt>
      <trkpt lat="44.52728" lon="3.78951">
        <ele>1404.14</ele>
        <time>2013-06-02T13:43:35Z</time>
      </trkpt>
      <trkpt lat="44.52707" lon="3.7897">
        <ele>1403.66</ele>
        <time>2013-06-02T13:43:47Z</time>
      </trkpt>
      <trkpt lat="44.52688" lon="3.78979">
        <ele>1403.66</ele>
        <time>2013-06-02T13:44:01Z</time>
      </trkpt>
      <trkpt lat="44.5266" lon="3.78989">
        <ele>1403.66</ele>
        <time>2013-06-02T13:44:16Z</time>
      </trkpt>
      <trkpt lat="44.5264" lon="3.78993">
        <ele>1405.1</ele>
        <time>2013-06-02T13:44:29Z</time>
      </trkpt>
      <trkpt lat="44.5262" lon="3.78995">
        <ele>1405.58</ele>
        <time>2013-06-02T13:44:42Z</time>
      </trkpt>
      <trkpt lat="44.52601" lon="3.79002">
        <ele>1406.07</ele>
        <time>2013-06-02T13:44:56Z</time>
      </trkpt>
      <trkpt lat="44.52582" lon="3.79009">
        <ele>1407.03</ele>
        <time>2013-06-02T13:45:11Z</time>
      </trkpt>
      <trkpt lat="44.52566" lon="3.79019">
        <ele>1407.51</ele>
        <time>2013-06-02T13:45:25Z</time>
      </trkpt>
      <trkpt lat="44.52546" lon="3.79036">
        <ele>1406.07</ele>
        <time>2013-06-02T13:45:42Z</time>
      </trkpt>
      <trkpt lat="44.52542" lon="3.79039">
        <ele>1407.51</ele>
        <time>2013-06-02T13:45:45Z</time>
      </trkpt>
      <trkpt lat="44.52524" lon="3.79055">
        <ele>1407.51</ele>
        <time>2013-06-02T13:46:01Z</time>
      </trkpt>
      <trkpt lat="44.52521" lon="3.79057">
        <ele>1406.55</ele>
        <time>2013-06-02T13:46:03Z</time>
      </trkpt>
      <trkpt lat="44.52502" lon="3.79073">
        <ele>1405.58</ele>
        <time>2013-06-02T13:46:20Z</time>
      </trkpt>
      <trkpt lat="44.52486" lon="3.79088">
        <ele>1405.58</ele>
        <time>2013-06-02T13:46:34Z</time>
      </trkpt>
      <trkpt lat="44.52482" lon="3.79094">
        <ele>1405.58</ele>
        <time>2013-06-02T13:46:38Z</time>
      </trkpt>
      <trkpt lat="44.52465" lon="3.79117">
        <ele>1405.1</ele>
        <time>2013-06-02T13:46:56Z</time>
      </trkpt>
      <trkpt lat="44.52451" lon="3.7914">
        <ele>1404.62</ele>
        <time>2013-06-02T13:47:12Z</time>
      </trkpt>
      <trkpt lat="44.52446" lon="3.79152">
        <ele>1403.66</ele>
        <time>2013-06-02T13:47:21Z</time>
      </trkpt>
      <trkpt lat="44.52438" lon="3.79178">
        <ele>1402.7</ele>
        <time>2013-06-02T13:47:39Z</time>
      </trkpt>
      <trkpt lat="44.52435" lon="3.79184">
        <ele>1402.7</ele>
        <time>2013-06-02T13:47:43Z</time>
      </trkpt>
      <trkpt lat="44.52433" lon="3.79188">
        <ele>1402.7</ele>
        <time>2013-06-02T13:47:46Z</time>
      </trkpt>
      <trkpt lat="44.52424" lon="3.79216">
        <ele>1401.74</ele>
        <time>2013-06-02T13:48:02Z</time>
      </trkpt>
      <trkpt lat="44.52415" lon="3.79233">
        <ele>1400.78</ele>
        <time>2013-06-02T13:48:13Z</time>
      </trkpt>
      <trkpt lat="44.52414" lon="3.79238">
        <ele>1400.78</ele>
        <time>2013-06-02T13:48:16Z</time>
      </trkpt>
      <trkpt lat="44.52411" lon="3.79251">
        <ele>1401.26</ele>
        <time>2013-06-02T13:48:23Z</time>
      </trkpt>
      <trkpt lat="44.52401" lon="3.79278">
        <ele>1399.82</ele>
        <time>2013-06-02T13:48:39Z</time>
      </trkpt>
      <trkpt lat="44.524" lon="3.79283">
        <ele>1399.82</ele>
        <time>2013-06-02T13:48:42Z</time>
      </trkpt>
      <trkpt lat="44.52388" lon="3.79311">
        <ele>1401.74</ele>
        <time>2013-06-02T13:48:59Z</time>
      </trkpt>
      <trkpt lat="44.52386" lon="3.79314">
        <ele>1400.3</ele>
        <time>2013-06-02T13:49:01Z</time>
      </trkpt>
      <trkpt lat="44.52385" lon="3.79317">
        <ele>1400.3</ele>
        <time>2013-06-02T13:49:03Z</time>
      </trkpt>
      <trkpt lat="44.52382" lon="3.79323">
        <ele>1399.82</ele>
        <time>2013-06-02T13:49:08Z</time>
      </trkpt>
      <trkpt lat="44.52378" lon="3.79349">
        <ele>1400.3</ele>
        <time>2013-06-02T13:49:24Z</time>
      </trkpt>
      <trkpt lat="44.52376" lon="3.79354">
        <ele>1400.3</ele>
        <time>2013-06-02T13:49:27Z</time>
      </trkpt>
      <trkpt lat="44.52373" lon="3.79377">
        <ele>1400.3</ele>
        <time>2013-06-02T13:49:41Z</time>
      </trkpt>
      <trkpt lat="44.5237" lon="3.79388">
        <ele>1399.34</ele>
        <time>2013-06-02T13:49:49Z</time>
      </trkpt>
      <trkpt lat="44.52365" lon="3.79414">
        <ele>1397.41</ele>
        <time>2013-06-02T13:50:04Z</time>
      </trkpt>
      <trkpt lat="44.52361" lon="3.7944">
        <ele>1395.97</ele>
        <time>2013-06-02T13:50:17Z</time>
      </trkpt>
      <trkpt lat="44.52351" lon="3.79463">
        <ele>1393.57</ele>
        <time>2013-06-02T13:50:32Z</time>
      </trkpt>
      <trkpt lat="44.52348" lon="3.7947">
        <ele>1393.09</ele>
        <time>2013-06-02T13:50:37Z</time>
      </trkpt>
      <trkpt lat="44.52343" lon="3.79489">
        <ele>1390.68</ele>
        <time>2013-06-02T13:50:49Z</time>
      </trkpt>
      <trkpt lat="44.52339" lon="3.79501">
        <ele>1389.72</ele>
        <time>2013-06-02T13:50:57Z</time>
      </trkpt>
      <trkpt lat="44.52334" lon="3.79514">
        <ele>1389.24</ele>
        <time>2013-06-02T13:51:04Z</time>
      </trkpt>
      <trkpt lat="44.52324" lon="3.79539">
        <ele>1388.76</ele>
        <time>2013-06-02T13:51:19Z</time>
      </trkpt>
      <trkpt lat="44.52314" lon="3.79557">
        <ele>1385.4</ele>
        <time>2013-06-02T13:51:34Z</time>
      </trkpt>
      <trkpt lat="44.52307" lon="3.79566">
        <ele>1383.96</ele>
        <time>2013-06-02T13:51:46Z</time>
      </trkpt>
      <trkpt lat="44.52305" lon="3.7957">
        <ele>1383.47</ele>
        <time>2013-06-02T13:51:49Z</time>
      </trkpt>
      <trkpt lat="44.52301" lon="3.79576">
        <ele>1382.51</ele>
        <time>2013-06-02T13:51:57Z</time>
      </trkpt>
      <trkpt lat="44.52289" lon="3.79586">
        <ele>1381.55</ele>
        <time>2013-06-02T13:52:07Z</time>
      </trkpt>
      <trkpt lat="44.52281" lon="3.79597">
        <ele>1379.63</ele>
        <time>2013-06-02T13:52:14Z</time>
      </trkpt>
      <trkpt lat="44.52258" lon="3.79609">
        <ele>1376.75</ele>
        <time>2013-06-02T13:52:27Z</time>
      </trkpt>
      <trkpt lat="44.5224" lon="3.79613">
        <ele>1374.82</ele>
        <time>2013-06-02T13:52:39Z</time>
      </trkpt>
      <trkpt lat="44.52217" lon="3.79614">
        <ele>1371.46</ele>
        <time>2013-06-02T13:52:54Z</time>
      </trkpt>
      <trkpt lat="44.52202" lon="3.79613">
        <ele>1370.5</ele>
        <time>2013-06-02T13:53:05Z</time>
      </trkpt>
      <trkpt lat="44.52189" lon="3.79612">
        <ele>1367.13</ele>
        <time>2013-06-02T13:53:15Z</time>
      </trkpt>
      <trkpt lat="44.5217" lon="3.79608">
        <ele>1365.69</ele>
        <time>2013-06-02T13:53:28Z</time>
      </trkpt>
      <trkpt lat="44.52164" lon="3.79605">
        <ele>1363.77</ele>
        <time>2013-06-02T13:53:34Z</time>
      </trkpt>
      <trkpt lat="44.52153" lon="3.79607">
        <ele>1362.33</ele>
        <time>2013-06-02T13:53:48Z</time>
      </trkpt>
      <trkpt lat="44.52144" lon="3.79606">
        <ele>1360.4</ele>
        <time>2013-06-02T13:53:54Z</time>
      </trkpt>
      <trkpt lat="44.52138" lon="3.79605">
        <ele>1359.44</ele>
        <time>2013-06-02T13:53:57Z</time>
      </trkpt>
      <trkpt lat="44.52131" lon="3.796">
        <ele>1360.88</ele>
        <time>2013-06-02T13:54:00Z</time>
      </trkpt>
      <trkpt lat="44.52119" lon="3.79593">
        <ele>1357.52</ele>
        <time>2013-06-02T13:54:14Z</time>
      </trkpt>
      <trkpt lat="44.52109" lon="3.7959">
        <ele>1354.63</ele>
        <time>2013-06-02T13:54:25Z</time>
      </trkpt>
      <trkpt lat="44.521" lon="3.79584">
        <ele>1352.71</ele>
        <time>2013-06-02T13:54:33Z</time>
      </trkpt>
      <trkpt lat="44.52085" lon="3.79581">
        <ele>1350.79</ele>
        <time>2013-06-02T13:54:44Z</time>
      </trkpt>
      <trkpt lat="44.52068" lon="3.7958">
        <ele>1349.35</ele>
        <time>2013-06-02T13:54:55Z</time>
      </trkpt>
      <trkpt lat="44.5205" lon="3.79579">
        <ele>1347.91</ele>
        <time>2013-06-02T13:55:02Z</time>
      </trkpt>
      <trkpt lat="44.52038" lon="3.7958">
        <ele>1345.98</ele>
        <time>2013-06-02T13:55:12Z</time>
      </trkpt>
      <trkpt lat="44.52028" lon="3.79577">
        <ele>1344.06</ele>
        <time>2013-06-02T13:55:20Z</time>
      </trkpt>
      <trkpt lat="44.52022" lon="3.79578">
        <ele>1344.06</ele>
        <time>2013-06-02T13:55:24Z</time>
      </trkpt>
      <trkpt lat="44.52005" lon="3.7959">
        <ele>1340.22</ele>
        <time>2013-06-02T13:55:39Z</time>
      </trkpt>
      <trkpt lat="44.51994" lon="3.79596">
        <ele>1338.29</ele>
        <time>2013-06-02T13:55:48Z</time>
      </trkpt>
      <trkpt lat="44.51976" lon="3.79603">
        <ele>1335.89</ele>
        <time>2013-06-02T13:56:02Z</time>
      </trkpt>
      <trkpt lat="44.51972" lon="3.79604">
        <ele>1334.45</ele>
        <time>2013-06-02T13:56:05Z</time>
      </trkpt>
      <trkpt lat="44.51956" lon="3.79617">
        <ele>1331.08</ele>
        <time>2013-06-02T13:56:19Z</time>
      </trkpt>
      <trkpt lat="44.51941" lon="3.79634">
        <ele>1327.72</ele>
        <time>2013-06-02T13:56:34Z</time>
      </trkpt>
      <trkpt lat="44.51934" lon="3.79652">
        <ele>1325.8</ele>
        <time>2013-06-02T13:56:46Z</time>
      </trkpt>
      <trkpt lat="44.5193" lon="3.79656">
        <ele>1324.35</ele>
        <time>2013-06-02T13:56:50Z</time>
      </trkpt>
      <trkpt lat="44.51926" lon="3.79658">
        <ele>1323.87</ele>
        <time>2013-06-02T13:56:53Z</time>
      </trkpt>
      <trkpt lat="44.51908" lon="3.79673">
        <ele>1320.51</ele>
        <time>2013-06-02T13:57:07Z</time>
      </trkpt>
      <trkpt lat="44.51894" lon="3.79679">
        <ele>1317.14</ele>
        <time>2013-06-02T13:57:17Z</time>
      </trkpt>
      <trkpt lat="44.51892" lon="3.79682">
        <ele>1316.66</ele>
        <time>2013-06-02T13:57:20Z</time>
      </trkpt>
      <trkpt lat="44.51888" lon="3.79686">
        <ele>1316.18</ele>
        <time>2013-06-02T13:57:24Z</time>
      </trkpt>
      <trkpt lat="44.51872" lon="3.79699">
        <ele>1312.82</ele>
        <time>2013-06-02T13:57:37Z</time>
      </trkpt>
      <trkpt lat="44.51864" lon="3.79704">
        <ele>1311.38</ele>
        <time>2013-06-02T13:57:44Z</time>
      </trkpt>
      <trkpt lat="44.5185" lon="3.79721">
        <ele>1308.97</ele>
        <time>2013-06-02T13:57:58Z</time>
      </trkpt>
      <trkpt lat="44.51844" lon="3.79726">
        <ele>1308.01</ele>
        <time>2013-06-02T13:58:03Z</time>
      </trkpt>
      <trkpt lat="44.51826" lon="3.79737">
        <ele>1304.17</ele>
        <time>2013-06-02T13:58:18Z</time>
      </trkpt>
      <trkpt lat="44.51819" lon="3.79743">
        <ele>1302.24</ele>
        <time>2013-06-02T13:58:26Z</time>
      </trkpt>
      <trkpt lat="44.51816" lon="3.79747">
        <ele>1301.76</ele>
        <time>2013-06-02T13:58:29Z</time>
      </trkpt>
      <trkpt lat="44.51796" lon="3.79758">
        <ele>1298.88</ele>
        <time>2013-06-02T13:58:43Z</time>
      </trkpt>
      <trkpt lat="44.51793" lon="3.79758">
        <ele>1298.4</ele>
        <time>2013-06-02T13:58:46Z</time>
      </trkpt>
      <trkpt lat="44.51781" lon="3.79763">
        <ele>1297.44</ele>
        <time>2013-06-02T13:58:56Z</time>
      </trkpt>
      <trkpt lat="44.51767" lon="3.79772">
        <ele>1294.07</ele>
        <time>2013-06-02T13:59:09Z</time>
      </trkpt>
      <trkpt lat="44.51764" lon="3.79772">
        <ele>1293.59</ele>
        <time>2013-06-02T13:59:11Z</time>
      </trkpt>
      <trkpt lat="44.5175" lon="3.7978">
        <ele>1291.67</ele>
        <time>2013-06-02T13:59:22Z</time>
      </trkpt>
      <trkpt lat="44.51735" lon="3.79789">
        <ele>1289.75</ele>
        <time>2013-06-02T13:59:35Z</time>
      </trkpt>
      <trkpt lat="44.5172" lon="3.79795">
        <ele>1287.34</ele>
        <time>2013-06-02T13:59:48Z</time>
      </trkpt>
      <trkpt lat="44.51707" lon="3.798">
        <ele>1284.46</ele>
        <time>2013-06-02T13:59:59Z</time>
      </trkpt>
      <trkpt lat="44.51692" lon="3.79804">
        <ele>1283.5</ele>
        <time>2013-06-02T14:00:11Z</time>
      </trkpt>
      <trkpt lat="44.51676" lon="3.79812">
        <ele>1280.61</ele>
        <time>2013-06-02T14:00:24Z</time>
      </trkpt>
      <trkpt lat="44.51656" lon="3.79825">
        <ele>1278.21</ele>
        <time>2013-06-02T14:00:38Z</time>
      </trkpt>
      <trkpt lat="44.51633" lon="3.79832">
        <ele>1275.81</ele>
        <time>2013-06-02T14:00:50Z</time>
      </trkpt>
      <trkpt lat="44.51633" lon="3.79831">
        <ele>1276.29</ele>
        <time>2013-06-02T14:00:51Z</time>
      </trkpt>
      <trkpt lat="44.5163" lon="3.7983">
        <ele>1275.33</ele>
        <time>2013-06-02T14:00:54Z</time>
      </trkpt>
      <trkpt lat="44.51614" lon="3.7982">
        <ele>1274.85</ele>
        <time>2013-06-02T14:01:04Z</time>
      </trkpt>
      <trkpt lat="44.5162" lon="3.79812">
        <ele>1275.33</ele>
        <time>2013-06-02T14:01:11Z</time>
      </trkpt>
      <trkpt lat="44.51623" lon="3.79812">
        <ele>1275.33</ele>
        <time>2013-06-02T14:01:14Z</time>
      </trkpt>
      <trkpt lat="44.51624" lon="3.79809">
        <ele>1275.33</ele>
        <time>2013-06-02T14:01:15Z</time>
      </trkpt>
      <trkpt lat="44.51635" lon="3.79794">
        <ele>1275.33</ele>
        <time>2013-06-02T14:01:27Z</time>
      </trkpt>
      <trkpt lat="44.51646" lon="3.79778">
        <ele>1275.33</ele>
        <time>2013-06-02T14:01:41Z</time>
      </trkpt>
      <trkpt lat="44.51647" lon="3.79774">
        <ele>1276.77</ele>
        <time>2013-06-02T14:01:44Z</time>
      </trkpt>
      <trkpt lat="44.51649" lon="3.79772">
        <ele>1276.77</ele>
        <time>2013-06-02T14:01:46Z</time>
      </trkpt>
      <trkpt lat="44.51653" lon="3.79765">
        <ele>1275.33</ele>
        <time>2013-06-02T14:01:49Z</time>
      </trkpt>
      <trkpt lat="44.51664" lon="3.79753">
        <ele>1276.77</ele>
        <time>2013-06-02T14:01:56Z</time>
      </trkpt>
      <trkpt lat="44.51686" lon="3.79731">
        <ele>1277.25</ele>
        <time>2013-06-02T14:02:09Z</time>
      </trkpt>
      <trkpt lat="44.51693" lon="3.79723">
        <ele>1275.81</ele>
        <time>2013-06-02T14:02:16Z</time>
      </trkpt>
      <trkpt lat="44.51704" lon="3.797">
        <ele>1274.85</ele>
        <time>2013-06-02T14:02:31Z</time>
      </trkpt>
      <trkpt lat="44.51718" lon="3.79674">
        <ele>1276.77</ele>
        <time>2013-06-02T14:02:47Z</time>
      </trkpt>
      <trkpt lat="44.5172" lon="3.7967">
        <ele>1276.77</ele>
        <time>2013-06-02T14:02:50Z</time>
      </trkpt>
      <trkpt lat="44.5173" lon="3.79654">
        <ele>1277.25</ele>
        <time>2013-06-02T14:03:03Z</time>
      </trkpt>
      <trkpt lat="44.51743" lon="3.79632">
        <ele>1275.81</ele>
        <time>2013-06-02T14:03:18Z</time>
      </trkpt>
      <trkpt lat="44.51745" lon="3.79622">
        <ele>1275.33</ele>
        <time>2013-06-02T14:03:23Z</time>
      </trkpt>
      <trkpt lat="44.51748" lon="3.79613">
        <ele>1274.85</ele>
        <time>2013-06-02T14:03:28Z</time>
      </trkpt>
      <trkpt lat="44.51748" lon="3.79608">
        <ele>1273.88</ele>
        <time>2013-06-02T14:03:31Z</time>
      </trkpt>
      <trkpt lat="44.51752" lon="3.79604">
        <ele>1272.92</ele>
        <time>2013-06-02T14:03:35Z</time>
      </trkpt>
      <trkpt lat="44.51753" lon="3.79599">
        <ele>1272.92</ele>
        <time>2013-06-02T14:03:38Z</time>
      </trkpt>
      <trkpt lat="44.51757" lon="3.79567">
        <ele>1270.52</ele>
        <time>2013-06-02T14:03:54Z</time>
      </trkpt>
      <trkpt lat="44.51758" lon="3.79558">
        <ele>1270.04</ele>
        <time>2013-06-02T14:03:58Z</time>
      </trkpt>
      <trkpt lat="44.51769" lon="3.79526">
        <ele>1271.48</ele>
        <time>2013-06-02T14:04:13Z</time>
      </trkpt>
      <trkpt lat="44.5177" lon="3.79524">
        <ele>1269.08</ele>
        <time>2013-06-02T14:04:14Z</time>
      </trkpt>
      <trkpt lat="44.51773" lon="3.79515">
        <ele>1268.12</ele>
        <time>2013-06-02T14:04:19Z</time>
      </trkpt>
      <trkpt lat="44.51775" lon="3.79512">
        <ele>1267.64</ele>
        <time>2013-06-02T14:04:21Z</time>
      </trkpt>
      <trkpt lat="44.51789" lon="3.79495">
        <ele>1267.16</ele>
        <time>2013-06-02T14:04:35Z</time>
      </trkpt>
      <trkpt lat="44.51793" lon="3.79486">
        <ele>1266.19</ele>
        <time>2013-06-02T14:04:41Z</time>
      </trkpt>
      <trkpt lat="44.51798" lon="3.79472">
        <ele>1267.16</ele>
        <time>2013-06-02T14:04:48Z</time>
      </trkpt>
      <trkpt lat="44.51795" lon="3.79464">
        <ele>1267.16</ele>
        <time>2013-06-02T14:04:52Z</time>
      </trkpt>
      <trkpt lat="44.51814" lon="3.7946">
        <ele>1267.16</ele>
        <time>2013-06-02T14:05:03Z</time>
      </trkpt>
      <trkpt lat="44.51823" lon="3.79455">
        <ele>1269.56</ele>
        <time>2013-06-02T14:05:15Z</time>
      </trkpt>
      <trkpt lat="44.51814" lon="3.79433">
        <ele>1271.96</ele>
        <time>2013-06-02T14:05:30Z</time>
      </trkpt>
      <trkpt lat="44.51809" lon="3.79387">
        <ele>1273.88</ele>
        <time>2013-06-02T14:05:43Z</time>
      </trkpt>
      <trkpt lat="44.51808" lon="3.79385">
        <ele>1274.36</ele>
        <time>2013-06-02T14:05:44Z</time>
      </trkpt>
      <trkpt lat="44.51811" lon="3.79364">
        <ele>1276.77</ele>
        <time>2013-06-02T14:05:58Z</time>
      </trkpt>
      <trkpt lat="44.518" lon="3.79365">
        <ele>1278.69</ele>
        <time>2013-06-02T14:06:11Z</time>
      </trkpt>
      <trkpt lat="44.51793" lon="3.79374">
        <ele>1279.65</ele>
        <time>2013-06-02T14:06:21Z</time>
      </trkpt>
      <trkpt lat="44.5177" lon="3.79381">
        <ele>1281.57</ele>
        <time>2013-06-02T14:06:35Z</time>
      </trkpt>
      <trkpt lat="44.51767" lon="3.79386">
        <ele>1281.57</ele>
        <time>2013-06-02T14:06:38Z</time>
      </trkpt>
      <trkpt lat="44.51769" lon="3.79403">
        <ele>1282.06</ele>
        <time>2013-06-02T14:06:51Z</time>
      </trkpt>
      <trkpt lat="44.51767" lon="3.79407">
        <ele>1282.06</ele>
        <time>2013-06-02T14:06:56Z</time>
      </trkpt>
      <trkpt lat="44.51744" lon="3.79421">
        <ele>1282.54</ele>
        <time>2013-06-02T14:07:12Z</time>
      </trkpt>
      <trkpt lat="44.51735" lon="3.7943">
        <ele>1283.98</ele>
        <time>2013-06-02T14:07:21Z</time>
      </trkpt>
      <trkpt lat="44.51719" lon="3.79444">
        <ele>1285.42</ele>
        <time>2013-06-02T14:07:31Z</time>
      </trkpt>
      <trkpt lat="44.51712" lon="3.79445">
        <ele>1286.38</ele>
        <time>2013-06-02T14:07:42Z</time>
      </trkpt>
      <trkpt lat="44.51722" lon="3.79434">
        <ele>1286.86</ele>
        <time>2013-06-02T14:07:54Z</time>
      </trkpt>
      <trkpt lat="44.51729" lon="3.79429">
        <ele>1286.86</ele>
        <time>2013-06-02T14:08:00Z</time>
      </trkpt>
      <trkpt lat="44.51743" lon="3.79409">
        <ele>1288.3</ele>
        <time>2013-06-02T14:08:14Z</time>
      </trkpt>
      <trkpt lat="44.51746" lon="3.794">
        <ele>1288.3</ele>
        <time>2013-06-02T14:08:19Z</time>
      </trkpt>
      <trkpt lat="44.51754" lon="3.7938">
        <ele>1288.78</ele>
        <time>2013-06-02T14:08:32Z</time>
      </trkpt>
      <trkpt lat="44.51755" lon="3.79374">
        <ele>1289.27</ele>
        <time>2013-06-02T14:08:36Z</time>
      </trkpt>
      <trkpt lat="44.51759" lon="3.7937">
        <ele>1289.27</ele>
        <time>2013-06-02T14:08:39Z</time>
      </trkpt>
      <trkpt lat="44.51766" lon="3.7936">
        <ele>1289.75</ele>
        <time>2013-06-02T14:08:46Z</time>
      </trkpt>
      <trkpt lat="44.51776" lon="3.79341">
        <ele>1289.75</ele>
        <time>2013-06-02T14:08:58Z</time>
      </trkpt>
      <trkpt lat="44.51774" lon="3.79336">
        <ele>1289.27</ele>
        <time>2013-06-02T14:09:01Z</time>
      </trkpt>
      <trkpt lat="44.51774" lon="3.7933">
        <ele>1290.23</ele>
        <time>2013-06-02T14:09:04Z</time>
      </trkpt>
      <trkpt lat="44.51783" lon="3.79309">
        <ele>1291.19</ele>
        <time>2013-06-02T14:09:18Z</time>
      </trkpt>
      <trkpt lat="44.51784" lon="3.793">
        <ele>1291.19</ele>
        <time>2013-06-02T14:09:24Z</time>
      </trkpt>
      <trkpt lat="44.51782" lon="3.79292">
        <ele>1291.67</ele>
        <time>2013-06-02T14:09:27Z</time>
      </trkpt>
      <trkpt lat="44.51782" lon="3.79287">
        <ele>1291.67</ele>
        <time>2013-06-02T14:09:30Z</time>
      </trkpt>
      <trkpt lat="44.51786" lon="3.7928">
        <ele>1291.19</ele>
        <time>2013-06-02T14:09:34Z</time>
      </trkpt>
      <trkpt lat="44.51797" lon="3.79273">
        <ele>1291.67</ele>
        <time>2013-06-02T14:09:44Z</time>
      </trkpt>
      <trkpt lat="44.518" lon="3.79266">
        <ele>1292.15</ele>
        <time>2013-06-02T14:09:46Z</time>
      </trkpt>
      <trkpt lat="44.51805" lon="3.79244">
        <ele>1293.11</ele>
        <time>2013-06-02T14:09:59Z</time>
      </trkpt>
      <trkpt lat="44.51815" lon="3.79223">
        <ele>1293.11</ele>
        <time>2013-06-02T14:10:12Z</time>
      </trkpt>
      <trkpt lat="44.51815" lon="3.79219">
        <ele>1293.11</ele>
        <time>2013-06-02T14:10:14Z</time>
      </trkpt>
      <trkpt lat="44.5182" lon="3.79204">
        <ele>1293.11</ele>
        <time>2013-06-02T14:10:23Z</time>
      </trkpt>
      <trkpt lat="44.51827" lon="3.79188">
        <ele>1294.55</ele>
        <time>2013-06-02T14:10:34Z</time>
      </trkpt>
      <trkpt lat="44.51839" lon="3.79163">
        <ele>1294.55</ele>
        <time>2013-06-02T14:10:48Z</time>
      </trkpt>
      <trkpt lat="44.51846" lon="3.79145">
        <ele>1295.03</ele>
        <time>2013-06-02T14:10:58Z</time>
      </trkpt>
      <trkpt lat="44.51851" lon="3.79134">
        <ele>1295.51</ele>
        <time>2013-06-02T14:11:06Z</time>
      </trkpt>
      <trkpt lat="44.51852" lon="3.79131">
        <ele>1295.51</ele>
        <time>2013-06-02T14:11:08Z</time>
      </trkpt>
      <trkpt lat="44.51855" lon="3.79124">
        <ele>1296.48</ele>
        <time>2013-06-02T14:11:12Z</time>
      </trkpt>
      <trkpt lat="44.51854" lon="3.79112">
        <ele>1296.96</ele>
        <time>2013-06-02T14:11:17Z</time>
      </trkpt>
      <trkpt lat="44.51854" lon="3.79101">
        <ele>1296.96</ele>
        <time>2013-06-02T14:11:24Z</time>
      </trkpt>
      <trkpt lat="44.51855" lon="3.79094">
        <ele>1296.96</ele>
        <time>2013-06-02T14:11:27Z</time>
      </trkpt>
      <trkpt lat="44.5186" lon="3.79072">
        <ele>1298.4</ele>
        <time>2013-06-02T14:11:41Z</time>
      </trkpt>
      <trkpt lat="44.51862" lon="3.79058">
        <ele>1298.88</ele>
        <time>2013-06-02T14:11:49Z</time>
      </trkpt>
      <trkpt lat="44.51865" lon="3.79031">
        <ele>1299.84</ele>
        <time>2013-06-02T14:12:05Z</time>
      </trkpt>
      <trkpt lat="44.51866" lon="3.79026">
        <ele>1300.8</ele>
        <time>2013-06-02T14:12:08Z</time>
      </trkpt>
      <trkpt lat="44.51865" lon="3.79005">
        <ele>1302.72</ele>
        <time>2013-06-02T14:12:19Z</time>
      </trkpt>
      <trkpt lat="44.5186" lon="3.78995">
        <ele>1302.72</ele>
        <time>2013-06-02T14:12:25Z</time>
      </trkpt>
      <trkpt lat="44.51858" lon="3.7897">
        <ele>1305.13</ele>
        <time>2013-06-02T14:12:41Z</time>
      </trkpt>
      <trkpt lat="44.51858" lon="3.78964">
        <ele>1305.61</ele>
        <time>2013-06-02T14:12:45Z</time>
      </trkpt>
      <trkpt lat="44.51863" lon="3.78955">
        <ele>1306.57</ele>
        <time>2013-06-02T14:12:52Z</time>
      </trkpt>
      <trkpt lat="44.51866" lon="3.78952">
        <ele>1307.05</ele>
        <time>2013-06-02T14:12:56Z</time>
      </trkpt>
      <trkpt lat="44.51882" lon="3.78952">
        <ele>1308.49</ele>
        <time>2013-06-02T14:13:10Z</time>
      </trkpt>
      <trkpt lat="44.51896" lon="3.78957">
        <ele>1309.93</ele>
        <time>2013-06-02T14:13:23Z</time>
      </trkpt>
      <trkpt lat="44.51916" lon="3.78953">
        <ele>1310.9</ele>
        <time>2013-06-02T14:13:37Z</time>
      </trkpt>
      <trkpt lat="44.51922" lon="3.78948">
        <ele>1310.9</ele>
        <time>2013-06-02T14:13:43Z</time>
      </trkpt>
      <trkpt lat="44.51931" lon="3.78938">
        <ele>1310.41</ele>
        <time>2013-06-02T14:13:53Z</time>
      </trkpt>
      <trkpt lat="44.51942" lon="3.78926">
        <ele>1311.38</ele>
        <time>2013-06-02T14:14:05Z</time>
      </trkpt>
      <trkpt lat="44.51952" lon="3.78906">
        <ele>1310.9</ele>
        <time>2013-06-02T14:14:18Z</time>
      </trkpt>
      <trkpt lat="44.51962" lon="3.78896">
        <ele>1311.86</ele>
        <time>2013-06-02T14:14:27Z</time>
      </trkpt>
      <trkpt lat="44.51973" lon="3.7887">
        <ele>1312.34</ele>
        <time>2013-06-02T14:14:41Z</time>
      </trkpt>
      <trkpt lat="44.5198" lon="3.78849">
        <ele>1310.9</ele>
        <time>2013-06-02T14:14:52Z</time>
      </trkpt>
      <trkpt lat="44.51982" lon="3.78846">
        <ele>1310.9</ele>
        <time>2013-06-02T14:14:54Z</time>
      </trkpt>
      <trkpt lat="44.51986" lon="3.78838">
        <ele>1310.9</ele>
        <time>2013-06-02T14:14:59Z</time>
      </trkpt>
      <trkpt lat="44.51991" lon="3.78829">
        <ele>1312.34</ele>
        <time>2013-06-02T14:15:04Z</time>
      </trkpt>
      <trkpt lat="44.52" lon="3.78814">
        <ele>1312.82</ele>
        <time>2013-06-02T14:15:15Z</time>
      </trkpt>
      <trkpt lat="44.52002" lon="3.78811">
        <ele>1312.82</ele>
        <time>2013-06-02T14:15:17Z</time>
      </trkpt>
      <trkpt lat="44.52006" lon="3.78798">
        <ele>1312.34</ele>
        <time>2013-06-02T14:15:24Z</time>
      </trkpt>
      <trkpt lat="44.52007" lon="3.78792">
        <ele>1312.34</ele>
        <time>2013-06-02T14:15:27Z</time>
      </trkpt>
      <trkpt lat="44.52013" lon="3.78784">
        <ele>1312.82</ele>
        <time>2013-06-02T14:15:32Z</time>
      </trkpt>
      <trkpt lat="44.52022" lon="3.78764">
        <ele>1314.26</ele>
        <time>2013-06-02T14:15:44Z</time>
      </trkpt>
      <trkpt lat="44.52023" lon="3.78759">
        <ele>1314.26</ele>
        <time>2013-06-02T14:15:47Z</time>
      </trkpt>
      <trkpt lat="44.52027" lon="3.78747">
        <ele>1314.74</ele>
        <time>2013-06-02T14:15:54Z</time>
      </trkpt>
      <trkpt lat="44.52028" lon="3.78738">
        <ele>1315.7</ele>
        <time>2013-06-02T14:15:59Z</time>
      </trkpt>
      <trkpt lat="44.52031" lon="3.78732">
        <ele>1315.7</ele>
        <time>2013-06-02T14:16:02Z</time>
      </trkpt>
      <trkpt lat="44.5203" lon="3.78726">
        <ele>1315.22</ele>
        <time>2013-06-02T14:16:05Z</time>
      </trkpt>
      <trkpt lat="44.5203" lon="3.78724">
        <ele>1315.22</ele>
        <time>2013-06-02T14:16:06Z</time>
      </trkpt>
      <trkpt lat="44.52031" lon="3.78721">
        <ele>1315.22</ele>
        <time>2013-06-02T14:16:08Z</time>
      </trkpt>
      <trkpt lat="44.52035" lon="3.78712">
        <ele>1315.22</ele>
        <time>2013-06-02T14:16:14Z</time>
      </trkpt>
      <trkpt lat="44.52038" lon="3.78699">
        <ele>1316.18</ele>
        <time>2013-06-02T14:16:21Z</time>
      </trkpt>
      <trkpt lat="44.52041" lon="3.78693">
        <ele>1317.14</ele>
        <time>2013-06-02T14:16:26Z</time>
      </trkpt>
      <trkpt lat="44.52046" lon="3.78685">
        <ele>1318.1</ele>
        <time>2013-06-02T14:16:33Z</time>
      </trkpt>
      <trkpt lat="44.52047" lon="3.78682">
        <ele>1318.59</ele>
        <time>2013-06-02T14:16:34Z</time>
      </trkpt>
      <trkpt lat="44.52055" lon="3.78657">
        <ele>1318.59</ele>
        <time>2013-06-02T14:16:48Z</time>
      </trkpt>
      <trkpt lat="44.52062" lon="3.78643">
        <ele>1318.59</ele>
        <time>2013-06-02T14:16:56Z</time>
      </trkpt>
      <trkpt lat="44.52064" lon="3.78638">
        <ele>1318.59</ele>
        <time>2013-06-02T14:17:00Z</time>
      </trkpt>
      <trkpt lat="44.52068" lon="3.78614">
        <ele>1320.03</ele>
        <time>2013-06-02T14:17:13Z</time>
      </trkpt>
      <trkpt lat="44.5207" lon="3.78602">
        <ele>1320.99</ele>
        <time>2013-06-02T14:17:19Z</time>
      </trkpt>
      <trkpt lat="44.52074" lon="3.7859">
        <ele>1320.99</ele>
        <time>2013-06-02T14:17:26Z</time>
      </trkpt>
      <trkpt lat="44.52084" lon="3.78574">
        <ele>1322.91</ele>
        <time>2013-06-02T14:17:39Z</time>
      </trkpt>
      <trkpt lat="44.52088" lon="3.78558">
        <ele>1323.87</ele>
        <time>2013-06-02T14:17:47Z</time>
      </trkpt>
      <trkpt lat="44.52095" lon="3.7854">
        <ele>1323.87</ele>
        <time>2013-06-02T14:18:00Z</time>
      </trkpt>
      <trkpt lat="44.52096" lon="3.78537">
        <ele>1323.87</ele>
        <time>2013-06-02T14:18:02Z</time>
      </trkpt>
      <trkpt lat="44.521" lon="3.78512">
        <ele>1324.35</ele>
        <time>2013-06-02T14:18:15Z</time>
      </trkpt>
      <trkpt lat="44.52107" lon="3.78502">
        <ele>1324.83</ele>
        <time>2013-06-02T14:18:24Z</time>
      </trkpt>
      <trkpt lat="44.52111" lon="3.78497">
        <ele>1325.31</ele>
        <time>2013-06-02T14:18:27Z</time>
      </trkpt>
      <trkpt lat="44.52113" lon="3.7849">
        <ele>1325.31</ele>
        <time>2013-06-02T14:18:29Z</time>
      </trkpt>
      <trkpt lat="44.52118" lon="3.78471">
        <ele>1325.8</ele>
        <time>2013-06-02T14:18:39Z</time>
      </trkpt>
      <trkpt lat="44.52121" lon="3.78464">
        <ele>1326.76</ele>
        <time>2013-06-02T14:18:44Z</time>
      </trkpt>
      <trkpt lat="44.52121" lon="3.7846">
        <ele>1327.24</ele>
        <time>2013-06-02T14:18:46Z</time>
      </trkpt>
      <trkpt lat="44.52122" lon="3.78453">
        <ele>1327.24</ele>
        <time>2013-06-02T14:18:50Z</time>
      </trkpt>
      <trkpt lat="44.52127" lon="3.78435">
        <ele>1327.24</ele>
        <time>2013-06-02T14:19:03Z</time>
      </trkpt>
      <trkpt lat="44.52127" lon="3.78434">
        <ele>1327.24</ele>
        <time>2013-06-02T14:19:04Z</time>
      </trkpt>
      <trkpt lat="44.52133" lon="3.78412">
        <ele>1328.68</ele>
        <time>2013-06-02T14:19:17Z</time>
      </trkpt>
      <trkpt lat="44.52134" lon="3.78408">
        <ele>1328.2</ele>
        <time>2013-06-02T14:19:19Z</time>
      </trkpt>
      <trkpt lat="44.52135" lon="3.78403">
        <ele>1328.2</ele>
        <time>2013-06-02T14:19:23Z</time>
      </trkpt>
      <trkpt lat="44.52132" lon="3.784">
        <ele>1329.64</ele>
        <time>2013-06-02T14:19:27Z</time>
      </trkpt>
      <trkpt lat="44.52125" lon="3.78404">
        <ele>1331.56</ele>
        <time>2013-06-02T14:19:34Z</time>
      </trkpt>
      <trkpt lat="44.52111" lon="3.78413">
        <ele>1332.04</ele>
        <time>2013-06-02T14:19:46Z</time>
      </trkpt>
      <trkpt lat="44.52096" lon="3.78429">
        <ele>1333.97</ele>
        <time>2013-06-02T14:20:01Z</time>
      </trkpt>
      <trkpt lat="44.52095" lon="3.78431">
        <ele>1333.97</ele>
        <time>2013-06-02T14:20:03Z</time>
      </trkpt>
      <trkpt lat="44.5209" lon="3.78442">
        <ele>1334.45</ele>
        <time>2013-06-02T14:20:10Z</time>
      </trkpt>
      <trkpt lat="44.52087" lon="3.78461">
        <ele>1335.89</ele>
        <time>2013-06-02T14:20:23Z</time>
      </trkpt>
      <trkpt lat="44.52075" lon="3.78479">
        <ele>1336.37</ele>
        <time>2013-06-02T14:20:36Z</time>
      </trkpt>
      <trkpt lat="44.52063" lon="3.78498">
        <ele>1337.81</ele>
        <time>2013-06-02T14:20:49Z</time>
      </trkpt>
      <trkpt lat="44.52053" lon="3.78514">
        <ele>1339.73</ele>
        <time>2013-06-02T14:21:03Z</time>
      </trkpt>
      <trkpt lat="44.52049" lon="3.78521">
        <ele>1341.18</ele>
        <time>2013-06-02T14:21:11Z</time>
      </trkpt>
      <trkpt lat="44.52041" lon="3.78526">
        <ele>1342.14</ele>
        <time>2013-06-02T14:21:16Z</time>
      </trkpt>
      <trkpt lat="44.52025" lon="3.7854">
        <ele>1342.14</ele>
        <time>2013-06-02T14:21:28Z</time>
      </trkpt>
      <trkpt lat="44.52019" lon="3.78552">
        <ele>1345.02</ele>
        <time>2013-06-02T14:21:41Z</time>
      </trkpt>
      <trkpt lat="44.52011" lon="3.78557">
        <ele>1346.94</ele>
        <time>2013-06-02T14:21:47Z</time>
      </trkpt>
      <trkpt lat="44.51995" lon="3.7857">
        <ele>1346.94</ele>
        <time>2013-06-02T14:21:59Z</time>
      </trkpt>
      <trkpt lat="44.51983" lon="3.78582">
        <ele>1349.35</ele>
        <time>2013-06-02T14:22:11Z</time>
      </trkpt>
      <trkpt lat="44.51979" lon="3.78583">
        <ele>1349.35</ele>
        <time>2013-06-02T14:22:13Z</time>
      </trkpt>
      <trkpt lat="44.51977" lon="3.78586">
        <ele>1348.87</ele>
        <time>2013-06-02T14:22:15Z</time>
      </trkpt>
      <trkpt lat="44.51972" lon="3.78591">
        <ele>1349.83</ele>
        <time>2013-06-02T14:22:19Z</time>
      </trkpt>
      <trkpt lat="44.51959" lon="3.78607">
        <ele>1351.75</ele>
        <time>2013-06-02T14:22:34Z</time>
      </trkpt>
      <trkpt lat="44.51946" lon="3.78618">
        <ele>1353.19</ele>
        <time>2013-06-02T14:22:46Z</time>
      </trkpt>
      <trkpt lat="44.51942" lon="3.78633">
        <ele>1355.6</ele>
        <time>2013-06-02T14:23:00Z</time>
      </trkpt>
      <trkpt lat="44.51922" lon="3.78644">
        <ele>1357.04</ele>
        <time>2013-06-02T14:23:14Z</time>
      </trkpt>
      <trkpt lat="44.5191" lon="3.78655">
        <ele>1359.44</ele>
        <time>2013-06-02T14:23:25Z</time>
      </trkpt>
      <trkpt lat="44.51904" lon="3.78657">
        <ele>1360.4</ele>
        <time>2013-06-02T14:23:29Z</time>
      </trkpt>
      <trkpt lat="44.51899" lon="3.78663">
        <ele>1360.4</ele>
        <time>2013-06-02T14:23:35Z</time>
      </trkpt>
      <trkpt lat="44.51897" lon="3.78663">
        <ele>1358.96</ele>
        <time>2013-06-02T14:23:38Z</time>
      </trkpt>
      <trkpt lat="44.51893" lon="3.78665">
        <ele>1361.36</ele>
        <time>2013-06-02T14:23:41Z</time>
      </trkpt>
      <trkpt lat="44.51879" lon="3.78672">
        <ele>1363.29</ele>
        <time>2013-06-02T14:23:50Z</time>
      </trkpt>
      <trkpt lat="44.51875" lon="3.78678">
        <ele>1363.29</ele>
        <time>2013-06-02T14:23:55Z</time>
      </trkpt>
      <trkpt lat="44.51859" lon="3.7869">
        <ele>1364.73</ele>
        <time>2013-06-02T14:24:10Z</time>
      </trkpt>
      <trkpt lat="44.51858" lon="3.78691">
        <ele>1364.73</ele>
        <time>2013-06-02T14:24:13Z</time>
      </trkpt>
      <trkpt lat="44.51844" lon="3.78696">
        <ele>1366.65</ele>
        <time>2013-06-02T14:24:29Z</time>
      </trkpt>
      <trkpt lat="44.51829" lon="3.78699">
        <ele>1367.61</ele>
        <time>2013-06-02T14:24:43Z</time>
      </trkpt>
      <trkpt lat="44.51821" lon="3.78699">
        <ele>1368.09</ele>
        <time>2013-06-02T14:24:48Z</time>
      </trkpt>
      <trkpt lat="44.51815" lon="3.787">
        <ele>1368.09</ele>
        <time>2013-06-02T14:24:53Z</time>
      </trkpt>
      <trkpt lat="44.51793" lon="3.78695">
        <ele>1368.57</ele>
        <time>2013-06-02T14:25:10Z</time>
      </trkpt>
      <trkpt lat="44.51778" lon="3.78685">
        <ele>1369.05</ele>
        <time>2013-06-02T14:25:24Z</time>
      </trkpt>
      <trkpt lat="44.51757" lon="3.78676">
        <ele>1369.05</ele>
        <time>2013-06-02T14:25:37Z</time>
      </trkpt>
      <trkpt lat="44.51742" lon="3.7867">
        <ele>1370.5</ele>
        <time>2013-06-02T14:25:50Z</time>
      </trkpt>
      <trkpt lat="44.51721" lon="3.78664">
        <ele>1369.54</ele>
        <time>2013-06-02T14:26:04Z</time>
      </trkpt>
      <trkpt lat="44.5171" lon="3.78661">
        <ele>1370.98</ele>
        <time>2013-06-02T14:26:11Z</time>
      </trkpt>
      <trkpt lat="44.51687" lon="3.78659">
        <ele>1370.5</ele>
        <time>2013-06-02T14:26:26Z</time>
      </trkpt>
      <trkpt lat="44.51674" lon="3.78657">
        <ele>1370.5</ele>
        <time>2013-06-02T14:26:36Z</time>
      </trkpt>
      <trkpt lat="44.51654" lon="3.78653">
        <ele>1371.46</ele>
        <time>2013-06-02T14:26:49Z</time>
      </trkpt>
      <trkpt lat="44.51632" lon="3.78647">
        <ele>1372.9</ele>
        <time>2013-06-02T14:27:05Z</time>
      </trkpt>
      <trkpt lat="44.51616" lon="3.78644">
        <ele>1373.38</ele>
        <time>2013-06-02T14:27:18Z</time>
      </trkpt>
      <trkpt lat="44.51589" lon="3.78639">
        <ele>1375.3</ele>
        <time>2013-06-02T14:27:36Z</time>
      </trkpt>
      <trkpt lat="44.51576" lon="3.78635">
        <ele>1375.78</ele>
        <time>2013-06-02T14:27:46Z</time>
      </trkpt>
      <trkpt lat="44.51573" lon="3.78633">
        <ele>1375.78</ele>
        <time>2013-06-02T14:27:49Z</time>
      </trkpt>
      <trkpt lat="44.51556" lon="3.78625">
        <ele>1377.23</ele>
        <time>2013-06-02T14:28:03Z</time>
      </trkpt>
      <trkpt lat="44.51552" lon="3.78623">
        <ele>1377.23</ele>
        <time>2013-06-02T14:28:06Z</time>
      </trkpt>
      <trkpt lat="44.51533" lon="3.78616">
        <ele>1377.23</ele>
        <time>2013-06-02T14:28:22Z</time>
      </trkpt>
      <trkpt lat="44.51521" lon="3.7861">
        <ele>1375.3</ele>
        <time>2013-06-02T14:28:33Z</time>
      </trkpt>
      <trkpt lat="44.51515" lon="3.78587">
        <ele>1374.82</ele>
        <time>2013-06-02T14:28:47Z</time>
      </trkpt>
      <trkpt lat="44.51519" lon="3.78572">
        <ele>1374.82</ele>
        <time>2013-06-02T14:28:57Z</time>
      </trkpt>
      <trkpt lat="44.51517" lon="3.78565">
        <ele>1373.86</ele>
        <time>2013-06-02T14:29:02Z</time>
      </trkpt>
      <trkpt lat="44.51508" lon="3.78547">
        <ele>1371.46</ele>
        <time>2013-06-02T14:29:14Z</time>
      </trkpt>
      <trkpt lat="44.51501" lon="3.78528">
        <ele>1370.98</ele>
        <time>2013-06-02T14:29:27Z</time>
      </trkpt>
      <trkpt lat="44.51497" lon="3.78508">
        <ele>1367.61</ele>
        <time>2013-06-02T14:29:39Z</time>
      </trkpt>
      <trkpt lat="44.51495" lon="3.7849">
        <ele>1366.17</ele>
        <time>2013-06-02T14:29:51Z</time>
      </trkpt>
      <trkpt lat="44.51492" lon="3.78462">
        <ele>1363.29</ele>
        <time>2013-06-02T14:30:04Z</time>
      </trkpt>
      <trkpt lat="44.51489" lon="3.78441">
        <ele>1361.84</ele>
        <time>2013-06-02T14:30:13Z</time>
      </trkpt>
      <trkpt lat="44.51477" lon="3.78411">
        <ele>1358</ele>
        <time>2013-06-02T14:30:27Z</time>
      </trkpt>
      <trkpt lat="44.51474" lon="3.78405">
        <ele>1357.52</ele>
        <time>2013-06-02T14:30:30Z</time>
      </trkpt>
      <trkpt lat="44.5147" lon="3.78386">
        <ele>1355.6</ele>
        <time>2013-06-02T14:30:40Z</time>
      </trkpt>
      <trkpt lat="44.51468" lon="3.7838">
        <ele>1353.67</ele>
        <time>2013-06-02T14:30:44Z</time>
      </trkpt>
      <trkpt lat="44.51464" lon="3.78362">
        <ele>1350.31</ele>
        <time>2013-06-02T14:30:54Z</time>
      </trkpt>
      <trkpt lat="44.51461" lon="3.78348">
        <ele>1347.43</ele>
        <time>2013-06-02T14:31:04Z</time>
      </trkpt>
      <trkpt lat="44.51456" lon="3.78325">
        <ele>1344.54</ele>
        <time>2013-06-02T14:31:17Z</time>
      </trkpt>
      <trkpt lat="44.51454" lon="3.78318">
        <ele>1343.58</ele>
        <time>2013-06-02T14:31:21Z</time>
      </trkpt>
      <trkpt lat="44.51451" lon="3.78301">
        <ele>1339.73</ele>
        <time>2013-06-02T14:31:35Z</time>
      </trkpt>
      <trkpt lat="44.51446" lon="3.78282">
        <ele>1336.37</ele>
        <time>2013-06-02T14:31:47Z</time>
      </trkpt>
      <trkpt lat="44.51441" lon="3.78269">
        <ele>1333.49</ele>
        <time>2013-06-02T14:31:59Z</time>
      </trkpt>
      <trkpt lat="44.51436" lon="3.78258">
        <ele>1332.04</ele>
        <time>2013-06-02T14:32:07Z</time>
      </trkpt>
      <trkpt lat="44.51419" lon="3.7824">
        <ele>1329.64</ele>
        <time>2013-06-02T14:32:22Z</time>
      </trkpt>
      <trkpt lat="44.51405" lon="3.78227">
        <ele>1329.16</ele>
        <time>2013-06-02T14:32:35Z</time>
      </trkpt>
      <trkpt lat="44.51393" lon="3.78223">
        <ele>1330.12</ele>
        <time>2013-06-02T14:32:44Z</time>
      </trkpt>
      <trkpt lat="44.51386" lon="3.7822">
        <ele>1330.12</ele>
        <time>2013-06-02T14:32:49Z</time>
      </trkpt>
      <trkpt lat="44.51373" lon="3.78212">
        <ele>1330.12</ele>
        <time>2013-06-02T14:33:01Z</time>
      </trkpt>
      <trkpt lat="44.51369" lon="3.78209">
        <ele>1330.12</ele>
        <time>2013-06-02T14:33:04Z</time>
      </trkpt>
      <trkpt lat="44.51352" lon="3.78196">
        <ele>1326.28</ele>
        <time>2013-06-02T14:33:20Z</time>
      </trkpt>
      <trkpt lat="44.51349" lon="3.78194">
        <ele>1327.24</ele>
        <time>2013-06-02T14:33:22Z</time>
      </trkpt>
      <trkpt lat="44.51346" lon="3.78192">
        <ele>1328.68</ele>
        <time>2013-06-02T14:33:25Z</time>
      </trkpt>
      <trkpt lat="44.5134" lon="3.78188">
        <ele>1327.72</ele>
        <time>2013-06-02T14:33:31Z</time>
      </trkpt>
      <trkpt lat="44.51336" lon="3.78187">
        <ele>1329.16</ele>
        <time>2013-06-02T14:33:34Z</time>
      </trkpt>
      <trkpt lat="44.51335" lon="3.78187">
        <ele>1329.64</ele>
        <time>2013-06-02T14:33:35Z</time>
      </trkpt>
      <trkpt lat="44.51329" lon="3.78182">
        <ele>1329.64</ele>
        <time>2013-06-02T14:33:41Z</time>
      </trkpt>
      <trkpt lat="44.51327" lon="3.7818">
        <ele>1329.64</ele>
        <time>2013-06-02T14:33:43Z</time>
      </trkpt>
      <trkpt lat="44.51312" lon="3.78169">
        <ele>1330.6</ele>
        <time>2013-06-02T14:33:58Z</time>
      </trkpt>
      <trkpt lat="44.51295" lon="3.78155">
        <ele>1330.6</ele>
        <time>2013-06-02T14:34:13Z</time>
      </trkpt>
      <trkpt lat="44.51276" lon="3.78144">
        <ele>1331.08</ele>
        <time>2013-06-02T14:34:30Z</time>
      </trkpt>
      <trkpt lat="44.51263" lon="3.78135">
        <ele>1331.08</ele>
        <time>2013-06-02T14:34:44Z</time>
      </trkpt>
      <trkpt lat="44.51258" lon="3.78126">
        <ele>1331.08</ele>
        <time>2013-06-02T14:34:52Z</time>
      </trkpt>
      <trkpt lat="44.51255" lon="3.78121">
        <ele>1331.08</ele>
        <time>2013-06-02T14:34:56Z</time>
      </trkpt>
      <trkpt lat="44.51247" lon="3.78111">
        <ele>1329.64</ele>
        <time>2013-06-02T14:35:04Z</time>
      </trkpt>
      <trkpt lat="44.51233" lon="3.78095">
        <ele>1327.72</ele>
        <time>2013-06-02T14:35:20Z</time>
      </trkpt>
      <trkpt lat="44.51225" lon="3.78087">
        <ele>1326.76</ele>
        <time>2013-06-02T14:35:27Z</time>
      </trkpt>
      <trkpt lat="44.51213" lon="3.78073">
        <ele>1327.72</ele>
        <time>2013-06-02T14:35:40Z</time>
      </trkpt>
      <trkpt lat="44.5121" lon="3.78069">
        <ele>1326.76</ele>
        <time>2013-06-02T14:35:43Z</time>
      </trkpt>
      <trkpt lat="44.51208" lon="3.78067">
        <ele>1326.28</ele>
        <time>2013-06-02T14:35:45Z</time>
      </trkpt>
      <trkpt lat="44.51205" lon="3.78063">
        <ele>1327.72</ele>
        <time>2013-06-02T14:35:48Z</time>
      </trkpt>
      <trkpt lat="44.51198" lon="3.78055">
        <ele>1327.72</ele>
        <time>2013-06-02T14:35:55Z</time>
      </trkpt>
      <trkpt lat="44.51185" lon="3.7804">
        <ele>1325.8</ele>
        <time>2013-06-02T14:36:08Z</time>
      </trkpt>
      <trkpt lat="44.51173" lon="3.78023">
        <ele>1323.39</ele>
        <time>2013-06-02T14:36:20Z</time>
      </trkpt>
      <trkpt lat="44.51167" lon="3.78017">
        <ele>1322.43</ele>
        <time>2013-06-02T14:36:26Z</time>
      </trkpt>
      <trkpt lat="44.51151" lon="3.77992">
        <ele>1321.95</ele>
        <time>2013-06-02T14:36:43Z</time>
      </trkpt>
      <trkpt lat="44.51131" lon="3.77973">
        <ele>1320.99</ele>
        <time>2013-06-02T14:37:00Z</time>
      </trkpt>
      <trkpt lat="44.51112" lon="3.77962">
        <ele>1320.03</ele>
        <time>2013-06-02T14:37:15Z</time>
      </trkpt>
      <trkpt lat="44.51097" lon="3.77957">
        <ele>1320.03</ele>
        <time>2013-06-02T14:37:26Z</time>
      </trkpt>
      <trkpt lat="44.51095" lon="3.77956">
        <ele>1318.59</ele>
        <time>2013-06-02T14:37:28Z</time>
      </trkpt>
      <trkpt lat="44.51091" lon="3.77949">
        <ele>1317.14</ele>
        <time>2013-06-02T14:37:33Z</time>
      </trkpt>
      <trkpt lat="44.51076" lon="3.77929">
        <ele>1314.26</ele>
        <time>2013-06-02T14:37:49Z</time>
      </trkpt>
      <trkpt lat="44.51069" lon="3.77914">
        <ele>1310.9</ele>
        <time>2013-06-02T14:37:59Z</time>
      </trkpt>
      <trkpt lat="44.51061" lon="3.77899">
        <ele>1307.53</ele>
        <time>2013-06-02T14:38:09Z</time>
      </trkpt>
      <trkpt lat="44.5105" lon="3.77879">
        <ele>1305.13</ele>
        <time>2013-06-02T14:38:22Z</time>
      </trkpt>
      <trkpt lat="44.5104" lon="3.7786">
        <ele>1302.24</ele>
        <time>2013-06-02T14:38:32Z</time>
      </trkpt>
      <trkpt lat="44.51031" lon="3.77847">
        <ele>1298.88</ele>
        <time>2013-06-02T14:38:41Z</time>
      </trkpt>
      <trkpt lat="44.51016" lon="3.77828">
        <ele>1296.96</ele>
        <time>2013-06-02T14:38:55Z</time>
      </trkpt>
      <trkpt lat="44.51004" lon="3.77805">
        <ele>1295.99</ele>
        <time>2013-06-02T14:39:09Z</time>
      </trkpt>
      <trkpt lat="44.50997" lon="3.77789">
        <ele>1295.51</ele>
        <time>2013-06-02T14:39:17Z</time>
      </trkpt>
      <trkpt lat="44.50998" lon="3.77784">
        <ele>1294.55</ele>
        <time>2013-06-02T14:39:20Z</time>
      </trkpt>
      <trkpt lat="44.51002" lon="3.7778">
        <ele>1294.55</ele>
        <time>2013-06-02T14:39:24Z</time>
      </trkpt>
      <trkpt lat="44.51006" lon="3.7778">
        <ele>1294.55</ele>
        <time>2013-06-02T14:39:26Z</time>
      </trkpt>
      <trkpt lat="44.51011" lon="3.77779">
        <ele>1294.07</ele>
        <time>2013-06-02T14:39:30Z</time>
      </trkpt>
      <trkpt lat="44.51013" lon="3.77777">
        <ele>1294.07</ele>
        <time>2013-06-02T14:39:32Z</time>
      </trkpt>
      <trkpt lat="44.5102" lon="3.77778">
        <ele>1293.11</ele>
        <time>2013-06-02T14:39:38Z</time>
      </trkpt>
      <trkpt lat="44.51035" lon="3.77775">
        <ele>1289.27</ele>
        <time>2013-06-02T14:39:50Z</time>
      </trkpt>
      <trkpt lat="44.51052" lon="3.77776">
        <ele>1288.3</ele>
        <time>2013-06-02T14:40:03Z</time>
      </trkpt>
      <trkpt lat="44.51058" lon="3.77774">
        <ele>1286.86</ele>
        <time>2013-06-02T14:40:09Z</time>
      </trkpt>
      <trkpt lat="44.51065" lon="3.77769">
        <ele>1285.9</ele>
        <time>2013-06-02T14:40:17Z</time>
      </trkpt>
      <trkpt lat="44.51069" lon="3.77767">
        <ele>1285.9</ele>
        <time>2013-06-02T14:40:22Z</time>
      </trkpt>
      <trkpt lat="44.51091" lon="3.77764">
        <ele>1284.94</ele>
        <time>2013-06-02T14:40:39Z</time>
      </trkpt>
      <trkpt lat="44.51109" lon="3.77768">
        <ele>1284.94</ele>
        <time>2013-06-02T14:40:52Z</time>
      </trkpt>
      <trkpt lat="44.51129" lon="3.77772">
        <ele>1287.34</ele>
        <time>2013-06-02T14:41:06Z</time>
      </trkpt>
      <trkpt lat="44.5114" lon="3.77774">
        <ele>1285.9</ele>
        <time>2013-06-02T14:41:15Z</time>
      </trkpt>
      <trkpt lat="44.51163" lon="3.77778">
        <ele>1283.98</ele>
        <time>2013-06-02T14:41:32Z</time>
      </trkpt>
      <trkpt lat="44.51185" lon="3.77789">
        <ele>1283.5</ele>
        <time>2013-06-02T14:41:49Z</time>
      </trkpt>
      <trkpt lat="44.51186" lon="3.77791">
        <ele>1283.5</ele>
        <time>2013-06-02T14:41:51Z</time>
      </trkpt>
      <trkpt lat="44.51195" lon="3.77805">
        <ele>1284.94</ele>
        <time>2013-06-02T14:42:04Z</time>
      </trkpt>
      <trkpt lat="44.51212" lon="3.77827">
        <ele>1285.42</ele>
        <time>2013-06-02T14:42:19Z</time>
      </trkpt>
      <trkpt lat="44.51225" lon="3.77842">
        <ele>1285.42</ele>
        <time>2013-06-02T14:42:33Z</time>
      </trkpt>
      <trkpt lat="44.51239" lon="3.77862">
        <ele>1284.46</ele>
        <time>2013-06-02T14:42:48Z</time>
      </trkpt>
      <trkpt lat="44.51255" lon="3.77877">
        <ele>1285.42</ele>
        <time>2013-06-02T14:43:02Z</time>
      </trkpt>
      <trkpt lat="44.51276" lon="3.77901">
        <ele>1286.38</ele>
        <time>2013-06-02T14:43:19Z</time>
      </trkpt>
      <trkpt lat="44.51296" lon="3.77924">
        <ele>1288.3</ele>
        <time>2013-06-02T14:43:35Z</time>
      </trkpt>
      <trkpt lat="44.51315" lon="3.77943">
        <ele>1288.3</ele>
        <time>2013-06-02T14:43:52Z</time>
      </trkpt>
      <trkpt lat="44.51325" lon="3.77952">
        <ele>1288.78</ele>
        <time>2013-06-02T14:44:05Z</time>
      </trkpt>
      <trkpt lat="44.51326" lon="3.77951">
        <ele>1287.34</ele>
        <time>2013-06-02T14:44:06Z</time>
      </trkpt>
      <trkpt lat="44.51338" lon="3.77936">
        <ele>1284.94</ele>
        <time>2013-06-02T14:44:20Z</time>
      </trkpt>
      <trkpt lat="44.51345" lon="3.77925">
        <ele>1284.46</ele>
        <time>2013-06-02T14:44:34Z</time>
      </trkpt>
      <trkpt lat="44.51346" lon="3.7792">
        <ele>1283.02</ele>
        <time>2013-06-02T14:44:40Z</time>
      </trkpt>
      <trkpt lat="44.51349" lon="3.7791">
        <ele>1285.42</ele>
        <time>2013-06-02T14:44:54Z</time>
      </trkpt>
      <trkpt lat="44.51352" lon="3.77905">
        <ele>1285.42</ele>
        <time>2013-06-02T14:45:22Z</time>
      </trkpt>
      <trkpt lat="44.51351" lon="3.77906">
        <ele>1285.42</ele>
        <time>2013-06-02T14:45:37Z</time>
      </trkpt>
      <trkpt lat="44.51351" lon="3.77904">
        <ele>1283.98</ele>
        <time>2013-06-02T14:45:46Z</time>
      </trkpt>
      <trkpt lat="44.5135" lon="3.77905">
        <ele>1283.98</ele>
        <time>2013-06-02T14:46:19Z</time>
      </trkpt>
      <trkpt lat="44.51349" lon="3.77905">
        <ele>1283.5</ele>
        <time>2013-06-02T14:46:52Z</time>
      </trkpt>
      <trkpt lat="44.51346" lon="3.77908">
        <ele>1285.42</ele>
        <time>2013-06-02T14:47:30Z</time>
      </trkpt>
      <trkpt lat="44.51346" lon="3.77908">
        <ele>1283.98</ele>
        <time>2013-06-02T14:47:42Z</time>
      </trkpt>
      <trkpt lat="44.51346" lon="3.77908">
        <ele>1282.54</ele>
        <time>2013-06-02T14:48:18Z</time>
      </trkpt>
      <trkpt lat="44.51346" lon="3.77909">
        <ele>1283.98</ele>
        <time>2013-06-02T14:48:50Z</time>
      </trkpt>
      <trkpt lat="44.51344" lon="3.77909">
        <ele>1284.46</ele>
        <time>2013-06-02T14:49:36Z</time>
      </trkpt>
      <trkpt lat="44.51343" lon="3.7791">
        <ele>1284.46</ele>
        <time>2013-06-02T14:50:07Z</time>
      </trkpt>
      <trkpt lat="44.51346" lon="3.77911">
        <ele>1284.94</ele>
        <time>2013-06-02T14:50:42Z</time>
      </trkpt>
      <trkpt lat="44.51348" lon="3.77909">
        <ele>1283.98</ele>
        <time>2013-06-02T14:51:21Z</time>
      </trkpt>
      <trkpt lat="44.51348" lon="3.77909">
        <ele>1284.94</ele>
        <time>2013-06-02T14:52:01Z</time>
      </trkpt>
      <trkpt lat="44.51347" lon="3.77909">
        <ele>1284.94</ele>
        <time>2013-06-02T14:52:23Z</time>
      </trkpt>
      <trkpt lat="44.51353" lon="3.77905">
        <ele>1284.94</ele>
        <time>2013-06-02T14:52:48Z</time>
      </trkpt>
      <trkpt lat="44.51352" lon="3.77905">
        <ele>1280.13</ele>
        <time>2013-06-02T14:52:56Z</time>
      </trkpt>
      <trkpt lat="44.51352" lon="3.77905">
        <ele>1282.54</ele>
        <time>2013-06-02T14:52:57Z</time>
      </trkpt>
      <trkpt lat="44.51352" lon="3.77905">
        <ele>1284.46</ele>
        <time>2013-06-02T14:52:59Z</time>
      </trkpt>
      <trkpt lat="44.51352" lon="3.77905">
        <ele>1288.78</ele>
        <time>2013-06-02T14:53:01Z</time>
      </trkpt>
      <trkpt lat="44.51351" lon="3.77905">
        <ele>1284.46</ele>
        <time>2013-06-02T14:53:02Z</time>
      </trkpt>
      <trkpt lat="44.51349" lon="3.77905">
        <ele>1283.02</ele>
        <time>2013-06-02T14:53:36Z</time>
      </trkpt>
      <trkpt lat="44.51348" lon="3.77909">
        <ele>1283.02</ele>
        <time>2013-06-02T14:54:12Z</time>
      </trkpt>
      <trkpt lat="44.51349" lon="3.77908">
        <ele>1283.98</ele>
        <time>2013-06-02T14:54:48Z</time>
      </trkpt>
      <trkpt lat="44.51348" lon="3.77906">
        <ele>1283.98</ele>
        <time>2013-06-02T14:55:12Z</time>
      </trkpt>
      <trkpt lat="44.5135" lon="3.77904">
        <ele>1284.94</ele>
        <time>2013-06-02T14:55:51Z</time>
      </trkpt>
      <trkpt lat="44.5135" lon="3.77905">
        <ele>1283.98</ele>
        <time>2013-06-02T14:55:58Z</time>
      </trkpt>
      <trkpt lat="44.51349" lon="3.77907">
        <ele>1284.94</ele>
        <time>2013-06-02T14:56:23Z</time>
      </trkpt>
      <trkpt lat="44.51349" lon="3.77905">
        <ele>1284.94</ele>
        <time>2013-06-02T14:56:47Z</time>
      </trkpt>
      <trkpt lat="44.5135" lon="3.77905">
        <ele>1284.94</ele>
        <time>2013-06-02T14:57:05Z</time>
      </trkpt>
      <trkpt lat="44.5135" lon="3.77905">
        <ele>1283.5</ele>
        <time>2013-06-02T14:57:12Z</time>
      </trkpt>
      <trkpt lat="44.5135" lon="3.77906">
        <ele>1283.5</ele>
        <time>2013-06-02T14:57:40Z</time>
      </trkpt>
      <trkpt lat="44.51348" lon="3.7791">
        <ele>1284.94</ele>
        <time>2013-06-02T14:58:01Z</time>
      </trkpt>
      <trkpt lat="44.5135" lon="3.77914">
        <ele>1284.46</ele>
        <time>2013-06-02T14:58:14Z</time>
      </trkpt>
      <trkpt lat="44.5135" lon="3.77926">
        <ele>1284.46</ele>
        <time>2013-06-02T14:58:27Z</time>
      </trkpt>
      <trkpt lat="44.51344" lon="3.77936">
        <ele>1285.42</ele>
        <time>2013-06-02T14:58:40Z</time>
      </trkpt>
      <trkpt lat="44.5134" lon="3.77941">
        <ele>1286.38</ele>
        <time>2013-06-02T14:58:46Z</time>
      </trkpt>
      <trkpt lat="44.51336" lon="3.7795">
        <ele>1287.34</ele>
        <time>2013-06-02T14:59:00Z</time>
      </trkpt>
      <trkpt lat="44.51336" lon="3.77954">
        <ele>1288.3</ele>
        <time>2013-06-02T14:59:14Z</time>
      </trkpt>
      <trkpt lat="44.51333" lon="3.77955">
        <ele>1288.3</ele>
        <time>2013-06-02T14:59:32Z</time>
      </trkpt>
      <trkpt lat="44.51331" lon="3.77954">
        <ele>1288.3</ele>
        <time>2013-06-02T14:59:57Z</time>
      </trkpt>
      <trkpt lat="44.51333" lon="3.77955">
        <ele>1288.78</ele>
        <time>2013-06-02T15:00:20Z</time>
      </trkpt>
      <trkpt lat="44.51329" lon="3.77952">
        <ele>1288.78</ele>
        <time>2013-06-02T15:00:45Z</time>
      </trkpt>
      <trkpt lat="44.51321" lon="3.77941">
        <ele>1287.34</ele>
        <time>2013-06-02T15:00:56Z</time>
      </trkpt>
      <trkpt lat="44.51319" lon="3.77939">
        <ele>1286.86</ele>
        <time>2013-06-02T15:00:58Z</time>
      </trkpt>
      <trkpt lat="44.51316" lon="3.77936">
        <ele>1286.86</ele>
        <time>2013-06-02T15:01:01Z</time>
      </trkpt>
      <trkpt lat="44.51311" lon="3.77925">
        <ele>1287.34</ele>
        <time>2013-06-02T15:01:14Z</time>
      </trkpt>
      <trkpt lat="44.51306" lon="3.77923">
        <ele>1287.34</ele>
        <time>2013-06-02T15:01:25Z</time>
      </trkpt>
      <trkpt lat="44.51302" lon="3.77919">
        <ele>1287.34</ele>
        <time>2013-06-02T15:01:29Z</time>
      </trkpt>
      <trkpt lat="44.5129" lon="3.77907">
        <ele>1285.42</ele>
        <time>2013-06-02T15:01:44Z</time>
      </trkpt>
      <trkpt lat="44.51288" lon="3.77905">
        <ele>1285.42</ele>
        <time>2013-06-02T15:01:46Z</time>
      </trkpt>
      <trkpt lat="44.51272" lon="3.77881">
        <ele>1284.94</ele>
        <time>2013-06-02T15:02:03Z</time>
      </trkpt>
      <trkpt lat="44.51269" lon="3.77879">
        <ele>1284.94</ele>
        <time>2013-06-02T15:02:05Z</time>
      </trkpt>
      <trkpt lat="44.51262" lon="3.77874">
        <ele>1285.42</ele>
        <time>2013-06-02T15:02:11Z</time>
      </trkpt>
      <trkpt lat="44.5125" lon="3.77861">
        <ele>1284.46</ele>
        <time>2013-06-02T15:02:24Z</time>
      </trkpt>
      <trkpt lat="44.5125" lon="3.7786">
        <ele>1284.46</ele>
        <time>2013-06-02T15:02:25Z</time>
      </trkpt>
      <trkpt lat="44.51247" lon="3.77858">
        <ele>1285.9</ele>
        <time>2013-06-02T15:02:27Z</time>
      </trkpt>
      <trkpt lat="44.51235" lon="3.77842">
        <ele>1285.9</ele>
        <time>2013-06-02T15:02:39Z</time>
      </trkpt>
      <trkpt lat="44.51226" lon="3.77826">
        <ele>1284.46</ele>
        <time>2013-06-02T15:02:51Z</time>
      </trkpt>
      <trkpt lat="44.51212" lon="3.77805">
        <ele>1283.02</ele>
        <time>2013-06-02T15:03:07Z</time>
      </trkpt>
      <trkpt lat="44.51209" lon="3.77793">
        <ele>1283.02</ele>
        <time>2013-06-02T15:03:12Z</time>
      </trkpt>
      <trkpt lat="44.51208" lon="3.77789">
        <ele>1283.02</ele>
        <time>2013-06-02T15:03:14Z</time>
      </trkpt>
      <trkpt lat="44.51205" lon="3.77788">
        <ele>1281.57</ele>
        <time>2013-06-02T15:03:28Z</time>
      </trkpt>
      <trkpt lat="44.51203" lon="3.77783">
        <ele>1281.09</ele>
        <time>2013-06-02T15:03:40Z</time>
      </trkpt>
      <trkpt lat="44.51216" lon="3.77786">
        <ele>1279.65</ele>
        <time>2013-06-02T15:03:52Z</time>
      </trkpt>
      <trkpt lat="44.51224" lon="3.77786">
        <ele>1278.69</ele>
        <time>2013-06-02T15:03:59Z</time>
      </trkpt>
      <trkpt lat="44.5123" lon="3.77787">
        <ele>1277.73</ele>
        <time>2013-06-02T15:04:03Z</time>
      </trkpt>
      <trkpt lat="44.51234" lon="3.77787">
        <ele>1277.25</ele>
        <time>2013-06-02T15:04:06Z</time>
      </trkpt>
      <trkpt lat="44.51249" lon="3.7779">
        <ele>1272.92</ele>
        <time>2013-06-02T15:04:19Z</time>
      </trkpt>
      <trkpt lat="44.5126" lon="3.77794">
        <ele>1270.52</ele>
        <time>2013-06-02T15:04:29Z</time>
      </trkpt>
      <trkpt lat="44.51267" lon="3.77799">
        <ele>1268.6</ele>
        <time>2013-06-02T15:04:36Z</time>
      </trkpt>
      <trkpt lat="44.51272" lon="3.77789">
        <ele>1266.67</ele>
        <time>2013-06-02T15:04:49Z</time>
      </trkpt>
      <trkpt lat="44.51272" lon="3.77786">
        <ele>1266.67</ele>
        <time>2013-06-02T15:04:51Z</time>
      </trkpt>
      <trkpt lat="44.51272" lon="3.77765">
        <ele>1264.27</ele>
        <time>2013-06-02T15:05:05Z</time>
      </trkpt>
      <trkpt lat="44.51268" lon="3.77741">
        <ele>1261.87</ele>
        <time>2013-06-02T15:05:21Z</time>
      </trkpt>
      <trkpt lat="44.51268" lon="3.77733">
        <ele>1261.39</ele>
        <time>2013-06-02T15:05:25Z</time>
      </trkpt>
      <trkpt lat="44.51265" lon="3.77724">
        <ele>1259.94</ele>
        <time>2013-06-02T15:05:30Z</time>
      </trkpt>
      <trkpt lat="44.51259" lon="3.77714">
        <ele>1256.1</ele>
        <time>2013-06-02T15:05:38Z</time>
      </trkpt>
      <trkpt lat="44.51253" lon="3.777">
        <ele>1257.06</ele>
        <time>2013-06-02T15:05:45Z</time>
      </trkpt>
      <trkpt lat="44.51245" lon="3.77688">
        <ele>1255.62</ele>
        <time>2013-06-02T15:05:58Z</time>
      </trkpt>
      <trkpt lat="44.51241" lon="3.77681">
        <ele>1255.62</ele>
        <time>2013-06-02T15:06:06Z</time>
      </trkpt>
      <trkpt lat="44.51225" lon="3.77661">
        <ele>1254.66</ele>
        <time>2013-06-02T15:06:20Z</time>
      </trkpt>
      <trkpt lat="44.51214" lon="3.77634">
        <ele>1251.77</ele>
        <time>2013-06-02T15:06:36Z</time>
      </trkpt>
      <trkpt lat="44.51199" lon="3.77614">
        <ele>1249.37</ele>
        <time>2013-06-02T15:06:51Z</time>
      </trkpt>
      <trkpt lat="44.51194" lon="3.77608">
        <ele>1248.89</ele>
        <time>2013-06-02T15:06:56Z</time>
      </trkpt>
      <trkpt lat="44.51179" lon="3.77591">
        <ele>1245.53</ele>
        <time>2013-06-02T15:07:10Z</time>
      </trkpt>
      <trkpt lat="44.51178" lon="3.7759">
        <ele>1245.53</ele>
        <time>2013-06-02T15:07:11Z</time>
      </trkpt>
      <trkpt lat="44.51168" lon="3.7757">
        <ele>1243.6</ele>
        <time>2013-06-02T15:07:26Z</time>
      </trkpt>
      <trkpt lat="44.51166" lon="3.77565">
        <ele>1243.12</ele>
        <time>2013-06-02T15:07:30Z</time>
      </trkpt>
      <trkpt lat="44.51152" lon="3.77553">
        <ele>1241.68</ele>
        <time>2013-06-02T15:07:41Z</time>
      </trkpt>
      <trkpt lat="44.51128" lon="3.77534">
        <ele>1239.76</ele>
        <time>2013-06-02T15:07:57Z</time>
      </trkpt>
      <trkpt lat="44.51104" lon="3.77524">
        <ele>1236.87</ele>
        <time>2013-06-02T15:08:15Z</time>
      </trkpt>
      <trkpt lat="44.5109" lon="3.77517">
        <ele>1233.03</ele>
        <time>2013-06-02T15:08:26Z</time>
      </trkpt>
      <trkpt lat="44.51088" lon="3.77517">
        <ele>1233.03</ele>
        <time>2013-06-02T15:08:27Z</time>
      </trkpt>
      <trkpt lat="44.51087" lon="3.77516">
        <ele>1233.03</ele>
        <time>2013-06-02T15:08:28Z</time>
      </trkpt>
      <trkpt lat="44.51083" lon="3.77512">
        <ele>1233.99</ele>
        <time>2013-06-02T15:08:32Z</time>
      </trkpt>
      <trkpt lat="44.51074" lon="3.77507">
        <ele>1234.95</ele>
        <time>2013-06-02T15:08:41Z</time>
      </trkpt>
      <trkpt lat="44.51052" lon="3.77498">
        <ele>1237.35</ele>
        <time>2013-06-02T15:08:55Z</time>
      </trkpt>
      <trkpt lat="44.51041" lon="3.77491">
        <ele>1235.91</ele>
        <time>2013-06-02T15:09:02Z</time>
      </trkpt>
      <trkpt lat="44.51033" lon="3.77484">
        <ele>1237.35</ele>
        <time>2013-06-02T15:09:09Z</time>
      </trkpt>
      <trkpt lat="44.51031" lon="3.77482">
        <ele>1235.43</ele>
        <time>2013-06-02T15:09:12Z</time>
      </trkpt>
      <trkpt lat="44.5103" lon="3.77479">
        <ele>1235.43</ele>
        <time>2013-06-02T15:09:15Z</time>
      </trkpt>
      <trkpt lat="44.51028" lon="3.77476">
        <ele>1235.43</ele>
        <time>2013-06-02T15:09:18Z</time>
      </trkpt>
      <trkpt lat="44.5101" lon="3.77464">
        <ele>1235.43</ele>
        <time>2013-06-02T15:09:33Z</time>
      </trkpt>
      <trkpt lat="44.50989" lon="3.7745">
        <ele>1234.95</ele>
        <time>2013-06-02T15:09:47Z</time>
      </trkpt>
      <trkpt lat="44.50978" lon="3.77436">
        <ele>1234.95</ele>
        <time>2013-06-02T15:10:03Z</time>
      </trkpt>
      <trkpt lat="44.50976" lon="3.77418">
        <ele>1233.51</ele>
        <time>2013-06-02T15:10:17Z</time>
      </trkpt>
      <trkpt lat="44.50974" lon="3.77403">
        <ele>1231.11</ele>
        <time>2013-06-02T15:10:25Z</time>
      </trkpt>
      <trkpt lat="44.50968" lon="3.77386">
        <ele>1230.14</ele>
        <time>2013-06-02T15:10:37Z</time>
      </trkpt>
      <trkpt lat="44.50966" lon="3.77358">
        <ele>1228.7</ele>
        <time>2013-06-02T15:10:51Z</time>
      </trkpt>
      <trkpt lat="44.50965" lon="3.77355">
        <ele>1228.7</ele>
        <time>2013-06-02T15:10:53Z</time>
      </trkpt>
      <trkpt lat="44.50957" lon="3.77329">
        <ele>1227.74</ele>
        <time>2013-06-02T15:11:07Z</time>
      </trkpt>
      <trkpt lat="44.50954" lon="3.77307">
        <ele>1227.26</ele>
        <time>2013-06-02T15:11:19Z</time>
      </trkpt>
      <trkpt lat="44.50949" lon="3.77289">
        <ele>1226.78</ele>
        <time>2013-06-02T15:11:29Z</time>
      </trkpt>
      <trkpt lat="44.50949" lon="3.77276">
        <ele>1226.3</ele>
        <time>2013-06-02T15:11:36Z</time>
      </trkpt>
      <trkpt lat="44.5095" lon="3.77265">
        <ele>1226.3</ele>
        <time>2013-06-02T15:11:41Z</time>
      </trkpt>
      <trkpt lat="44.50943" lon="3.77234">
        <ele>1224.38</ele>
        <time>2013-06-02T15:11:56Z</time>
      </trkpt>
      <trkpt lat="44.50935" lon="3.77208">
        <ele>1223.9</ele>
        <time>2013-06-02T15:12:11Z</time>
      </trkpt>
      <trkpt lat="44.5093" lon="3.77188">
        <ele>1225.34</ele>
        <time>2013-06-02T15:12:22Z</time>
      </trkpt>
      <trkpt lat="44.50925" lon="3.77175">
        <ele>1223.9</ele>
        <time>2013-06-02T15:12:29Z</time>
      </trkpt>
      <trkpt lat="44.50921" lon="3.77153">
        <ele>1222.45</ele>
        <time>2013-06-02T15:12:40Z</time>
      </trkpt>
      <trkpt lat="44.50914" lon="3.77133">
        <ele>1221.49</ele>
        <time>2013-06-02T15:12:52Z</time>
      </trkpt>
      <trkpt lat="44.50902" lon="3.77112">
        <ele>1219.57</ele>
        <time>2013-06-02T15:13:07Z</time>
      </trkpt>
      <trkpt lat="44.50895" lon="3.77095">
        <ele>1217.17</ele>
        <time>2013-06-02T15:13:16Z</time>
      </trkpt>
      <trkpt lat="44.50891" lon="3.77086">
        <ele>1217.17</ele>
        <time>2013-06-02T15:13:21Z</time>
      </trkpt>
      <trkpt lat="44.50888" lon="3.7708">
        <ele>1216.69</ele>
        <time>2013-06-02T15:13:25Z</time>
      </trkpt>
      <trkpt lat="44.50885" lon="3.77075">
        <ele>1216.21</ele>
        <time>2013-06-02T15:13:28Z</time>
      </trkpt>
      <trkpt lat="44.50874" lon="3.77054">
        <ele>1213.8</ele>
        <time>2013-06-02T15:13:43Z</time>
      </trkpt>
      <trkpt lat="44.50865" lon="3.77031">
        <ele>1211.4</ele>
        <time>2013-06-02T15:13:58Z</time>
      </trkpt>
      <trkpt lat="44.50863" lon="3.77023">
        <ele>1211.4</ele>
        <time>2013-06-02T15:14:02Z</time>
      </trkpt>
      <trkpt lat="44.50857" lon="3.77016">
        <ele>1210.92</ele>
        <time>2013-06-02T15:14:07Z</time>
      </trkpt>
      <trkpt lat="44.50841" lon="3.77001">
        <ele>1207.55</ele>
        <time>2013-06-02T15:14:21Z</time>
      </trkpt>
      <trkpt lat="44.50823" lon="3.76985">
        <ele>1207.07</ele>
        <time>2013-06-02T15:14:34Z</time>
      </trkpt>
      <trkpt lat="44.50811" lon="3.76979">
        <ele>1205.63</ele>
        <time>2013-06-02T15:14:43Z</time>
      </trkpt>
      <trkpt lat="44.50801" lon="3.76972">
        <ele>1204.19</ele>
        <time>2013-06-02T15:14:52Z</time>
      </trkpt>
      <trkpt lat="44.5078" lon="3.76962">
        <ele>1203.71</ele>
        <time>2013-06-02T15:15:09Z</time>
      </trkpt>
      <trkpt lat="44.50774" lon="3.76958">
        <ele>1203.23</ele>
        <time>2013-06-02T15:15:14Z</time>
      </trkpt>
      <trkpt lat="44.50768" lon="3.76954">
        <ele>1203.23</ele>
        <time>2013-06-02T15:15:20Z</time>
      </trkpt>
      <trkpt lat="44.50748" lon="3.76943">
        <ele>1201.79</ele>
        <time>2013-06-02T15:15:34Z</time>
      </trkpt>
      <trkpt lat="44.50736" lon="3.76936">
        <ele>1200.82</ele>
        <time>2013-06-02T15:15:47Z</time>
      </trkpt>
      <trkpt lat="44.50721" lon="3.76927">
        <ele>1200.82</ele>
        <time>2013-06-02T15:15:59Z</time>
      </trkpt>
      <trkpt lat="44.5071" lon="3.7692">
        <ele>1198.9</ele>
        <time>2013-06-02T15:16:08Z</time>
      </trkpt>
      <trkpt lat="44.50689" lon="3.76912">
        <ele>1195.54</ele>
        <time>2013-06-02T15:16:24Z</time>
      </trkpt>
      <trkpt lat="44.5068" lon="3.76906">
        <ele>1194.58</ele>
        <time>2013-06-02T15:16:30Z</time>
      </trkpt>
      <trkpt lat="44.50673" lon="3.76902">
        <ele>1192.65</ele>
        <time>2013-06-02T15:16:38Z</time>
      </trkpt>
      <trkpt lat="44.50664" lon="3.76895">
        <ele>1192.65</ele>
        <time>2013-06-02T15:16:46Z</time>
      </trkpt>
      <trkpt lat="44.50645" lon="3.76886">
        <ele>1190.73</ele>
        <time>2013-06-02T15:17:00Z</time>
      </trkpt>
      <trkpt lat="44.50627" lon="3.76882">
        <ele>1187.37</ele>
        <time>2013-06-02T15:17:15Z</time>
      </trkpt>
      <trkpt lat="44.50622" lon="3.76881">
        <ele>1185.44</ele>
        <time>2013-06-02T15:17:19Z</time>
      </trkpt>
      <trkpt lat="44.506" lon="3.76876">
        <ele>1183.52</ele>
        <time>2013-06-02T15:17:34Z</time>
      </trkpt>
      <trkpt lat="44.50584" lon="3.76869">
        <ele>1182.56</ele>
        <time>2013-06-02T15:17:48Z</time>
      </trkpt>
      <trkpt lat="44.50578" lon="3.76868">
        <ele>1182.08</ele>
        <time>2013-06-02T15:17:53Z</time>
      </trkpt>
      <trkpt lat="44.50564" lon="3.76866">
        <ele>1181.12</ele>
        <time>2013-06-02T15:18:04Z</time>
      </trkpt>
      <trkpt lat="44.50561" lon="3.76864">
        <ele>1180.64</ele>
        <time>2013-06-02T15:18:07Z</time>
      </trkpt>
      <trkpt lat="44.50543" lon="3.76856">
        <ele>1178.71</ele>
        <time>2013-06-02T15:18:20Z</time>
      </trkpt>
      <trkpt lat="44.50533" lon="3.76854">
        <ele>1178.23</ele>
        <time>2013-06-02T15:18:27Z</time>
      </trkpt>
      <trkpt lat="44.50513" lon="3.76853">
        <ele>1177.27</ele>
        <time>2013-06-02T15:18:41Z</time>
      </trkpt>
      <trkpt lat="44.50499" lon="3.76853">
        <ele>1176.31</ele>
        <time>2013-06-02T15:18:51Z</time>
      </trkpt>
      <trkpt lat="44.50492" lon="3.76853">
        <ele>1176.31</ele>
        <time>2013-06-02T15:18:55Z</time>
      </trkpt>
      <trkpt lat="44.50472" lon="3.76848">
        <ele>1175.83</ele>
        <time>2013-06-02T15:19:09Z</time>
      </trkpt>
      <trkpt lat="44.50467" lon="3.76845">
        <ele>1175.83</ele>
        <time>2013-06-02T15:19:13Z</time>
      </trkpt>
      <trkpt lat="44.50465" lon="3.76843">
        <ele>1175.83</ele>
        <time>2013-06-02T15:19:15Z</time>
      </trkpt>
      <trkpt lat="44.5046" lon="3.76837">
        <ele>1174.87</ele>
        <time>2013-06-02T15:19:21Z</time>
      </trkpt>
      <trkpt lat="44.50457" lon="3.76831">
        <ele>1174.39</ele>
        <time>2013-06-02T15:19:26Z</time>
      </trkpt>
      <trkpt lat="44.50452" lon="3.76821">
        <ele>1173.91</ele>
        <time>2013-06-02T15:19:33Z</time>
      </trkpt>
      <trkpt lat="44.50441" lon="3.76814">
        <ele>1173.91</ele>
        <time>2013-06-02T15:19:42Z</time>
      </trkpt>
      <trkpt lat="44.50436" lon="3.76808">
        <ele>1173.91</ele>
        <time>2013-06-02T15:19:48Z</time>
      </trkpt>
      <trkpt lat="44.50429" lon="3.76804">
        <ele>1172.95</ele>
        <time>2013-06-02T15:19:54Z</time>
      </trkpt>
      <trkpt lat="44.50412" lon="3.76793">
        <ele>1171.02</ele>
        <time>2013-06-02T15:20:08Z</time>
      </trkpt>
      <trkpt lat="44.50405" lon="3.76788">
        <ele>1171.02</ele>
        <time>2013-06-02T15:20:13Z</time>
      </trkpt>
      <trkpt lat="44.50389" lon="3.76787">
        <ele>1171.02</ele>
        <time>2013-06-02T15:20:19Z</time>
      </trkpt>
      <trkpt lat="44.50381" lon="3.76784">
        <ele>1170.54</ele>
        <time>2013-06-02T15:20:26Z</time>
      </trkpt>
      <trkpt lat="44.50367" lon="3.76775">
        <ele>1169.58</ele>
        <time>2013-06-02T15:20:38Z</time>
      </trkpt>
      <trkpt lat="44.50345" lon="3.76769">
        <ele>1168.62</ele>
        <time>2013-06-02T15:20:53Z</time>
      </trkpt>
      <trkpt lat="44.50334" lon="3.76766">
        <ele>1168.14</ele>
        <time>2013-06-02T15:21:03Z</time>
      </trkpt>
      <trkpt lat="44.50322" lon="3.76761">
        <ele>1166.7</ele>
        <time>2013-06-02T15:21:13Z</time>
      </trkpt>
      <trkpt lat="44.50298" lon="3.76755">
        <ele>1166.7</ele>
        <time>2013-06-02T15:21:28Z</time>
      </trkpt>
      <trkpt lat="44.50279" lon="3.7675">
        <ele>1165.74</ele>
        <time>2013-06-02T15:21:44Z</time>
      </trkpt>
      <trkpt lat="44.50256" lon="3.76747">
        <ele>1165.26</ele>
        <time>2013-06-02T15:22:00Z</time>
      </trkpt>
      <trkpt lat="44.50237" lon="3.76743">
        <ele>1164.29</ele>
        <time>2013-06-02T15:22:12Z</time>
      </trkpt>
      <trkpt lat="44.50213" lon="3.76734">
        <ele>1161.89</ele>
        <time>2013-06-02T15:22:29Z</time>
      </trkpt>
      <trkpt lat="44.50204" lon="3.76726">
        <ele>1159.97</ele>
        <time>2013-06-02T15:22:41Z</time>
      </trkpt>
      <trkpt lat="44.50203" lon="3.76725">
        <ele>1159.49</ele>
        <time>2013-06-02T15:22:43Z</time>
      </trkpt>
      <trkpt lat="44.50189" lon="3.76723">
        <ele>1158.05</ele>
        <time>2013-06-02T15:22:56Z</time>
      </trkpt>
      <trkpt lat="44.50183" lon="3.76724">
        <ele>1156.12</ele>
        <time>2013-06-02T15:23:12Z</time>
      </trkpt>
      <trkpt lat="44.50177" lon="3.76719">
        <ele>1157.56</ele>
        <time>2013-06-02T15:23:22Z</time>
      </trkpt>
      <trkpt lat="44.50174" lon="3.76716">
        <ele>1158.53</ele>
        <time>2013-06-02T15:23:24Z</time>
      </trkpt>
      <trkpt lat="44.50173" lon="3.76715">
        <ele>1158.53</ele>
        <time>2013-06-02T15:23:25Z</time>
      </trkpt>
      <trkpt lat="44.50168" lon="3.76704">
        <ele>1160.45</ele>
        <time>2013-06-02T15:23:33Z</time>
      </trkpt>
      <trkpt lat="44.50164" lon="3.76698">
        <ele>1159.97</ele>
        <time>2013-06-02T15:23:39Z</time>
      </trkpt>
      <trkpt lat="44.50155" lon="3.7669">
        <ele>1158.53</ele>
        <time>2013-06-02T15:23:45Z</time>
      </trkpt>
      <trkpt lat="44.50134" lon="3.76667">
        <ele>1158.05</ele>
        <time>2013-06-02T15:24:01Z</time>
      </trkpt>
      <trkpt lat="44.50133" lon="3.76666">
        <ele>1158.05</ele>
        <time>2013-06-02T15:24:02Z</time>
      </trkpt>
      <trkpt lat="44.50118" lon="3.7666">
        <ele>1159.49</ele>
        <time>2013-06-02T15:24:18Z</time>
      </trkpt>
      <trkpt lat="44.50095" lon="3.76658">
        <ele>1159.97</ele>
        <time>2013-06-02T15:24:36Z</time>
      </trkpt>
      <trkpt lat="44.50076" lon="3.76652">
        <ele>1161.89</ele>
        <time>2013-06-02T15:24:51Z</time>
      </trkpt>
      <trkpt lat="44.5006" lon="3.76648">
        <ele>1162.37</ele>
        <time>2013-06-02T15:25:05Z</time>
      </trkpt>
      <trkpt lat="44.50039" lon="3.76643">
        <ele>1164.77</ele>
        <time>2013-06-02T15:25:22Z</time>
      </trkpt>
      <trkpt lat="44.50012" lon="3.76641">
        <ele>1167.66</ele>
        <time>2013-06-02T15:25:41Z</time>
      </trkpt>
      <trkpt lat="44.49999" lon="3.7664">
        <ele>1168.14</ele>
        <time>2013-06-02T15:25:51Z</time>
      </trkpt>
      <trkpt lat="44.49983" lon="3.76636">
        <ele>1171.02</ele>
        <time>2013-06-02T15:26:07Z</time>
      </trkpt>
      <trkpt lat="44.49964" lon="3.76634">
        <ele>1172.95</ele>
        <time>2013-06-02T15:26:23Z</time>
      </trkpt>
      <trkpt lat="44.49953" lon="3.76634">
        <ele>1172.95</ele>
        <time>2013-06-02T15:26:37Z</time>
      </trkpt>
      <trkpt lat="44.49948" lon="3.76633">
        <ele>1174.39</ele>
        <time>2013-06-02T15:26:53Z</time>
      </trkpt>
      <trkpt lat="44.49948" lon="3.76633">
        <ele>1172.47</ele>
        <time>2013-06-02T15:26:59Z</time>
      </trkpt>
      <trkpt lat="44.49946" lon="3.76638">
        <ele>1172.47</ele>
        <time>2013-06-02T15:27:35Z</time>
      </trkpt>
      <trkpt lat="44.49946" lon="3.76638">
        <ele>1172.47</ele>
        <time>2013-06-02T15:27:36Z</time>
      </trkpt>
      <trkpt lat="44.49946" lon="3.76638">
        <ele>1173.43</ele>
        <time>2013-06-02T15:28:04Z</time>
      </trkpt>
      <trkpt lat="44.49941" lon="3.76637">
        <ele>1173.91</ele>
        <time>2013-06-02T15:28:20Z</time>
      </trkpt>
      <trkpt lat="44.49924" lon="3.76638">
        <ele>1174.39</ele>
        <time>2013-06-02T15:28:35Z</time>
      </trkpt>
      <trkpt lat="44.49903" lon="3.7664">
        <ele>1174.87</ele>
        <time>2013-06-02T15:28:51Z</time>
      </trkpt>
      <trkpt lat="44.49888" lon="3.76642">
        <ele>1175.83</ele>
        <time>2013-06-02T15:29:02Z</time>
      </trkpt>
      <trkpt lat="44.49881" lon="3.7664">
        <ele>1176.79</ele>
        <time>2013-06-02T15:29:08Z</time>
      </trkpt>
      <trkpt lat="44.49863" lon="3.76645">
        <ele>1176.79</ele>
        <time>2013-06-02T15:29:22Z</time>
      </trkpt>
      <trkpt lat="44.49856" lon="3.76647">
        <ele>1176.79</ele>
        <time>2013-06-02T15:29:26Z</time>
      </trkpt>
      <trkpt lat="44.49846" lon="3.76647">
        <ele>1178.23</ele>
        <time>2013-06-02T15:29:36Z</time>
      </trkpt>
      <trkpt lat="44.49825" lon="3.76652">
        <ele>1180.16</ele>
        <time>2013-06-02T15:29:52Z</time>
      </trkpt>
      <trkpt lat="44.49802" lon="3.7666">
        <ele>1181.12</ele>
        <time>2013-06-02T15:30:08Z</time>
      </trkpt>
      <trkpt lat="44.49775" lon="3.76661">
        <ele>1183.52</ele>
        <time>2013-06-02T15:30:26Z</time>
      </trkpt>
      <trkpt lat="44.49757" lon="3.7666">
        <ele>1185.44</ele>
        <time>2013-06-02T15:30:41Z</time>
      </trkpt>
      <trkpt lat="44.49734" lon="3.76662">
        <ele>1187.37</ele>
        <time>2013-06-02T15:30:57Z</time>
      </trkpt>
      <trkpt lat="44.49714" lon="3.76657">
        <ele>1187.85</ele>
        <time>2013-06-02T15:31:12Z</time>
      </trkpt>
      <trkpt lat="44.49696" lon="3.76644">
        <ele>1188.33</ele>
        <time>2013-06-02T15:31:30Z</time>
      </trkpt>
      <trkpt lat="44.49694" lon="3.76638">
        <ele>1189.29</ele>
        <time>2013-06-02T15:31:41Z</time>
      </trkpt>
      <trkpt lat="44.49707" lon="3.76628">
        <ele>1191.21</ele>
        <time>2013-06-02T15:31:56Z</time>
      </trkpt>
      <trkpt lat="44.49724" lon="3.76611">
        <ele>1192.65</ele>
        <time>2013-06-02T15:32:15Z</time>
      </trkpt>
      <trkpt lat="44.49738" lon="3.76596">
        <ele>1193.61</ele>
        <time>2013-06-02T15:32:30Z</time>
      </trkpt>
      <trkpt lat="44.49752" lon="3.76577">
        <ele>1192.17</ele>
        <time>2013-06-02T15:32:44Z</time>
      </trkpt>
      <trkpt lat="44.4976" lon="3.76566">
        <ele>1193.61</ele>
        <time>2013-06-02T15:32:54Z</time>
      </trkpt>
      <trkpt lat="44.49774" lon="3.76542">
        <ele>1196.5</ele>
        <time>2013-06-02T15:33:10Z</time>
      </trkpt>
      <trkpt lat="44.49781" lon="3.7652">
        <ele>1198.42</ele>
        <time>2013-06-02T15:33:24Z</time>
      </trkpt>
      <trkpt lat="44.49789" lon="3.76493">
        <ele>1199.38</ele>
        <time>2013-06-02T15:33:39Z</time>
      </trkpt>
      <trkpt lat="44.49801" lon="3.76474">
        <ele>1201.3</ele>
        <time>2013-06-02T15:33:50Z</time>
      </trkpt>
      <trkpt lat="44.49818" lon="3.76454">
        <ele>1201.79</ele>
        <time>2013-06-02T15:34:05Z</time>
      </trkpt>
      <trkpt lat="44.49835" lon="3.76433">
        <ele>1203.23</ele>
        <time>2013-06-02T15:34:22Z</time>
      </trkpt>
      <trkpt lat="44.49851" lon="3.76411">
        <ele>1203.23</ele>
        <time>2013-06-02T15:34:39Z</time>
      </trkpt>
      <trkpt lat="44.49863" lon="3.76388">
        <ele>1203.71</ele>
        <time>2013-06-02T15:34:53Z</time>
      </trkpt>
      <trkpt lat="44.49875" lon="3.76362">
        <ele>1204.19</ele>
        <time>2013-06-02T15:35:08Z</time>
      </trkpt>
      <trkpt lat="44.49882" lon="3.76334">
        <ele>1204.19</ele>
        <time>2013-06-02T15:35:23Z</time>
      </trkpt>
      <trkpt lat="44.49887" lon="3.76309">
        <ele>1205.63</ele>
        <time>2013-06-02T15:35:38Z</time>
      </trkpt>
      <trkpt lat="44.4989" lon="3.7628">
        <ele>1206.59</ele>
        <time>2013-06-02T15:35:54Z</time>
      </trkpt>
      <trkpt lat="44.49892" lon="3.76269">
        <ele>1206.59</ele>
        <time>2013-06-02T15:36:00Z</time>
      </trkpt>
      <trkpt lat="44.49894" lon="3.76263">
        <ele>1205.63</ele>
        <time>2013-06-02T15:36:05Z</time>
      </trkpt>
      <trkpt lat="44.49891" lon="3.76234">
        <ele>1205.63</ele>
        <time>2013-06-02T15:36:19Z</time>
      </trkpt>
      <trkpt lat="44.49889" lon="3.76219">
        <ele>1206.59</ele>
        <time>2013-06-02T15:36:28Z</time>
      </trkpt>
      <trkpt lat="44.49885" lon="3.76195">
        <ele>1206.59</ele>
        <time>2013-06-02T15:36:40Z</time>
      </trkpt>
      <trkpt lat="44.49883" lon="3.76167">
        <ele>1208.51</ele>
        <time>2013-06-02T15:36:57Z</time>
      </trkpt>
      <trkpt lat="44.49883" lon="3.76135">
        <ele>1209.48</ele>
        <time>2013-06-02T15:37:13Z</time>
      </trkpt>
      <trkpt lat="44.49882" lon="3.76124">
        <ele>1209.48</ele>
        <time>2013-06-02T15:37:19Z</time>
      </trkpt>
      <trkpt lat="44.49884" lon="3.76089">
        <ele>1210.92</ele>
        <time>2013-06-02T15:37:37Z</time>
      </trkpt>
      <trkpt lat="44.49884" lon="3.76059">
        <ele>1209.96</ele>
        <time>2013-06-02T15:37:55Z</time>
      </trkpt>
      <trkpt lat="44.49884" lon="3.76029">
        <ele>1209.48</ele>
        <time>2013-06-02T15:38:11Z</time>
      </trkpt>
      <trkpt lat="44.49889" lon="3.76003">
        <ele>1209.96</ele>
        <time>2013-06-02T15:38:28Z</time>
      </trkpt>
      <trkpt lat="44.49898" lon="3.75987">
        <ele>1209</ele>
        <time>2013-06-02T15:38:49Z</time>
      </trkpt>
      <trkpt lat="44.49897" lon="3.75985">
        <ele>1209.96</ele>
        <time>2013-06-02T15:38:59Z</time>
      </trkpt>
      <trkpt lat="44.49899" lon="3.75987">
        <ele>1210.44</ele>
        <time>2013-06-02T15:39:31Z</time>
      </trkpt>
      <trkpt lat="44.49896" lon="3.75985">
        <ele>1210.44</ele>
        <time>2013-06-02T15:40:06Z</time>
      </trkpt>
      <trkpt lat="44.49899" lon="3.75984">
        <ele>1209.48</ele>
        <time>2013-06-02T15:40:44Z</time>
      </trkpt>
      <trkpt lat="44.49898" lon="3.75985">
        <ele>1208.51</ele>
        <time>2013-06-02T15:41:17Z</time>
      </trkpt>
      <trkpt lat="44.49899" lon="3.75987">
        <ele>1207.07</ele>
        <time>2013-06-02T15:41:51Z</time>
      </trkpt>
      <trkpt lat="44.49901" lon="3.75967">
        <ele>1209</ele>
        <time>2013-06-02T15:42:07Z</time>
      </trkpt>
      <trkpt lat="44.49904" lon="3.75954">
        <ele>1207.07</ele>
        <time>2013-06-02T15:42:15Z</time>
      </trkpt>
      <trkpt lat="44.49919" lon="3.75923">
        <ele>1206.11</ele>
        <time>2013-06-02T15:42:34Z</time>
      </trkpt>
      <trkpt lat="44.4992" lon="3.7592">
        <ele>1207.55</ele>
        <time>2013-06-02T15:42:36Z</time>
      </trkpt>
      <trkpt lat="44.49922" lon="3.75915">
        <ele>1206.11</ele>
        <time>2013-06-02T15:42:39Z</time>
      </trkpt>
      <trkpt lat="44.49942" lon="3.75888">
        <ele>1203.23</ele>
        <time>2013-06-02T15:42:59Z</time>
      </trkpt>
      <trkpt lat="44.4995" lon="3.75879">
        <ele>1200.34</ele>
        <time>2013-06-02T15:43:07Z</time>
      </trkpt>
      <trkpt lat="44.49952" lon="3.75878">
        <ele>1200.34</ele>
        <time>2013-06-02T15:43:08Z</time>
      </trkpt>
      <trkpt lat="44.49955" lon="3.75874">
        <ele>1201.79</ele>
        <time>2013-06-02T15:43:11Z</time>
      </trkpt>
      <trkpt lat="44.49959" lon="3.75872">
        <ele>1200.34</ele>
        <time>2013-06-02T15:43:14Z</time>
      </trkpt>
      <trkpt lat="44.4999" lon="3.75866">
        <ele>1200.34</ele>
        <time>2013-06-02T15:43:36Z</time>
      </trkpt>
      <trkpt lat="44.50002" lon="3.75868">
        <ele>1198.42</ele>
        <time>2013-06-02T15:43:45Z</time>
      </trkpt>
      <trkpt lat="44.50026" lon="3.75864">
        <ele>1196.02</ele>
        <time>2013-06-02T15:44:04Z</time>
      </trkpt>
      <trkpt lat="44.50043" lon="3.75847">
        <ele>1193.61</ele>
        <time>2013-06-02T15:44:22Z</time>
      </trkpt>
      <trkpt lat="44.50055" lon="3.75822">
        <ele>1192.65</ele>
        <time>2013-06-02T15:44:39Z</time>
      </trkpt>
      <trkpt lat="44.50064" lon="3.75792">
        <ele>1190.25</ele>
        <time>2013-06-02T15:44:57Z</time>
      </trkpt>
      <trkpt lat="44.50071" lon="3.75757">
        <ele>1189.29</ele>
        <time>2013-06-02T15:45:15Z</time>
      </trkpt>
      <trkpt lat="44.50079" lon="3.75721">
        <ele>1188.33</ele>
        <time>2013-06-02T15:45:35Z</time>
      </trkpt>
      <trkpt lat="44.50079" lon="3.75709">
        <ele>1187.85</ele>
        <time>2013-06-02T15:45:43Z</time>
      </trkpt>
      <trkpt lat="44.50084" lon="3.75694">
        <ele>1187.37</ele>
        <time>2013-06-02T15:45:51Z</time>
      </trkpt>
      <trkpt lat="44.50091" lon="3.75677">
        <ele>1185.44</ele>
        <time>2013-06-02T15:46:00Z</time>
      </trkpt>
      <trkpt lat="44.5009" lon="3.75671">
        <ele>1184.48</ele>
        <time>2013-06-02T15:46:04Z</time>
      </trkpt>
      <trkpt lat="44.50071" lon="3.75648">
        <ele>1181.6</ele>
        <time>2013-06-02T15:46:23Z</time>
      </trkpt>
      <trkpt lat="44.50063" lon="3.75622">
        <ele>1178.23</ele>
        <time>2013-06-02T15:46:40Z</time>
      </trkpt>
      <trkpt lat="44.50054" lon="3.75602">
        <ele>1177.27</ele>
        <time>2013-06-02T15:46:57Z</time>
      </trkpt>
      <trkpt lat="44.50035" lon="3.75581">
        <ele>1175.83</ele>
        <time>2013-06-02T15:47:14Z</time>
      </trkpt>
      <trkpt lat="44.50016" lon="3.75564">
        <ele>1174.87</ele>
        <time>2013-06-02T15:47:31Z</time>
      </trkpt>
      <trkpt lat="44.49993" lon="3.75545">
        <ele>1173.43</ele>
        <time>2013-06-02T15:47:50Z</time>
      </trkpt>
      <trkpt lat="44.49987" lon="3.75533">
        <ele>1173.43</ele>
        <time>2013-06-02T15:47:58Z</time>
      </trkpt>
      <trkpt lat="44.4998" lon="3.75498">
        <ele>1172.95</ele>
        <time>2013-06-02T15:48:17Z</time>
      </trkpt>
      <trkpt lat="44.49979" lon="3.75465">
        <ele>1172.47</ele>
        <time>2013-06-02T15:48:34Z</time>
      </trkpt>
      <trkpt lat="44.4998" lon="3.75433">
        <ele>1171.98</ele>
        <time>2013-06-02T15:48:51Z</time>
      </trkpt>
      <trkpt lat="44.49987" lon="3.75397">
        <ele>1170.54</ele>
        <time>2013-06-02T15:49:09Z</time>
      </trkpt>
      <trkpt lat="44.49998" lon="3.75362">
        <ele>1168.14</ele>
        <time>2013-06-02T15:49:30Z</time>
      </trkpt>
      <trkpt lat="44.5" lon="3.75342">
        <ele>1167.66</ele>
        <time>2013-06-02T15:49:41Z</time>
      </trkpt>
      <trkpt lat="44.49992" lon="3.75319">
        <ele>1165.74</ele>
        <time>2013-06-02T15:49:56Z</time>
      </trkpt>
      <trkpt lat="44.4998" lon="3.75296">
        <ele>1165.74</ele>
        <time>2013-06-02T15:50:13Z</time>
      </trkpt>
      <trkpt lat="44.49961" lon="3.75272">
        <ele>1168.62</ele>
        <time>2013-06-02T15:50:32Z</time>
      </trkpt>
      <trkpt lat="44.4994" lon="3.75251">
        <ele>1165.74</ele>
        <time>2013-06-02T15:50:51Z</time>
      </trkpt>
      <trkpt lat="44.49932" lon="3.75244">
        <ele>1166.22</ele>
        <time>2013-06-02T15:50:59Z</time>
      </trkpt>
      <trkpt lat="44.49904" lon="3.75241">
        <ele>1166.7</ele>
        <time>2013-06-02T15:51:16Z</time>
      </trkpt>
      <trkpt lat="44.49877" lon="3.75245">
        <ele>1168.14</ele>
        <time>2013-06-02T15:51:36Z</time>
      </trkpt>
      <trkpt lat="44.49855" lon="3.75251">
        <ele>1170.06</ele>
        <time>2013-06-02T15:51:54Z</time>
      </trkpt>
      <trkpt lat="44.49839" lon="3.75251">
        <ele>1173.91</ele>
        <time>2013-06-02T15:52:06Z</time>
      </trkpt>
      <trkpt lat="44.49816" lon="3.75235">
        <ele>1173.43</ele>
        <time>2013-06-02T15:52:24Z</time>
      </trkpt>
      <trkpt lat="44.49806" lon="3.75223">
        <ele>1172.47</ele>
        <time>2013-06-02T15:52:34Z</time>
      </trkpt>
      <trkpt lat="44.49794" lon="3.75207">
        <ele>1171.98</ele>
        <time>2013-06-02T15:52:46Z</time>
      </trkpt>
      <trkpt lat="44.49793" lon="3.75204">
        <ele>1172.95</ele>
        <time>2013-06-02T15:52:48Z</time>
      </trkpt>
      <trkpt lat="44.49779" lon="3.75175">
        <ele>1174.39</ele>
        <time>2013-06-02T15:53:06Z</time>
      </trkpt>
      <trkpt lat="44.49766" lon="3.75157">
        <ele>1173.43</ele>
        <time>2013-06-02T15:53:20Z</time>
      </trkpt>
      <trkpt lat="44.49746" lon="3.7514">
        <ele>1171.98</ele>
        <time>2013-06-02T15:53:38Z</time>
      </trkpt>
      <trkpt lat="44.49731" lon="3.75107">
        <ele>1170.06</ele>
        <time>2013-06-02T15:53:57Z</time>
      </trkpt>
      <trkpt lat="44.49729" lon="3.75094">
        <ele>1171.5</ele>
        <time>2013-06-02T15:54:05Z</time>
      </trkpt>
      <trkpt lat="44.49726" lon="3.75062">
        <ele>1169.1</ele>
        <time>2013-06-02T15:54:22Z</time>
      </trkpt>
      <trkpt lat="44.49719" lon="3.75041">
        <ele>1166.22</ele>
        <time>2013-06-02T15:54:35Z</time>
      </trkpt>
      <trkpt lat="44.49706" lon="3.75018">
        <ele>1164.77</ele>
        <time>2013-06-02T15:54:51Z</time>
      </trkpt>
      <trkpt lat="44.49686" lon="3.74991">
        <ele>1161.89</ele>
        <time>2013-06-02T15:55:10Z</time>
      </trkpt>
      <trkpt lat="44.49665" lon="3.74967">
        <ele>1159.49</ele>
        <time>2013-06-02T15:55:29Z</time>
      </trkpt>
      <trkpt lat="44.49647" lon="3.74946">
        <ele>1158.05</ele>
        <time>2013-06-02T15:55:46Z</time>
      </trkpt>
      <trkpt lat="44.49624" lon="3.74928">
        <ele>1156.6</ele>
        <time>2013-06-02T15:56:04Z</time>
      </trkpt>
      <trkpt lat="44.49599" lon="3.74901">
        <ele>1154.2</ele>
        <time>2013-06-02T15:56:27Z</time>
      </trkpt>
      <trkpt lat="44.49578" lon="3.74882">
        <ele>1152.76</ele>
        <time>2013-06-02T15:56:45Z</time>
      </trkpt>
      <trkpt lat="44.49559" lon="3.74857">
        <ele>1151.8</ele>
        <time>2013-06-02T15:57:04Z</time>
      </trkpt>
      <trkpt lat="44.49546" lon="3.74837">
        <ele>1152.28</ele>
        <time>2013-06-02T15:57:18Z</time>
      </trkpt>
      <trkpt lat="44.49544" lon="3.74835">
        <ele>1150.35</ele>
        <time>2013-06-02T15:57:20Z</time>
      </trkpt>
      <trkpt lat="44.49526" lon="3.74811">
        <ele>1151.8</ele>
        <time>2013-06-02T15:57:38Z</time>
      </trkpt>
      <trkpt lat="44.49523" lon="3.74807">
        <ele>1149.39</ele>
        <time>2013-06-02T15:57:41Z</time>
      </trkpt>
      <trkpt lat="44.49516" lon="3.74793">
        <ele>1149.87</ele>
        <time>2013-06-02T15:57:50Z</time>
      </trkpt>
      <trkpt lat="44.49515" lon="3.74791">
        <ele>1149.87</ele>
        <time>2013-06-02T15:57:51Z</time>
      </trkpt>
      <trkpt lat="44.49511" lon="3.74783">
        <ele>1147.47</ele>
        <time>2013-06-02T15:57:56Z</time>
      </trkpt>
      <trkpt lat="44.49494" lon="3.74756">
        <ele>1144.11</ele>
        <time>2013-06-02T15:58:15Z</time>
      </trkpt>
      <trkpt lat="44.49493" lon="3.74755">
        <ele>1144.11</ele>
        <time>2013-06-02T15:58:16Z</time>
      </trkpt>
      <trkpt lat="44.49489" lon="3.74751">
        <ele>1144.11</ele>
        <time>2013-06-02T15:58:19Z</time>
      </trkpt>
      <trkpt lat="44.49483" lon="3.74741">
        <ele>1144.59</ele>
        <time>2013-06-02T15:58:26Z</time>
      </trkpt>
      <trkpt lat="44.49479" lon="3.74733">
        <ele>1144.59</ele>
        <time>2013-06-02T15:58:31Z</time>
      </trkpt>
      <trkpt lat="44.49479" lon="3.7473">
        <ele>1144.59</ele>
        <time>2013-06-02T15:58:33Z</time>
      </trkpt>
      <trkpt lat="44.49462" lon="3.74711">
        <ele>1143.63</ele>
        <time>2013-06-02T15:58:49Z</time>
      </trkpt>
      <trkpt lat="44.49453" lon="3.74704">
        <ele>1143.14</ele>
        <time>2013-06-02T15:58:56Z</time>
      </trkpt>
      <trkpt lat="44.49446" lon="3.74701">
        <ele>1142.18</ele>
        <time>2013-06-02T15:59:02Z</time>
      </trkpt>
      <trkpt lat="44.49427" lon="3.74683">
        <ele>1139.3</ele>
        <time>2013-06-02T15:59:19Z</time>
      </trkpt>
      <trkpt lat="44.49417" lon="3.74659">
        <ele>1136.9</ele>
        <time>2013-06-02T15:59:35Z</time>
      </trkpt>
      <trkpt lat="44.49406" lon="3.74624">
        <ele>1135.45</ele>
        <time>2013-06-02T15:59:54Z</time>
      </trkpt>
      <trkpt lat="44.494" lon="3.74599">
        <ele>1134.01</ele>
        <time>2013-06-02T16:00:07Z</time>
      </trkpt>
      <trkpt lat="44.49393" lon="3.74582">
        <ele>1132.57</ele>
        <time>2013-06-02T16:00:18Z</time>
      </trkpt>
      <trkpt lat="44.49386" lon="3.74561">
        <ele>1131.13</ele>
        <time>2013-06-02T16:00:31Z</time>
      </trkpt>
      <trkpt lat="44.4938" lon="3.74552">
        <ele>1130.17</ele>
        <time>2013-06-02T16:00:38Z</time>
      </trkpt>
      <trkpt lat="44.49371" lon="3.74527">
        <ele>1127.76</ele>
        <time>2013-06-02T16:00:54Z</time>
      </trkpt>
      <trkpt lat="44.4937" lon="3.74524">
        <ele>1127.28</ele>
        <time>2013-06-02T16:00:56Z</time>
      </trkpt>
      <trkpt lat="44.49361" lon="3.74511">
        <ele>1126.8</ele>
        <time>2013-06-02T16:01:05Z</time>
      </trkpt>
      <trkpt lat="44.49354" lon="3.74499">
        <ele>1124.88</ele>
        <time>2013-06-02T16:01:13Z</time>
      </trkpt>
      <trkpt lat="44.49342" lon="3.74469">
        <ele>1122.48</ele>
        <time>2013-06-02T16:01:31Z</time>
      </trkpt>
      <trkpt lat="44.49341" lon="3.74469">
        <ele>1122.48</ele>
        <time>2013-06-02T16:01:32Z</time>
      </trkpt>
      <trkpt lat="44.4933" lon="3.74453">
        <ele>1122</ele>
        <time>2013-06-02T16:01:43Z</time>
      </trkpt>
      <trkpt lat="44.49327" lon="3.74444">
        <ele>1121.52</ele>
        <time>2013-06-02T16:01:49Z</time>
      </trkpt>
      <trkpt lat="44.49327" lon="3.7444">
        <ele>1121.52</ele>
        <time>2013-06-02T16:01:51Z</time>
      </trkpt>
      <trkpt lat="44.49319" lon="3.74416">
        <ele>1120.07</ele>
        <time>2013-06-02T16:02:05Z</time>
      </trkpt>
      <trkpt lat="44.49315" lon="3.74407">
        <ele>1119.59</ele>
        <time>2013-06-02T16:02:11Z</time>
      </trkpt>
      <trkpt lat="44.49314" lon="3.74396">
        <ele>1119.11</ele>
        <time>2013-06-02T16:02:16Z</time>
      </trkpt>
      <trkpt lat="44.49313" lon="3.74392">
        <ele>1119.11</ele>
        <time>2013-06-02T16:02:18Z</time>
      </trkpt>
      <trkpt lat="44.4931" lon="3.74386">
        <ele>1118.63</ele>
        <time>2013-06-02T16:02:22Z</time>
      </trkpt>
      <trkpt lat="44.49309" lon="3.74383">
        <ele>1118.63</ele>
        <time>2013-06-02T16:02:24Z</time>
      </trkpt>
      <trkpt lat="44.493" lon="3.74371">
        <ele>1118.15</ele>
        <time>2013-06-02T16:02:33Z</time>
      </trkpt>
      <trkpt lat="44.49291" lon="3.74358">
        <ele>1117.19</ele>
        <time>2013-06-02T16:02:42Z</time>
      </trkpt>
      <trkpt lat="44.49273" lon="3.74341">
        <ele>1115.75</ele>
        <time>2013-06-02T16:02:57Z</time>
      </trkpt>
      <trkpt lat="44.49255" lon="3.74318">
        <ele>1114.79</ele>
        <time>2013-06-02T16:03:14Z</time>
      </trkpt>
      <trkpt lat="44.4924" lon="3.74299">
        <ele>1113.34</ele>
        <time>2013-06-02T16:03:29Z</time>
      </trkpt>
      <trkpt lat="44.49239" lon="3.74297">
        <ele>1113.34</ele>
        <time>2013-06-02T16:03:31Z</time>
      </trkpt>
      <trkpt lat="44.49221" lon="3.74267">
        <ele>1111.9</ele>
        <time>2013-06-02T16:03:51Z</time>
      </trkpt>
      <trkpt lat="44.4921" lon="3.74249">
        <ele>1109.98</ele>
        <time>2013-06-02T16:04:03Z</time>
      </trkpt>
      <trkpt lat="44.492" lon="3.74231">
        <ele>1107.58</ele>
        <time>2013-06-02T16:04:17Z</time>
      </trkpt>
      <trkpt lat="44.4919" lon="3.74217">
        <ele>1105.17</ele>
        <time>2013-06-02T16:04:29Z</time>
      </trkpt>
      <trkpt lat="44.49188" lon="3.74212">
        <ele>1104.69</ele>
        <time>2013-06-02T16:04:32Z</time>
      </trkpt>
      <trkpt lat="44.49179" lon="3.74199">
        <ele>1101.81</ele>
        <time>2013-06-02T16:04:44Z</time>
      </trkpt>
      <trkpt lat="44.49176" lon="3.74195">
        <ele>1100.37</ele>
        <time>2013-06-02T16:04:48Z</time>
      </trkpt>
      <trkpt lat="44.49168" lon="3.74177">
        <ele>1096.52</ele>
        <time>2013-06-02T16:05:01Z</time>
      </trkpt>
      <trkpt lat="44.49162" lon="3.74145">
        <ele>1094.6</ele>
        <time>2013-06-02T16:05:18Z</time>
      </trkpt>
      <trkpt lat="44.49156" lon="3.74133">
        <ele>1093.16</ele>
        <time>2013-06-02T16:05:26Z</time>
      </trkpt>
      <trkpt lat="44.49152" lon="3.74137">
        <ele>1092.68</ele>
        <time>2013-06-02T16:05:31Z</time>
      </trkpt>
      <trkpt lat="44.4915" lon="3.74146">
        <ele>1091.23</ele>
        <time>2013-06-02T16:05:37Z</time>
      </trkpt>
      <trkpt lat="44.49147" lon="3.74151">
        <ele>1090.27</ele>
        <time>2013-06-02T16:05:41Z</time>
      </trkpt>
      <trkpt lat="44.49145" lon="3.74165">
        <ele>1089.31</ele>
        <time>2013-06-02T16:05:49Z</time>
      </trkpt>
      <trkpt lat="44.49144" lon="3.7418">
        <ele>1088.35</ele>
        <time>2013-06-02T16:05:59Z</time>
      </trkpt>
      <trkpt lat="44.49145" lon="3.74187">
        <ele>1088.35</ele>
        <time>2013-06-02T16:06:03Z</time>
      </trkpt>
      <trkpt lat="44.49144" lon="3.74205">
        <ele>1087.39</ele>
        <time>2013-06-02T16:06:17Z</time>
      </trkpt>
      <trkpt lat="44.49147" lon="3.74221">
        <ele>1085.47</ele>
        <time>2013-06-02T16:06:28Z</time>
      </trkpt>
      <trkpt lat="44.49142" lon="3.74226">
        <ele>1083.54</ele>
        <time>2013-06-02T16:06:37Z</time>
      </trkpt>
      <trkpt lat="44.49139" lon="3.74217">
        <ele>1082.1</ele>
        <time>2013-06-02T16:06:46Z</time>
      </trkpt>
      <trkpt lat="44.49136" lon="3.74202">
        <ele>1080.66</ele>
        <time>2013-06-02T16:06:58Z</time>
      </trkpt>
      <trkpt lat="44.49135" lon="3.74201">
        <ele>1080.66</ele>
        <time>2013-06-02T16:06:59Z</time>
      </trkpt>
      <trkpt lat="44.49134" lon="3.74198">
        <ele>1080.18</ele>
        <time>2013-06-02T16:07:01Z</time>
      </trkpt>
      <trkpt lat="44.4913" lon="3.74194">
        <ele>1078.26</ele>
        <time>2013-06-02T16:07:09Z</time>
      </trkpt>
      <trkpt lat="44.49129" lon="3.74196">
        <ele>1079.7</ele>
        <time>2013-06-02T16:07:11Z</time>
      </trkpt>
      <trkpt lat="44.49126" lon="3.74204">
        <ele>1079.7</ele>
        <time>2013-06-02T16:07:22Z</time>
      </trkpt>
      <trkpt lat="44.49125" lon="3.74216">
        <ele>1079.7</ele>
        <time>2013-06-02T16:07:31Z</time>
      </trkpt>
      <trkpt lat="44.49128" lon="3.74226">
        <ele>1078.74</ele>
        <time>2013-06-02T16:07:39Z</time>
      </trkpt>
      <trkpt lat="44.49126" lon="3.74239">
        <ele>1076.81</ele>
        <time>2013-06-02T16:07:51Z</time>
      </trkpt>
      <trkpt lat="44.4911" lon="3.74266">
        <ele>1074.89</ele>
        <time>2013-06-02T16:08:08Z</time>
      </trkpt>
      <trkpt lat="44.49104" lon="3.74296">
        <ele>1075.37</ele>
        <time>2013-06-02T16:08:23Z</time>
      </trkpt>
      <trkpt lat="44.49094" lon="3.74322">
        <ele>1075.37</ele>
        <time>2013-06-02T16:08:39Z</time>
      </trkpt>
      <trkpt lat="44.49086" lon="3.74342">
        <ele>1075.37</ele>
        <time>2013-06-02T16:08:52Z</time>
      </trkpt>
      <trkpt lat="44.49086" lon="3.74343">
        <ele>1075.37</ele>
        <time>2013-06-02T16:08:54Z</time>
      </trkpt>
      <trkpt lat="44.49088" lon="3.74343">
        <ele>1075.37</ele>
        <time>2013-06-02T16:08:56Z</time>
      </trkpt>
      <trkpt lat="44.49098" lon="3.74354">
        <ele>1075.85</ele>
        <time>2013-06-02T16:09:11Z</time>
      </trkpt>
      <trkpt lat="44.49097" lon="3.74356">
        <ele>1075.85</ele>
        <time>2013-06-02T16:09:13Z</time>
      </trkpt>
      <trkpt lat="44.49087" lon="3.74377">
        <ele>1075.85</ele>
        <time>2013-06-02T16:09:29Z</time>
      </trkpt>
      <trkpt lat="44.49092" lon="3.74399">
        <ele>1075.85</ele>
        <time>2013-06-02T16:09:46Z</time>
      </trkpt>
      <trkpt lat="44.49099" lon="3.74399">
        <ele>1076.33</ele>
        <time>2013-06-02T16:10:02Z</time>
      </trkpt>
      <trkpt lat="44.49101" lon="3.74392">
        <ele>1076.33</ele>
        <time>2013-06-02T16:10:17Z</time>
      </trkpt>
      <trkpt lat="44.49097" lon="3.74388">
        <ele>1076.33</ele>
        <time>2013-06-02T16:10:35Z</time>
      </trkpt>
      <trkpt lat="44.4909" lon="3.74381">
        <ele>1076.33</ele>
        <time>2013-06-02T16:10:41Z</time>
      </trkpt>
      <trkpt lat="44.49083" lon="3.74371">
        <ele>1076.33</ele>
        <time>2013-06-02T16:10:56Z</time>
      </trkpt>
      <trkpt lat="44.49081" lon="3.74374">
        <ele>1076.33</ele>
        <time>2013-06-02T16:11:04Z</time>
      </trkpt>
      <trkpt lat="44.49073" lon="3.74389">
        <ele>1075.85</ele>
        <time>2013-06-02T16:11:21Z</time>
      </trkpt>
      <trkpt lat="44.4907" lon="3.744">
        <ele>1075.85</ele>
        <time>2013-06-02T16:11:37Z</time>
      </trkpt>
      <trkpt lat="44.49067" lon="3.74402">
        <ele>1075.37</ele>
        <time>2013-06-02T16:11:54Z</time>
      </trkpt>
      <trkpt lat="44.4907" lon="3.744">
        <ele>1075.85</ele>
        <time>2013-06-02T16:12:07Z</time>
      </trkpt>
      <trkpt lat="44.49066" lon="3.744">
        <ele>1075.37</ele>
        <time>2013-06-02T16:12:21Z</time>
      </trkpt>
      <trkpt lat="44.4907" lon="3.74396">
        <ele>1075.37</ele>
        <time>2013-06-02T16:12:41Z</time>
      </trkpt>
      <trkpt lat="44.49069" lon="3.74397">
        <ele>1075.85</ele>
        <time>2013-06-02T16:12:46Z</time>
      </trkpt>
      <trkpt lat="44.49068" lon="3.74398">
        <ele>1076.33</ele>
        <time>2013-06-02T16:13:00Z</time>
      </trkpt>
      <trkpt lat="44.49069" lon="3.74399">
        <ele>1075.37</ele>
        <time>2013-06-02T16:13:23Z</time>
      </trkpt>
    </trkseg>
  </trk>
</gpx>